<?xml version='1.0' encoding='UTF-8'?><gpx version="1.1" creator="JPX - https://github.com/jenetics/jpx" xmlns="http://www.topografix.com/GPX/1/1"><trk><trkseg><trkpt lat="43.295217865725355" lon="10.525473864859519"><ele>11.0</ele><time>2026-04-04T04:46:53.383Z</time></trkpt><trkpt lat="43.29517772627614" lon="10.525407224049061"><ele>11.0</ele><time>2026-04-04T04:46:56.383Z</time></trkpt><trkpt lat="43.295143950503224" lon="10.525329319299038"><ele>11.0</ele><time>2026-04-04T04:47:00.383Z</time></trkpt><trkpt lat="43.2950801912519" lon="10.525276266877595"><ele>11.0</ele><time>2026-04-04T04:47:07.002Z</time></trkpt><trkpt lat="43.295154038546286" lon="10.525311009896697"><ele>11.0</ele><time>2026-04-04T04:47:11.002Z</time></trkpt><trkpt lat="43.29524537256934" lon="10.525450675494602"><ele>11.0</ele><time>2026-04-04T04:47:13.002Z</time></trkpt><trkpt lat="43.29531891033841" lon="10.525528593097699"><ele>11.0</ele><time>2026-04-04T04:47:14.002Z</time></trkpt><trkpt lat="43.29539778754367" lon="10.52566246001316"><ele>11.0</ele><time>2026-04-04T04:47:16.002Z</time></trkpt><trkpt lat="43.295435718190255" lon="10.525742936238286"><ele>11.0</ele><time>2026-04-04T04:47:17.002Z</time></trkpt><trkpt lat="43.29546471191967" lon="10.52582581503267"><ele>11.0</ele><time>2026-04-04T04:47:18.002Z</time></trkpt><trkpt lat="43.29549574481378" lon="10.525913003927714"><ele>11.0</ele><time>2026-04-04T04:47:19.002Z</time></trkpt><trkpt lat="43.29553587443767" lon="10.526013021884573"><ele>11.0</ele><time>2026-04-04T04:47:20.002Z</time></trkpt><trkpt lat="43.29562506440604" lon="10.526102746156655"><ele>11.0</ele><time>2026-04-04T04:47:22.002Z</time></trkpt><trkpt lat="43.29568264538175" lon="10.526236539492116"><ele>11.0</ele><time>2026-04-04T04:47:26.002Z</time></trkpt><trkpt lat="43.29529840747707" lon="10.525459439362285"><ele>12.0</ele><time>2026-04-04T04:47:33.002Z</time></trkpt><trkpt lat="43.29624397810388" lon="10.528058667405293"><ele>12.0</ele><time>2026-04-04T04:47:45.002Z</time></trkpt><trkpt lat="43.296280464030474" lon="10.528195149471623"><ele>12.0</ele><time>2026-04-04T04:47:47.002Z</time></trkpt><trkpt lat="43.29631767939998" lon="10.52832698638442"><ele>12.0</ele><time>2026-04-04T04:47:49.002Z</time></trkpt><trkpt lat="43.29635621760533" lon="10.528473142456628"><ele>12.0</ele><time>2026-04-04T04:47:51.002Z</time></trkpt><trkpt lat="43.29639846010853" lon="10.528623287180354"><ele>12.0</ele><time>2026-04-04T04:47:53.002Z</time></trkpt><trkpt lat="43.296438482187625" lon="10.52879268749909"><ele>11.857142857142856</ele><time>2026-04-04T04:47:55.002Z</time></trkpt><trkpt lat="43.29646193798132" lon="10.528878185118378"><ele>11.714285714285714</ele><time>2026-04-04T04:47:56.002Z</time></trkpt><trkpt lat="43.29648733061875" lon="10.52896333761067"><ele>11.571428571428571</ele><time>2026-04-04T04:47:57.002Z</time></trkpt><trkpt lat="43.29651653935332" lon="10.529046786598775"><ele>11.428571428571427</ele><time>2026-04-04T04:47:58.002Z</time></trkpt><trkpt lat="43.29654217249607" lon="10.529137307304017"><ele>11.285714285714285</ele><time>2026-04-04T04:47:59.002Z</time></trkpt><trkpt lat="43.29656743141166" lon="10.529229730882456"><ele>11.142857142857142</ele><time>2026-04-04T04:48:00.002Z</time></trkpt><trkpt lat="43.29659480432658" lon="10.529321270823138"><ele>11.0</ele><time>2026-04-04T04:48:01.002Z</time></trkpt><trkpt lat="43.29661977521764" lon="10.529414391780465"><ele>11.0</ele><time>2026-04-04T04:48:02.002Z</time></trkpt><trkpt lat="43.29664450563394" lon="10.529507110308005"><ele>11.0</ele><time>2026-04-04T04:48:03.002Z</time></trkpt><trkpt lat="43.29667380478739" lon="10.529600503472293"><ele>11.0</ele><time>2026-04-04T04:48:04.001Z</time></trkpt><trkpt lat="43.29669793815932" lon="10.529685503751141"><ele>11.0</ele><time>2026-04-04T04:48:05.001Z</time></trkpt><trkpt lat="43.29671778262377" lon="10.529773814527251"><ele>11.0</ele><time>2026-04-04T04:48:06.001Z</time></trkpt><trkpt lat="43.29673967062532" lon="10.529858596170923"><ele>11.0</ele><time>2026-04-04T04:48:07.001Z</time></trkpt><trkpt lat="43.29676625006385" lon="10.529944175143724"><ele>11.0</ele><time>2026-04-04T04:48:08.001Z</time></trkpt><trkpt lat="43.29679099812352" lon="10.530029406886204"><ele>10.833333333333332</ele><time>2026-04-04T04:48:09.001Z</time></trkpt><trkpt lat="43.29681779906553" lon="10.530114080063901"><ele>10.666666666666666</ele><time>2026-04-04T04:48:10.001Z</time></trkpt><trkpt lat="43.296844393625136" lon="10.530194473738568"><ele>10.5</ele><time>2026-04-04T04:48:11.001Z</time></trkpt><trkpt lat="43.29686482835379" lon="10.530277193794745"><ele>10.333333333333334</ele><time>2026-04-04T04:48:12.001Z</time></trkpt><trkpt lat="43.29691182265237" lon="10.53043566167166"><ele>10.166666666666668</ele><time>2026-04-04T04:48:14.001Z</time></trkpt><trkpt lat="43.29693259743877" lon="10.530521100299199"><ele>10.0</ele><time>2026-04-04T04:48:15.001Z</time></trkpt><trkpt lat="43.29697808824409" lon="10.530675307528934"><ele>10.0</ele><time>2026-04-04T04:48:17.001Z</time></trkpt><trkpt lat="43.29702307837479" lon="10.530819904636225"><ele>10.0</ele><time>2026-04-04T04:48:19.001Z</time></trkpt><trkpt lat="43.297063435776394" lon="10.530962236269643"><ele>10.0</ele><time>2026-04-04T04:48:21.001Z</time></trkpt><trkpt lat="43.29710613270603" lon="10.531100403560258"><ele>10.0</ele><time>2026-04-04T04:48:23.001Z</time></trkpt><trkpt lat="43.29714458472851" lon="10.531236776686722"><ele>10.0</ele><time>2026-04-04T04:48:25.001Z</time></trkpt><trkpt lat="43.29718380483012" lon="10.531366767768596"><ele>10.0</ele><time>2026-04-04T04:48:27.001Z</time></trkpt><trkpt lat="43.29721464961415" lon="10.531496094242605"><ele>10.0</ele><time>2026-04-04T04:48:29.001Z</time></trkpt><trkpt lat="43.29725244766368" lon="10.531625992418839"><ele>10.0</ele><time>2026-04-04T04:48:31.001Z</time></trkpt><trkpt lat="43.29728844591184" lon="10.531755941094735"><ele>10.0</ele><time>2026-04-04T04:48:33.001Z</time></trkpt><trkpt lat="43.29731855365581" lon="10.53187424667234"><ele>10.0</ele><time>2026-04-04T04:48:35.001Z</time></trkpt><trkpt lat="43.297346021319065" lon="10.53200005099868"><ele>10.8</ele><time>2026-04-04T04:48:37.001Z</time></trkpt><trkpt lat="43.29738024113964" lon="10.532131812867986"><ele>11.6</ele><time>2026-04-04T04:48:39.001Z</time></trkpt><trkpt lat="43.29742056884613" lon="10.532255452209634"><ele>12.399999999999999</ele><time>2026-04-04T04:48:41.001Z</time></trkpt><trkpt lat="43.297459122762646" lon="10.532377156384516"><ele>13.2</ele><time>2026-04-04T04:48:43.001Z</time></trkpt><trkpt lat="43.29749336646734" lon="10.532504345079968"><ele>14.0</ele><time>2026-04-04T04:48:45.001Z</time></trkpt><trkpt lat="43.2975241965696" lon="10.532630101255727"><ele>14.0</ele><time>2026-04-04T04:48:47.001Z</time></trkpt><trkpt lat="43.29756236859324" lon="10.532755216866247"><ele>13.999999999999998</ele><time>2026-04-04T04:48:49.003Z</time></trkpt><trkpt lat="43.29759969430207" lon="10.532880646095744"><ele>13.999999999999998</ele><time>2026-04-04T04:48:51.003Z</time></trkpt><trkpt lat="43.297636492001374" lon="10.533007193346181"><ele>14.0</ele><time>2026-04-04T04:48:53.002Z</time></trkpt><trkpt lat="43.29767662518777" lon="10.533134771157174"><ele>14.0</ele><time>2026-04-04T04:48:55.002Z</time></trkpt><trkpt lat="43.297713274261156" lon="10.533263714180991"><ele>13.799999999999999</ele><time>2026-04-04T04:48:57.002Z</time></trkpt><trkpt lat="43.29774879040532" lon="10.533386576056149"><ele>13.599999999999998</ele><time>2026-04-04T04:48:59.002Z</time></trkpt><trkpt lat="43.29778688717475" lon="10.533517310054114"><ele>13.4</ele><time>2026-04-04T04:49:01.001Z</time></trkpt><trkpt lat="43.29781700452499" lon="10.533635591391466"><ele>13.2</ele><time>2026-04-04T04:49:03.001Z</time></trkpt><trkpt lat="43.29782439719939" lon="10.533755980012504"><ele>13.0</ele><time>2026-04-04T04:49:05.001Z</time></trkpt><trkpt lat="43.297799133132216" lon="10.53386621531929"><ele>13.4</ele><time>2026-04-04T04:49:07.001Z</time></trkpt><trkpt lat="43.29772649827567" lon="10.533950174194162"><ele>13.8</ele><time>2026-04-04T04:49:09.001Z</time></trkpt><trkpt lat="43.2976153523837" lon="10.533991674299287"><ele>14.2</ele><time>2026-04-04T04:49:11.001Z</time></trkpt><trkpt lat="43.29755363462913" lon="10.534022273423295"><ele>14.6</ele><time>2026-04-04T04:49:12.001Z</time></trkpt><trkpt lat="43.297448233453984" lon="10.534092100033783"><ele>15.0</ele><time>2026-04-04T04:49:14.001Z</time></trkpt><trkpt lat="43.29738581988194" lon="10.534114328564694"><ele>15.0</ele><time>2026-04-04T04:49:15Z</time></trkpt><trkpt lat="43.29732190372414" lon="10.534143418959305"><ele>15.0</ele><time>2026-04-04T04:49:16Z</time></trkpt><trkpt lat="43.29725792792276" lon="10.534178353841329"><ele>15.0</ele><time>2026-04-04T04:49:17Z</time></trkpt><trkpt lat="43.29719183826687" lon="10.534212407488276"><ele>15.0</ele><time>2026-04-04T04:49:18Z</time></trkpt><trkpt lat="43.29712618351266" lon="10.534249816067257"><ele>15.0</ele><time>2026-04-04T04:49:19Z</time></trkpt><trkpt lat="43.29705693261988" lon="10.534289045423515"><ele>15.0</ele><time>2026-04-04T04:49:20Z</time></trkpt><trkpt lat="43.296981376435106" lon="10.53432851764432"><ele>15.0</ele><time>2026-04-04T04:49:21Z</time></trkpt><trkpt lat="43.29690512097444" lon="10.534367026002348"><ele>14.666666666666666</ele><time>2026-04-04T04:49:22Z</time></trkpt><trkpt lat="43.29682076475341" lon="10.534402597704586"><ele>14.333333333333332</ele><time>2026-04-04T04:49:23Z</time></trkpt><trkpt lat="43.29673803809707" lon="10.534451177598742"><ele>14.0</ele><time>2026-04-04T04:49:24Z</time></trkpt><trkpt lat="43.29666109430724" lon="10.534491247709356"><ele>13.666666666666666</ele><time>2026-04-04T04:49:25Z</time></trkpt><trkpt lat="43.29659062892978" lon="10.534530117926982"><ele>13.333333333333332</ele><time>2026-04-04T04:49:26Z</time></trkpt><trkpt lat="43.296515677106676" lon="10.53458055583922"><ele>13.0</ele><time>2026-04-04T04:49:27Z</time></trkpt><trkpt lat="43.29644509090243" lon="10.534618538520073"><ele>13.166666666666666</ele><time>2026-04-04T04:49:28Z</time></trkpt><trkpt lat="43.29637424427844" lon="10.534656879282572"><ele>13.333333333333332</ele><time>2026-04-04T04:49:29Z</time></trkpt><trkpt lat="43.296305590268304" lon="10.534689276575667"><ele>13.5</ele><time>2026-04-04T04:49:30Z</time></trkpt><trkpt lat="43.296244429548125" lon="10.534716098989918"><ele>13.666666666666668</ele><time>2026-04-04T04:49:31Z</time></trkpt><trkpt lat="43.29618545269835" lon="10.534746716964545"><ele>13.833333333333334</ele><time>2026-04-04T04:49:32Z</time></trkpt><trkpt lat="43.2960842077463" lon="10.534801982368839"><ele>14.0</ele><time>2026-04-04T04:49:34Z</time></trkpt><trkpt lat="43.29599801232447" lon="10.53484357966922"><ele>14.0</ele><time>2026-04-04T04:49:36Z</time></trkpt><trkpt lat="43.29593313546633" lon="10.534888032436562"><ele>13.999999999999998</ele><time>2026-04-04T04:49:38Z</time></trkpt><trkpt lat="43.29585058026677" lon="10.534931295829214"><ele>13.999999999999998</ele><time>2026-04-04T04:49:40Z</time></trkpt><trkpt lat="43.29576635381309" lon="10.534971252853783"><ele>14.0</ele><time>2026-04-04T04:49:42Z</time></trkpt><trkpt lat="43.29567510979173" lon="10.535017862773175"><ele>14.0</ele><time>2026-04-04T04:49:44Z</time></trkpt><trkpt lat="43.29557669204187" lon="10.535072465529158"><ele>13.75</ele><time>2026-04-04T04:49:46Z</time></trkpt><trkpt lat="43.29541221993126" lon="10.535151737349466"><ele>13.5</ele><time>2026-04-04T04:49:48.999Z</time></trkpt><trkpt lat="43.295310549082615" lon="10.535210924955084"><ele>13.25</ele><time>2026-04-04T04:49:50.999Z</time></trkpt><trkpt lat="43.29519998411388" lon="10.535264156145164"><ele>13.0</ele><time>2026-04-04T04:49:52.999Z</time></trkpt><trkpt lat="43.29508308920755" lon="10.535321483658555"><ele>13.0</ele><time>2026-04-04T04:49:54.999Z</time></trkpt><trkpt lat="43.294971455995075" lon="10.535383466440662"><ele>13.0</ele><time>2026-04-04T04:49:56.999Z</time></trkpt><trkpt lat="43.29485921968107" lon="10.535449029976506"><ele>13.0</ele><time>2026-04-04T04:49:58.999Z</time></trkpt><trkpt lat="43.29474370369079" lon="10.535504104851963"><ele>13.0</ele><time>2026-04-04T04:50:00.999Z</time></trkpt><trkpt lat="43.29463031878826" lon="10.535564984174192"><ele>13.166666666666666</ele><time>2026-04-04T04:50:02.999Z</time></trkpt><trkpt lat="43.29451565341155" lon="10.535623378113872"><ele>13.333333333333332</ele><time>2026-04-04T04:50:04.999Z</time></trkpt><trkpt lat="43.2944110605947" lon="10.535683889062845"><ele>13.5</ele><time>2026-04-04T04:50:06.999Z</time></trkpt><trkpt lat="43.29434935671696" lon="10.535717738945396"><ele>13.666666666666668</ele><time>2026-04-04T04:50:07.999Z</time></trkpt><trkpt lat="43.2942878889856" lon="10.535752631912725"><ele>13.833333333333334</ele><time>2026-04-04T04:50:08.999Z</time></trkpt><trkpt lat="43.294224663121575" lon="10.535785506613822"><ele>14.0</ele><time>2026-04-04T04:50:09.999Z</time></trkpt><trkpt lat="43.2941601183485" lon="10.535821841849774"><ele>14.0</ele><time>2026-04-04T04:50:10.999Z</time></trkpt><trkpt lat="43.294094342325614" lon="10.535858645556576"><ele>14.0</ele><time>2026-04-04T04:50:11.999Z</time></trkpt><trkpt lat="43.29403187041278" lon="10.535892580654789"><ele>14.0</ele><time>2026-04-04T04:50:12.999Z</time></trkpt><trkpt lat="43.293966909303535" lon="10.535927358611252"><ele>14.0</ele><time>2026-04-04T04:50:13.999Z</time></trkpt><trkpt lat="43.29389963117882" lon="10.535938183268115"><ele>14.0</ele><time>2026-04-04T04:50:14.999Z</time></trkpt><trkpt lat="43.29383338591658" lon="10.53597117545012"><ele>14.0</ele><time>2026-04-04T04:50:15.999Z</time></trkpt><trkpt lat="43.293772564234814" lon="10.536022889708985"><ele>14.0</ele><time>2026-04-04T04:50:16.999Z</time></trkpt><trkpt lat="43.293708849337555" lon="10.536056149529989"><ele>14.285714285714285</ele><time>2026-04-04T04:50:17.999Z</time></trkpt><trkpt lat="43.29364825636499" lon="10.536088207096846"><ele>14.571428571428571</ele><time>2026-04-04T04:50:18.999Z</time></trkpt><trkpt lat="43.29358773510805" lon="10.536119857705565"><ele>14.857142857142858</ele><time>2026-04-04T04:50:19.999Z</time></trkpt><trkpt lat="43.293469074833396" lon="10.536176666229096"><ele>15.142857142857142</ele><time>2026-04-04T04:50:21.999Z</time></trkpt><trkpt lat="43.29340607406993" lon="10.53619049383931"><ele>15.428571428571427</ele><time>2026-04-04T04:50:22.999Z</time></trkpt><trkpt lat="43.29335357049234" lon="10.536242071252095"><ele>15.714285714285714</ele><time>2026-04-04T04:50:23.999Z</time></trkpt><trkpt lat="43.29329351129198" lon="10.536268830625174"><ele>16.0</ele><time>2026-04-04T04:50:24.999Z</time></trkpt><trkpt lat="43.2932330432682" lon="10.536293723613666"><ele>15.999999999999998</ele><time>2026-04-04T04:50:25.999Z</time></trkpt><trkpt lat="43.29311774645313" lon="10.536363529463905"><ele>16.0</ele><time>2026-04-04T04:50:27.999Z</time></trkpt><trkpt lat="43.293057868988456" lon="10.536393697596743"><ele>16.0</ele><time>2026-04-04T04:50:28.999Z</time></trkpt><trkpt lat="43.29299681364221" lon="10.53642498151685"><ele>16.0</ele><time>2026-04-04T04:50:29.999Z</time></trkpt><trkpt lat="43.29288107116433" lon="10.536468275794196"><ele>15.999999999999998</ele><time>2026-04-04T04:50:31.999Z</time></trkpt><trkpt lat="43.29281604574326" lon="10.536502650454233"><ele>16.0</ele><time>2026-04-04T04:50:32.999Z</time></trkpt><trkpt lat="43.29276051068941" lon="10.536555331844825"><ele>16.5</ele><time>2026-04-04T04:50:33.999Z</time></trkpt><trkpt lat="43.29269677036282" lon="10.536565809984205"><ele>17.0</ele><time>2026-04-04T04:50:34.999Z</time></trkpt><trkpt lat="43.292640073895484" lon="10.536618522320435"><ele>17.5</ele><time>2026-04-04T04:50:35.999Z</time></trkpt><trkpt lat="43.292579837289736" lon="10.536647201092439"><ele>18.0</ele><time>2026-04-04T04:50:36.999Z</time></trkpt><trkpt lat="43.2925182406788" lon="10.53668198610332"><ele>18.5</ele><time>2026-04-04T04:50:37.999Z</time></trkpt><trkpt lat="43.29245713755625" lon="10.536712330241517"><ele>19.0</ele><time>2026-04-04T04:50:38.999Z</time></trkpt><trkpt lat="43.29233870679805" lon="10.536774612478746"><ele>19.0</ele><time>2026-04-04T04:50:40.998Z</time></trkpt><trkpt lat="43.29227901035595" lon="10.53680600971948"><ele>19.0</ele><time>2026-04-04T04:50:41.998Z</time></trkpt><trkpt lat="43.292215935762705" lon="10.536834751909064"><ele>19.0</ele><time>2026-04-04T04:50:42.998Z</time></trkpt><trkpt lat="43.29215255911303" lon="10.536867451014741"><ele>19.0</ele><time>2026-04-04T04:50:43.998Z</time></trkpt><trkpt lat="43.292091628294266" lon="10.536902063502955"><ele>19.0</ele><time>2026-04-04T04:50:44.998Z</time></trkpt><trkpt lat="43.29203221160292" lon="10.536933622705691"><ele>19.0</ele><time>2026-04-04T04:50:45.998Z</time></trkpt><trkpt lat="43.29196684670024" lon="10.53696146693338"><ele>19.0</ele><time>2026-04-04T04:50:46.998Z</time></trkpt><trkpt lat="43.291905398636544" lon="10.536992989473625"><ele>18.5</ele><time>2026-04-04T04:50:47.998Z</time></trkpt><trkpt lat="43.29184701724653" lon="10.537026510958308"><ele>18.0</ele><time>2026-04-04T04:50:48.998Z</time></trkpt><trkpt lat="43.29173166108631" lon="10.537089834553406"><ele>17.5</ele><time>2026-04-04T04:50:50.998Z</time></trkpt><trkpt lat="43.29161494348345" lon="10.537150626895784"><ele>17.0</ele><time>2026-04-04T04:50:53Z</time></trkpt><trkpt lat="43.29155441047587" lon="10.537184517719353"><ele>16.5</ele><time>2026-04-04T04:50:54Z</time></trkpt><trkpt lat="43.29149532928147" lon="10.537215611176224"><ele>16.0</ele><time>2026-04-04T04:50:55Z</time></trkpt><trkpt lat="43.29143224475657" lon="10.537251325500051"><ele>15.428571428571427</ele><time>2026-04-04T04:50:56Z</time></trkpt><trkpt lat="43.29136940994696" lon="10.53728757118033"><ele>14.857142857142856</ele><time>2026-04-04T04:50:57Z</time></trkpt><trkpt lat="43.29130992656709" lon="10.537323747019618"><ele>14.285714285714285</ele><time>2026-04-04T04:50:58Z</time></trkpt><trkpt lat="43.2912377906623" lon="10.537356343064005"><ele>13.714285714285714</ele><time>2026-04-04T04:50:59Z</time></trkpt><trkpt lat="43.29117079283308" lon="10.53737832339527"><ele>13.142857142857142</ele><time>2026-04-04T04:51:00Z</time></trkpt><trkpt lat="43.29110416603315" lon="10.537412673421702"><ele>12.57142857142857</ele><time>2026-04-04T04:51:01Z</time></trkpt><trkpt lat="43.291037601399786" lon="10.537452727200627"><ele>12.0</ele><time>2026-04-04T04:51:02Z</time></trkpt><trkpt lat="43.290970940253274" lon="10.537492349246293"><ele>11.999999999999998</ele><time>2026-04-04T04:51:03Z</time></trkpt><trkpt lat="43.290903985398366" lon="10.53752313497287"><ele>12.0</ele><time>2026-04-04T04:51:04Z</time></trkpt><trkpt lat="43.290838851767674" lon="10.537558214149874"><ele>12.0</ele><time>2026-04-04T04:51:05Z</time></trkpt><trkpt lat="43.29077611273331" lon="10.537592877693552"><ele>12.0</ele><time>2026-04-04T04:51:06Z</time></trkpt><trkpt lat="43.290712389337926" lon="10.537628671311788"><ele>12.0</ele><time>2026-04-04T04:51:07Z</time></trkpt><trkpt lat="43.29064971480332" lon="10.537665603222802"><ele>11.999999999999998</ele><time>2026-04-04T04:51:08Z</time></trkpt><trkpt lat="43.29058867216504" lon="10.537696205668082"><ele>12.0</ele><time>2026-04-04T04:51:09Z</time></trkpt><trkpt lat="43.29052429567497" lon="10.537723811871869"><ele>12.0</ele><time>2026-04-04T04:51:10Z</time></trkpt><trkpt lat="43.29040657976472" lon="10.537785069287615"><ele>12.0</ele><time>2026-04-04T04:51:12Z</time></trkpt><trkpt lat="43.2903458620963" lon="10.537820793293806"><ele>12.0</ele><time>2026-04-04T04:51:13Z</time></trkpt><trkpt lat="43.29028297985175" lon="10.537854103425076"><ele>12.0</ele><time>2026-04-04T04:51:14Z</time></trkpt><trkpt lat="43.29022152165531" lon="10.537887960314444"><ele>12.0</ele><time>2026-04-04T04:51:15Z</time></trkpt><trkpt lat="43.290156391266926" lon="10.537915405961744"><ele>12.0</ele><time>2026-04-04T04:51:16Z</time></trkpt><trkpt lat="43.29009528953163" lon="10.537946208774896"><ele>12.0</ele><time>2026-04-04T04:51:17Z</time></trkpt><trkpt lat="43.29003570593787" lon="10.537985593075485"><ele>12.0</ele><time>2026-04-04T04:51:18Z</time></trkpt><trkpt lat="43.28997250893644" lon="10.538001713800366"><ele>12.0</ele><time>2026-04-04T04:51:19Z</time></trkpt><trkpt lat="43.28985840758271" lon="10.538072599841286"><ele>12.0</ele><time>2026-04-04T04:51:21Z</time></trkpt><trkpt lat="43.28979813641837" lon="10.538105821405575"><ele>12.0</ele><time>2026-04-04T04:51:22Z</time></trkpt><trkpt lat="43.28973259958922" lon="10.538134952760554"><ele>12.0</ele><time>2026-04-04T04:51:23Z</time></trkpt><trkpt lat="43.28961919708669" lon="10.538192322777423"><ele>11.4</ele><time>2026-04-04T04:51:25Z</time></trkpt><trkpt lat="43.289523226323496" lon="10.538244803626235"><ele>10.799999999999999</ele><time>2026-04-04T04:51:27Z</time></trkpt><trkpt lat="43.289462088679066" lon="10.53827580649283"><ele>10.2</ele><time>2026-04-04T04:51:29Z</time></trkpt><trkpt lat="43.28938907876127" lon="10.538331997741203"><ele>9.6</ele><time>2026-04-04T04:51:31Z</time></trkpt><trkpt lat="43.28929456462909" lon="10.538406456476592"><ele>9.0</ele><time>2026-04-04T04:51:33Z</time></trkpt><trkpt lat="43.28918894191408" lon="10.53848976333721"><ele>9.0</ele><time>2026-04-04T04:51:35Z</time></trkpt><trkpt lat="43.289071683081005" lon="10.538574483582408"><ele>9.0</ele><time>2026-04-04T04:51:37Z</time></trkpt><trkpt lat="43.28900256451262" lon="10.538622076512437"><ele>9.0</ele><time>2026-04-04T04:51:38Z</time></trkpt><trkpt lat="43.28893535784568" lon="10.538670034458999"><ele>9.0</ele><time>2026-04-04T04:51:39Z</time></trkpt><trkpt lat="43.28886661645984" lon="10.538714210639782"><ele>9.0</ele><time>2026-04-04T04:51:40Z</time></trkpt><trkpt lat="43.28880235029256" lon="10.538763846393554"><ele>9.0</ele><time>2026-04-04T04:51:41Z</time></trkpt><trkpt lat="43.28873667477625" lon="10.53881276919022"><ele>9.142857142857144</ele><time>2026-04-04T04:51:42Z</time></trkpt><trkpt lat="43.28867081309356" lon="10.538861085695002"><ele>9.285714285714286</ele><time>2026-04-04T04:51:42.999Z</time></trkpt><trkpt lat="43.28860364026553" lon="10.53890595578049"><ele>9.428571428571429</ele><time>2026-04-04T04:51:43.999Z</time></trkpt><trkpt lat="43.28853924613275" lon="10.538953264773014"><ele>9.571428571428573</ele><time>2026-04-04T04:51:44.999Z</time></trkpt><trkpt lat="43.28847142614262" lon="10.53900199835923"><ele>9.714285714285715</ele><time>2026-04-04T04:51:45.999Z</time></trkpt><trkpt lat="43.28840651768788" lon="10.539053167583145"><ele>9.857142857142858</ele><time>2026-04-04T04:51:46.999Z</time></trkpt><trkpt lat="43.28834257810402" lon="10.539101444034062"><ele>10.0</ele><time>2026-04-04T04:51:47.999Z</time></trkpt><trkpt lat="43.288278673721415" lon="10.539151047684475"><ele>10.0</ele><time>2026-04-04T04:51:48.999Z</time></trkpt><trkpt lat="43.28821469953263" lon="10.539193732550663"><ele>10.0</ele><time>2026-04-04T04:51:49.999Z</time></trkpt><trkpt lat="43.28815093193294" lon="10.539230305946896"><ele>10.0</ele><time>2026-04-04T04:51:50.999Z</time></trkpt><trkpt lat="43.28808764345162" lon="10.53928384388448"><ele>10.0</ele><time>2026-04-04T04:51:51.999Z</time></trkpt><trkpt lat="43.288026232862734" lon="10.539335592404136"><ele>10.0</ele><time>2026-04-04T04:51:52.999Z</time></trkpt><trkpt lat="43.28796434858728" lon="10.539380151801577"><ele>10.0</ele><time>2026-04-04T04:51:53.999Z</time></trkpt><trkpt lat="43.28790531235135" lon="10.5394287792834"><ele>10.0</ele><time>2026-04-04T04:51:54.999Z</time></trkpt><trkpt lat="43.287846445294285" lon="10.53947728789592"><ele>10.0</ele><time>2026-04-04T04:51:55.999Z</time></trkpt><trkpt lat="43.287788630777555" lon="10.539520094725853"><ele>10.0</ele><time>2026-04-04T04:51:56.999Z</time></trkpt><trkpt lat="43.28773024564296" lon="10.539560421609913"><ele>10.0</ele><time>2026-04-04T04:51:57.999Z</time></trkpt><trkpt lat="43.28767453807671" lon="10.539601237884556"><ele>10.0</ele><time>2026-04-04T04:51:58.999Z</time></trkpt><trkpt lat="43.28756947291585" lon="10.539676780400933"><ele>10.0</ele><time>2026-04-04T04:52:00.999Z</time></trkpt><trkpt lat="43.28747152422636" lon="10.539752340740575"><ele>10.0</ele><time>2026-04-04T04:52:02.999Z</time></trkpt><trkpt lat="43.287375808783786" lon="10.539820780210082"><ele>10.0</ele><time>2026-04-04T04:52:04.999Z</time></trkpt><trkpt lat="43.2872795324621" lon="10.539888461955728"><ele>10.0</ele><time>2026-04-04T04:52:06.999Z</time></trkpt><trkpt lat="43.287188894949225" lon="10.539959510093567"><ele>10.0</ele><time>2026-04-04T04:52:08.999Z</time></trkpt><trkpt lat="43.287094885114755" lon="10.540033012577368"><ele>10.0</ele><time>2026-04-04T04:52:10.999Z</time></trkpt><trkpt lat="43.28700720077979" lon="10.540106454538707"><ele>10.0</ele><time>2026-04-04T04:52:12.999Z</time></trkpt><trkpt lat="43.28690727300033" lon="10.540157216953672"><ele>10.4</ele><time>2026-04-04T04:52:14.999Z</time></trkpt><trkpt lat="43.286811430260535" lon="10.540230546295009"><ele>10.8</ele><time>2026-04-04T04:52:16.999Z</time></trkpt><trkpt lat="43.28672088401009" lon="10.540317937703607"><ele>11.2</ele><time>2026-04-04T04:52:18.999Z</time></trkpt><trkpt lat="43.28662131661313" lon="10.540375955798167"><ele>11.6</ele><time>2026-04-04T04:52:20.999Z</time></trkpt><trkpt lat="43.28653028697498" lon="10.54046621317417"><ele>12.0</ele><time>2026-04-04T04:52:22.999Z</time></trkpt><trkpt lat="43.28643118366067" lon="10.540519872129071"><ele>12.0</ele><time>2026-04-04T04:52:24.999Z</time></trkpt><trkpt lat="43.286337703874466" lon="10.540595258449423"><ele>12.0</ele><time>2026-04-04T04:52:26.999Z</time></trkpt><trkpt lat="43.28624357770411" lon="10.540666310316759"><ele>12.0</ele><time>2026-04-04T04:52:28.999Z</time></trkpt><trkpt lat="43.28614654870922" lon="10.540738805924034"><ele>12.0</ele><time>2026-04-04T04:52:30.999Z</time></trkpt><trkpt lat="43.286047104631976" lon="10.540813838004796"><ele>12.0</ele><time>2026-04-04T04:52:32.999Z</time></trkpt><trkpt lat="43.285954190171765" lon="10.540908919525148"><ele>12.0</ele><time>2026-04-04T04:52:34.999Z</time></trkpt><trkpt lat="43.28584161069848" lon="10.540969440975552"><ele>12.0</ele><time>2026-04-04T04:52:36.999Z</time></trkpt><trkpt lat="43.28573612230175" lon="10.541046429940668"><ele>12.0</ele><time>2026-04-04T04:52:38.998Z</time></trkpt><trkpt lat="43.28562967191334" lon="10.54112656182711"><ele>12.0</ele><time>2026-04-04T04:52:40.998Z</time></trkpt><trkpt lat="43.28552241754394" lon="10.541206918298906"><ele>11.4</ele><time>2026-04-04T04:52:42.998Z</time></trkpt><trkpt lat="43.285417091583476" lon="10.541283358175988"><ele>10.799999999999999</ele><time>2026-04-04T04:52:44.998Z</time></trkpt><trkpt lat="43.285303029514736" lon="10.541363195620876"><ele>10.2</ele><time>2026-04-04T04:52:46.998Z</time></trkpt><trkpt lat="43.28524269012221" lon="10.54140789873028"><ele>9.6</ele><time>2026-04-04T04:52:47.998Z</time></trkpt><trkpt lat="43.285185118759415" lon="10.541450705963495"><ele>9.0</ele><time>2026-04-04T04:52:48.998Z</time></trkpt><trkpt lat="43.28512401259615" lon="10.541496905533938"><ele>9.000000000000002</ele><time>2026-04-04T04:52:49.998Z</time></trkpt><trkpt lat="43.28507257042266" lon="10.541558148486013"><ele>9.0</ele><time>2026-04-04T04:52:50.998Z</time></trkpt><trkpt lat="43.28501508876792" lon="10.541602567359998"><ele>9.0</ele><time>2026-04-04T04:52:51.998Z</time></trkpt><trkpt lat="43.28495563178663" lon="10.541644888328962"><ele>9.0</ele><time>2026-04-04T04:52:52.998Z</time></trkpt><trkpt lat="43.284899618041244" lon="10.541689293947549"><ele>9.0</ele><time>2026-04-04T04:52:53.998Z</time></trkpt><trkpt lat="43.28483958434517" lon="10.54173484212245"><ele>9.000000000000002</ele><time>2026-04-04T04:52:54.998Z</time></trkpt><trkpt lat="43.28478259368311" lon="10.541771825828734"><ele>9.0</ele><time>2026-04-04T04:52:55.998Z</time></trkpt><trkpt lat="43.28472509198686" lon="10.541818995278804"><ele>9.333333333333334</ele><time>2026-04-04T04:52:56.998Z</time></trkpt><trkpt lat="43.28466289210701" lon="10.54184553774898"><ele>9.666666666666666</ele><time>2026-04-04T04:52:57.998Z</time></trkpt><trkpt lat="43.284617651088595" lon="10.54191170374392"><ele>10.0</ele><time>2026-04-04T04:52:59Z</time></trkpt><trkpt lat="43.28456352282161" lon="10.541959530611889"><ele>10.333333333333332</ele><time>2026-04-04T04:53:00Z</time></trkpt><trkpt lat="43.284503273999285" lon="10.541987547496326"><ele>10.666666666666666</ele><time>2026-04-04T04:53:01Z</time></trkpt><trkpt lat="43.2844493062548" lon="10.542036794331963"><ele>11.0</ele><time>2026-04-04T04:53:02Z</time></trkpt><trkpt lat="43.28434198680875" lon="10.542134725837682"><ele>11.4</ele><time>2026-04-04T04:53:04Z</time></trkpt><trkpt lat="43.284292807494296" lon="10.54220183957434"><ele>11.8</ele><time>2026-04-04T04:53:05Z</time></trkpt><trkpt lat="43.284202351142405" lon="10.542259887290932"><ele>12.200000000000001</ele><time>2026-04-04T04:53:07Z</time></trkpt><trkpt lat="43.28414043061715" lon="10.542306793246452"><ele>12.600000000000001</ele><time>2026-04-04T04:53:09Z</time></trkpt><trkpt lat="43.284023811768094" lon="10.54245934375063"><ele>13.0</ele><time>2026-04-04T04:53:11Z</time></trkpt><trkpt lat="43.28395816949756" lon="10.542495482617595"><ele>13.0</ele><time>2026-04-04T04:53:12Z</time></trkpt><trkpt lat="43.28389917473641" lon="10.54257812422228"><ele>13.0</ele><time>2026-04-04T04:53:13Z</time></trkpt><trkpt lat="43.283796721818995" lon="10.542666659415202"><ele>13.0</ele><time>2026-04-04T04:53:15Z</time></trkpt><trkpt lat="43.2837430620721" lon="10.542714617339259"><ele>13.0</ele><time>2026-04-04T04:53:16Z</time></trkpt><trkpt lat="43.283690646937" lon="10.542763423136018"><ele>13.0</ele><time>2026-04-04T04:53:17Z</time></trkpt><trkpt lat="43.283588126982366" lon="10.542854429881388"><ele>12.600000000000001</ele><time>2026-04-04T04:53:19Z</time></trkpt><trkpt lat="43.2834814841153" lon="10.542928814527851"><ele>12.200000000000001</ele><time>2026-04-04T04:53:21Z</time></trkpt><trkpt lat="43.283392479515214" lon="10.54303942996602"><ele>11.8</ele><time>2026-04-04T04:53:23Z</time></trkpt><trkpt lat="43.2832825344246" lon="10.54311605352019"><ele>11.4</ele><time>2026-04-04T04:53:25Z</time></trkpt><trkpt lat="43.283238649994324" lon="10.543184546921779"><ele>11.0</ele><time>2026-04-04T04:53:26Z</time></trkpt><trkpt lat="43.28317599786643" lon="10.543215369037112"><ele>10.600000000000001</ele><time>2026-04-04T04:53:27Z</time></trkpt><trkpt lat="43.28307295490301" lon="10.543311057025688"><ele>10.200000000000001</ele><time>2026-04-04T04:53:29Z</time></trkpt><trkpt lat="43.2830206440572" lon="10.543359634066496"><ele>9.8</ele><time>2026-04-04T04:53:30Z</time></trkpt><trkpt lat="43.28291565983829" lon="10.54345576605685"><ele>9.4</ele><time>2026-04-04T04:53:32Z</time></trkpt><trkpt lat="43.28285904055226" lon="10.543506974589528"><ele>9.0</ele><time>2026-04-04T04:53:33Z</time></trkpt><trkpt lat="43.28279741126511" lon="10.543562714311735"><ele>9.0</ele><time>2026-04-04T04:53:34Z</time></trkpt><trkpt lat="43.282742364779715" lon="10.543612500338137"><ele>9.0</ele><time>2026-04-04T04:53:35Z</time></trkpt><trkpt lat="43.28268499088256" lon="10.543664391360748"><ele>9.0</ele><time>2026-04-04T04:53:36Z</time></trkpt><trkpt lat="43.28262274750082" lon="10.543720686508493"><ele>9.0</ele><time>2026-04-04T04:53:37Z</time></trkpt><trkpt lat="43.28251752490201" lon="10.543818752887963"><ele>9.0</ele><time>2026-04-04T04:53:39Z</time></trkpt><trkpt lat="43.28246343261065" lon="10.543872058486631"><ele>9.0</ele><time>2026-04-04T04:53:40Z</time></trkpt><trkpt lat="43.28241188981055" lon="10.543926314055534"><ele>9.0</ele><time>2026-04-04T04:53:41Z</time></trkpt><trkpt lat="43.282361880002846" lon="10.543978956191948"><ele>9.0</ele><time>2026-04-04T04:53:42Z</time></trkpt><trkpt lat="43.28231027829525" lon="10.54402909489675"><ele>9.0</ele><time>2026-04-04T04:53:43Z</time></trkpt><trkpt lat="43.28220804809249" lon="10.544122332611504"><ele>9.0</ele><time>2026-04-04T04:53:44.999Z</time></trkpt><trkpt lat="43.282112790466876" lon="10.544208365403598"><ele>9.0</ele><time>2026-04-04T04:53:46.999Z</time></trkpt><trkpt lat="43.282017825204704" lon="10.544294134037312"><ele>9.0</ele><time>2026-04-04T04:53:48.999Z</time></trkpt><trkpt lat="43.28191639519217" lon="10.544385741334251"><ele>9.0</ele><time>2026-04-04T04:53:50.999Z</time></trkpt><trkpt lat="43.2818259428937" lon="10.54446743421671"><ele>9.0</ele><time>2026-04-04T04:53:52.999Z</time></trkpt><trkpt lat="43.28173469924151" lon="10.544549841637963"><ele>9.0</ele><time>2026-04-04T04:53:54.999Z</time></trkpt><trkpt lat="43.28164364137522" lon="10.54463208131029"><ele>9.0</ele><time>2026-04-04T04:53:56.999Z</time></trkpt><trkpt lat="43.28155382603485" lon="10.544713198795687"><ele>9.6</ele><time>2026-04-04T04:53:58.999Z</time></trkpt><trkpt lat="43.281470115340284" lon="10.544789870419834"><ele>10.2</ele><time>2026-04-04T04:54:00.999Z</time></trkpt><trkpt lat="43.281380740450814" lon="10.544875283183638"><ele>10.799999999999999</ele><time>2026-04-04T04:54:02.999Z</time></trkpt><trkpt lat="43.28129188574326" lon="10.544962957797802"><ele>11.4</ele><time>2026-04-04T04:54:04.999Z</time></trkpt><trkpt lat="43.28121592412028" lon="10.545039008483226"><ele>12.0</ele><time>2026-04-04T04:54:06.999Z</time></trkpt><trkpt lat="43.281143518315325" lon="10.545111499136198"><ele>12.0</ele><time>2026-04-04T04:54:08.999Z</time></trkpt><trkpt lat="43.281071557257846" lon="10.545182566176084"><ele>12.0</ele><time>2026-04-04T04:54:10.999Z</time></trkpt><trkpt lat="43.280999882241126" lon="10.545251524497376"><ele>12.0</ele><time>2026-04-04T04:54:12.999Z</time></trkpt><trkpt lat="43.281022006452034" lon="10.545382121485797"><ele>12.0</ele><time>2026-04-04T04:54:13.999Z</time></trkpt><trkpt lat="43.28106703521895" lon="10.545515414481859"><ele>12.0</ele><time>2026-04-04T04:54:15.999Z</time></trkpt><trkpt lat="43.28111365509121" lon="10.545634222597482"><ele>12.2</ele><time>2026-04-04T04:54:17.999Z</time></trkpt><trkpt lat="43.281148837928704" lon="10.545761973221031"><ele>12.399999999999999</ele><time>2026-04-04T04:54:19.999Z</time></trkpt><trkpt lat="43.2812009936114" lon="10.545888772574523"><ele>12.600000000000001</ele><time>2026-04-04T04:54:21.999Z</time></trkpt><trkpt lat="43.28122595906752" lon="10.545974525631392"><ele>12.8</ele><time>2026-04-04T04:54:24.999Z</time></trkpt><trkpt lat="43.28126162607517" lon="10.54608645761547"><ele>13.0</ele><time>2026-04-04T04:54:27.999Z</time></trkpt><trkpt lat="43.281365850701754" lon="10.546448033968206"><ele>13.0</ele><time>2026-04-04T04:54:30.999Z</time></trkpt><trkpt lat="43.2813986202701" lon="10.546572421912387"><ele>13.0</ele><time>2026-04-04T04:54:32.999Z</time></trkpt><trkpt lat="43.28143249514428" lon="10.546691861965458"><ele>13.0</ele><time>2026-04-04T04:54:34.999Z</time></trkpt><trkpt lat="43.28146779279608" lon="10.54681280417809"><ele>13.0</ele><time>2026-04-04T04:54:36.999Z</time></trkpt><trkpt lat="43.28151133499679" lon="10.546941710048733"><ele>13.0</ele><time>2026-04-04T04:54:38.999Z</time></trkpt><trkpt lat="43.28154885330546" lon="10.54707198494789"><ele>13.166666666666666</ele><time>2026-04-04T04:54:40.998Z</time></trkpt><trkpt lat="43.28157903649485" lon="10.547184912539306"><ele>13.333333333333332</ele><time>2026-04-04T04:54:42.998Z</time></trkpt><trkpt lat="43.281612081072176" lon="10.547289759705631"><ele>13.5</ele><time>2026-04-04T04:54:44.998Z</time></trkpt><trkpt lat="43.28164493870051" lon="10.547402509866602"><ele>13.666666666666668</ele><time>2026-04-04T04:54:46.998Z</time></trkpt><trkpt lat="43.281678043744265" lon="10.547505987566664"><ele>13.833333333333334</ele><time>2026-04-04T04:54:48.998Z</time></trkpt><trkpt lat="43.28170730396599" lon="10.547615146060027"><ele>14.0</ele><time>2026-04-04T04:54:50.998Z</time></trkpt><trkpt lat="43.28173092931505" lon="10.54770785495037"><ele>14.0</ele><time>2026-04-04T04:54:52.998Z</time></trkpt><trkpt lat="43.28176053137825" lon="10.54779218943568"><ele>13.999999999999998</ele><time>2026-04-04T04:54:55.998Z</time></trkpt><trkpt lat="43.28179574840162" lon="10.547878355522544"><ele>13.999999999999998</ele><time>2026-04-04T04:54:57.998Z</time></trkpt><trkpt lat="43.28186450614503" lon="10.548112091082492"><ele>14.0</ele><time>2026-04-04T04:54:59.998Z</time></trkpt><trkpt lat="43.28190306161444" lon="10.548233698935643"><ele>14.0</ele><time>2026-04-04T04:55:01.998Z</time></trkpt><trkpt lat="43.281937893828406" lon="10.548357540716786"><ele>14.2</ele><time>2026-04-04T04:55:03.998Z</time></trkpt><trkpt lat="43.28197841593275" lon="10.548477387231964"><ele>14.399999999999999</ele><time>2026-04-04T04:55:06Z</time></trkpt><trkpt lat="43.28201914655115" lon="10.548600784228242"><ele>14.6</ele><time>2026-04-04T04:55:08Z</time></trkpt><trkpt lat="43.28205839166929" lon="10.548736549292702"><ele>14.8</ele><time>2026-04-04T04:55:10Z</time></trkpt><trkpt lat="43.2820981261777" lon="10.548855050570145"><ele>15.0</ele><time>2026-04-04T04:55:12Z</time></trkpt><trkpt lat="43.28213238609758" lon="10.548972704448637"><ele>15.166666666666666</ele><time>2026-04-04T04:55:14Z</time></trkpt><trkpt lat="43.28215881975109" lon="10.549087910194883"><ele>15.333333333333332</ele><time>2026-04-04T04:55:16Z</time></trkpt><trkpt lat="43.28219891521318" lon="10.549222655159937"><ele>15.5</ele><time>2026-04-04T04:55:18Z</time></trkpt><trkpt lat="43.28222644579219" lon="10.549311448029819"><ele>15.666666666666666</ele><time>2026-04-04T04:55:20Z</time></trkpt><trkpt lat="43.28225995175788" lon="10.549421032423002"><ele>15.833333333333332</ele><time>2026-04-04T04:55:22Z</time></trkpt><trkpt lat="43.282290326170234" lon="10.549541289363251"><ele>16.0</ele><time>2026-04-04T04:55:24Z</time></trkpt><trkpt lat="43.28232764269991" lon="10.54964927621937"><ele>16.5</ele><time>2026-04-04T04:55:26Z</time></trkpt><trkpt lat="43.282362848844194" lon="10.549749180012782"><ele>17.0</ele><time>2026-04-04T04:55:28Z</time></trkpt><trkpt lat="43.28239835635891" lon="10.54986388702918"><ele>17.5</ele><time>2026-04-04T04:55:30Z</time></trkpt><trkpt lat="43.282437365025146" lon="10.549973207926401"><ele>18.0</ele><time>2026-04-04T04:55:32Z</time></trkpt><trkpt lat="43.28244923379187" lon="10.550093373296756"><ele>18.5</ele><time>2026-04-04T04:55:34Z</time></trkpt><trkpt lat="43.282472371843404" lon="10.550186691828014"><ele>19.0</ele><time>2026-04-04T04:55:36Z</time></trkpt><trkpt lat="43.28250785401746" lon="10.550281757728797"><ele>19.0</ele><time>2026-04-04T04:55:38Z</time></trkpt><trkpt lat="43.28254125970557" lon="10.550384008884887"><ele>19.0</ele><time>2026-04-04T04:55:40Z</time></trkpt><trkpt lat="43.282577197933996" lon="10.550507830964841"><ele>19.0</ele><time>2026-04-04T04:55:42Z</time></trkpt><trkpt lat="43.28261230402599" lon="10.550617550185747"><ele>19.0</ele><time>2026-04-04T04:55:44Z</time></trkpt><trkpt lat="43.28264939540859" lon="10.550722906290268"><ele>19.0</ele><time>2026-04-04T04:55:46Z</time></trkpt><trkpt lat="43.28267858188345" lon="10.550832733544286"><ele>19.0</ele><time>2026-04-04T04:55:47.999Z</time></trkpt><trkpt lat="43.28271126020428" lon="10.550941043946564"><ele>19.0</ele><time>2026-04-04T04:55:49.999Z</time></trkpt><trkpt lat="43.2827411959965" lon="10.55104542420514"><ele>19.0</ele><time>2026-04-04T04:55:51.999Z</time></trkpt><trkpt lat="43.2827715201567" lon="10.55115323398678"><ele>19.0</ele><time>2026-04-04T04:55:54.999Z</time></trkpt><trkpt lat="43.28281157047532" lon="10.551278798031566"><ele>19.0</ele><time>2026-04-04T04:55:56.999Z</time></trkpt><trkpt lat="43.28284137889593" lon="10.551373953217087"><ele>19.0</ele><time>2026-04-04T04:55:58.999Z</time></trkpt><trkpt lat="43.28286990965429" lon="10.551462689852919"><ele>19.0</ele><time>2026-04-04T04:56:00.999Z</time></trkpt><trkpt lat="43.28289937347514" lon="10.551557184916941"><ele>19.0</ele><time>2026-04-04T04:56:02.999Z</time></trkpt><trkpt lat="43.28292621014773" lon="10.551655845376859"><ele>19.0</ele><time>2026-04-04T04:56:04.999Z</time></trkpt><trkpt lat="43.28295996884261" lon="10.551751085645101"><ele>19.0</ele><time>2026-04-04T04:56:06.999Z</time></trkpt><trkpt lat="43.28300137175673" lon="10.551875212865294"><ele>19.0</ele><time>2026-04-04T04:56:09.999Z</time></trkpt><trkpt lat="43.283035491772814" lon="10.551987820539441"><ele>19.0</ele><time>2026-04-04T04:56:11.999Z</time></trkpt><trkpt lat="43.28306497403304" lon="10.55208740510285"><ele>19.0</ele><time>2026-04-04T04:56:13.999Z</time></trkpt><trkpt lat="43.28309437636455" lon="10.552166038925199"><ele>19.333333333333332</ele><time>2026-04-04T04:56:14.999Z</time></trkpt><trkpt lat="43.28312190326621" lon="10.552282342545565"><ele>19.666666666666664</ele><time>2026-04-04T04:56:16.999Z</time></trkpt><trkpt lat="43.283131772821854" lon="10.552411412914793"><ele>20.0</ele><time>2026-04-04T04:56:18.999Z</time></trkpt><trkpt lat="43.2831584155286" lon="10.552498037437369"><ele>20.333333333333332</ele><time>2026-04-04T04:56:20.999Z</time></trkpt><trkpt lat="43.28319139642469" lon="10.552605269650657"><ele>20.666666666666668</ele><time>2026-04-04T04:56:22.999Z</time></trkpt><trkpt lat="43.28322265699491" lon="10.5527069084354"><ele>21.0</ele><time>2026-04-04T04:56:24.999Z</time></trkpt><trkpt lat="43.28325400125798" lon="10.552808819316983"><ele>21.166666666666668</ele><time>2026-04-04T04:56:26.999Z</time></trkpt><trkpt lat="43.28328537301073" lon="10.55291081959068"><ele>21.333333333333332</ele><time>2026-04-04T04:56:28.999Z</time></trkpt><trkpt lat="43.28331135843675" lon="10.55299530709705"><ele>21.5</ele><time>2026-04-04T04:56:30.999Z</time></trkpt><trkpt lat="43.28333736480007" lon="10.553079862843331"><ele>21.666666666666664</ele><time>2026-04-04T04:56:32.999Z</time></trkpt><trkpt lat="43.28336552307703" lon="10.553174416225351"><ele>21.833333333333332</ele><time>2026-04-04T04:56:34.999Z</time></trkpt><trkpt lat="43.283398993589124" lon="10.553286408984334"><ele>22.0</ele><time>2026-04-04T04:56:36.999Z</time></trkpt><trkpt lat="43.28342944080926" lon="10.553388285788436"><ele>22.0</ele><time>2026-04-04T04:56:38.999Z</time></trkpt><trkpt lat="43.28346490944486" lon="10.553506964263738"><ele>22.0</ele><time>2026-04-04T04:56:41.999Z</time></trkpt><trkpt lat="43.28353930374382" lon="10.553720823093848"><ele>22.0</ele><time>2026-04-04T04:56:44.998Z</time></trkpt><trkpt lat="43.28357175899086" lon="10.553823632513769"><ele>22.0</ele><time>2026-04-04T04:56:46.998Z</time></trkpt><trkpt lat="43.283601570459446" lon="10.553911186096752"><ele>22.0</ele><time>2026-04-04T04:56:48.998Z</time></trkpt><trkpt lat="43.28363268364028" lon="10.554012826130645"><ele>22.285714285714285</ele><time>2026-04-04T04:56:50.998Z</time></trkpt><trkpt lat="43.283667368609244" lon="10.554115560408748"><ele>22.57142857142857</ele><time>2026-04-04T04:56:52.998Z</time></trkpt><trkpt lat="43.28369362457429" lon="10.554208201792783"><ele>22.857142857142854</ele><time>2026-04-04T04:56:54.998Z</time></trkpt><trkpt lat="43.28371573039368" lon="10.554303033656717"><ele>23.142857142857142</ele><time>2026-04-04T04:56:56.998Z</time></trkpt><trkpt lat="43.28375028966128" lon="10.554392151592772"><ele>23.428571428571427</ele><time>2026-04-04T04:56:58.998Z</time></trkpt><trkpt lat="43.283779152599905" lon="10.554482460183417"><ele>23.71428571428571</ele><time>2026-04-04T04:57:00.998Z</time></trkpt><trkpt lat="43.28380594952521" lon="10.554571987455187"><ele>24.0</ele><time>2026-04-04T04:57:02.998Z</time></trkpt><trkpt lat="43.283842345109115" lon="10.554666122555828"><ele>24.0</ele><time>2026-04-04T04:57:04.998Z</time></trkpt><trkpt lat="43.28387385933047" lon="10.554770888225029"><ele>24.0</ele><time>2026-04-04T04:57:06.998Z</time></trkpt><trkpt lat="43.283910024367295" lon="10.55487373372313"><ele>24.0</ele><time>2026-04-04T04:57:08.998Z</time></trkpt><trkpt lat="43.283934387283246" lon="10.554966859389134"><ele>24.0</ele><time>2026-04-04T04:57:11Z</time></trkpt><trkpt lat="43.283963280847594" lon="10.555073554313438"><ele>24.0</ele><time>2026-04-04T04:57:14Z</time></trkpt><trkpt lat="43.28398455889175" lon="10.55519548217486"><ele>24.0</ele><time>2026-04-04T04:57:17Z</time></trkpt><trkpt lat="43.28391776532586" lon="10.555268319743877"><ele>24.0</ele><time>2026-04-04T04:57:19Z</time></trkpt><trkpt lat="43.28382227529124" lon="10.555323775505988"><ele>24.0</ele><time>2026-04-04T04:57:21Z</time></trkpt><trkpt lat="43.283710057468504" lon="10.555383580436905"><ele>24.0</ele><time>2026-04-04T04:57:23Z</time></trkpt><trkpt lat="43.28365271082686" lon="10.55541987753192"><ele>24.0</ele><time>2026-04-04T04:57:24Z</time></trkpt><trkpt lat="43.28359045883249" lon="10.555448236372863"><ele>24.0</ele><time>2026-04-04T04:57:25Z</time></trkpt><trkpt lat="43.28352844175123" lon="10.55548643280693"><ele>24.0</ele><time>2026-04-04T04:57:26Z</time></trkpt><trkpt lat="43.2834639188267" lon="10.555519793040427"><ele>23.999999999999996</ele><time>2026-04-04T04:57:27Z</time></trkpt><trkpt lat="43.28339850996668" lon="10.555555637235177"><ele>24.0</ele><time>2026-04-04T04:57:28Z</time></trkpt><trkpt lat="43.283331705008315" lon="10.55558786174094"><ele>24.0</ele><time>2026-04-04T04:57:29Z</time></trkpt><trkpt lat="43.28326429309564" lon="10.555621823096654"><ele>24.0</ele><time>2026-04-04T04:57:30Z</time></trkpt><trkpt lat="43.283197041234" lon="10.555657486928517"><ele>24.0</ele><time>2026-04-04T04:57:31Z</time></trkpt><trkpt lat="43.28312994025495" lon="10.555693042198117"><ele>23.999999999999996</ele><time>2026-04-04T04:57:32Z</time></trkpt><trkpt lat="43.28306793187517" lon="10.55572816833839"><ele>24.0</ele><time>2026-04-04T04:57:33Z</time></trkpt><trkpt lat="43.282995107559124" lon="10.555766733333765"><ele>23.5</ele><time>2026-04-04T04:57:34Z</time></trkpt><trkpt lat="43.282924237605464" lon="10.555802794949612"><ele>23.0</ele><time>2026-04-04T04:57:35Z</time></trkpt><trkpt lat="43.2828544720337" lon="10.555839098868272"><ele>22.5</ele><time>2026-04-04T04:57:36Z</time></trkpt><trkpt lat="43.28278312142874" lon="10.555875400443474"><ele>22.0</ele><time>2026-04-04T04:57:37Z</time></trkpt><trkpt lat="43.28271322230566" lon="10.555907544204548"><ele>21.5</ele><time>2026-04-04T04:57:38Z</time></trkpt><trkpt lat="43.28264158649893" lon="10.555942383113344"><ele>21.0</ele><time>2026-04-04T04:57:39Z</time></trkpt><trkpt lat="43.282571887644934" lon="10.555977675881914"><ele>21.0</ele><time>2026-04-04T04:57:40Z</time></trkpt><trkpt lat="43.28250181869904" lon="10.556013024704455"><ele>21.0</ele><time>2026-04-04T04:57:41Z</time></trkpt><trkpt lat="43.282430820876414" lon="10.556046981777936"><ele>21.0</ele><time>2026-04-04T04:57:42Z</time></trkpt><trkpt lat="43.28236240247392" lon="10.55608199933801"><ele>21.0</ele><time>2026-04-04T04:57:43Z</time></trkpt><trkpt lat="43.282293963980926" lon="10.556117149461839"><ele>21.0</ele><time>2026-04-04T04:57:44Z</time></trkpt><trkpt lat="43.2822220865825" lon="10.556153507303318"><ele>21.0</ele><time>2026-04-04T04:57:45Z</time></trkpt><trkpt lat="43.28215258150617" lon="10.556193417541271"><ele>21.0</ele><time>2026-04-04T04:57:46Z</time></trkpt><trkpt lat="43.282079278126716" lon="10.556231794004058"><ele>20.833333333333332</ele><time>2026-04-04T04:57:47Z</time></trkpt><trkpt lat="43.2820077063728" lon="10.55626733345004"><ele>20.666666666666668</ele><time>2026-04-04T04:57:48Z</time></trkpt><trkpt lat="43.28193697868199" lon="10.556303445754068"><ele>20.5</ele><time>2026-04-04T04:57:49Z</time></trkpt><trkpt lat="43.28186408194923" lon="10.55634030900547"><ele>20.333333333333336</ele><time>2026-04-04T04:57:50Z</time></trkpt><trkpt lat="43.28179541735153" lon="10.556382667379193"><ele>20.166666666666668</ele><time>2026-04-04T04:57:51Z</time></trkpt><trkpt lat="43.28172486153403" lon="10.556420673700213"><ele>20.0</ele><time>2026-04-04T04:57:52Z</time></trkpt><trkpt lat="43.28165436016416" lon="10.556455611811218"><ele>20.0</ele><time>2026-04-04T04:57:53Z</time></trkpt><trkpt lat="43.28158486854542" lon="10.556492824015017"><ele>20.0</ele><time>2026-04-04T04:57:53.999Z</time></trkpt><trkpt lat="43.28151500248502" lon="10.556534086321303"><ele>20.0</ele><time>2026-04-04T04:57:54.999Z</time></trkpt><trkpt lat="43.28144597477615" lon="10.556572182982462"><ele>20.0</ele><time>2026-04-04T04:57:55.999Z</time></trkpt><trkpt lat="43.281374533070355" lon="10.556606678838971"><ele>20.0</ele><time>2026-04-04T04:57:56.999Z</time></trkpt><trkpt lat="43.28130344890524" lon="10.556644244715327"><ele>20.0</ele><time>2026-04-04T04:57:57.999Z</time></trkpt><trkpt lat="43.28123324207134" lon="10.556682465651718"><ele>20.0</ele><time>2026-04-04T04:57:58.999Z</time></trkpt><trkpt lat="43.28116172838747" lon="10.556715150881367"><ele>20.0</ele><time>2026-04-04T04:57:59.999Z</time></trkpt><trkpt lat="43.281091685150436" lon="10.556751280581446"><ele>20.0</ele><time>2026-04-04T04:58:00.999Z</time></trkpt><trkpt lat="43.28102165646898" lon="10.556788870470161"><ele>20.0</ele><time>2026-04-04T04:58:01.999Z</time></trkpt><trkpt lat="43.28095452676969" lon="10.556825050469314"><ele>20.0</ele><time>2026-04-04T04:58:02.999Z</time></trkpt><trkpt lat="43.28088785380008" lon="10.556861822506654"><ele>20.0</ele><time>2026-04-04T04:58:03.999Z</time></trkpt><trkpt lat="43.28081900485406" lon="10.55689501536054"><ele>20.0</ele><time>2026-04-04T04:58:04.999Z</time></trkpt><trkpt lat="43.28075143475114" lon="10.556928840487787"><ele>20.0</ele><time>2026-04-04T04:58:05.999Z</time></trkpt><trkpt lat="43.280683344821064" lon="10.556962838024136"><ele>20.0</ele><time>2026-04-04T04:58:06.999Z</time></trkpt><trkpt lat="43.28061586395716" lon="10.557000695856546"><ele>20.0</ele><time>2026-04-04T04:58:07.999Z</time></trkpt><trkpt lat="43.28054752158829" lon="10.557039012976006"><ele>20.0</ele><time>2026-04-04T04:58:08.999Z</time></trkpt><trkpt lat="43.28048061022839" lon="10.557072906637748"><ele>20.0</ele><time>2026-04-04T04:58:09.999Z</time></trkpt><trkpt lat="43.28041378210777" lon="10.557105958552157"><ele>20.0</ele><time>2026-04-04T04:58:10.999Z</time></trkpt><trkpt lat="43.280346348245935" lon="10.557140520385952"><ele>20.0</ele><time>2026-04-04T04:58:11.999Z</time></trkpt><trkpt lat="43.280279727540034" lon="10.55717506991642"><ele>20.285714285714285</ele><time>2026-04-04T04:58:12.999Z</time></trkpt><trkpt lat="43.28021347675575" lon="10.55720788069447"><ele>20.571428571428573</ele><time>2026-04-04T04:58:13.999Z</time></trkpt><trkpt lat="43.280149240383345" lon="10.557242334433566"><ele>20.857142857142858</ele><time>2026-04-04T04:58:14.999Z</time></trkpt><trkpt lat="43.28008521249034" lon="10.557278255399014"><ele>21.142857142857142</ele><time>2026-04-04T04:58:15.999Z</time></trkpt><trkpt lat="43.280020619666644" lon="10.557313799917301"><ele>21.428571428571427</ele><time>2026-04-04T04:58:16.999Z</time></trkpt><trkpt lat="43.27995685093087" lon="10.557348217628967"><ele>21.714285714285715</ele><time>2026-04-04T04:58:17.999Z</time></trkpt><trkpt lat="43.27989217236623" lon="10.557382226297458"><ele>22.0</ele><time>2026-04-04T04:58:18.999Z</time></trkpt><trkpt lat="43.279828276207866" lon="10.557412617312583"><ele>22.0</ele><time>2026-04-04T04:58:19.999Z</time></trkpt><trkpt lat="43.279764339669285" lon="10.55744302887712"><ele>22.0</ele><time>2026-04-04T04:58:20.999Z</time></trkpt><trkpt lat="43.279701295720024" lon="10.557475434522896"><ele>22.0</ele><time>2026-04-04T04:58:21.999Z</time></trkpt><trkpt lat="43.27963860547882" lon="10.55751021416658"><ele>22.0</ele><time>2026-04-04T04:58:22.999Z</time></trkpt><trkpt lat="43.27957599966744" lon="10.55754147195845"><ele>22.0</ele><time>2026-04-04T04:58:23.999Z</time></trkpt><trkpt lat="43.279512147966415" lon="10.557573358388554"><ele>22.0</ele><time>2026-04-04T04:58:24.999Z</time></trkpt><trkpt lat="43.279449721056274" lon="10.557607220275093"><ele>22.0</ele><time>2026-04-04T04:58:25.999Z</time></trkpt><trkpt lat="43.279387680466364" lon="10.557640590980322"><ele>22.0</ele><time>2026-04-04T04:58:26.999Z</time></trkpt><trkpt lat="43.27932512910889" lon="10.557674337793918"><ele>22.0</ele><time>2026-04-04T04:58:27.999Z</time></trkpt><trkpt lat="43.27926521912404" lon="10.557707208557884"><ele>22.0</ele><time>2026-04-04T04:58:28.999Z</time></trkpt><trkpt lat="43.27920308406611" lon="10.557738079892642"><ele>22.0</ele><time>2026-04-04T04:58:29.999Z</time></trkpt><trkpt lat="43.27914233555857" lon="10.557768653803745"><ele>22.0</ele><time>2026-04-04T04:58:30.999Z</time></trkpt><trkpt lat="43.27908044054404" lon="10.55779961848186"><ele>22.0</ele><time>2026-04-04T04:58:31.999Z</time></trkpt><trkpt lat="43.27901942609825" lon="10.557832038715212"><ele>22.0</ele><time>2026-04-04T04:58:32.999Z</time></trkpt><trkpt lat="43.278958917711215" lon="10.557865404897488"><ele>21.666666666666664</ele><time>2026-04-04T04:58:33.999Z</time></trkpt><trkpt lat="43.27889764131383" lon="10.557898527511663"><ele>21.333333333333332</ele><time>2026-04-04T04:58:34.999Z</time></trkpt><trkpt lat="43.27883614092835" lon="10.557928185158627"><ele>21.0</ele><time>2026-04-04T04:58:35.999Z</time></trkpt><trkpt lat="43.27877504489131" lon="10.557960450620438"><ele>20.666666666666668</ele><time>2026-04-04T04:58:36.999Z</time></trkpt><trkpt lat="43.278655943861786" lon="10.558024844594339"><ele>20.333333333333336</ele><time>2026-04-04T04:58:38.999Z</time></trkpt><trkpt lat="43.27859683085783" lon="10.558057934962447"><ele>20.0</ele><time>2026-04-04T04:58:39.999Z</time></trkpt><trkpt lat="43.2785373137958" lon="10.558094285371276"><ele>20.0</ele><time>2026-04-04T04:58:40.999Z</time></trkpt><trkpt lat="43.278478471568555" lon="10.558128094948934"><ele>20.0</ele><time>2026-04-04T04:58:41.999Z</time></trkpt><trkpt lat="43.278418478577585" lon="10.55816234232451"><ele>20.0</ele><time>2026-04-04T04:58:42.999Z</time></trkpt><trkpt lat="43.278360905339774" lon="10.55820032372139"><ele>20.0</ele><time>2026-04-04T04:58:43.999Z</time></trkpt><trkpt lat="43.278304093538296" lon="10.558242582321228"><ele>20.0</ele><time>2026-04-04T04:58:44.999Z</time></trkpt><trkpt lat="43.278248782339155" lon="10.558287878383126"><ele>20.0</ele><time>2026-04-04T04:58:45.999Z</time></trkpt><trkpt lat="43.27814433587755" lon="10.558387743945078"><ele>20.0</ele><time>2026-04-04T04:58:47.999Z</time></trkpt><trkpt lat="43.2780946152315" lon="10.558445602483607"><ele>19.57142857142857</ele><time>2026-04-04T04:58:48.999Z</time></trkpt><trkpt lat="43.278044253784884" lon="10.55850523722323"><ele>19.142857142857142</ele><time>2026-04-04T04:58:49.999Z</time></trkpt><trkpt lat="43.27799322027639" lon="10.558561574694474"><ele>18.714285714285715</ele><time>2026-04-04T04:58:50.999Z</time></trkpt><trkpt lat="43.27794196066193" lon="10.55862082814789"><ele>18.285714285714285</ele><time>2026-04-04T04:58:51.998Z</time></trkpt><trkpt lat="43.277893735826346" lon="10.558685029221628"><ele>17.857142857142858</ele><time>2026-04-04T04:58:52.998Z</time></trkpt><trkpt lat="43.277845639407595" lon="10.558753121526278"><ele>17.428571428571427</ele><time>2026-04-04T04:58:53.998Z</time></trkpt><trkpt lat="43.27780024913571" lon="10.558820358891872"><ele>17.0</ele><time>2026-04-04T04:58:54.998Z</time></trkpt><trkpt lat="43.27775386073371" lon="10.558886778983918"><ele>16.999999999999996</ele><time>2026-04-04T04:58:55.998Z</time></trkpt><trkpt lat="43.27770626002129" lon="10.558952021171002"><ele>17.0</ele><time>2026-04-04T04:58:56.998Z</time></trkpt><trkpt lat="43.27765945427207" lon="10.559016077545307"><ele>17.0</ele><time>2026-04-04T04:58:57.998Z</time></trkpt><trkpt lat="43.277609449998366" lon="10.559079445693007"><ele>17.0</ele><time>2026-04-04T04:58:58.998Z</time></trkpt><trkpt lat="43.27755935292817" lon="10.559143038613948"><ele>17.0</ele><time>2026-04-04T04:58:59.998Z</time></trkpt><trkpt lat="43.277513515958844" lon="10.5592089223665"><ele>16.999999999999996</ele><time>2026-04-04T04:59:00.998Z</time></trkpt><trkpt lat="43.277468047979454" lon="10.559273221068615"><ele>17.0</ele><time>2026-04-04T04:59:01.998Z</time></trkpt><trkpt lat="43.27741997495371" lon="10.559336586331403"><ele>16.999999999999996</ele><time>2026-04-04T04:59:02.998Z</time></trkpt><trkpt lat="43.277372435369934" lon="10.559401759389404"><ele>17.0</ele><time>2026-04-04T04:59:03.998Z</time></trkpt><trkpt lat="43.277325357163164" lon="10.559466344103756"><ele>17.0</ele><time>2026-04-04T04:59:04.998Z</time></trkpt><trkpt lat="43.27727819692465" lon="10.559529723795297"><ele>17.0</ele><time>2026-04-04T04:59:05.998Z</time></trkpt><trkpt lat="43.277231903268344" lon="10.55959314066322"><ele>17.0</ele><time>2026-04-04T04:59:06.998Z</time></trkpt><trkpt lat="43.27718460078695" lon="10.55965556943619"><ele>16.999999999999996</ele><time>2026-04-04T04:59:07.998Z</time></trkpt><trkpt lat="43.27713622663777" lon="10.559718043302096"><ele>17.0</ele><time>2026-04-04T04:59:08.998Z</time></trkpt><trkpt lat="43.277088068122744" lon="10.559778465055633"><ele>17.142857142857142</ele><time>2026-04-04T04:59:09.998Z</time></trkpt><trkpt lat="43.27704183930356" lon="10.559841590053791"><ele>17.285714285714285</ele><time>2026-04-04T04:59:10.998Z</time></trkpt><trkpt lat="43.276996080302396" lon="10.559904657920507"><ele>17.42857142857143</ele><time>2026-04-04T04:59:11.998Z</time></trkpt><trkpt lat="43.27695099725613" lon="10.559969389557786"><ele>17.57142857142857</ele><time>2026-04-04T04:59:12.998Z</time></trkpt><trkpt lat="43.27690603477425" lon="10.56003455882543"><ele>17.714285714285715</ele><time>2026-04-04T04:59:13.998Z</time></trkpt><trkpt lat="43.27685838925471" lon="10.560100632948142"><ele>17.857142857142858</ele><time>2026-04-04T04:59:14.998Z</time></trkpt><trkpt lat="43.27681159716859" lon="10.560167269326005"><ele>18.0</ele><time>2026-04-04T04:59:15.998Z</time></trkpt><trkpt lat="43.27676422581128" lon="10.56023306055209"><ele>18.000000000000004</ele><time>2026-04-04T04:59:17Z</time></trkpt><trkpt lat="43.276718391654065" lon="10.560300800305527"><ele>18.0</ele><time>2026-04-04T04:59:18Z</time></trkpt><trkpt lat="43.27667322815617" lon="10.560370584050812"><ele>18.0</ele><time>2026-04-04T04:59:19Z</time></trkpt><trkpt lat="43.27662874150595" lon="10.560439184376415"><ele>18.0</ele><time>2026-04-04T04:59:20Z</time></trkpt><trkpt lat="43.27658415262124" lon="10.560507215214514"><ele>18.0</ele><time>2026-04-04T04:59:21Z</time></trkpt><trkpt lat="43.276540990725834" lon="10.560574812709186"><ele>18.000000000000004</ele><time>2026-04-04T04:59:22Z</time></trkpt><trkpt lat="43.276498417834624" lon="10.560644188657626"><ele>18.0</ele><time>2026-04-04T04:59:23Z</time></trkpt><trkpt lat="43.27645408035113" lon="10.560711638139342"><ele>17.714285714285715</ele><time>2026-04-04T04:59:24Z</time></trkpt><trkpt lat="43.276409891913616" lon="10.56078004645111"><ele>17.42857142857143</ele><time>2026-04-04T04:59:25Z</time></trkpt><trkpt lat="43.276369517013514" lon="10.560848218487667"><ele>17.142857142857142</ele><time>2026-04-04T04:59:26Z</time></trkpt><trkpt lat="43.276327186386204" lon="10.560920414460666"><ele>16.857142857142858</ele><time>2026-04-04T04:59:27Z</time></trkpt><trkpt lat="43.27628380150104" lon="10.560989613967939"><ele>16.57142857142857</ele><time>2026-04-04T04:59:28Z</time></trkpt><trkpt lat="43.27623761359543" lon="10.56105342174781"><ele>16.285714285714285</ele><time>2026-04-04T04:59:29Z</time></trkpt><trkpt lat="43.27619240447844" lon="10.56112169834673"><ele>16.0</ele><time>2026-04-04T04:59:30Z</time></trkpt><trkpt lat="43.27614831762687" lon="10.561192069283592"><ele>16.0</ele><time>2026-04-04T04:59:31Z</time></trkpt><trkpt lat="43.27610286340417" lon="10.561259504199954"><ele>15.999999999999998</ele><time>2026-04-04T04:59:32Z</time></trkpt><trkpt lat="43.276057272001324" lon="10.561326771040441"><ele>16.0</ele><time>2026-04-04T04:59:33Z</time></trkpt><trkpt lat="43.276012103905956" lon="10.56139476766179"><ele>16.0</ele><time>2026-04-04T04:59:34Z</time></trkpt><trkpt lat="43.2759667635245" lon="10.561461672756735"><ele>15.999999999999998</ele><time>2026-04-04T04:59:35Z</time></trkpt><trkpt lat="43.2759219370793" lon="10.561527742024047"><ele>16.0</ele><time>2026-04-04T04:59:36Z</time></trkpt><trkpt lat="43.2758771551903" lon="10.561592729773414"><ele>16.0</ele><time>2026-04-04T04:59:37Z</time></trkpt><trkpt lat="43.27583207113985" lon="10.561659329734546"><ele>16.0</ele><time>2026-04-04T04:59:38Z</time></trkpt><trkpt lat="43.27578920836882" lon="10.561726104424782"><ele>15.999999999999998</ele><time>2026-04-04T04:59:39Z</time></trkpt><trkpt lat="43.275743901006564" lon="10.561789356829372"><ele>16.0</ele><time>2026-04-04T04:59:40Z</time></trkpt><trkpt lat="43.27569935878024" lon="10.56185407771318"><ele>16.0</ele><time>2026-04-04T04:59:41Z</time></trkpt><trkpt lat="43.27565445916533" lon="10.561916638065618"><ele>15.999999999999998</ele><time>2026-04-04T04:59:42Z</time></trkpt><trkpt lat="43.27560800095702" lon="10.56198017856614"><ele>16.0</ele><time>2026-04-04T04:59:43Z</time></trkpt><trkpt lat="43.27556157746743" lon="10.562042496543937"><ele>16.0</ele><time>2026-04-04T04:59:44Z</time></trkpt><trkpt lat="43.27547553615404" lon="10.56216789067108"><ele>16.142857142857142</ele><time>2026-04-04T04:59:46Z</time></trkpt><trkpt lat="43.27543164211381" lon="10.562233874474682"><ele>16.285714285714285</ele><time>2026-04-04T04:59:47Z</time></trkpt><trkpt lat="43.27538710441414" lon="10.562297990360747"><ele>16.428571428571427</ele><time>2026-04-04T04:59:48Z</time></trkpt><trkpt lat="43.275341752591025" lon="10.562361817242962"><ele>16.57142857142857</ele><time>2026-04-04T04:59:49Z</time></trkpt><trkpt lat="43.27529656661858" lon="10.562426390163575"><ele>16.714285714285715</ele><time>2026-04-04T04:59:50Z</time></trkpt><trkpt lat="43.275251859162985" lon="10.562490560846118"><ele>16.857142857142854</ele><time>2026-04-04T04:59:51Z</time></trkpt><trkpt lat="43.27520592358278" lon="10.562554629103184"><ele>17.0</ele><time>2026-04-04T04:59:52Z</time></trkpt><trkpt lat="43.2751613073367" lon="10.562618816557505"><ele>16.999999999999996</ele><time>2026-04-04T04:59:53Z</time></trkpt><trkpt lat="43.275116194757594" lon="10.562683728711573"><ele>17.0</ele><time>2026-04-04T04:59:54Z</time></trkpt><trkpt lat="43.27506952564506" lon="10.562749214403857"><ele>17.0</ele><time>2026-04-04T04:59:55Z</time></trkpt><trkpt lat="43.27502324329741" lon="10.562814235529938"><ele>17.0</ele><time>2026-04-04T04:59:56Z</time></trkpt><trkpt lat="43.27497836953709" lon="10.562879037702622"><ele>17.0</ele><time>2026-04-04T04:59:56.999Z</time></trkpt><trkpt lat="43.27493197528537" lon="10.562943729385845"><ele>16.999999999999996</ele><time>2026-04-04T04:59:57.999Z</time></trkpt><trkpt lat="43.27488530369345" lon="10.563009863907393"><ele>17.0</ele><time>2026-04-04T04:59:58.999Z</time></trkpt><trkpt lat="43.274841663281585" lon="10.563074040205082"><ele>16.999999999999996</ele><time>2026-04-04T04:59:59.999Z</time></trkpt><trkpt lat="43.27479660397356" lon="10.563137528321121"><ele>17.0</ele><time>2026-04-04T05:00:00.999Z</time></trkpt><trkpt lat="43.2747515682908" lon="10.563201813311778"><ele>17.0</ele><time>2026-04-04T05:00:01.999Z</time></trkpt><trkpt lat="43.27470561112554" lon="10.563267283652282"><ele>17.0</ele><time>2026-04-04T05:00:02.999Z</time></trkpt><trkpt lat="43.274658604318255" lon="10.563333352982365"><ele>17.0</ele><time>2026-04-04T05:00:03.999Z</time></trkpt><trkpt lat="43.27461295190859" lon="10.563398871110621"><ele>16.999999999999996</ele><time>2026-04-04T05:00:04.999Z</time></trkpt><trkpt lat="43.27456740323893" lon="10.563465284918628"><ele>17.0</ele><time>2026-04-04T05:00:05.999Z</time></trkpt><trkpt lat="43.27452274673065" lon="10.563531459434145"><ele>17.0</ele><time>2026-04-04T05:00:06.999Z</time></trkpt><trkpt lat="43.27447718872049" lon="10.563596877885825"><ele>17.0</ele><time>2026-04-04T05:00:07.999Z</time></trkpt><trkpt lat="43.27443276692518" lon="10.563658970778006"><ele>17.0</ele><time>2026-04-04T05:00:08.999Z</time></trkpt><trkpt lat="43.27438731574077" lon="10.563721890352056"><ele>17.0</ele><time>2026-04-04T05:00:09.999Z</time></trkpt><trkpt lat="43.27429946956315" lon="10.563846365469422"><ele>17.0</ele><time>2026-04-04T05:00:11.999Z</time></trkpt><trkpt lat="43.27425555377995" lon="10.563908775422997"><ele>17.0</ele><time>2026-04-04T05:00:12.999Z</time></trkpt><trkpt lat="43.27416933925281" lon="10.564033379980517"><ele>17.0</ele><time>2026-04-04T05:00:14.999Z</time></trkpt><trkpt lat="43.274123470182005" lon="10.564094179945457"><ele>17.0</ele><time>2026-04-04T05:00:15.999Z</time></trkpt><trkpt lat="43.274041777327305" lon="10.564219810884312"><ele>17.0</ele><time>2026-04-04T05:00:17.999Z</time></trkpt><trkpt lat="43.27399488614449" lon="10.564279548016929"><ele>17.0</ele><time>2026-04-04T05:00:18.999Z</time></trkpt><trkpt lat="43.2739139273688" lon="10.564404255437935"><ele>17.0</ele><time>2026-04-04T05:00:20.999Z</time></trkpt><trkpt lat="43.27382668563606" lon="10.56451890323292"><ele>16.999999999999996</ele><time>2026-04-04T05:00:22.999Z</time></trkpt><trkpt lat="43.273781955073254" lon="10.564583052522211"><ele>17.0</ele><time>2026-04-04T05:00:23.999Z</time></trkpt><trkpt lat="43.27373606791474" lon="10.564649686284673"><ele>17.0</ele><time>2026-04-04T05:00:24.999Z</time></trkpt><trkpt lat="43.27368884897139" lon="10.564718837951453"><ele>17.0</ele><time>2026-04-04T05:00:25.999Z</time></trkpt><trkpt lat="43.2736426631443" lon="10.564788077164023"><ele>17.0</ele><time>2026-04-04T05:00:26.999Z</time></trkpt><trkpt lat="43.27359604386843" lon="10.5648532342531"><ele>16.999999999999996</ele><time>2026-04-04T05:00:27.999Z</time></trkpt><trkpt lat="43.27354746982538" lon="10.564919174384745"><ele>17.0</ele><time>2026-04-04T05:00:28.999Z</time></trkpt><trkpt lat="43.27350159741407" lon="10.564985004196451"><ele>16.999999999999996</ele><time>2026-04-04T05:00:29.999Z</time></trkpt><trkpt lat="43.27345500991414" lon="10.565049876157971"><ele>17.0</ele><time>2026-04-04T05:00:30.999Z</time></trkpt><trkpt lat="43.27340832351536" lon="10.565117392407172"><ele>17.0</ele><time>2026-04-04T05:00:31.999Z</time></trkpt><trkpt lat="43.2733622946817" lon="10.565185311326356"><ele>17.0</ele><time>2026-04-04T05:00:32.999Z</time></trkpt><trkpt lat="43.27331564089428" lon="10.565250542314201"><ele>17.0</ele><time>2026-04-04T05:00:33.999Z</time></trkpt><trkpt lat="43.27327124018422" lon="10.565312792432517"><ele>16.999999999999996</ele><time>2026-04-04T05:00:34.999Z</time></trkpt><trkpt lat="43.273224741101615" lon="10.565377474042567"><ele>17.0</ele><time>2026-04-04T05:00:35.999Z</time></trkpt><trkpt lat="43.27318015876749" lon="10.565444107563758"><ele>17.142857142857142</ele><time>2026-04-04T05:00:36.999Z</time></trkpt><trkpt lat="43.27313601284696" lon="10.5655094898853"><ele>17.285714285714285</ele><time>2026-04-04T05:00:37.999Z</time></trkpt><trkpt lat="43.27309013445396" lon="10.565574267316482"><ele>17.42857142857143</ele><time>2026-04-04T05:00:38.999Z</time></trkpt><trkpt lat="43.273043978166456" lon="10.565637842455388"><ele>17.57142857142857</ele><time>2026-04-04T05:00:39.999Z</time></trkpt><trkpt lat="43.272999492756846" lon="10.565703087160976"><ele>17.714285714285715</ele><time>2026-04-04T05:00:40.999Z</time></trkpt><trkpt lat="43.27295435088363" lon="10.565768155539413"><ele>17.857142857142858</ele><time>2026-04-04T05:00:41.999Z</time></trkpt><trkpt lat="43.2729095005837" lon="10.565830932882848"><ele>18.0</ele><time>2026-04-04T05:00:42.999Z</time></trkpt><trkpt lat="43.272864344749415" lon="10.565895040308476"><ele>18.0</ele><time>2026-04-04T05:00:43.999Z</time></trkpt><trkpt lat="43.272819739747085" lon="10.565960328100093"><ele>18.0</ele><time>2026-04-04T05:00:44.999Z</time></trkpt><trkpt lat="43.27277636631103" lon="10.566026552618972"><ele>18.0</ele><time>2026-04-04T05:00:45.999Z</time></trkpt><trkpt lat="43.272735622641754" lon="10.566093183763353"><ele>18.0</ele><time>2026-04-04T05:00:46.999Z</time></trkpt><trkpt lat="43.27269157761493" lon="10.566155917812738"><ele>18.0</ele><time>2026-04-04T05:00:47.999Z</time></trkpt><trkpt lat="43.27264463314044" lon="10.566216973530688"><ele>18.0</ele><time>2026-04-04T05:00:48.999Z</time></trkpt><trkpt lat="43.272600951434804" lon="10.566280853979602"><ele>18.0</ele><time>2026-04-04T05:00:49.999Z</time></trkpt><trkpt lat="43.27255815720583" lon="10.566345417569108"><ele>18.0</ele><time>2026-04-04T05:00:50.999Z</time></trkpt><trkpt lat="43.272512268205176" lon="10.566406896051994"><ele>18.0</ele><time>2026-04-04T05:00:51.999Z</time></trkpt><trkpt lat="43.272422424530255" lon="10.566526098227728"><ele>18.0</ele><time>2026-04-04T05:00:53.999Z</time></trkpt><trkpt lat="43.27234111664175" lon="10.566649350585065"><ele>18.0</ele><time>2026-04-04T05:00:55.998Z</time></trkpt><trkpt lat="43.272290816930386" lon="10.566702460386542"><ele>18.0</ele><time>2026-04-04T05:00:56.998Z</time></trkpt><trkpt lat="43.272207236710045" lon="10.566825654179926"><ele>18.0</ele><time>2026-04-04T05:00:58.998Z</time></trkpt><trkpt lat="43.272127506807365" lon="10.56693986810418"><ele>18.2</ele><time>2026-04-04T05:01:00.998Z</time></trkpt><trkpt lat="43.27205158357002" lon="10.567047332927068"><ele>18.4</ele><time>2026-04-04T05:01:02.998Z</time></trkpt><trkpt lat="43.27197847651985" lon="10.567147329532778"><ele>18.599999999999998</ele><time>2026-04-04T05:01:04.998Z</time></trkpt><trkpt lat="43.271888904336244" lon="10.567211701258604"><ele>18.8</ele><time>2026-04-04T05:01:06.998Z</time></trkpt><trkpt lat="43.27179519490721" lon="10.567247741182685"><ele>19.0</ele><time>2026-04-04T05:01:08.998Z</time></trkpt><trkpt lat="43.27171697100816" lon="10.567283166535484"><ele>19.0</ele><time>2026-04-04T05:01:10.998Z</time></trkpt><trkpt lat="43.27163685365982" lon="10.567302154826416"><ele>19.0</ele><time>2026-04-04T05:01:12.998Z</time></trkpt><trkpt lat="43.27161454007852" lon="10.567415487635394"><ele>19.0</ele><time>2026-04-04T05:01:13.998Z</time></trkpt><trkpt lat="43.2715810268914" lon="10.567555298298508"><ele>19.0</ele><time>2026-04-04T05:01:15.998Z</time></trkpt><trkpt lat="43.271570208174495" lon="10.567697299646198"><ele>19.0</ele><time>2026-04-04T05:01:17.998Z</time></trkpt><trkpt lat="43.271509333023694" lon="10.567788201503166"><ele>18.599999999999998</ele><time>2026-04-04T05:01:19.998Z</time></trkpt><trkpt lat="43.27143053033629" lon="10.56774108834888"><ele>18.2</ele><time>2026-04-04T05:01:20.998Z</time></trkpt><trkpt lat="43.27131802943026" lon="10.567767087878432"><ele>17.799999999999997</ele><time>2026-04-04T05:01:23Z</time></trkpt><trkpt lat="43.27119966758255" lon="10.56778004471133"><ele>17.4</ele><time>2026-04-04T05:01:25Z</time></trkpt><trkpt lat="43.2710876518649" lon="10.56780437043283"><ele>17.0</ele><time>2026-04-04T05:01:27Z</time></trkpt><trkpt lat="43.270972292570775" lon="10.567830810603573"><ele>17.0</ele><time>2026-04-04T05:01:29Z</time></trkpt><trkpt lat="43.27086173212712" lon="10.567856150876237"><ele>17.0</ele><time>2026-04-04T05:01:31Z</time></trkpt><trkpt lat="43.270751487419986" lon="10.567880682151126"><ele>17.0</ele><time>2026-04-04T05:01:33Z</time></trkpt><trkpt lat="43.27064493597879" lon="10.567902992356816"><ele>17.0</ele><time>2026-04-04T05:01:35Z</time></trkpt><trkpt lat="43.27053687803973" lon="10.567924556648142"><ele>17.0</ele><time>2026-04-04T05:01:37Z</time></trkpt><trkpt lat="43.270431577039396" lon="10.567944528404524"><ele>17.6</ele><time>2026-04-04T05:01:39Z</time></trkpt><trkpt lat="43.270330641710835" lon="10.567964569987078"><ele>18.2</ele><time>2026-04-04T05:01:41Z</time></trkpt><trkpt lat="43.27023035523924" lon="10.567984148756993"><ele>18.8</ele><time>2026-04-04T05:01:43Z</time></trkpt><trkpt lat="43.27012305136216" lon="10.568005097517737"><ele>19.4</ele><time>2026-04-04T05:01:45Z</time></trkpt><trkpt lat="43.270020132918475" lon="10.568025506512585"><ele>20.0</ele><time>2026-04-04T05:01:47Z</time></trkpt><trkpt lat="43.26991995575471" lon="10.568047986834129"><ele>20.0</ele><time>2026-04-04T05:01:49Z</time></trkpt><trkpt lat="43.2698214538027" lon="10.568070091228423"><ele>20.0</ele><time>2026-04-04T05:01:51Z</time></trkpt><trkpt lat="43.26973058639111" lon="10.568112186907104"><ele>20.0</ele><time>2026-04-04T05:01:53Z</time></trkpt><trkpt lat="43.26962802108362" lon="10.568113498621546"><ele>20.0</ele><time>2026-04-04T05:01:55Z</time></trkpt><trkpt lat="43.26953253931081" lon="10.568133690240344"><ele>20.0</ele><time>2026-04-04T05:01:57Z</time></trkpt><trkpt lat="43.26943641609135" lon="10.568153882833096"><ele>20.2</ele><time>2026-04-04T05:01:58.999Z</time></trkpt><trkpt lat="43.26934341292727" lon="10.568173419997516"><ele>20.4</ele><time>2026-04-04T05:02:00.999Z</time></trkpt><trkpt lat="43.26925188360252" lon="10.568192647552321"><ele>20.6</ele><time>2026-04-04T05:02:02.999Z</time></trkpt><trkpt lat="43.26917268850082" lon="10.56820930805114"><ele>20.8</ele><time>2026-04-04T05:02:04.999Z</time></trkpt><trkpt lat="43.26907314288966" lon="10.568230296697738"><ele>21.0</ele><time>2026-04-04T05:02:07.999Z</time></trkpt><trkpt lat="43.26896614045949" lon="10.568272754715512"><ele>21.0</ele><time>2026-04-04T05:02:10.999Z</time></trkpt><trkpt lat="43.268868817678644" lon="10.56829576413172"><ele>21.0</ele><time>2026-04-04T05:02:12.999Z</time></trkpt><trkpt lat="43.26877613458788" lon="10.568307536257324"><ele>21.0</ele><time>2026-04-04T05:02:14.999Z</time></trkpt><trkpt lat="43.268680713557835" lon="10.568325444877436"><ele>21.0</ele><time>2026-04-04T05:02:16.999Z</time></trkpt><trkpt lat="43.268585712918956" lon="10.568333425617984"><ele>21.0</ele><time>2026-04-04T05:02:18.999Z</time></trkpt><trkpt lat="43.26850280388074" lon="10.56836014014563"><ele>21.0</ele><time>2026-04-04T05:02:20.999Z</time></trkpt><trkpt lat="43.26841451010021" lon="10.568373593816752"><ele>21.0</ele><time>2026-04-04T05:02:22.999Z</time></trkpt><trkpt lat="43.26831115661625" lon="10.568386982391704"><ele>21.0</ele><time>2026-04-04T05:02:24.999Z</time></trkpt><trkpt lat="43.26823136209377" lon="10.568413644596093"><ele>21.0</ele><time>2026-04-04T05:02:26.999Z</time></trkpt><trkpt lat="43.26814350285511" lon="10.568468468519658"><ele>21.0</ele><time>2026-04-04T05:02:28.999Z</time></trkpt><trkpt lat="43.268058376181656" lon="10.568539551160699"><ele>21.200000000000003</ele><time>2026-04-04T05:02:30.999Z</time></trkpt><trkpt lat="43.26797561282716" lon="10.568591979937493"><ele>21.400000000000002</ele><time>2026-04-04T05:02:32.999Z</time></trkpt><trkpt lat="43.26789217124045" lon="10.568655049697792"><ele>21.6</ele><time>2026-04-04T05:02:34.999Z</time></trkpt><trkpt lat="43.267789835218274" lon="10.568702229109459"><ele>21.8</ele><time>2026-04-04T05:02:36.999Z</time></trkpt><trkpt lat="43.26767346330623" lon="10.5686983222235"><ele>22.0</ele><time>2026-04-04T05:02:38.999Z</time></trkpt><trkpt lat="43.26756615731466" lon="10.568727746070993"><ele>22.0</ele><time>2026-04-04T05:02:40.999Z</time></trkpt><trkpt lat="43.26745159275081" lon="10.568751355780153"><ele>22.0</ele><time>2026-04-04T05:02:42.999Z</time></trkpt><trkpt lat="43.267340230142125" lon="10.568776716352032"><ele>22.0</ele><time>2026-04-04T05:02:44.999Z</time></trkpt><trkpt lat="43.26723272314798" lon="10.568807142560908"><ele>22.0</ele><time>2026-04-04T05:02:46.999Z</time></trkpt><trkpt lat="43.2671281213823" lon="10.568833144656923"><ele>22.0</ele><time>2026-04-04T05:02:48.999Z</time></trkpt><trkpt lat="43.26702178920306" lon="10.568855659994144"><ele>22.0</ele><time>2026-04-04T05:02:50.999Z</time></trkpt><trkpt lat="43.26691494409974" lon="10.568883178236787"><ele>22.0</ele><time>2026-04-04T05:02:52.999Z</time></trkpt><trkpt lat="43.26680492421192" lon="10.568908175201456"><ele>22.0</ele><time>2026-04-04T05:02:54.999Z</time></trkpt><trkpt lat="43.26669826315255" lon="10.568932573951894"><ele>22.0</ele><time>2026-04-04T05:02:56.999Z</time></trkpt><trkpt lat="43.26659141572408" lon="10.568952373110225"><ele>22.0</ele><time>2026-04-04T05:02:58.998Z</time></trkpt><trkpt lat="43.26648527862772" lon="10.568979875810982"><ele>21.8</ele><time>2026-04-04T05:03:00.998Z</time></trkpt><trkpt lat="43.266378021265275" lon="10.569001002257469"><ele>21.6</ele><time>2026-04-04T05:03:02.998Z</time></trkpt><trkpt lat="43.266274155931164" lon="10.569020218696826"><ele>21.400000000000002</ele><time>2026-04-04T05:03:04.998Z</time></trkpt><trkpt lat="43.26616881780979" lon="10.569042854423097"><ele>21.200000000000003</ele><time>2026-04-04T05:03:06.998Z</time></trkpt><trkpt lat="43.2660555667552" lon="10.569072923563192"><ele>21.0</ele><time>2026-04-04T05:03:08.998Z</time></trkpt><trkpt lat="43.26594616140852" lon="10.569096809427315"><ele>21.0</ele><time>2026-04-04T05:03:10.998Z</time></trkpt><trkpt lat="43.265836485720044" lon="10.569120897368965"><ele>21.0</ele><time>2026-04-04T05:03:12.998Z</time></trkpt><trkpt lat="43.26572625596023" lon="10.56914240248896"><ele>21.0</ele><time>2026-04-04T05:03:14.998Z</time></trkpt><trkpt lat="43.26561415032987" lon="10.569167158559592"><ele>21.0</ele><time>2026-04-04T05:03:16.998Z</time></trkpt><trkpt lat="43.265500516165694" lon="10.569191983000783"><ele>20.75</ele><time>2026-04-04T05:03:18.998Z</time></trkpt><trkpt lat="43.265386622527856" lon="10.56921221806784"><ele>20.5</ele><time>2026-04-04T05:03:20.998Z</time></trkpt><trkpt lat="43.26527445157301" lon="10.569243237611877"><ele>20.25</ele><time>2026-04-04T05:03:22.998Z</time></trkpt><trkpt lat="43.265157351278376" lon="10.569268564728233"><ele>20.0</ele><time>2026-04-04T05:03:24.998Z</time></trkpt><trkpt lat="43.265041177734744" lon="10.569297183090864"><ele>20.0</ele><time>2026-04-04T05:03:26.998Z</time></trkpt><trkpt lat="43.264920739700685" lon="10.569323531462114"><ele>20.0</ele><time>2026-04-04T05:03:29Z</time></trkpt><trkpt lat="43.26479774680431" lon="10.569348691821553"><ele>20.0</ele><time>2026-04-04T05:03:31Z</time></trkpt><trkpt lat="43.26473425476979" lon="10.56936388657766"><ele>20.0</ele><time>2026-04-04T05:03:32Z</time></trkpt><trkpt lat="43.26461147661829" lon="10.569393746229187"><ele>20.0</ele><time>2026-04-04T05:03:34Z</time></trkpt><trkpt lat="43.26449048950554" lon="10.56941782438376"><ele>19.5</ele><time>2026-04-04T05:03:36Z</time></trkpt><trkpt lat="43.26436679843634" lon="10.569448730486396"><ele>19.0</ele><time>2026-04-04T05:03:38Z</time></trkpt><trkpt lat="43.26430431049666" lon="10.569463600868605"><ele>18.5</ele><time>2026-04-04T05:03:39Z</time></trkpt><trkpt lat="43.26423978566727" lon="10.569481813003073"><ele>18.0</ele><time>2026-04-04T05:03:40Z</time></trkpt><trkpt lat="43.26417401267792" lon="10.569492690359953"><ele>17.5</ele><time>2026-04-04T05:03:41Z</time></trkpt><trkpt lat="43.26410872004057" lon="10.569506207264523"><ele>17.0</ele><time>2026-04-04T05:03:42Z</time></trkpt><trkpt lat="43.26404445524464" lon="10.569520855879336"><ele>17.5</ele><time>2026-04-04T05:03:43Z</time></trkpt><trkpt lat="43.26398042528372" lon="10.569534800254768"><ele>18.0</ele><time>2026-04-04T05:03:44Z</time></trkpt><trkpt lat="43.26391551502334" lon="10.569545369106246"><ele>18.5</ele><time>2026-04-04T05:03:45Z</time></trkpt><trkpt lat="43.26385247632114" lon="10.569558161905473"><ele>19.0</ele><time>2026-04-04T05:03:46Z</time></trkpt><trkpt lat="43.26373465087455" lon="10.569586841193619"><ele>19.5</ele><time>2026-04-04T05:03:48Z</time></trkpt><trkpt lat="43.26361308866917" lon="10.569619830186186"><ele>20.0</ele><time>2026-04-04T05:03:50Z</time></trkpt><trkpt lat="43.263549472037276" lon="10.56962997508868"><ele>20.0</ele><time>2026-04-04T05:03:51Z</time></trkpt><trkpt lat="43.263438735532134" lon="10.569651518296938"><ele>20.0</ele><time>2026-04-04T05:03:53Z</time></trkpt><trkpt lat="43.26331556491104" lon="10.569684607416018"><ele>20.0</ele><time>2026-04-04T05:03:55Z</time></trkpt><trkpt lat="43.263253038738135" lon="10.56970504676896"><ele>20.0</ele><time>2026-04-04T05:03:56Z</time></trkpt><trkpt lat="43.26318700013066" lon="10.569701854128136"><ele>20.0</ele><time>2026-04-04T05:03:57Z</time></trkpt><trkpt lat="43.263066757282076" lon="10.569742565997505"><ele>20.0</ele><time>2026-04-04T05:03:59Z</time></trkpt><trkpt lat="43.26294448346353" lon="10.56977334642803"><ele>20.0</ele><time>2026-04-04T05:04:01Z</time></trkpt><trkpt lat="43.26282521541179" lon="10.56979612144529"><ele>20.0</ele><time>2026-04-04T05:04:02.999Z</time></trkpt><trkpt lat="43.26271119730891" lon="10.569823544416682"><ele>20.0</ele><time>2026-04-04T05:04:04.999Z</time></trkpt><trkpt lat="43.26259857228796" lon="10.569852324754132"><ele>20.0</ele><time>2026-04-04T05:04:06.999Z</time></trkpt><trkpt lat="43.26248775829919" lon="10.569876841001426"><ele>20.0</ele><time>2026-04-04T05:04:08.999Z</time></trkpt><trkpt lat="43.26237720817754" lon="10.569882865655782"><ele>20.0</ele><time>2026-04-04T05:04:10.999Z</time></trkpt><trkpt lat="43.26227007420224" lon="10.569926149654675"><ele>20.0</ele><time>2026-04-04T05:04:12.999Z</time></trkpt><trkpt lat="43.262164963654364" lon="10.569949300169032"><ele>20.0</ele><time>2026-04-04T05:04:14.999Z</time></trkpt><trkpt lat="43.2620656364985" lon="10.56998283498988"><ele>19.75</ele><time>2026-04-04T05:04:16.999Z</time></trkpt><trkpt lat="43.26198741114547" lon="10.569987315100315"><ele>19.5</ele><time>2026-04-04T05:04:18.999Z</time></trkpt><trkpt lat="43.26202100072161" lon="10.570219477972763"><ele>19.25</ele><time>2026-04-04T05:04:20.999Z</time></trkpt><trkpt lat="43.26209218592582" lon="10.570330778441573"><ele>19.0</ele><time>2026-04-04T05:04:22.999Z</time></trkpt><trkpt lat="43.26214315741581" lon="10.570457466592307"><ele>19.2</ele><time>2026-04-04T05:04:24.999Z</time></trkpt><trkpt lat="43.262184596061694" lon="10.570584470607729"><ele>19.4</ele><time>2026-04-04T05:04:26.999Z</time></trkpt><trkpt lat="43.262246934214375" lon="10.57069685991285"><ele>19.6</ele><time>2026-04-04T05:04:28.999Z</time></trkpt><trkpt lat="43.26229644575779" lon="10.570813342210608"><ele>19.8</ele><time>2026-04-04T05:04:30.999Z</time></trkpt><trkpt lat="43.26234811261024" lon="10.570926679882938"><ele>20.0</ele><time>2026-04-04T05:04:32.999Z</time></trkpt><trkpt lat="43.26240126572637" lon="10.571046223602597"><ele>20.0</ele><time>2026-04-04T05:04:34.999Z</time></trkpt><trkpt lat="43.26245449619835" lon="10.57115741924489"><ele>20.0</ele><time>2026-04-04T05:04:36.999Z</time></trkpt><trkpt lat="43.262513742569965" lon="10.571272915284208"><ele>20.0</ele><time>2026-04-04T05:04:38.999Z</time></trkpt><trkpt lat="43.26256048968775" lon="10.571400435156265"><ele>20.0</ele><time>2026-04-04T05:04:40.999Z</time></trkpt><trkpt lat="43.26262981935754" lon="10.571499449722907"><ele>20.0</ele><time>2026-04-04T05:04:42.999Z</time></trkpt><trkpt lat="43.26268858442528" lon="10.57161616048361"><ele>20.4</ele><time>2026-04-04T05:04:44.999Z</time></trkpt><trkpt lat="43.262746935120774" lon="10.571729761734513"><ele>20.8</ele><time>2026-04-04T05:04:46.999Z</time></trkpt><trkpt lat="43.26280423099497" lon="10.571845822556922"><ele>21.200000000000003</ele><time>2026-04-04T05:04:48.999Z</time></trkpt><trkpt lat="43.26285736455891" lon="10.571954435288289"><ele>21.6</ele><time>2026-04-04T05:04:50.999Z</time></trkpt><trkpt lat="43.26290734196437" lon="10.57205147593034"><ele>22.0</ele><time>2026-04-04T05:04:52.999Z</time></trkpt><trkpt lat="43.26296065180005" lon="10.572145312095143"><ele>22.200000000000003</ele><time>2026-04-04T05:04:54.999Z</time></trkpt><trkpt lat="43.26301227620749" lon="10.572242053087074"><ele>22.4</ele><time>2026-04-04T05:04:56.999Z</time></trkpt><trkpt lat="43.26306582059718" lon="10.572346274541424"><ele>22.6</ele><time>2026-04-04T05:04:58.999Z</time></trkpt><trkpt lat="43.26311486273499" lon="10.572454130130518"><ele>22.799999999999997</ele><time>2026-04-04T05:05:00.999Z</time></trkpt><trkpt lat="43.26316872417064" lon="10.572558115399477"><ele>23.0</ele><time>2026-04-04T05:05:02.998Z</time></trkpt><trkpt lat="43.26321925815307" lon="10.572670054732384"><ele>23.2</ele><time>2026-04-04T05:05:04.998Z</time></trkpt><trkpt lat="43.263269455216346" lon="10.572778957824791"><ele>23.4</ele><time>2026-04-04T05:05:06.998Z</time></trkpt><trkpt lat="43.26332362747137" lon="10.572879758119253"><ele>23.599999999999998</ele><time>2026-04-04T05:05:08.998Z</time></trkpt><trkpt lat="43.26336827667912" lon="10.572997502202623"><ele>23.799999999999997</ele><time>2026-04-04T05:05:10.998Z</time></trkpt><trkpt lat="43.26341897540451" lon="10.573106251675307"><ele>24.0</ele><time>2026-04-04T05:05:12.998Z</time></trkpt><trkpt lat="43.263467689853705" lon="10.573212945526036"><ele>24.166666666666668</ele><time>2026-04-04T05:05:14.998Z</time></trkpt><trkpt lat="43.263514813724285" lon="10.573318235011778"><ele>24.333333333333336</ele><time>2026-04-04T05:05:16.998Z</time></trkpt><trkpt lat="43.26356491502453" lon="10.573415791947534"><ele>24.5</ele><time>2026-04-04T05:05:18.998Z</time></trkpt><trkpt lat="43.263605811101606" lon="10.57351750655453"><ele>24.666666666666668</ele><time>2026-04-04T05:05:20.998Z</time></trkpt><trkpt lat="43.26364832150046" lon="10.573611235926375"><ele>24.833333333333336</ele><time>2026-04-04T05:05:22.998Z</time></trkpt><trkpt lat="43.263689464903386" lon="10.573704380527595"><ele>25.0</ele><time>2026-04-04T05:05:24.998Z</time></trkpt><trkpt lat="43.26372808601405" lon="10.573797491531582"><ele>25.166666666666668</ele><time>2026-04-04T05:05:26.998Z</time></trkpt><trkpt lat="43.26377209241733" lon="10.57388660131648"><ele>25.333333333333336</ele><time>2026-04-04T05:05:28.998Z</time></trkpt><trkpt lat="43.263822064381415" lon="10.573981324687933"><ele>25.5</ele><time>2026-04-04T05:05:30.998Z</time></trkpt><trkpt lat="43.26387299638995" lon="10.574068387417054"><ele>25.666666666666664</ele><time>2026-04-04T05:05:32.998Z</time></trkpt><trkpt lat="43.2639253650986" lon="10.574175803280397"><ele>25.833333333333332</ele><time>2026-04-04T05:05:36Z</time></trkpt><trkpt lat="43.263979624985076" lon="10.57429574547104"><ele>26.0</ele><time>2026-04-04T05:05:38Z</time></trkpt><trkpt lat="43.264023350009026" lon="10.574389885789367"><ele>25.999999999999996</ele><time>2026-04-04T05:05:40Z</time></trkpt><trkpt lat="43.26406182544196" lon="10.574490733191144"><ele>26.0</ele><time>2026-04-04T05:05:42Z</time></trkpt><trkpt lat="43.26410316053896" lon="10.574586492321945"><ele>26.0</ele><time>2026-04-04T05:05:44Z</time></trkpt><trkpt lat="43.2641460024263" lon="10.57467478563823"><ele>26.0</ele><time>2026-04-04T05:05:46Z</time></trkpt><trkpt lat="43.264187918929245" lon="10.574772583175111"><ele>25.999999999999996</ele><time>2026-04-04T05:05:48Z</time></trkpt><trkpt lat="43.2642311780393" lon="10.574862210804577"><ele>26.0</ele><time>2026-04-04T05:05:50Z</time></trkpt><trkpt lat="43.26427785528294" lon="10.57496158002905"><ele>26.333333333333332</ele><time>2026-04-04T05:05:52Z</time></trkpt><trkpt lat="43.26432482326747" lon="10.575055902402646"><ele>26.666666666666664</ele><time>2026-04-04T05:05:54Z</time></trkpt><trkpt lat="43.264368101807484" lon="10.575150562697452"><ele>27.0</ele><time>2026-04-04T05:05:56Z</time></trkpt><trkpt lat="43.26441581111846" lon="10.575258693396052"><ele>27.333333333333336</ele><time>2026-04-04T05:05:58Z</time></trkpt><trkpt lat="43.26446340877806" lon="10.575351267720963"><ele>27.666666666666668</ele><time>2026-04-04T05:06:00Z</time></trkpt><trkpt lat="43.264496945346295" lon="10.575426712517043"><ele>28.0</ele><time>2026-04-04T05:06:02Z</time></trkpt><trkpt lat="43.264535476461745" lon="10.575520894132291"><ele>28.000000000000004</ele><time>2026-04-04T05:06:04Z</time></trkpt><trkpt lat="43.26458705828236" lon="10.575624525387306"><ele>28.0</ele><time>2026-04-04T05:06:06Z</time></trkpt><trkpt lat="43.26463561587468" lon="10.575713249349137"><ele>28.0</ele><time>2026-04-04T05:06:08Z</time></trkpt><trkpt lat="43.26468105539198" lon="10.575803069812608"><ele>28.0</ele><time>2026-04-04T05:06:09.999Z</time></trkpt><trkpt lat="43.26472708959839" lon="10.575898713618686"><ele>28.000000000000004</ele><time>2026-04-04T05:06:11.999Z</time></trkpt><trkpt lat="43.26477213824951" lon="10.575992702738635"><ele>28.0</ele><time>2026-04-04T05:06:13.999Z</time></trkpt><trkpt lat="43.26481654601392" lon="10.576081005665834"><ele>28.166666666666668</ele><time>2026-04-04T05:06:15.999Z</time></trkpt><trkpt lat="43.26485964277395" lon="10.57617494317607"><ele>28.333333333333336</ele><time>2026-04-04T05:06:17.999Z</time></trkpt><trkpt lat="43.264901777609985" lon="10.576268893572752"><ele>28.5</ele><time>2026-04-04T05:06:19.999Z</time></trkpt><trkpt lat="43.26494678293844" lon="10.57635047020902"><ele>28.666666666666664</ele><time>2026-04-04T05:06:21.999Z</time></trkpt><trkpt lat="43.26498356655982" lon="10.576449018091415"><ele>28.833333333333332</ele><time>2026-04-04T05:06:23.999Z</time></trkpt><trkpt lat="43.26501646896417" lon="10.576544753439132"><ele>29.0</ele><time>2026-04-04T05:06:25.999Z</time></trkpt><trkpt lat="43.265055421156795" lon="10.576638357656602"><ele>29.166666666666664</ele><time>2026-04-04T05:06:27.999Z</time></trkpt><trkpt lat="43.265093776580606" lon="10.576731979294705"><ele>29.333333333333332</ele><time>2026-04-04T05:06:29.999Z</time></trkpt><trkpt lat="43.2651288021252" lon="10.5768229477859"><ele>29.5</ele><time>2026-04-04T05:06:31.999Z</time></trkpt><trkpt lat="43.265161232067314" lon="10.576899674282563"><ele>29.666666666666664</ele><time>2026-04-04T05:06:33.999Z</time></trkpt><trkpt lat="43.26519875938742" lon="10.576994692918161"><ele>29.833333333333332</ele><time>2026-04-04T05:06:35.999Z</time></trkpt><trkpt lat="43.265243428692145" lon="10.577087684904091"><ele>30.0</ele><time>2026-04-04T05:06:37.999Z</time></trkpt><trkpt lat="43.265281747252416" lon="10.577187613165952"><ele>30.4</ele><time>2026-04-04T05:06:39.999Z</time></trkpt><trkpt lat="43.26532648536706" lon="10.577284334318906"><ele>30.8</ele><time>2026-04-04T05:06:41.999Z</time></trkpt><trkpt lat="43.265369985804405" lon="10.577405262150926"><ele>31.200000000000003</ele><time>2026-04-04T05:06:43.999Z</time></trkpt><trkpt lat="43.26541477491478" lon="10.5775098544767"><ele>31.6</ele><time>2026-04-04T05:06:45.999Z</time></trkpt><trkpt lat="43.26546035785648" lon="10.577611988808327"><ele>32.0</ele><time>2026-04-04T05:06:47.999Z</time></trkpt><trkpt lat="43.26550599182144" lon="10.577723972317965"><ele>31.999999999999996</ele><time>2026-04-04T05:06:49.999Z</time></trkpt><trkpt lat="43.26555440327459" lon="10.577821239487982"><ele>32.0</ele><time>2026-04-04T05:06:51.999Z</time></trkpt><trkpt lat="43.26558338366558" lon="10.577928463495871"><ele>32.0</ele><time>2026-04-04T05:06:53.999Z</time></trkpt><trkpt lat="43.2655529694226" lon="10.578032076486567"><ele>32.0</ele><time>2026-04-04T05:06:55.999Z</time></trkpt><trkpt lat="43.26548704549827" lon="10.578110492688392"><ele>31.999999999999996</ele><time>2026-04-04T05:06:57.999Z</time></trkpt><trkpt lat="43.265425578390285" lon="10.578196752645198"><ele>32.0</ele><time>2026-04-04T05:06:59.999Z</time></trkpt><trkpt lat="43.26535546567751" lon="10.57828932358917"><ele>31.8</ele><time>2026-04-04T05:07:01.999Z</time></trkpt><trkpt lat="43.26529658161257" lon="10.578395594335348"><ele>31.6</ele><time>2026-04-04T05:07:03.999Z</time></trkpt><trkpt lat="43.265275632753706" lon="10.578528215954472"><ele>31.400000000000002</ele><time>2026-04-04T05:07:05.999Z</time></trkpt><trkpt lat="43.26530997189033" lon="10.578647127596263"><ele>31.200000000000003</ele><time>2026-04-04T05:07:07.999Z</time></trkpt><trkpt lat="43.265371901194406" lon="10.578747282685178"><ele>31.0</ele><time>2026-04-04T05:07:09.998Z</time></trkpt><trkpt lat="43.265438593024335" lon="10.578836677380586"><ele>31.333333333333336</ele><time>2026-04-04T05:07:11.998Z</time></trkpt><trkpt lat="43.265512663292746" lon="10.578917948551274"><ele>31.666666666666668</ele><time>2026-04-04T05:07:13.998Z</time></trkpt><trkpt lat="43.26558128615379" lon="10.578993542883119"><ele>32.0</ele><time>2026-04-04T05:07:15.998Z</time></trkpt><trkpt lat="43.265652521374534" lon="10.579051627415199"><ele>32.333333333333336</ele><time>2026-04-04T05:07:17.998Z</time></trkpt><trkpt lat="43.265724175417795" lon="10.579111571774302"><ele>32.666666666666664</ele><time>2026-04-04T05:07:19.998Z</time></trkpt><trkpt lat="43.26580479488431" lon="10.579160020476287"><ele>33.0</ele><time>2026-04-04T05:07:21.998Z</time></trkpt><trkpt lat="43.26587761569429" lon="10.579216599055279"><ele>33.166666666666664</ele><time>2026-04-04T05:07:23.998Z</time></trkpt><trkpt lat="43.26594721701131" lon="10.57928052799856"><ele>33.333333333333336</ele><time>2026-04-04T05:07:25.998Z</time></trkpt><trkpt lat="43.266006559808915" lon="10.57935398356571"><ele>33.5</ele><time>2026-04-04T05:07:27.998Z</time></trkpt><trkpt lat="43.26604937716722" lon="10.579441966472077"><ele>33.66666666666667</ele><time>2026-04-04T05:07:29.998Z</time></trkpt><trkpt lat="43.266092590050285" lon="10.57952850205588"><ele>33.833333333333336</ele><time>2026-04-04T05:07:31.998Z</time></trkpt><trkpt lat="43.266137363278666" lon="10.579611834667961"><ele>34.0</ele><time>2026-04-04T05:07:33.998Z</time></trkpt><trkpt lat="43.26617683690395" lon="10.579692574548263"><ele>33.99999999999999</ele><time>2026-04-04T05:07:35.998Z</time></trkpt><trkpt lat="43.26621011169743" lon="10.579779908030009"><ele>34.0</ele><time>2026-04-04T05:07:37.998Z</time></trkpt><trkpt lat="43.26625699562103" lon="10.579865190151112"><ele>34.0</ele><time>2026-04-04T05:07:40Z</time></trkpt><trkpt lat="43.266301345905646" lon="10.579946618943103"><ele>34.0</ele><time>2026-04-04T05:07:42Z</time></trkpt><trkpt lat="43.266341117682565" lon="10.580032628696904"><ele>34.0</ele><time>2026-04-04T05:07:44Z</time></trkpt><trkpt lat="43.266385409683394" lon="10.580106099337506"><ele>33.99999999999999</ele><time>2026-04-04T05:07:46Z</time></trkpt><trkpt lat="43.266444430535905" lon="10.58016781742814"><ele>34.0</ele><time>2026-04-04T05:07:49Z</time></trkpt><trkpt lat="43.26652354524658" lon="10.580241968400587"><ele>34.8</ele><time>2026-04-04T05:07:52Z</time></trkpt><trkpt lat="43.266601608065876" lon="10.580309064331006"><ele>35.599999999999994</ele><time>2026-04-04T05:07:55Z</time></trkpt><trkpt lat="43.26666662096306" lon="10.580358675801548"><ele>36.4</ele><time>2026-04-04T05:07:58Z</time></trkpt><trkpt lat="43.26679466193837" lon="10.580483501782831"><ele>37.199999999999996</ele><time>2026-04-04T05:08:00Z</time></trkpt><trkpt lat="43.26685192320976" lon="10.580534662953605"><ele>38.0</ele><time>2026-04-04T05:08:02Z</time></trkpt><trkpt lat="43.26690893813347" lon="10.58058785781491"><ele>38.0</ele><time>2026-04-04T05:08:04Z</time></trkpt><trkpt lat="43.26696187478204" lon="10.580644587717167"><ele>38.0</ele><time>2026-04-04T05:08:06Z</time></trkpt><trkpt lat="43.26700712753055" lon="10.58071341961337"><ele>38.0</ele><time>2026-04-04T05:08:08Z</time></trkpt><trkpt lat="43.26705323949509" lon="10.580786631540184"><ele>38.0</ele><time>2026-04-04T05:08:10Z</time></trkpt><trkpt lat="43.267098434627" lon="10.580852949450707"><ele>38.0</ele><time>2026-04-04T05:08:12Z</time></trkpt><trkpt lat="43.267133752560305" lon="10.580932155795455"><ele>38.0</ele><time>2026-04-04T05:08:14Z</time></trkpt><trkpt lat="43.267164610495186" lon="10.581027117868055"><ele>38.0</ele><time>2026-04-04T05:08:15.999Z</time></trkpt><trkpt lat="43.267173609059604" lon="10.581127780741895"><ele>38.666666666666664</ele><time>2026-04-04T05:08:17.999Z</time></trkpt><trkpt lat="43.267192555419584" lon="10.58125282592915"><ele>39.33333333333333</ele><time>2026-04-04T05:08:20.999Z</time></trkpt><trkpt lat="43.2672089886215" lon="10.581422188239802"><ele>40.0</ele><time>2026-04-04T05:08:23.999Z</time></trkpt><trkpt lat="43.26722723091914" lon="10.58151723446409"><ele>40.666666666666664</ele><time>2026-04-04T05:08:25.999Z</time></trkpt><trkpt lat="43.2672539779509" lon="10.581608395661581"><ele>41.333333333333336</ele><time>2026-04-04T05:08:27.999Z</time></trkpt><trkpt lat="43.26728732002311" lon="10.581695018193734"><ele>42.0</ele><time>2026-04-04T05:08:29.999Z</time></trkpt><trkpt lat="43.267318600420246" lon="10.581780002857128"><ele>42.142857142857146</ele><time>2026-04-04T05:08:31.999Z</time></trkpt><trkpt lat="43.26736266627402" lon="10.581853909981382"><ele>42.285714285714285</ele><time>2026-04-04T05:08:33.999Z</time></trkpt><trkpt lat="43.26740345231305" lon="10.58192964943767"><ele>42.42857142857143</ele><time>2026-04-04T05:08:35.999Z</time></trkpt><trkpt lat="43.26744625033115" lon="10.581999058573516"><ele>42.57142857142857</ele><time>2026-04-04T05:08:37.999Z</time></trkpt><trkpt lat="43.26751061198998" lon="10.582091473562214"><ele>42.714285714285715</ele><time>2026-04-04T05:08:40.999Z</time></trkpt><trkpt lat="43.267558299855324" lon="10.582160728666548"><ele>42.85714285714286</ele><time>2026-04-04T05:08:42.999Z</time></trkpt><trkpt lat="43.267614394504676" lon="10.582233881110852"><ele>43.0</ele><time>2026-04-04T05:08:44.999Z</time></trkpt><trkpt lat="43.267672896285916" lon="10.58229202162108"><ele>43.5</ele><time>2026-04-04T05:08:46.999Z</time></trkpt><trkpt lat="43.26773196291237" lon="10.58234943333204"><ele>44.0</ele><time>2026-04-04T05:08:49.999Z</time></trkpt><trkpt lat="43.26777939182386" lon="10.582420403277949"><ele>44.5</ele><time>2026-04-04T05:08:52.999Z</time></trkpt><trkpt lat="43.26781864635356" lon="10.582549031907037"><ele>45.0</ele><time>2026-04-04T05:08:53.999Z</time></trkpt><trkpt lat="43.267847325845715" lon="10.582631651346667"><ele>45.5</ele><time>2026-04-04T05:08:55.999Z</time></trkpt><trkpt lat="43.26787209856645" lon="10.582716886789937"><ele>46.0</ele><time>2026-04-04T05:08:57.999Z</time></trkpt><trkpt lat="43.26790591375374" lon="10.582840789428019"><ele>46.16666666666667</ele><time>2026-04-04T05:09:00.999Z</time></trkpt><trkpt lat="43.2679224272379" lon="10.582928701859872"><ele>46.333333333333336</ele><time>2026-04-04T05:09:02.999Z</time></trkpt><trkpt lat="43.267947896590584" lon="10.583016738007125"><ele>46.5</ele><time>2026-04-04T05:09:04.999Z</time></trkpt><trkpt lat="43.26795978679697" lon="10.583107030295865"><ele>46.666666666666664</ele><time>2026-04-04T05:09:06.999Z</time></trkpt><trkpt lat="43.26799542027967" lon="10.583219054583012"><ele>46.83333333333333</ele><time>2026-04-04T05:09:09.999Z</time></trkpt><trkpt lat="43.26800523362286" lon="10.583339947681718"><ele>47.0</ele><time>2026-04-04T05:09:12.999Z</time></trkpt><trkpt lat="43.268023496039234" lon="10.583457860792485"><ele>47.0</ele><time>2026-04-04T05:09:15.998Z</time></trkpt><trkpt lat="43.268036604204454" lon="10.583583917530474"><ele>47.0</ele><time>2026-04-04T05:09:18.998Z</time></trkpt><trkpt lat="43.268042397937585" lon="10.583743610941838"><ele>47.0</ele><time>2026-04-04T05:09:20.998Z</time></trkpt><trkpt lat="43.26804625847059" lon="10.58383768170943"><ele>47.0</ele><time>2026-04-04T05:09:22.998Z</time></trkpt><trkpt lat="43.26805544323607" lon="10.58392940725695"><ele>47.0</ele><time>2026-04-04T05:09:24.998Z</time></trkpt><trkpt lat="43.26806377617551" lon="10.584015338226147"><ele>47.0</ele><time>2026-04-04T05:09:26.998Z</time></trkpt><trkpt lat="43.26807896222683" lon="10.584101331033567"><ele>47.14285714285714</ele><time>2026-04-04T05:09:28.998Z</time></trkpt><trkpt lat="43.26809916189632" lon="10.58419840552429"><ele>47.285714285714285</ele><time>2026-04-04T05:09:30.998Z</time></trkpt><trkpt lat="43.268127094796164" lon="10.584299624110084"><ele>47.42857142857143</ele><time>2026-04-04T05:09:32.998Z</time></trkpt><trkpt lat="43.26815797491601" lon="10.584390979979903"><ele>47.57142857142857</ele><time>2026-04-04T05:09:34.998Z</time></trkpt><trkpt lat="43.26819106346125" lon="10.584483574274026"><ele>47.714285714285715</ele><time>2026-04-04T05:09:36.998Z</time></trkpt><trkpt lat="43.26822355809597" lon="10.584585850162615"><ele>47.857142857142854</ele><time>2026-04-04T05:09:39.998Z</time></trkpt><trkpt lat="43.26824992336596" lon="10.584670006542778"><ele>48.0</ele><time>2026-04-04T05:09:41.998Z</time></trkpt><trkpt lat="43.26826341408915" lon="10.584764818614854"><ele>48.5</ele><time>2026-04-04T05:09:43.998Z</time></trkpt><trkpt lat="43.26827934601943" lon="10.584860230688284"><ele>49.0</ele><time>2026-04-04T05:09:46Z</time></trkpt><trkpt lat="43.26827891974552" lon="10.584958243087359"><ele>49.5</ele><time>2026-04-04T05:09:48Z</time></trkpt><trkpt lat="43.268272951199435" lon="10.585059165602788"><ele>50.0</ele><time>2026-04-04T05:09:50Z</time></trkpt><trkpt lat="43.268269514883926" lon="10.585149249787374"><ele>50.5</ele><time>2026-04-04T05:09:52Z</time></trkpt><trkpt lat="43.26825431441084" lon="10.585279439718"><ele>51.0</ele><time>2026-04-04T05:09:55Z</time></trkpt><trkpt lat="43.268244625762854" lon="10.585390529452745"><ele>51.199999999999996</ele><time>2026-04-04T05:09:57Z</time></trkpt><trkpt lat="43.26824050216253" lon="10.585523911684588"><ele>51.4</ele><time>2026-04-04T05:09:59Z</time></trkpt><trkpt lat="43.26825524832464" lon="10.585665602422676"><ele>51.6</ele><time>2026-04-04T05:10:01Z</time></trkpt><trkpt lat="43.268284194553125" lon="10.585811956232376"><ele>51.8</ele><time>2026-04-04T05:10:03Z</time></trkpt><trkpt lat="43.268277016772636" lon="10.58595659268841"><ele>52.0</ele><time>2026-04-04T05:10:05Z</time></trkpt><trkpt lat="43.26828564224867" lon="10.586101582109704"><ele>51.8</ele><time>2026-04-04T05:10:07Z</time></trkpt><trkpt lat="43.268290507561446" lon="10.586242478005301"><ele>51.6</ele><time>2026-04-04T05:10:09Z</time></trkpt><trkpt lat="43.26829372311977" lon="10.586384225126393"><ele>51.4</ele><time>2026-04-04T05:10:11Z</time></trkpt><trkpt lat="43.26829499721277" lon="10.586522749784052"><ele>51.199999999999996</ele><time>2026-04-04T05:10:13Z</time></trkpt><trkpt lat="43.26829193346698" lon="10.58665206996053"><ele>51.0</ele><time>2026-04-04T05:10:15Z</time></trkpt><trkpt lat="43.26827959629842" lon="10.586771684189976"><ele>51.0</ele><time>2026-04-04T05:10:17Z</time></trkpt><trkpt lat="43.268260430540366" lon="10.586879258957111"><ele>51.0</ele><time>2026-04-04T05:10:19Z</time></trkpt><trkpt lat="43.26823648259935" lon="10.586995120737804"><ele>51.0</ele><time>2026-04-04T05:10:20.999Z</time></trkpt><trkpt lat="43.26821418459679" lon="10.587111781436679"><ele>51.0</ele><time>2026-04-04T05:10:22.999Z</time></trkpt><trkpt lat="43.26819591990813" lon="10.58722883635038"><ele>51.0</ele><time>2026-04-04T05:10:24.999Z</time></trkpt><trkpt lat="43.26818737780185" lon="10.587346592693091"><ele>51.0</ele><time>2026-04-04T05:10:26.999Z</time></trkpt><trkpt lat="43.26818395404553" lon="10.587461926432917"><ele>51.166666666666664</ele><time>2026-04-04T05:10:28.999Z</time></trkpt><trkpt lat="43.26818048390176" lon="10.587576530179403"><ele>51.33333333333333</ele><time>2026-04-04T05:10:30.999Z</time></trkpt><trkpt lat="43.268207223153944" lon="10.58769382461518"><ele>51.5</ele><time>2026-04-04T05:10:32.999Z</time></trkpt><trkpt lat="43.26819992721752" lon="10.587805661578487"><ele>51.666666666666664</ele><time>2026-04-04T05:10:34.999Z</time></trkpt><trkpt lat="43.26818437143355" lon="10.587915654951685"><ele>51.83333333333333</ele><time>2026-04-04T05:10:36.999Z</time></trkpt><trkpt lat="43.26815453358466" lon="10.588013672823909"><ele>52.0</ele><time>2026-04-04T05:10:38.999Z</time></trkpt><trkpt lat="43.268115561702665" lon="10.588102161273602"><ele>52.42857142857142</ele><time>2026-04-04T05:10:40.999Z</time></trkpt><trkpt lat="43.268068130274614" lon="10.588178635069653"><ele>52.85714285714286</ele><time>2026-04-04T05:10:42.999Z</time></trkpt><trkpt lat="43.2680173288165" lon="10.588255861107992"><ele>53.285714285714285</ele><time>2026-04-04T05:10:44.999Z</time></trkpt><trkpt lat="43.26796828246671" lon="10.588325673644773"><ele>53.71428571428571</ele><time>2026-04-04T05:10:46.999Z</time></trkpt><trkpt lat="43.2679164775212" lon="10.588391628473868"><ele>54.14285714285714</ele><time>2026-04-04T05:10:48.999Z</time></trkpt><trkpt lat="43.26786234744939" lon="10.588471748981162"><ele>54.57142857142857</ele><time>2026-04-04T05:10:50.999Z</time></trkpt><trkpt lat="43.267805565951" lon="10.588535905105923"><ele>55.0</ele><time>2026-04-04T05:10:52.999Z</time></trkpt><trkpt lat="43.2677453681118" lon="10.588617364350535"><ele>55.49999999999999</ele><time>2026-04-04T05:10:55.999Z</time></trkpt><trkpt lat="43.26767861429749" lon="10.58872964559489"><ele>56.0</ele><time>2026-04-04T05:10:58.999Z</time></trkpt><trkpt lat="43.26765707879625" lon="10.588815894959911"><ele>56.5</ele><time>2026-04-04T05:11:01.999Z</time></trkpt><trkpt lat="43.267635150152" lon="10.588904916198926"><ele>57.0</ele><time>2026-04-04T05:11:03.999Z</time></trkpt><trkpt lat="43.26763888134105" lon="10.588991760408662"><ele>57.49999999999999</ele><time>2026-04-04T05:11:05.999Z</time></trkpt><trkpt lat="43.26763739011217" lon="10.589083406633756"><ele>58.0</ele><time>2026-04-04T05:11:07.999Z</time></trkpt><trkpt lat="43.267624545909264" lon="10.589233680868366"><ele>58.00000000000001</ele><time>2026-04-04T05:11:09.999Z</time></trkpt><trkpt lat="43.267624968905004" lon="10.589329499293413"><ele>58.0</ele><time>2026-04-04T05:11:11.999Z</time></trkpt><trkpt lat="43.267628372181406" lon="10.589417091142966"><ele>58.00000000000001</ele><time>2026-04-04T05:11:13.999Z</time></trkpt><trkpt lat="43.26763300027133" lon="10.589506986069532"><ele>58.00000000000001</ele><time>2026-04-04T05:11:15.999Z</time></trkpt><trkpt lat="43.26764085972775" lon="10.589594305021324"><ele>58.0</ele><time>2026-04-04T05:11:17.998Z</time></trkpt><trkpt lat="43.26765103195047" lon="10.589683052883743"><ele>58.00000000000001</ele><time>2026-04-04T05:11:19.998Z</time></trkpt><trkpt lat="43.267663365872245" lon="10.58977513617178"><ele>58.00000000000001</ele><time>2026-04-04T05:11:21.998Z</time></trkpt><trkpt lat="43.2676741162226" lon="10.589862511302428"><ele>58.14285714285715</ele><time>2026-04-04T05:11:23.998Z</time></trkpt><trkpt lat="43.267684463610436" lon="10.589954113696162"><ele>58.28571428571429</ele><time>2026-04-04T05:11:25.998Z</time></trkpt><trkpt lat="43.267699128677926" lon="10.590046196673105"><ele>58.42857142857143</ele><time>2026-04-04T05:11:27.998Z</time></trkpt><trkpt lat="43.26771803398948" lon="10.590132133499585"><ele>58.57142857142858</ele><time>2026-04-04T05:11:29.998Z</time></trkpt><trkpt lat="43.26773413654702" lon="10.590244094910721"><ele>58.71428571428572</ele><time>2026-04-04T05:11:32.998Z</time></trkpt><trkpt lat="43.267763189646416" lon="10.590336171936537"><ele>58.857142857142854</ele><time>2026-04-04T05:11:34.998Z</time></trkpt><trkpt lat="43.26777720184659" lon="10.590423058531282"><ele>59.0</ele><time>2026-04-04T05:11:36.998Z</time></trkpt><trkpt lat="43.26773746082024" lon="10.590524260728854"><ele>59.2</ele><time>2026-04-04T05:11:39.998Z</time></trkpt><trkpt lat="43.267639860061436" lon="10.590569858331191"><ele>59.400000000000006</ele><time>2026-04-04T05:11:42.998Z</time></trkpt><trkpt lat="43.26756689145426" lon="10.590599629057245"><ele>59.6</ele><time>2026-04-04T05:11:44.998Z</time></trkpt><trkpt lat="43.26747943850975" lon="10.590609006753471"><ele>59.8</ele><time>2026-04-04T05:11:46.998Z</time></trkpt><trkpt lat="43.26737959077576" lon="10.590597363887523"><ele>60.0</ele><time>2026-04-04T05:11:47.998Z</time></trkpt><trkpt lat="43.2672811681769" lon="10.590600484439918"><ele>60.2</ele><time>2026-04-04T05:11:49.998Z</time></trkpt><trkpt lat="43.267179039894394" lon="10.590598659711722"><ele>60.4</ele><time>2026-04-04T05:11:52Z</time></trkpt><trkpt lat="43.26708053699344" lon="10.590554262966393"><ele>60.599999999999994</ele><time>2026-04-04T05:11:54Z</time></trkpt><trkpt lat="43.26697884390524" lon="10.590552332763314"><ele>60.8</ele><time>2026-04-04T05:11:56Z</time></trkpt><trkpt lat="43.26687935482285" lon="10.59054741765166"><ele>61.0</ele><time>2026-04-04T05:11:58Z</time></trkpt><trkpt lat="43.26678632552096" lon="10.59053912821212"><ele>60.99999999999999</ele><time>2026-04-04T05:12:00Z</time></trkpt><trkpt lat="43.26669591860874" lon="10.590528766784944"><ele>61.0</ele><time>2026-04-04T05:12:02Z</time></trkpt><trkpt lat="43.26660975250593" lon="10.590518891392245"><ele>61.0</ele><time>2026-04-04T05:12:04Z</time></trkpt><trkpt lat="43.26653010860872" lon="10.590509763502581"><ele>61.0</ele><time>2026-04-04T05:12:06Z</time></trkpt><trkpt lat="43.26645898031378" lon="10.590502339715448"><ele>60.99999999999999</ele><time>2026-04-04T05:12:08Z</time></trkpt><trkpt lat="43.2663879818318" lon="10.590496828685426"><ele>61.0</ele><time>2026-04-04T05:12:10Z</time></trkpt><trkpt lat="43.26631901512498" lon="10.590491207576049"><ele>60.4</ele><time>2026-04-04T05:12:12Z</time></trkpt><trkpt lat="43.26624808130566" lon="10.590493383948541"><ele>59.8</ele><time>2026-04-04T05:12:14Z</time></trkpt><trkpt lat="43.26617181751633" lon="10.590499702303449"><ele>59.199999999999996</ele><time>2026-04-04T05:12:16Z</time></trkpt><trkpt lat="43.266149086482976" lon="10.5906962285695"><ele>58.599999999999994</ele><time>2026-04-04T05:12:18Z</time></trkpt><trkpt lat="43.2661798562914" lon="10.590814540367726"><ele>58.0</ele><time>2026-04-04T05:12:20Z</time></trkpt><trkpt lat="43.266200308598336" lon="10.59092412147438"><ele>57.99999999999999</ele><time>2026-04-04T05:12:22Z</time></trkpt><trkpt lat="43.26621940395691" lon="10.5910365757868"><ele>58.0</ele><time>2026-04-04T05:12:24Z</time></trkpt><trkpt lat="43.266241138741265" lon="10.591143183113536"><ele>58.0</ele><time>2026-04-04T05:12:25.999Z</time></trkpt><trkpt lat="43.266255140838226" lon="10.591283053743888"><ele>58.0</ele><time>2026-04-04T05:12:28.999Z</time></trkpt><trkpt lat="43.26627040327523" lon="10.591371800507648"><ele>57.99999999999999</ele><time>2026-04-04T05:12:30.999Z</time></trkpt><trkpt lat="43.26628479076912" lon="10.591462200692611"><ele>58.0</ele><time>2026-04-04T05:12:32.999Z</time></trkpt><trkpt lat="43.26630604623637" lon="10.591628028060684"><ele>58.666666666666664</ele><time>2026-04-04T05:12:34.999Z</time></trkpt><trkpt lat="43.26632387173966" lon="10.59173389621949"><ele>59.33333333333333</ele><time>2026-04-04T05:12:36.999Z</time></trkpt><trkpt lat="43.26633866869368" lon="10.591841773565866"><ele>60.0</ele><time>2026-04-04T05:12:38.999Z</time></trkpt><trkpt lat="43.26635672771708" lon="10.591950059020462"><ele>60.66666666666667</ele><time>2026-04-04T05:12:40.999Z</time></trkpt><trkpt lat="43.26637318544479" lon="10.592057066936988"><ele>61.333333333333336</ele><time>2026-04-04T05:12:42.999Z</time></trkpt><trkpt lat="43.26638686746977" lon="10.592162998538242"><ele>62.0</ele><time>2026-04-04T05:12:44.999Z</time></trkpt><trkpt lat="43.266406491556694" lon="10.592266830108914"><ele>62.333333333333336</ele><time>2026-04-04T05:12:46.999Z</time></trkpt><trkpt lat="43.26638681441393" lon="10.592362164282367"><ele>62.66666666666667</ele><time>2026-04-04T05:12:48.999Z</time></trkpt><trkpt lat="43.26635447787512" lon="10.59245551185441"><ele>63.0</ele><time>2026-04-04T05:12:50.999Z</time></trkpt><trkpt lat="43.266322644508634" lon="10.59255665706738"><ele>63.33333333333333</ele><time>2026-04-04T05:12:52.999Z</time></trkpt><trkpt lat="43.26630660992513" lon="10.592661318931256"><ele>63.666666666666664</ele><time>2026-04-04T05:12:54.999Z</time></trkpt><trkpt lat="43.26628313910609" lon="10.592805661980009"><ele>64.0</ele><time>2026-04-04T05:12:57.999Z</time></trkpt><trkpt lat="43.266272525000076" lon="10.59292219655687"><ele>63.99999999999999</ele><time>2026-04-04T05:12:59.999Z</time></trkpt><trkpt lat="43.26626005470072" lon="10.59303971277451"><ele>64.0</ele><time>2026-04-04T05:13:01.999Z</time></trkpt><trkpt lat="43.26624723894815" lon="10.593190578638557"><ele>64.0</ele><time>2026-04-04T05:13:03.999Z</time></trkpt><trkpt lat="43.26623473943318" lon="10.593308152032368"><ele>64.0</ele><time>2026-04-04T05:13:05.999Z</time></trkpt><trkpt lat="43.26621630811034" lon="10.593417708988936"><ele>63.99999999999999</ele><time>2026-04-04T05:13:07.999Z</time></trkpt><trkpt lat="43.26620839068408" lon="10.593526927274763"><ele>64.0</ele><time>2026-04-04T05:13:09.999Z</time></trkpt><trkpt lat="43.266204535455564" lon="10.593638492066814"><ele>64.5</ele><time>2026-04-04T05:13:11.999Z</time></trkpt><trkpt lat="43.26620352340261" lon="10.59375243524762"><ele>65.0</ele><time>2026-04-04T05:13:13.999Z</time></trkpt><trkpt lat="43.26618174587979" lon="10.593862594399962"><ele>65.5</ele><time>2026-04-04T05:13:15.999Z</time></trkpt><trkpt lat="43.26614519221437" lon="10.593966534826468"><ele>66.0</ele><time>2026-04-04T05:13:17.999Z</time></trkpt><trkpt lat="43.26608442984972" lon="10.594055337209742"><ele>66.5</ele><time>2026-04-04T05:13:19.998Z</time></trkpt><trkpt lat="43.266000795121336" lon="10.59409482882195"><ele>67.0</ele><time>2026-04-04T05:13:21.998Z</time></trkpt><trkpt lat="43.26591566708116" lon="10.594112730752151"><ele>67.0</ele><time>2026-04-04T05:13:23.998Z</time></trkpt><trkpt lat="43.26583714675403" lon="10.594136484629264"><ele>67.0</ele><time>2026-04-04T05:13:25.998Z</time></trkpt><trkpt lat="43.265748261143756" lon="10.594155024501546"><ele>67.0</ele><time>2026-04-04T05:13:27.998Z</time></trkpt><trkpt lat="43.26566502077234" lon="10.594162656010202"><ele>67.0</ele><time>2026-04-04T05:13:29.998Z</time></trkpt><trkpt lat="43.265576949678604" lon="10.594177267400557"><ele>67.0</ele><time>2026-04-04T05:13:31.998Z</time></trkpt><trkpt lat="43.26548732389517" lon="10.594197588763066"><ele>67.0</ele><time>2026-04-04T05:13:33.998Z</time></trkpt><trkpt lat="43.26541547774508" lon="10.594225357386472"><ele>67.33333333333333</ele><time>2026-04-04T05:13:35.998Z</time></trkpt><trkpt lat="43.26534191740375" lon="10.59424908983386"><ele>67.66666666666666</ele><time>2026-04-04T05:13:37.998Z</time></trkpt><trkpt lat="43.26525218475455" lon="10.594300971763621"><ele>68.0</ele><time>2026-04-04T05:13:40.998Z</time></trkpt><trkpt lat="43.265159931201204" lon="10.594311622411766"><ele>68.33333333333333</ele><time>2026-04-04T05:13:42.998Z</time></trkpt><trkpt lat="43.265070171667475" lon="10.59432019241651"><ele>68.66666666666667</ele><time>2026-04-04T05:13:44.998Z</time></trkpt><trkpt lat="43.26498680428581" lon="10.594327786933457"><ele>69.0</ele><time>2026-04-04T05:13:46.998Z</time></trkpt><trkpt lat="43.26490028174636" lon="10.594345323440589"><ele>69.0</ele><time>2026-04-04T05:13:48.998Z</time></trkpt><trkpt lat="43.26481870858714" lon="10.594418248756611"><ele>69.0</ele><time>2026-04-04T05:13:50.998Z</time></trkpt><trkpt lat="43.26482120406688" lon="10.594554969391892"><ele>69.0</ele><time>2026-04-04T05:13:52.998Z</time></trkpt><trkpt lat="43.264833830380354" lon="10.594683564090976"><ele>69.0</ele><time>2026-04-04T05:13:54.998Z</time></trkpt><trkpt lat="43.26484529059534" lon="10.594801722799053"><ele>69.0</ele><time>2026-04-04T05:13:57Z</time></trkpt><trkpt lat="43.264863270040195" lon="10.594911125166263"><ele>69.5</ele><time>2026-04-04T05:13:59Z</time></trkpt><trkpt lat="43.26488125642048" lon="10.595029491581531"><ele>70.0</ele><time>2026-04-04T05:14:01Z</time></trkpt><trkpt lat="43.26490085312488" lon="10.595133051534173"><ele>70.5</ele><time>2026-04-04T05:14:03Z</time></trkpt><trkpt lat="43.26492406109005" lon="10.595247167697844"><ele>71.0</ele><time>2026-04-04T05:14:05Z</time></trkpt><trkpt lat="43.264941448634154" lon="10.595358004419472"><ele>71.5</ele><time>2026-04-04T05:14:07Z</time></trkpt><trkpt lat="43.26496054909243" lon="10.595463320904312"><ele>72.0</ele><time>2026-04-04T05:14:09Z</time></trkpt><trkpt lat="43.264975336923634" lon="10.595552388704855"><ele>72.16666666666667</ele><time>2026-04-04T05:14:11Z</time></trkpt><trkpt lat="43.26499089681884" lon="10.5956498908509"><ele>72.33333333333333</ele><time>2026-04-04T05:14:13Z</time></trkpt><trkpt lat="43.265013283531424" lon="10.595750115908764"><ele>72.5</ele><time>2026-04-04T05:14:15Z</time></trkpt><trkpt lat="43.265026250729754" lon="10.59585031400003"><ele>72.66666666666666</ele><time>2026-04-04T05:14:17Z</time></trkpt><trkpt lat="43.265042161542596" lon="10.595951015814588"><ele>72.83333333333333</ele><time>2026-04-04T05:14:19Z</time></trkpt><trkpt lat="43.26506480887228" lon="10.596052899884448"><ele>73.0</ele><time>2026-04-04T05:14:21Z</time></trkpt><trkpt lat="43.265078114622035" lon="10.596156137575234"><ele>73.0</ele><time>2026-04-04T05:14:23Z</time></trkpt><trkpt lat="43.265096368053854" lon="10.596256026313707"><ele>73.0</ele><time>2026-04-04T05:14:25Z</time></trkpt><trkpt lat="43.26511832958159" lon="10.596358748771143"><ele>73.0</ele><time>2026-04-04T05:14:27Z</time></trkpt><trkpt lat="43.26513439205534" lon="10.59646188962366"><ele>73.0</ele><time>2026-04-04T05:14:28.999Z</time></trkpt><trkpt lat="43.26514920136496" lon="10.596571086167181"><ele>73.0</ele><time>2026-04-04T05:14:31.999Z</time></trkpt><trkpt lat="43.26516984457235" lon="10.596702959243377"><ele>73.0</ele><time>2026-04-04T05:14:34.999Z</time></trkpt><trkpt lat="43.26518431196632" lon="10.596794676045894"><ele>73.0</ele><time>2026-04-04T05:14:36.999Z</time></trkpt><trkpt lat="43.26520598911622" lon="10.596887829245041"><ele>73.0</ele><time>2026-04-04T05:14:38.999Z</time></trkpt><trkpt lat="43.2652217304002" lon="10.59698051957179"><ele>73.0</ele><time>2026-04-04T05:14:40.999Z</time></trkpt><trkpt lat="43.26523980925247" lon="10.59707781656637"><ele>73.0</ele><time>2026-04-04T05:14:42.999Z</time></trkpt><trkpt lat="43.265252134425744" lon="10.597207802865727"><ele>73.0</ele><time>2026-04-04T05:14:45.999Z</time></trkpt><trkpt lat="43.2652727691775" lon="10.597350580029701"><ele>73.0</ele><time>2026-04-04T05:14:48.999Z</time></trkpt><trkpt lat="43.26528477624936" lon="10.597469353001374"><ele>73.4</ele><time>2026-04-04T05:14:50.999Z</time></trkpt><trkpt lat="43.2653109436472" lon="10.597626859585397"><ele>73.8</ele><time>2026-04-04T05:14:52.999Z</time></trkpt><trkpt lat="43.26534206745625" lon="10.597764701974706"><ele>74.2</ele><time>2026-04-04T05:14:54.999Z</time></trkpt><trkpt lat="43.265379251200294" lon="10.597880338159603"><ele>74.6</ele><time>2026-04-04T05:14:56.999Z</time></trkpt><trkpt lat="43.2654104851549" lon="10.597981372765148"><ele>75.0</ele><time>2026-04-04T05:14:58.999Z</time></trkpt><trkpt lat="43.265443949390054" lon="10.59807823848909"><ele>75.0</ele><time>2026-04-04T05:15:00.999Z</time></trkpt><trkpt lat="43.26549295841402" lon="10.59816918282823"><ele>75.0</ele><time>2026-04-04T05:15:02.999Z</time></trkpt><trkpt lat="43.2655384384842" lon="10.59827252627326"><ele>75.0</ele><time>2026-04-04T05:15:04.999Z</time></trkpt><trkpt lat="43.265585103918866" lon="10.598374724681682"><ele>75.0</ele><time>2026-04-04T05:15:06.999Z</time></trkpt><trkpt lat="43.26564074290861" lon="10.59847617908157"><ele>75.0</ele><time>2026-04-04T05:15:08.999Z</time></trkpt><trkpt lat="43.2656819728406" lon="10.598596283497118"><ele>75.0</ele><time>2026-04-04T05:15:10.999Z</time></trkpt><trkpt lat="43.26575072557636" lon="10.598710666070234"><ele>76.6</ele><time>2026-04-04T05:15:12.999Z</time></trkpt><trkpt lat="43.265834640464114" lon="10.598786137873187"><ele>78.2</ele><time>2026-04-04T05:15:14.999Z</time></trkpt><trkpt lat="43.26592736893448" lon="10.598778610391538"><ele>79.80000000000001</ele><time>2026-04-04T05:15:16.999Z</time></trkpt><trkpt lat="43.26602745159184" lon="10.59879146909057"><ele>81.4</ele><time>2026-04-04T05:15:18.999Z</time></trkpt><trkpt lat="43.26611705199563" lon="10.598801397418208"><ele>83.0</ele><time>2026-04-04T05:15:20.999Z</time></trkpt><trkpt lat="43.26619715391349" lon="10.59881131695844"><ele>83.0</ele><time>2026-04-04T05:15:22.999Z</time></trkpt><trkpt lat="43.26628191680179" lon="10.59882214003166"><ele>83.0</ele><time>2026-04-04T05:15:24.998Z</time></trkpt><trkpt lat="43.266368401520516" lon="10.598837038285609"><ele>83.0</ele><time>2026-04-04T05:15:26.998Z</time></trkpt><trkpt lat="43.26645164173563" lon="10.598871278196377"><ele>83.0</ele><time>2026-04-04T05:15:29.998Z</time></trkpt><trkpt lat="43.26649765144535" lon="10.598958838487652"><ele>83.0</ele><time>2026-04-04T05:15:32.998Z</time></trkpt><trkpt lat="43.26654910325292" lon="10.599120843761904"><ele>83.0</ele><time>2026-04-04T05:15:33.998Z</time></trkpt><trkpt lat="43.26652625750239" lon="10.599266143630949"><ele>83.0</ele><time>2026-04-04T05:15:35.998Z</time></trkpt><trkpt lat="43.266476512476274" lon="10.599382675244401"><ele>83.0</ele><time>2026-04-04T05:15:37.998Z</time></trkpt><trkpt lat="43.266416772453574" lon="10.599468135646688"><ele>83.0</ele><time>2026-04-04T05:15:39.998Z</time></trkpt><trkpt lat="43.26636841896354" lon="10.59956821148718"><ele>83.0</ele><time>2026-04-04T05:15:41.998Z</time></trkpt><trkpt lat="43.266323321139225" lon="10.59966728558579"><ele>83.33333333333334</ele><time>2026-04-04T05:15:43.998Z</time></trkpt><trkpt lat="43.2663029049223" lon="10.599779939576148"><ele>83.66666666666667</ele><time>2026-04-04T05:15:45.998Z</time></trkpt><trkpt lat="43.2662754992672" lon="10.599878696531809"><ele>84.0</ele><time>2026-04-04T05:15:47.998Z</time></trkpt><trkpt lat="43.2662798926328" lon="10.599971344813524"><ele>84.33333333333333</ele><time>2026-04-04T05:15:50.998Z</time></trkpt><trkpt lat="43.266270784169784" lon="10.60007784445309"><ele>84.66666666666666</ele><time>2026-04-04T05:15:52.998Z</time></trkpt><trkpt lat="43.26626127422732" lon="10.600178316310938"><ele>85.0</ele><time>2026-04-04T05:15:54.998Z</time></trkpt><trkpt lat="43.266257647626" lon="10.60028597173472"><ele>85.5</ele><time>2026-04-04T05:15:58.998Z</time></trkpt><trkpt lat="43.2662726073417" lon="10.600396326058513"><ele>86.0</ele><time>2026-04-04T05:16:01.998Z</time></trkpt><trkpt lat="43.266259533389615" lon="10.600515544748664"><ele>86.5</ele><time>2026-04-04T05:16:05Z</time></trkpt><trkpt lat="43.26626412126755" lon="10.600635539428287"><ele>87.0</ele><time>2026-04-04T05:16:08Z</time></trkpt><trkpt lat="43.2662814517728" lon="10.600735839377796"><ele>87.5</ele><time>2026-04-04T05:16:11Z</time></trkpt><trkpt lat="43.26628872200133" lon="10.600845095339663"><ele>88.0</ele><time>2026-04-04T05:16:14Z</time></trkpt><trkpt lat="43.26627714589166" lon="10.600953576318386"><ele>88.0</ele><time>2026-04-04T05:16:17Z</time></trkpt><trkpt lat="43.26625830032" lon="10.601062689769151"><ele>88.0</ele><time>2026-04-04T05:16:20Z</time></trkpt><trkpt lat="43.26623847644706" lon="10.601144807365797"><ele>88.0</ele><time>2026-04-04T05:16:22Z</time></trkpt><trkpt lat="43.266177566003144" lon="10.601174974095962"><ele>88.0</ele><time>2026-04-04T05:16:24Z</time></trkpt><trkpt lat="43.26608657751321" lon="10.601164224571514"><ele>88.0</ele><time>2026-04-04T05:16:27Z</time></trkpt><trkpt lat="43.266021730998624" lon="10.601155277684448"><ele>88.0</ele><time>2026-04-04T05:16:29Z</time></trkpt><trkpt lat="43.26595680520996" lon="10.601137947722314"><ele>88.0</ele><time>2026-04-04T05:16:31Z</time></trkpt><trkpt lat="43.26579520561246" lon="10.601154005183533"><ele>88.0</ele><time>2026-04-04T05:16:33.999Z</time></trkpt><trkpt lat="43.26573686977812" lon="10.601209412986915"><ele>88.0</ele><time>2026-04-04T05:16:35.999Z</time></trkpt><trkpt lat="43.26569071596701" lon="10.6012746634765"><ele>88.0</ele><time>2026-04-04T05:16:37.999Z</time></trkpt><trkpt lat="43.26564221623761" lon="10.601339589623704"><ele>88.0</ele><time>2026-04-04T05:16:39.999Z</time></trkpt><trkpt lat="43.2655925092523" lon="10.601406544139898"><ele>88.0</ele><time>2026-04-04T05:16:41.999Z</time></trkpt><trkpt lat="43.26554490884039" lon="10.601471101979818"><ele>88.0</ele><time>2026-04-04T05:16:43.999Z</time></trkpt><trkpt lat="43.265519801342265" lon="10.60156991603524"><ele>88.0</ele><time>2026-04-04T05:16:45.999Z</time></trkpt><trkpt lat="43.26552924332058" lon="10.601674017893385"><ele>87.85714285714286</ele><time>2026-04-04T05:16:47.999Z</time></trkpt><trkpt lat="43.26553490850183" lon="10.601773686825549"><ele>87.71428571428571</ele><time>2026-04-04T05:16:49.999Z</time></trkpt><trkpt lat="43.26554665514453" lon="10.601868724194127"><ele>87.57142857142857</ele><time>2026-04-04T05:16:51.999Z</time></trkpt><trkpt lat="43.26557546738858" lon="10.601963701303177"><ele>87.42857142857143</ele><time>2026-04-04T05:16:53.999Z</time></trkpt><trkpt lat="43.2655953963463" lon="10.602067036929153"><ele>87.28571428571429</ele><time>2026-04-04T05:16:55.999Z</time></trkpt><trkpt lat="43.265610447801286" lon="10.602159977165542"><ele>87.14285714285714</ele><time>2026-04-04T05:16:57.999Z</time></trkpt><trkpt lat="43.2656270231747" lon="10.60224851756974"><ele>87.0</ele><time>2026-04-04T05:16:59.999Z</time></trkpt><trkpt lat="43.26564338073559" lon="10.602347128483094"><ele>87.5</ele><time>2026-04-04T05:17:01.999Z</time></trkpt><trkpt lat="43.26566688876731" lon="10.602445434340371"><ele>88.0</ele><time>2026-04-04T05:17:03.999Z</time></trkpt><trkpt lat="43.26569178935406" lon="10.6025447655357"><ele>88.5</ele><time>2026-04-04T05:17:05.999Z</time></trkpt><trkpt lat="43.2657102209913" lon="10.602652536041381"><ele>89.0</ele><time>2026-04-04T05:17:07.999Z</time></trkpt><trkpt lat="43.265728843997074" lon="10.6027695007699"><ele>89.5</ele><time>2026-04-04T05:17:10.999Z</time></trkpt><trkpt lat="43.265735861335806" lon="10.602861768726967"><ele>90.0</ele><time>2026-04-04T05:17:12.999Z</time></trkpt><trkpt lat="43.26573620808938" lon="10.602982981816195"><ele>90.42857142857143</ele><time>2026-04-04T05:17:13.999Z</time></trkpt><trkpt lat="43.26575311632162" lon="10.603085740691517"><ele>90.85714285714286</ele><time>2026-04-04T05:17:15.999Z</time></trkpt><trkpt lat="43.26575703402138" lon="10.603191080295343"><ele>91.28571428571429</ele><time>2026-04-04T05:17:17.999Z</time></trkpt><trkpt lat="43.265780164884575" lon="10.603290041942909"><ele>91.71428571428572</ele><time>2026-04-04T05:17:19.999Z</time></trkpt><trkpt lat="43.265800040889424" lon="10.603384337371695"><ele>92.14285714285714</ele><time>2026-04-04T05:17:21.999Z</time></trkpt><trkpt lat="43.26582698668199" lon="10.603469904603799"><ele>92.57142857142858</ele><time>2026-04-04T05:17:23.999Z</time></trkpt><trkpt lat="43.26585861741043" lon="10.603560605282965"><ele>93.0</ele><time>2026-04-04T05:17:25.998Z</time></trkpt><trkpt lat="43.26589057315727" lon="10.603651297463118"><ele>93.16666666666667</ele><time>2026-04-04T05:17:27.998Z</time></trkpt><trkpt lat="43.2659352214577" lon="10.603728618477065"><ele>93.33333333333333</ele><time>2026-04-04T05:17:29.998Z</time></trkpt><trkpt lat="43.265974534372226" lon="10.603802181725865"><ele>93.5</ele><time>2026-04-04T05:17:31.998Z</time></trkpt><trkpt lat="43.26603189729345" lon="10.603887469233847"><ele>93.66666666666666</ele><time>2026-04-04T05:17:34.998Z</time></trkpt><trkpt lat="43.266104499912124" lon="10.603952640598"><ele>93.83333333333333</ele><time>2026-04-04T05:17:36.998Z</time></trkpt><trkpt lat="43.266196765347026" lon="10.603987569739402"><ele>94.0</ele><time>2026-04-04T05:17:38.998Z</time></trkpt><trkpt lat="43.26628265165311" lon="10.604009051384223"><ele>94.0</ele><time>2026-04-04T05:17:40.998Z</time></trkpt><trkpt lat="43.266378086699305" lon="10.604018867316437"><ele>94.0</ele><time>2026-04-04T05:17:42.998Z</time></trkpt><trkpt lat="43.2664759287351" lon="10.604038088311091"><ele>94.0</ele><time>2026-04-04T05:17:44.998Z</time></trkpt><trkpt lat="43.2665677167938" lon="10.60405471675441"><ele>94.0</ele><time>2026-04-04T05:17:46.998Z</time></trkpt><trkpt lat="43.26664890643746" lon="10.604060750292188"><ele>94.0</ele><time>2026-04-04T05:17:48.998Z</time></trkpt><trkpt lat="43.266717602537504" lon="10.604133516784449"><ele>94.0</ele><time>2026-04-04T05:17:50.998Z</time></trkpt><trkpt lat="43.26676636688728" lon="10.604266643988534"><ele>94.0</ele><time>2026-04-04T05:17:52.998Z</time></trkpt><trkpt lat="43.266824859174974" lon="10.60439967734866"><ele>94.0</ele><time>2026-04-04T05:17:54.998Z</time></trkpt><trkpt lat="43.2668538784972" lon="10.604487686537762"><ele>94.0</ele><time>2026-04-04T05:17:55.998Z</time></trkpt><trkpt lat="43.266886207935464" lon="10.604566403202911"><ele>94.0</ele><time>2026-04-04T05:17:56.998Z</time></trkpt><trkpt lat="43.266922526191856" lon="10.604659238667836"><ele>94.0</ele><time>2026-04-04T05:17:57.998Z</time></trkpt><trkpt lat="43.26694970812717" lon="10.604742006320725"><ele>94.0</ele><time>2026-04-04T05:17:58.998Z</time></trkpt><trkpt lat="43.266983666656536" lon="10.604828604577895"><ele>94.0</ele><time>2026-04-04T05:17:59.998Z</time></trkpt><trkpt lat="43.267052274827655" lon="10.604965289156052"><ele>94.0</ele><time>2026-04-04T05:18:01.998Z</time></trkpt><trkpt lat="43.26711701242754" lon="10.60509048418934"><ele>94.0</ele><time>2026-04-04T05:18:03.998Z</time></trkpt><trkpt lat="43.26716349547856" lon="10.605216465100249"><ele>94.0</ele><time>2026-04-04T05:18:05.998Z</time></trkpt><trkpt lat="43.267236444909486" lon="10.605343008760308"><ele>92.75</ele><time>2026-04-04T05:18:07.998Z</time></trkpt><trkpt lat="43.26728538537264" lon="10.605500137955648"><ele>91.5</ele><time>2026-04-04T05:18:10Z</time></trkpt><trkpt lat="43.2673505974047" lon="10.605626561438655"><ele>90.25</ele><time>2026-04-04T05:18:12Z</time></trkpt><trkpt lat="43.26740017721642" lon="10.60576186424764"><ele>89.0</ele><time>2026-04-04T05:18:14Z</time></trkpt><trkpt lat="43.26744507346518" lon="10.605890171136824"><ele>89.0</ele><time>2026-04-04T05:18:16Z</time></trkpt><trkpt lat="43.267449524842995" lon="10.606028172839114"><ele>89.0</ele><time>2026-04-04T05:18:18Z</time></trkpt><trkpt lat="43.26751810221026" lon="10.606172548683954"><ele>89.0</ele><time>2026-04-04T05:18:20Z</time></trkpt><trkpt lat="43.267523409680926" lon="10.60626130048044"><ele>89.0</ele><time>2026-04-04T05:18:21Z</time></trkpt><trkpt lat="43.2675431631464" lon="10.606347004126773"><ele>89.0</ele><time>2026-04-04T05:18:22Z</time></trkpt><trkpt lat="43.26756351677439" lon="10.60644234505477"><ele>89.0</ele><time>2026-04-04T05:18:23Z</time></trkpt><trkpt lat="43.26758199143792" lon="10.606543792663828"><ele>88.33333333333334</ele><time>2026-04-04T05:18:24Z</time></trkpt><trkpt lat="43.267632674966364" lon="10.606642837168156"><ele>87.66666666666667</ele><time>2026-04-04T05:18:25Z</time></trkpt><trkpt lat="43.26766951648331" lon="10.606724940269716"><ele>87.0</ele><time>2026-04-04T05:18:26Z</time></trkpt><trkpt lat="43.26770932867644" lon="10.606801512847268"><ele>86.33333333333333</ele><time>2026-04-04T05:18:27Z</time></trkpt><trkpt lat="43.26776065052914" lon="10.606874519101831"><ele>85.66666666666666</ele><time>2026-04-04T05:18:28Z</time></trkpt><trkpt lat="43.26783225214474" lon="10.606940136852245"><ele>85.0</ele><time>2026-04-04T05:18:29Z</time></trkpt><trkpt lat="43.26790538700333" lon="10.607005102735846"><ele>83.0</ele><time>2026-04-04T05:18:30Z</time></trkpt><trkpt lat="43.26798506784572" lon="10.607064154158687"><ele>81.0</ele><time>2026-04-04T05:18:31Z</time></trkpt><trkpt lat="43.26806458717678" lon="10.607118302052788"><ele>79.0</ele><time>2026-04-04T05:18:32Z</time></trkpt><trkpt lat="43.26814822609055" lon="10.607178611136574"><ele>77.0</ele><time>2026-04-04T05:18:33Z</time></trkpt><trkpt lat="43.26823348824695" lon="10.607240431561575"><ele>75.0</ele><time>2026-04-04T05:18:34Z</time></trkpt><trkpt lat="43.26831116201359" lon="10.607277427422456"><ele>75.0</ele><time>2026-04-04T05:18:34.999Z</time></trkpt><trkpt lat="43.26839009951824" lon="10.607308335683804"><ele>75.0</ele><time>2026-04-04T05:18:35.999Z</time></trkpt><trkpt lat="43.268461394811354" lon="10.607332216753514"><ele>75.0</ele><time>2026-04-04T05:18:36.999Z</time></trkpt><trkpt lat="43.26853030036562" lon="10.607371578656396"><ele>75.0</ele><time>2026-04-04T05:18:38.999Z</time></trkpt><trkpt lat="43.2685086042398" lon="10.607486918366982"><ele>75.0</ele><time>2026-04-04T05:19:02.999Z</time></trkpt><trkpt lat="43.26844833487633" lon="10.607593863102624"><ele>75.0</ele><time>2026-04-04T05:19:05.999Z</time></trkpt><trkpt lat="43.268395621136875" lon="10.607686621976066"><ele>75.0</ele><time>2026-04-04T05:19:07.999Z</time></trkpt><trkpt lat="43.26833078244999" lon="10.607785864903647"><ele>75.0</ele><time>2026-04-04T05:19:09.999Z</time></trkpt><trkpt lat="43.268252642760935" lon="10.607883774342055"><ele>75.0</ele><time>2026-04-04T05:19:11.999Z</time></trkpt><trkpt lat="43.26815604354314" lon="10.607960962151223"><ele>75.0</ele><time>2026-04-04T05:19:13.999Z</time></trkpt><trkpt lat="43.26805978749471" lon="10.60804397476785"><ele>75.0</ele><time>2026-04-04T05:19:15.999Z</time></trkpt><trkpt lat="43.267950381487054" lon="10.608147985133161"><ele>74.16666666666667</ele><time>2026-04-04T05:19:17.999Z</time></trkpt><trkpt lat="43.26789792918543" lon="10.60822704970276"><ele>73.33333333333333</ele><time>2026-04-04T05:19:18.999Z</time></trkpt><trkpt lat="43.26784840365694" lon="10.608321136627174"><ele>72.5</ele><time>2026-04-04T05:19:19.999Z</time></trkpt><trkpt lat="43.26779993532978" lon="10.608419893749534"><ele>71.66666666666666</ele><time>2026-04-04T05:19:20.999Z</time></trkpt><trkpt lat="43.26775175366576" lon="10.608523743025675"><ele>70.83333333333333</ele><time>2026-04-04T05:19:21.999Z</time></trkpt><trkpt lat="43.267706184142895" lon="10.608634411662596"><ele>70.0</ele><time>2026-04-04T05:19:22.999Z</time></trkpt><trkpt lat="43.26766538242877" lon="10.608749988118644"><ele>69.0</ele><time>2026-04-04T05:19:23.999Z</time></trkpt><trkpt lat="43.267631523015" lon="10.608867762624886"><ele>68.0</ele><time>2026-04-04T05:19:24.999Z</time></trkpt><trkpt lat="43.26760877433587" lon="10.60898938187221"><ele>67.0</ele><time>2026-04-04T05:19:25.999Z</time></trkpt><trkpt lat="43.26758928688372" lon="10.609108366983309"><ele>66.0</ele><time>2026-04-04T05:19:26.999Z</time></trkpt><trkpt lat="43.267566663336666" lon="10.60922885994713"><ele>65.0</ele><time>2026-04-04T05:19:27.998Z</time></trkpt><trkpt lat="43.26755172939398" lon="10.609348008815616"><ele>65.0</ele><time>2026-04-04T05:19:28.998Z</time></trkpt><trkpt lat="43.267536585440695" lon="10.609464671068517"><ele>65.0</ele><time>2026-04-04T05:19:29.998Z</time></trkpt><trkpt lat="43.26752067840264" lon="10.609579360011377"><ele>65.0</ele><time>2026-04-04T05:19:30.998Z</time></trkpt><trkpt lat="43.26750409357771" lon="10.609692110999037"><ele>65.0</ele><time>2026-04-04T05:19:31.998Z</time></trkpt><trkpt lat="43.26748865074366" lon="10.609804965965456"><ele>65.0</ele><time>2026-04-04T05:19:32.998Z</time></trkpt><trkpt lat="43.26745326021235" lon="10.60990640511329"><ele>65.0</ele><time>2026-04-04T05:19:33.998Z</time></trkpt><trkpt lat="43.267421786238955" lon="10.610006926336183"><ele>65.0</ele><time>2026-04-04T05:19:34.998Z</time></trkpt><trkpt lat="43.26739285441987" lon="10.610111887540883"><ele>65.0</ele><time>2026-04-04T05:19:35.998Z</time></trkpt><trkpt lat="43.26734922128804" lon="10.610202408288705"><ele>65.0</ele><time>2026-04-04T05:19:36.998Z</time></trkpt><trkpt lat="43.267303803492624" lon="10.61028446868472"><ele>65.0</ele><time>2026-04-04T05:19:37.998Z</time></trkpt><trkpt lat="43.267259854615524" lon="10.610363104488915"><ele>65.0</ele><time>2026-04-04T05:19:38.998Z</time></trkpt><trkpt lat="43.26720297006636" lon="10.610426951376583"><ele>65.0</ele><time>2026-04-04T05:19:39.998Z</time></trkpt><trkpt lat="43.267159158342935" lon="10.610506373875175"><ele>64.83333333333334</ele><time>2026-04-04T05:19:40.998Z</time></trkpt><trkpt lat="43.26711716886787" lon="10.610587703174438"><ele>64.66666666666667</ele><time>2026-04-04T05:19:41.998Z</time></trkpt><trkpt lat="43.26707385719846" lon="10.610674507545369"><ele>64.5</ele><time>2026-04-04T05:19:42.998Z</time></trkpt><trkpt lat="43.26703045918734" lon="10.610764172459797"><ele>64.33333333333333</ele><time>2026-04-04T05:19:43.998Z</time></trkpt><trkpt lat="43.26698999752055" lon="10.6108596002559"><ele>64.16666666666666</ele><time>2026-04-04T05:19:44.998Z</time></trkpt><trkpt lat="43.26695522819201" lon="10.610956237641538"><ele>64.0</ele><time>2026-04-04T05:19:45.998Z</time></trkpt><trkpt lat="43.26692593631819" lon="10.611053511366357"><ele>64.0</ele><time>2026-04-04T05:19:46.998Z</time></trkpt><trkpt lat="43.266901030596614" lon="10.61115237915991"><ele>63.99999999999999</ele><time>2026-04-04T05:19:47.998Z</time></trkpt><trkpt lat="43.26688119312254" lon="10.61124908950369"><ele>64.0</ele><time>2026-04-04T05:19:48.998Z</time></trkpt><trkpt lat="43.26686124166806" lon="10.611345280193929"><ele>64.0</ele><time>2026-04-04T05:19:49.998Z</time></trkpt><trkpt lat="43.266840128124535" lon="10.61143638244539"><ele>63.99999999999999</ele><time>2026-04-04T05:19:50.998Z</time></trkpt><trkpt lat="43.26681745669961" lon="10.611527929922595"><ele>64.0</ele><time>2026-04-04T05:19:51.998Z</time></trkpt><trkpt lat="43.2667940049462" lon="10.611617278597768"><ele>64.0</ele><time>2026-04-04T05:19:52.998Z</time></trkpt><trkpt lat="43.266769968127214" lon="10.611704158850587"><ele>64.28571428571428</ele><time>2026-04-04T05:19:53.998Z</time></trkpt><trkpt lat="43.266738661201636" lon="10.611786709642718"><ele>64.57142857142857</ele><time>2026-04-04T05:19:54.998Z</time></trkpt><trkpt lat="43.26670231483662" lon="10.611868097844237"><ele>64.85714285714286</ele><time>2026-04-04T05:19:55.998Z</time></trkpt><trkpt lat="43.26666137803878" lon="10.611934231285538"><ele>65.14285714285714</ele><time>2026-04-04T05:19:56.998Z</time></trkpt><trkpt lat="43.26667263124952" lon="10.6120664713531"><ele>65.42857142857143</ele><time>2026-04-04T05:19:57.998Z</time></trkpt><trkpt lat="43.26665749597258" lon="10.612154829331049"><ele>65.71428571428571</ele><time>2026-04-04T05:19:58.998Z</time></trkpt><trkpt lat="43.26664279424654" lon="10.612246477166057"><ele>66.0</ele><time>2026-04-04T05:19:59.998Z</time></trkpt><trkpt lat="43.26663222476002" lon="10.612340765608796"><ele>66.0</ele><time>2026-04-04T05:20:00.998Z</time></trkpt><trkpt lat="43.266624636678856" lon="10.612443880975578"><ele>66.0</ele><time>2026-04-04T05:20:01.998Z</time></trkpt><trkpt lat="43.266620232446066" lon="10.612538493594144"><ele>66.0</ele><time>2026-04-04T05:20:02.998Z</time></trkpt><trkpt lat="43.2666207170946" lon="10.61264251529257"><ele>66.0</ele><time>2026-04-04T05:20:03.998Z</time></trkpt><trkpt lat="43.2666221093525" lon="10.61273656465759"><ele>66.0</ele><time>2026-04-04T05:20:04.998Z</time></trkpt><trkpt lat="43.26662314410792" lon="10.612834057022667"><ele>66.0</ele><time>2026-04-04T05:20:05.998Z</time></trkpt><trkpt lat="43.266623606933955" lon="10.612930880077174"><ele>66.0</ele><time>2026-04-04T05:20:06.998Z</time></trkpt><trkpt lat="43.26662439012828" lon="10.6130268002236"><ele>66.6</ele><time>2026-04-04T05:20:07.998Z</time></trkpt><trkpt lat="43.26665225895538" lon="10.61311433105007"><ele>67.19999999999999</ele><time>2026-04-04T05:20:08.998Z</time></trkpt><trkpt lat="43.266628103157316" lon="10.613282178394346"><ele>67.80000000000001</ele><time>2026-04-04T05:20:10.998Z</time></trkpt><trkpt lat="43.26662870158703" lon="10.613435495641935"><ele>68.4</ele><time>2026-04-04T05:20:12.998Z</time></trkpt><trkpt lat="43.266625240473196" lon="10.613585688478812"><ele>69.0</ele><time>2026-04-04T05:20:15Z</time></trkpt><trkpt lat="43.26661804815377" lon="10.613735464745982"><ele>69.60000000000001</ele><time>2026-04-04T05:20:17Z</time></trkpt><trkpt lat="43.26660286674923" lon="10.613880649614542"><ele>70.2</ele><time>2026-04-04T05:20:19Z</time></trkpt><trkpt lat="43.26658170764029" lon="10.6140298780615"><ele>70.80000000000001</ele><time>2026-04-04T05:20:21Z</time></trkpt><trkpt lat="43.266556994640396" lon="10.614167628526062"><ele>71.4</ele><time>2026-04-04T05:20:23Z</time></trkpt><trkpt lat="43.266555230216376" lon="10.6143229953643"><ele>72.0</ele><time>2026-04-04T05:20:25Z</time></trkpt><trkpt lat="43.26651036811804" lon="10.614463861013572"><ele>72.2</ele><time>2026-04-04T05:20:27Z</time></trkpt><trkpt lat="43.266486380488885" lon="10.614610693585067"><ele>72.4</ele><time>2026-04-04T05:20:29Z</time></trkpt><trkpt lat="43.26646032861789" lon="10.614764007008528"><ele>72.6</ele><time>2026-04-04T05:20:30.999Z</time></trkpt><trkpt lat="43.266435956790446" lon="10.614907433493475"><ele>72.8</ele><time>2026-04-04T05:20:32.999Z</time></trkpt><trkpt lat="43.26641199190136" lon="10.615048465178013"><ele>73.0</ele><time>2026-04-04T05:20:34.999Z</time></trkpt><trkpt lat="43.26638776171843" lon="10.615191058110431"><ele>73.2</ele><time>2026-04-04T05:20:36.999Z</time></trkpt><trkpt lat="43.266365183103915" lon="10.615334269323808"><ele>73.4</ele><time>2026-04-04T05:20:38.999Z</time></trkpt><trkpt lat="43.26636024822098" lon="10.615477891736717"><ele>73.60000000000001</ele><time>2026-04-04T05:20:40.999Z</time></trkpt><trkpt lat="43.26636959071526" lon="10.615616374725448"><ele>73.8</ele><time>2026-04-04T05:20:42.999Z</time></trkpt><trkpt lat="43.26641564266088" lon="10.615753090158778"><ele>74.0</ele><time>2026-04-04T05:20:44.999Z</time></trkpt><trkpt lat="43.266471566755264" lon="10.615862046032625"><ele>74.0</ele><time>2026-04-04T05:20:46.999Z</time></trkpt><trkpt lat="43.266531466246235" lon="10.615956870369423"><ele>74.0</ele><time>2026-04-04T05:20:48.999Z</time></trkpt><trkpt lat="43.266598556148985" lon="10.616035938228865"><ele>74.0</ele><time>2026-04-04T05:20:50.999Z</time></trkpt><trkpt lat="43.26663123146412" lon="10.616146791737977"><ele>74.0</ele><time>2026-04-04T05:20:52.999Z</time></trkpt><trkpt lat="43.266673933255774" lon="10.616245556429794"><ele>74.0</ele><time>2026-04-04T05:20:54.999Z</time></trkpt><trkpt lat="43.266698703224264" lon="10.616355114959882"><ele>74.0</ele><time>2026-04-04T05:20:56.999Z</time></trkpt><trkpt lat="43.266706405467886" lon="10.616460433770238"><ele>74.16666666666667</ele><time>2026-04-04T05:20:58.999Z</time></trkpt><trkpt lat="43.26669838055194" lon="10.616553825877324"><ele>74.33333333333334</ele><time>2026-04-04T05:21:00.999Z</time></trkpt><trkpt lat="43.26670837202333" lon="10.616675289250832"><ele>74.5</ele><time>2026-04-04T05:21:03.999Z</time></trkpt><trkpt lat="43.26673279058425" lon="10.61680626447669"><ele>74.66666666666667</ele><time>2026-04-04T05:21:06.999Z</time></trkpt><trkpt lat="43.26677198326448" lon="10.616965290680168"><ele>74.83333333333333</ele><time>2026-04-04T05:21:09.999Z</time></trkpt><trkpt lat="43.26679513899554" lon="10.61705558310884"><ele>75.0</ele><time>2026-04-04T05:21:11.999Z</time></trkpt><trkpt lat="43.26683015873198" lon="10.61717534514185"><ele>75.0</ele><time>2026-04-04T05:21:13.999Z</time></trkpt><trkpt lat="43.26685268045604" lon="10.617284960095326"><ele>75.0</ele><time>2026-04-04T05:21:15.999Z</time></trkpt><trkpt lat="43.26690662955232" lon="10.617452231041609"><ele>75.0</ele><time>2026-04-04T05:21:17.999Z</time></trkpt><trkpt lat="43.2669324288164" lon="10.61759016258362"><ele>75.0</ele><time>2026-04-04T05:21:19.999Z</time></trkpt><trkpt lat="43.26694767812624" lon="10.617732391792646"><ele>75.0</ele><time>2026-04-04T05:21:21.999Z</time></trkpt><trkpt lat="43.26695823818316" lon="10.617880188445175"><ele>75.2</ele><time>2026-04-04T05:21:23.999Z</time></trkpt><trkpt lat="43.26695753714727" lon="10.618019640640178"><ele>75.4</ele><time>2026-04-04T05:21:25.999Z</time></trkpt><trkpt lat="43.26696144842401" lon="10.61816593133391"><ele>75.6</ele><time>2026-04-04T05:21:27.998Z</time></trkpt><trkpt lat="43.26697490039869" lon="10.618310119589456"><ele>75.8</ele><time>2026-04-04T05:21:29.998Z</time></trkpt><trkpt lat="43.267008762286125" lon="10.618450757205524"><ele>76.0</ele><time>2026-04-04T05:21:31.998Z</time></trkpt><trkpt lat="43.26703878191161" lon="10.618607424608484"><ele>76.39999999999999</ele><time>2026-04-04T05:21:33.998Z</time></trkpt><trkpt lat="43.26706525018054" lon="10.618753589631467"><ele>76.8</ele><time>2026-04-04T05:21:35.998Z</time></trkpt><trkpt lat="43.267088161026614" lon="10.618901897619418"><ele>77.19999999999999</ele><time>2026-04-04T05:21:37.998Z</time></trkpt><trkpt lat="43.26711770456435" lon="10.619030200935557"><ele>77.6</ele><time>2026-04-04T05:21:39.998Z</time></trkpt><trkpt lat="43.2671643859195" lon="10.619173327993993"><ele>78.0</ele><time>2026-04-04T05:21:41.998Z</time></trkpt><trkpt lat="43.267183098715655" lon="10.619319813019539"><ele>78.0</ele><time>2026-04-04T05:21:43.998Z</time></trkpt><trkpt lat="43.26721297209612" lon="10.619460139964444"><ele>78.0</ele><time>2026-04-04T05:21:45.998Z</time></trkpt><trkpt lat="43.26724284028468" lon="10.619586568341939"><ele>78.0</ele><time>2026-04-04T05:21:47.998Z</time></trkpt><trkpt lat="43.26727659479053" lon="10.61968675218433"><ele>78.0</ele><time>2026-04-04T05:21:50.998Z</time></trkpt><trkpt lat="43.26729715840839" lon="10.61978673434049"><ele>78.0</ele><time>2026-04-04T05:21:52.998Z</time></trkpt><trkpt lat="43.26732295043439" lon="10.619889389088918"><ele>78.0</ele><time>2026-04-04T05:21:53.998Z</time></trkpt><trkpt lat="43.26733178791516" lon="10.620021160848866"><ele>78.16666666666667</ele><time>2026-04-04T05:21:54.998Z</time></trkpt><trkpt lat="43.26735391967134" lon="10.620132087660773"><ele>78.33333333333333</ele><time>2026-04-04T05:21:56.998Z</time></trkpt><trkpt lat="43.26739357478714" lon="10.62024521273994"><ele>78.5</ele><time>2026-04-04T05:21:58.998Z</time></trkpt><trkpt lat="43.26742164310638" lon="10.620357791436554"><ele>78.66666666666666</ele><time>2026-04-04T05:22:00.998Z</time></trkpt><trkpt lat="43.267442499025044" lon="10.620466183298879"><ele>78.83333333333333</ele><time>2026-04-04T05:22:02.998Z</time></trkpt><trkpt lat="43.26746188051704" lon="10.620559353060562"><ele>79.0</ele><time>2026-04-04T05:22:04.998Z</time></trkpt><trkpt lat="43.26748470340307" lon="10.620653670451247"><ele>79.83333333333333</ele><time>2026-04-04T05:22:06.998Z</time></trkpt><trkpt lat="43.2674943608826" lon="10.62077379965572"><ele>80.66666666666666</ele><time>2026-04-04T05:22:08.998Z</time></trkpt><trkpt lat="43.267519743237585" lon="10.620877142062847"><ele>81.5</ele><time>2026-04-04T05:22:10.998Z</time></trkpt><trkpt lat="43.26756008533336" lon="10.620958515878199"><ele>82.33333333333333</ele><time>2026-04-04T05:22:12.998Z</time></trkpt><trkpt lat="43.26757061800607" lon="10.621044923900477"><ele>83.16666666666667</ele><time>2026-04-04T05:22:14.998Z</time></trkpt><trkpt lat="43.26762559647508" lon="10.62112211788597"><ele>84.0</ele><time>2026-04-04T05:22:16.998Z</time></trkpt><trkpt lat="43.26765517136489" lon="10.621218690633704"><ele>85.0</ele><time>2026-04-04T05:22:18.998Z</time></trkpt><trkpt lat="43.26768510897048" lon="10.621315309858018"><ele>86.0</ele><time>2026-04-04T05:22:21Z</time></trkpt><trkpt lat="43.267719864245166" lon="10.621401333083186"><ele>87.0</ele><time>2026-04-04T05:22:23Z</time></trkpt><trkpt lat="43.26774728745462" lon="10.621492795867308"><ele>88.0</ele><time>2026-04-04T05:22:25Z</time></trkpt><trkpt lat="43.26777710542251" lon="10.621582408826548"><ele>89.0</ele><time>2026-04-04T05:22:27Z</time></trkpt><trkpt lat="43.267803079092296" lon="10.621670444116202"><ele>90.0</ele><time>2026-04-04T05:22:29Z</time></trkpt><trkpt lat="43.26783330552711" lon="10.621755646357332"><ele>91.0</ele><time>2026-04-04T05:22:31Z</time></trkpt><trkpt lat="43.2678591048637" lon="10.621838662160469"><ele>91.0</ele><time>2026-04-04T05:22:33Z</time></trkpt><trkpt lat="43.26789622831648" lon="10.62195346707226"><ele>91.0</ele><time>2026-04-04T05:22:36Z</time></trkpt><trkpt lat="43.26792773431106" lon="10.622028500751496"><ele>91.0</ele><time>2026-04-04T05:22:37.999Z</time></trkpt><trkpt lat="43.267956806044786" lon="10.622109957460982"><ele>91.0</ele><time>2026-04-04T05:22:39.999Z</time></trkpt><trkpt lat="43.267982765541866" lon="10.622193762390783"><ele>91.0</ele><time>2026-04-04T05:22:41.999Z</time></trkpt><trkpt lat="43.26803006967758" lon="10.622304204381994"><ele>91.0</ele><time>2026-04-04T05:22:44.999Z</time></trkpt><trkpt lat="43.26805744458413" lon="10.62240500907962"><ele>90.57142857142857</ele><time>2026-04-04T05:22:46.999Z</time></trkpt><trkpt lat="43.2680858400334" lon="10.622485089891684"><ele>90.14285714285714</ele><time>2026-04-04T05:22:48.999Z</time></trkpt><trkpt lat="43.268099707043916" lon="10.622569475508634"><ele>89.71428571428572</ele><time>2026-04-04T05:22:50.999Z</time></trkpt><trkpt lat="43.268117646293085" lon="10.622669054477825"><ele>89.28571428571428</ele><time>2026-04-04T05:22:52.999Z</time></trkpt><trkpt lat="43.26813779349221" lon="10.622751328408988"><ele>88.85714285714286</ele><time>2026-04-04T05:22:54.999Z</time></trkpt><trkpt lat="43.268138111035775" lon="10.622838490061808"><ele>88.42857142857143</ele><time>2026-04-04T05:22:56.999Z</time></trkpt><trkpt lat="43.26813194968046" lon="10.622929874765916"><ele>88.0</ele><time>2026-04-04T05:22:58.999Z</time></trkpt><trkpt lat="43.26812829003717" lon="10.623022779193732"><ele>88.0</ele><time>2026-04-04T05:23:00.999Z</time></trkpt><trkpt lat="43.268119427077096" lon="10.623116530260628"><ele>88.0</ele><time>2026-04-04T05:23:02.999Z</time></trkpt><trkpt lat="43.26811723783713" lon="10.623237180866992"><ele>88.0</ele><time>2026-04-04T05:23:05.999Z</time></trkpt><trkpt lat="43.26813172558199" lon="10.623342360560095"><ele>88.0</ele><time>2026-04-04T05:23:08.999Z</time></trkpt><trkpt lat="43.268167456287614" lon="10.62347251687372"><ele>88.0</ele><time>2026-04-04T05:23:12.999Z</time></trkpt><trkpt lat="43.26820355551835" lon="10.623569062274271"><ele>88.0</ele><time>2026-04-04T05:23:15.999Z</time></trkpt><trkpt lat="43.26823076248746" lon="10.623668807881517"><ele>88.85714285714286</ele><time>2026-04-04T05:23:17.999Z</time></trkpt><trkpt lat="43.26828240397853" lon="10.62376894310001"><ele>89.71428571428571</ele><time>2026-04-04T05:23:20.999Z</time></trkpt><trkpt lat="43.26832109460985" lon="10.623858791903366"><ele>90.57142857142857</ele><time>2026-04-04T05:23:22.999Z</time></trkpt><trkpt lat="43.26835926305086" lon="10.623940205966335"><ele>91.42857142857143</ele><time>2026-04-04T05:23:24.999Z</time></trkpt><trkpt lat="43.26839551267308" lon="10.624017090312703"><ele>92.28571428571428</ele><time>2026-04-04T05:23:26.999Z</time></trkpt><trkpt lat="43.26842621335689" lon="10.624094502009124"><ele>93.14285714285714</ele><time>2026-04-04T05:23:29.999Z</time></trkpt><trkpt lat="43.26844570949593" lon="10.624180504001032"><ele>94.0</ele><time>2026-04-04T05:23:31.998Z</time></trkpt><trkpt lat="43.268471487092924" lon="10.624288437632854"><ele>94.0</ele><time>2026-04-04T05:23:34.998Z</time></trkpt><trkpt lat="43.268488027934396" lon="10.624381770839378"><ele>94.0</ele><time>2026-04-04T05:23:36.998Z</time></trkpt><trkpt lat="43.2685178402691" lon="10.624500942128961"><ele>94.0</ele><time>2026-04-04T05:23:39.998Z</time></trkpt><trkpt lat="43.26855610406097" lon="10.624595144274673"><ele>94.0</ele><time>2026-04-04T05:23:42.998Z</time></trkpt><trkpt lat="43.268590935705355" lon="10.624669622852881"><ele>94.0</ele><time>2026-04-04T05:23:43.998Z</time></trkpt><trkpt lat="43.2686573038147" lon="10.624745676061902"><ele>94.0</ele><time>2026-04-04T05:23:46.998Z</time></trkpt><trkpt lat="43.26870188849093" lon="10.62480733664116"><ele>95.28571428571428</ele><time>2026-04-04T05:23:48.998Z</time></trkpt><trkpt lat="43.26874345145257" lon="10.62487336504227"><ele>96.57142857142857</ele><time>2026-04-04T05:23:50.998Z</time></trkpt><trkpt lat="43.268786914704975" lon="10.624940057272742"><ele>97.85714285714286</ele><time>2026-04-04T05:23:52.998Z</time></trkpt><trkpt lat="43.268825127206625" lon="10.62501856255497"><ele>99.14285714285714</ele><time>2026-04-04T05:23:54.998Z</time></trkpt><trkpt lat="43.26886170635455" lon="10.625090315173148"><ele>100.42857142857143</ele><time>2026-04-04T05:23:56.998Z</time></trkpt><trkpt lat="43.26887596178352" lon="10.625182514428724"><ele>101.71428571428571</ele><time>2026-04-04T05:23:58.998Z</time></trkpt><trkpt lat="43.26888981176889" lon="10.62527387927805"><ele>103.0</ele><time>2026-04-04T05:24:00.998Z</time></trkpt><trkpt lat="43.26889159508806" lon="10.625370078402113"><ele>103.85714285714285</ele><time>2026-04-04T05:24:02.998Z</time></trkpt><trkpt lat="43.26888352892549" lon="10.625463578252074"><ele>104.71428571428571</ele><time>2026-04-04T05:24:04.998Z</time></trkpt><trkpt lat="43.26886002643218" lon="10.62555481055279"><ele>105.57142857142857</ele><time>2026-04-04T05:24:06.998Z</time></trkpt><trkpt lat="43.26882474822673" lon="10.625637020889297"><ele>106.42857142857142</ele><time>2026-04-04T05:24:08.998Z</time></trkpt><trkpt lat="43.26878808051503" lon="10.625723294406518"><ele>107.28571428571429</ele><time>2026-04-04T05:24:10.998Z</time></trkpt><trkpt lat="43.26875075578704" lon="10.625815720496416"><ele>108.14285714285714</ele><time>2026-04-04T05:24:12.998Z</time></trkpt><trkpt lat="43.26870682548518" lon="10.625893973678197"><ele>109.0</ele><time>2026-04-04T05:24:14.998Z</time></trkpt><trkpt lat="43.26867231392393" lon="10.625980930525737"><ele>109.00000000000001</ele><time>2026-04-04T05:24:16.998Z</time></trkpt><trkpt lat="43.2686538151702" lon="10.626072035203336"><ele>109.0</ele><time>2026-04-04T05:24:18.998Z</time></trkpt><trkpt lat="43.26865492611393" lon="10.626172243393729"><ele>109.0</ele><time>2026-04-04T05:24:20.998Z</time></trkpt><trkpt lat="43.26869817496751" lon="10.626241200276073"><ele>109.0</ele><time>2026-04-04T05:24:23.998Z</time></trkpt><trkpt lat="43.26876637900614" lon="10.626299498767235"><ele>109.00000000000001</ele><time>2026-04-04T05:24:26.999Z</time></trkpt><trkpt lat="43.26885511132758" lon="10.626303371251405"><ele>109.0</ele><time>2026-04-04T05:24:29.999Z</time></trkpt><trkpt lat="43.268941075444914" lon="10.626304122825026"><ele>109.14285714285714</ele><time>2026-04-04T05:24:32.999Z</time></trkpt><trkpt lat="43.269024796917705" lon="10.62631885143211"><ele>109.28571428571429</ele><time>2026-04-04T05:24:35.999Z</time></trkpt><trkpt lat="43.26908672113814" lon="10.626341567678628"><ele>109.42857142857142</ele><time>2026-04-04T05:24:38.999Z</time></trkpt><trkpt lat="43.26914443854916" lon="10.626379729050115"><ele>109.57142857142857</ele><time>2026-04-04T05:24:40.999Z</time></trkpt><trkpt lat="43.269197046461976" lon="10.62643710176953"><ele>109.71428571428571</ele><time>2026-04-04T05:24:43.999Z</time></trkpt><trkpt lat="43.269248471525984" lon="10.626505310937736"><ele>109.85714285714285</ele><time>2026-04-04T05:24:46.999Z</time></trkpt><trkpt lat="43.2692861015628" lon="10.626579213626181"><ele>110.0</ele><time>2026-04-04T05:24:48.999Z</time></trkpt><trkpt lat="43.269329488441485" lon="10.626668624917073"><ele>109.99999999999999</ele><time>2026-04-04T05:24:51.999Z</time></trkpt><trkpt lat="43.26936976618806" lon="10.626757565799004"><ele>110.0</ele><time>2026-04-04T05:24:54.999Z</time></trkpt><trkpt lat="43.26940681488547" lon="10.62684299394866"><ele>110.0</ele><time>2026-04-04T05:24:57.999Z</time></trkpt><trkpt lat="43.26943825663909" lon="10.626925320803112"><ele>110.0</ele><time>2026-04-04T05:24:59.999Z</time></trkpt><trkpt lat="43.269463141875484" lon="10.627039562985328"><ele>110.0</ele><time>2026-04-04T05:25:02.999Z</time></trkpt><trkpt lat="43.26947750189653" lon="10.627136086667491"><ele>109.99999999999999</ele><time>2026-04-04T05:25:05.999Z</time></trkpt><trkpt lat="43.26945904493857" lon="10.627234239794602"><ele>110.0</ele><time>2026-04-04T05:25:09.999Z</time></trkpt><trkpt lat="43.26938761161292" lon="10.627276890091967"><ele>112.33333333333333</ele><time>2026-04-04T05:25:13.999Z</time></trkpt><trkpt lat="43.26930494142621" lon="10.627250758101397"><ele>114.66666666666666</ele><time>2026-04-04T05:25:17.999Z</time></trkpt><trkpt lat="43.26923322556954" lon="10.627216882773155"><ele>117.0</ele><time>2026-04-04T05:25:21.999Z</time></trkpt><trkpt lat="43.26917167859164" lon="10.627196608408179"><ele>119.33333333333334</ele><time>2026-04-04T05:25:24.999Z</time></trkpt><trkpt lat="43.26910705214492" lon="10.627171000064289"><ele>121.66666666666667</ele><time>2026-04-04T05:25:28.999Z</time></trkpt><trkpt lat="43.26902498223198" lon="10.627162663693245"><ele>124.0</ele><time>2026-04-04T05:25:31.999Z</time></trkpt><trkpt lat="43.268937889811504" lon="10.62717202564162"><ele>124.66666666666667</ele><time>2026-04-04T05:25:36.998Z</time></trkpt><trkpt lat="43.268844877491546" lon="10.627168528156211"><ele>125.33333333333334</ele><time>2026-04-04T05:25:40.998Z</time></trkpt><trkpt lat="43.26877751968743" lon="10.62719786635139"><ele>126.0</ele><time>2026-04-04T05:25:44.998Z</time></trkpt><trkpt lat="43.268709932967894" lon="10.627213617887117"><ele>126.66666666666666</ele><time>2026-04-04T05:25:47.998Z</time></trkpt><trkpt lat="43.26864527335378" lon="10.627232795844186"><ele>127.33333333333333</ele><time>2026-04-04T05:25:51.998Z</time></trkpt><trkpt lat="43.268572638334284" lon="10.627273805205945"><ele>128.0</ele><time>2026-04-04T05:25:55.998Z</time></trkpt><trkpt lat="43.26850151741398" lon="10.627322884527644"><ele>128.0</ele><time>2026-04-04T05:25:59.999Z</time></trkpt><trkpt lat="43.2684348396026" lon="10.627392685685749"><ele>127.99999999999999</ele><time>2026-04-04T05:26:03.999Z</time></trkpt><trkpt lat="43.26838650964849" lon="10.627470440502272"><ele>128.0</ele><time>2026-04-04T05:26:07.999Z</time></trkpt><trkpt lat="43.26834547077374" lon="10.627541631902824"><ele>128.0</ele><time>2026-04-04T05:26:10.999Z</time></trkpt><trkpt lat="43.268301222422984" lon="10.627633505659999"><ele>127.99999999999999</ele><time>2026-04-04T05:26:15.999Z</time></trkpt><trkpt lat="43.26826118220065" lon="10.627705550605748"><ele>128.0</ele><time>2026-04-04T05:26:19.999Z</time></trkpt><trkpt lat="43.26822191299795" lon="10.627778913106582"><ele>128.0</ele><time>2026-04-04T05:26:22.999Z</time></trkpt><trkpt lat="43.26816966797723" lon="10.627837217004931"><ele>128.28571428571428</ele><time>2026-04-04T05:26:26.999Z</time></trkpt><trkpt lat="43.26811517197044" lon="10.627885499996792"><ele>128.57142857142856</ele><time>2026-04-04T05:26:29.998Z</time></trkpt><trkpt lat="43.26804453705366" lon="10.627905205836301"><ele>128.85714285714286</ele><time>2026-04-04T05:26:34Z</time></trkpt><trkpt lat="43.26797152591698" lon="10.627915731402581"><ele>129.14285714285714</ele><time>2026-04-04T05:26:38Z</time></trkpt><trkpt lat="43.26790851888327" lon="10.62791040476998"><ele>129.42857142857144</ele><time>2026-04-04T05:26:41Z</time></trkpt><trkpt lat="43.2678290786567" lon="10.627888925467074"><ele>129.71428571428572</ele><time>2026-04-04T05:26:45Z</time></trkpt><trkpt lat="43.267765871029184" lon="10.627843242122825"><ele>130.0</ele><time>2026-04-04T05:26:49Z</time></trkpt><trkpt lat="43.267687943570884" lon="10.627787097076958"><ele>130.0</ele><time>2026-04-04T05:26:53Z</time></trkpt><trkpt lat="43.2676227356842" lon="10.627732541784226"><ele>130.0</ele><time>2026-04-04T05:26:57Z</time></trkpt><trkpt lat="43.26756817920903" lon="10.627689329856048"><ele>130.0</ele><time>2026-04-04T05:27:00Z</time></trkpt><trkpt lat="43.267483930966435" lon="10.627688210110207"><ele>130.0</ele><time>2026-04-04T05:27:04Z</time></trkpt><trkpt lat="43.26740747697882" lon="10.627734461185842"><ele>130.0</ele><time>2026-04-04T05:27:09Z</time></trkpt><trkpt lat="43.26734377160133" lon="10.627830505720288"><ele>130.0</ele><time>2026-04-04T05:27:13Z</time></trkpt><trkpt lat="43.26730928947595" lon="10.627929155254195"><ele>130.85714285714286</ele><time>2026-04-04T05:27:17Z</time></trkpt><trkpt lat="43.26727929840103" lon="10.6280205225134"><ele>131.71428571428572</ele><time>2026-04-04T05:27:21Z</time></trkpt><trkpt lat="43.267232507039935" lon="10.628108101906"><ele>132.57142857142856</ele><time>2026-04-04T05:27:25Z</time></trkpt><trkpt lat="43.26720193970441" lon="10.628190480877183"><ele>133.42857142857144</ele><time>2026-04-04T05:27:28Z</time></trkpt><trkpt lat="43.26717712497613" lon="10.628281050302355"><ele>134.28571428571428</ele><time>2026-04-04T05:27:31Z</time></trkpt><trkpt lat="43.267141248438655" lon="10.628371596642568"><ele>135.14285714285714</ele><time>2026-04-04T05:27:34Z</time></trkpt><trkpt lat="43.26710667177718" lon="10.628446022906601"><ele>136.0</ele><time>2026-04-04T05:27:37Z</time></trkpt><trkpt lat="43.267072922892844" lon="10.628525626348223"><ele>136.0</ele><time>2026-04-04T05:27:39.999Z</time></trkpt><trkpt lat="43.26702944077122" lon="10.628620747382932"><ele>136.0</ele><time>2026-04-04T05:27:41.999Z</time></trkpt><trkpt lat="43.26697014977706" lon="10.628702003499626"><ele>136.0</ele><time>2026-04-04T05:27:44.999Z</time></trkpt><trkpt lat="43.26690168803757" lon="10.62877221204355"><ele>136.0</ele><time>2026-04-04T05:27:47.999Z</time></trkpt><trkpt lat="43.26682859086079" lon="10.628838211284126"><ele>136.0</ele><time>2026-04-04T05:27:50.999Z</time></trkpt><trkpt lat="43.26677067533681" lon="10.628878497548653"><ele>136.0</ele><time>2026-04-04T05:27:52.999Z</time></trkpt><trkpt lat="43.26671614820871" lon="10.628926218447255"><ele>138.66666666666669</ele><time>2026-04-04T05:27:54.999Z</time></trkpt><trkpt lat="43.26663946361606" lon="10.628978585832385"><ele>141.33333333333334</ele><time>2026-04-04T05:27:58.999Z</time></trkpt><trkpt lat="43.266530731012985" lon="10.628956586156956"><ele>144.0</ele><time>2026-04-04T05:28:01.999Z</time></trkpt><trkpt lat="43.26646936327654" lon="10.628901895223612"><ele>146.66666666666666</ele><time>2026-04-04T05:28:03.999Z</time></trkpt><trkpt lat="43.26642245144486" lon="10.628815726694956"><ele>149.33333333333331</ele><time>2026-04-04T05:28:05.999Z</time></trkpt><trkpt lat="43.26634939828531" lon="10.628750778761555"><ele>152.0</ele><time>2026-04-04T05:28:07.999Z</time></trkpt><trkpt lat="43.266264736549736" lon="10.628709757044454"><ele>153.0</ele><time>2026-04-04T05:28:09.999Z</time></trkpt><trkpt lat="43.266195327208884" lon="10.628730217380404"><ele>154.0</ele><time>2026-04-04T05:28:11.999Z</time></trkpt><trkpt lat="43.266131918023206" lon="10.628775439886759"><ele>155.0</ele><time>2026-04-04T05:28:13.999Z</time></trkpt><trkpt lat="43.266076172294106" lon="10.628833794950724"><ele>156.0</ele><time>2026-04-04T05:28:15.999Z</time></trkpt><trkpt lat="43.26602069341158" lon="10.628883583582905"><ele>157.0</ele><time>2026-04-04T05:28:17.999Z</time></trkpt><trkpt lat="43.265951070641606" lon="10.628884085575145"><ele>158.0</ele><time>2026-04-04T05:28:19.999Z</time></trkpt><trkpt lat="43.26589021907992" lon="10.628839836750297"><ele>159.0</ele><time>2026-04-04T05:28:21.999Z</time></trkpt><trkpt lat="43.26584777501056" lon="10.628739286093273"><ele>159.0</ele><time>2026-04-04T05:28:24.999Z</time></trkpt><trkpt lat="43.265850242036706" lon="10.628643698365785"><ele>159.0</ele><time>2026-04-04T05:28:26.999Z</time></trkpt><trkpt lat="43.2658308449879" lon="10.628559794791444"><ele>159.0</ele><time>2026-04-04T05:28:28.999Z</time></trkpt><trkpt lat="43.26578406090015" lon="10.628449046398773"><ele>159.0</ele><time>2026-04-04T05:28:31.999Z</time></trkpt><trkpt lat="43.265776370359376" lon="10.628327835445168"><ele>159.0</ele><time>2026-04-04T05:28:34.999Z</time></trkpt><trkpt lat="43.26575865347841" lon="10.628238941458203"><ele>159.0</ele><time>2026-04-04T05:28:36.998Z</time></trkpt><trkpt lat="43.26571997986269" lon="10.628156945180079"><ele>158.0</ele><time>2026-04-04T05:28:40Z</time></trkpt><trkpt lat="43.26566802052152" lon="10.628060842387308"><ele>157.0</ele><time>2026-04-04T05:28:42Z</time></trkpt><trkpt lat="43.26559968403485" lon="10.627994409527119"><ele>156.0</ele><time>2026-04-04T05:28:44Z</time></trkpt><trkpt lat="43.26553612244131" lon="10.627951139877672"><ele>155.0</ele><time>2026-04-04T05:28:46Z</time></trkpt><trkpt lat="43.26546358793275" lon="10.62789725074069"><ele>154.0</ele><time>2026-04-04T05:28:48Z</time></trkpt><trkpt lat="43.265395398345944" lon="10.627859447206589"><ele>153.0</ele><time>2026-04-04T05:28:50Z</time></trkpt><trkpt lat="43.265337478766135" lon="10.627824034941158"><ele>151.33333333333334</ele><time>2026-04-04T05:28:53Z</time></trkpt><trkpt lat="43.26526830240392" lon="10.62781017701134"><ele>149.66666666666666</ele><time>2026-04-04T05:33:35Z</time></trkpt><trkpt lat="43.265265631008" lon="10.627695604379035"><ele>148.0</ele><time>2026-04-04T05:33:37Z</time></trkpt><trkpt lat="43.265249044556505" lon="10.627527338225532"><ele>146.33333333333331</ele><time>2026-04-04T05:33:39Z</time></trkpt><trkpt lat="43.265242965823305" lon="10.62743028429899"><ele>144.66666666666666</ele><time>2026-04-04T05:33:40Z</time></trkpt><trkpt lat="43.265226644516815" lon="10.62733490950515"><ele>143.0</ele><time>2026-04-04T05:33:41Z</time></trkpt><trkpt lat="43.26519609221288" lon="10.627236525690506"><ele>143.0</ele><time>2026-04-04T05:33:42Z</time></trkpt><trkpt lat="43.265172960211444" lon="10.627129548033379"><ele>143.0</ele><time>2026-04-04T05:33:43Z</time></trkpt><trkpt lat="43.26515209231142" lon="10.627027625202016"><ele>143.0</ele><time>2026-04-04T05:33:44Z</time></trkpt><trkpt lat="43.26513051049599" lon="10.62688715981825"><ele>143.0</ele><time>2026-04-04T05:33:46Z</time></trkpt><trkpt lat="43.265052769457085" lon="10.62681109832424"><ele>143.0</ele><time>2026-04-04T05:33:48Z</time></trkpt><trkpt lat="43.26494634754738" lon="10.626795082859672"><ele>141.66666666666666</ele><time>2026-04-04T05:33:50Z</time></trkpt><trkpt lat="43.26483003464668" lon="10.62678582113189"><ele>140.33333333333331</ele><time>2026-04-04T05:33:52Z</time></trkpt><trkpt lat="43.26476686056877" lon="10.626785831573171"><ele>139.0</ele><time>2026-04-04T05:33:53Z</time></trkpt><trkpt lat="43.26468575969044" lon="10.626752417085033"><ele>137.66666666666666</ele><time>2026-04-04T05:33:54.999Z</time></trkpt><trkpt lat="43.2646226107103" lon="10.626693415648147"><ele>136.33333333333334</ele><time>2026-04-04T05:33:55.999Z</time></trkpt><trkpt lat="43.2645662460308" lon="10.626643447089595"><ele>135.0</ele><time>2026-04-04T05:33:56.999Z</time></trkpt><trkpt lat="43.26451518470121" lon="10.62657753098233"><ele>134.16666666666666</ele><time>2026-04-04T05:33:57.999Z</time></trkpt><trkpt lat="43.26446128829485" lon="10.62650218631992"><ele>133.33333333333334</ele><time>2026-04-04T05:33:58.999Z</time></trkpt><trkpt lat="43.264408514268155" lon="10.626446874303449"><ele>132.5</ele><time>2026-04-04T05:33:59.999Z</time></trkpt><trkpt lat="43.26433636583882" lon="10.626396563324997"><ele>131.66666666666669</ele><time>2026-04-04T05:34:01.999Z</time></trkpt><trkpt lat="43.26424125331108" lon="10.626356518965503"><ele>130.83333333333334</ele><time>2026-04-04T05:34:03.999Z</time></trkpt><trkpt lat="43.264134036735065" lon="10.626315019281293"><ele>130.0</ele><time>2026-04-04T05:34:05.999Z</time></trkpt><trkpt lat="43.264186649260914" lon="10.626183021906055"><ele>128.2</ele><time>2026-04-04T05:34:08.999Z</time></trkpt><trkpt lat="43.26427426460753" lon="10.62609440797911"><ele>126.4</ele><time>2026-04-04T05:34:10.999Z</time></trkpt><trkpt lat="43.26429765064814" lon="10.626001492867342"><ele>124.6</ele><time>2026-04-04T05:34:13.999Z</time></trkpt><trkpt lat="43.264342968852525" lon="10.62591790590045"><ele>122.8</ele><time>2026-04-04T05:34:15.999Z</time></trkpt><trkpt lat="43.26444127693371" lon="10.625840640669292"><ele>121.0</ele><time>2026-04-04T05:34:17.999Z</time></trkpt><trkpt lat="43.26455210782111" lon="10.625777681055988"><ele>121.0</ele><time>2026-04-04T05:34:19.999Z</time></trkpt><trkpt lat="43.26465046451364" lon="10.62573880559979"><ele>121.0</ele><time>2026-04-04T05:34:21.999Z</time></trkpt><trkpt lat="43.264760431075395" lon="10.625674181934752"><ele>121.0</ele><time>2026-04-04T05:34:23.999Z</time></trkpt><trkpt lat="43.2648165478717" lon="10.625634761149808"><ele>121.0</ele><time>2026-04-04T05:34:24.999Z</time></trkpt><trkpt lat="43.264922331830896" lon="10.625624972223907"><ele>121.0</ele><time>2026-04-04T05:34:26.999Z</time></trkpt><trkpt lat="43.26502806748928" lon="10.625614352690693"><ele>121.5</ele><time>2026-04-04T05:34:28.999Z</time></trkpt><trkpt lat="43.26519752587159" lon="10.625537000803087"><ele>122.0</ele><time>2026-04-04T05:34:31.999Z</time></trkpt><trkpt lat="43.26529590980457" lon="10.62549647180875"><ele>122.5</ele><time>2026-04-04T05:34:33.999Z</time></trkpt><trkpt lat="43.26535640760098" lon="10.625468072829348"><ele>123.0</ele><time>2026-04-04T05:34:35.999Z</time></trkpt><trkpt lat="43.265455646648725" lon="10.6254221030023"><ele>123.0</ele><time>2026-04-04T05:34:37.999Z</time></trkpt><trkpt lat="43.26553164433845" lon="10.625462685987065"><ele>123.0</ele><time>2026-04-04T05:34:39.999Z</time></trkpt><trkpt lat="43.26561728923914" lon="10.625546982065925"><ele>123.0</ele><time>2026-04-04T05:34:41.999Z</time></trkpt><trkpt lat="43.26561027613623" lon="10.625651683963211"><ele>123.0</ele><time>2026-04-04T05:34:43.999Z</time></trkpt><trkpt lat="43.2656423965603" lon="10.625740366399262"><ele>123.0</ele><time>2026-04-04T05:34:48.999Z</time></trkpt><trkpt lat="43.265722854780414" lon="10.625769006861846"><ele>123.0</ele><time>2026-04-04T05:34:51.998Z</time></trkpt><trkpt lat="43.26578815881087" lon="10.625713882651514"><ele>122.4</ele><time>2026-04-04T05:34:53.998Z</time></trkpt><trkpt lat="43.265891269359614" lon="10.625641847286404"><ele>121.80000000000001</ele><time>2026-04-04T05:34:56Z</time></trkpt><trkpt lat="43.26595474629215" lon="10.625628568326594"><ele>121.2</ele><time>2026-04-04T05:34:57Z</time></trkpt><trkpt lat="43.266042412899374" lon="10.625566122686791"><ele>120.6</ele><time>2026-04-04T05:34:59Z</time></trkpt><trkpt lat="43.2661187129025" lon="10.62549026905408"><ele>120.0</ele><time>2026-04-04T05:35:01Z</time></trkpt><trkpt lat="43.26619191699509" lon="10.62541157855476"><ele>117.83333333333333</ele><time>2026-04-04T05:35:03Z</time></trkpt><trkpt lat="43.26622623174981" lon="10.625305912031703"><ele>115.66666666666666</ele><time>2026-04-04T05:35:05Z</time></trkpt><trkpt lat="43.266308526720415" lon="10.625229739463547"><ele>113.5</ele><time>2026-04-04T05:35:07Z</time></trkpt><trkpt lat="43.266367934046805" lon="10.625193658512144"><ele>111.33333333333333</ele><time>2026-04-04T05:35:09Z</time></trkpt><trkpt lat="43.26640506419244" lon="10.625115854895558"><ele>109.16666666666666</ele><time>2026-04-04T05:35:12Z</time></trkpt><trkpt lat="43.266473130818085" lon="10.62507924245756"><ele>107.0</ele><time>2026-04-04T05:35:15Z</time></trkpt><trkpt lat="43.26665348108443" lon="10.625010809473475"><ele>107.0</ele><time>2026-04-04T05:35:16Z</time></trkpt><trkpt lat="43.26676029322734" lon="10.624993614836114"><ele>106.99999999999999</ele><time>2026-04-04T05:35:18Z</time></trkpt><trkpt lat="43.2668675237354" lon="10.624986983008812"><ele>106.99999999999999</ele><time>2026-04-04T05:35:20Z</time></trkpt><trkpt lat="43.26693821886501" lon="10.624957468089631"><ele>107.0</ele><time>2026-04-04T05:35:23Z</time></trkpt><trkpt lat="43.267004374098526" lon="10.624860114141745"><ele>107.0</ele><time>2026-04-04T05:35:25Z</time></trkpt><trkpt lat="43.26706494510163" lon="10.624891291208726"><ele>106.99999999999999</ele><time>2026-04-04T05:35:30Z</time></trkpt><trkpt lat="43.267131673925206" lon="10.624879010653638"><ele>107.0</ele><time>2026-04-04T05:35:32Z</time></trkpt><trkpt lat="43.26720222343314" lon="10.624879438599933"><ele>107.0</ele><time>2026-04-04T05:35:34Z</time></trkpt><trkpt lat="43.26727339210617" lon="10.624847560557908"><ele>107.0</ele><time>2026-04-04T05:35:38Z</time></trkpt><trkpt lat="43.267336234288635" lon="10.624820557779751"><ele>106.99999999999999</ele><time>2026-04-04T05:35:41Z</time></trkpt><trkpt lat="43.26740958174678" lon="10.624809319978485"><ele>107.0</ele><time>2026-04-04T05:35:43Z</time></trkpt><trkpt lat="43.267534769953585" lon="10.62477937761769"><ele>106.83333333333333</ele><time>2026-04-04T05:35:45Z</time></trkpt><trkpt lat="43.267637179462575" lon="10.624758764869782"><ele>106.66666666666666</ele><time>2026-04-04T05:35:47Z</time></trkpt><trkpt lat="43.267707407698666" lon="10.624746899723146"><ele>106.5</ele><time>2026-04-04T05:35:48Z</time></trkpt><trkpt lat="43.26778206288423" lon="10.624755159315734"><ele>106.33333333333334</ele><time>2026-04-04T05:35:49Z</time></trkpt><trkpt lat="43.26784764735214" lon="10.624771178786725"><ele>106.16666666666667</ele><time>2026-04-04T05:35:50Z</time></trkpt><trkpt lat="43.267914755145114" lon="10.62476194902803"><ele>106.0</ele><time>2026-04-04T05:35:51Z</time></trkpt><trkpt lat="43.267987554973665" lon="10.624742893274112"><ele>106.0</ele><time>2026-04-04T05:35:52Z</time></trkpt><trkpt lat="43.26806568180568" lon="10.62472936746941"><ele>106.0</ele><time>2026-04-04T05:35:53Z</time></trkpt><trkpt lat="43.26813434727451" lon="10.624737058100033"><ele>106.0</ele><time>2026-04-04T05:35:54Z</time></trkpt><trkpt lat="43.26820584858336" lon="10.624723759593211"><ele>106.0</ele><time>2026-04-04T05:35:55Z</time></trkpt><trkpt lat="43.26827834908765" lon="10.624696903604592"><ele>106.0</ele><time>2026-04-04T05:35:56Z</time></trkpt><trkpt lat="43.26834255416455" lon="10.6246831715575"><ele>106.0</ele><time>2026-04-04T05:35:56.999Z</time></trkpt><trkpt lat="43.26840726814403" lon="10.62466072753841"><ele>106.0</ele><time>2026-04-04T05:35:57.999Z</time></trkpt><trkpt lat="43.26847036182958" lon="10.624640954539801"><ele>105.4</ele><time>2026-04-04T05:35:58.999Z</time></trkpt><trkpt lat="43.26855303769539" lon="10.624672004533895"><ele>104.8</ele><time>2026-04-04T05:36:00.999Z</time></trkpt><trkpt lat="43.268662701561794" lon="10.624694919177387"><ele>104.2</ele><time>2026-04-04T05:36:03.999Z</time></trkpt><trkpt lat="43.26871883753036" lon="10.624766869857035"><ele>103.60000000000001</ele><time>2026-04-04T05:36:06.999Z</time></trkpt><trkpt lat="43.268849081544765" lon="10.624870283932152"><ele>103.0</ele><time>2026-04-04T05:36:07.999Z</time></trkpt><trkpt lat="43.268912229243035" lon="10.624919095466463"><ele>101.33333333333334</ele><time>2026-04-04T05:36:08.999Z</time></trkpt><trkpt lat="43.268978568605704" lon="10.624971475914979"><ele>99.66666666666667</ele><time>2026-04-04T05:36:09.999Z</time></trkpt><trkpt lat="43.26904405690358" lon="10.625016152591003"><ele>98.0</ele><time>2026-04-04T05:36:10.999Z</time></trkpt><trkpt lat="43.269124276310976" lon="10.625054961886145"><ele>96.33333333333334</ele><time>2026-04-04T05:36:11.999Z</time></trkpt><trkpt lat="43.26920958356526" lon="10.625088592223442"><ele>94.66666666666667</ele><time>2026-04-04T05:36:12.999Z</time></trkpt><trkpt lat="43.26929276825671" lon="10.625127546306091"><ele>93.0</ele><time>2026-04-04T05:36:13.999Z</time></trkpt><trkpt lat="43.26936721120742" lon="10.62517937912485"><ele>93.0</ele><time>2026-04-04T05:36:14.999Z</time></trkpt><trkpt lat="43.26942615982638" lon="10.625242213773333"><ele>93.0</ele><time>2026-04-04T05:36:15.999Z</time></trkpt><trkpt lat="43.26945970161333" lon="10.625326224063059"><ele>93.0</ele><time>2026-04-04T05:36:16.999Z</time></trkpt><trkpt lat="43.269481277694474" lon="10.625472173571731"><ele>93.0</ele><time>2026-04-04T05:36:18.999Z</time></trkpt><trkpt lat="43.26951846304158" lon="10.625617596551109"><ele>93.0</ele><time>2026-04-04T05:36:20.999Z</time></trkpt><trkpt lat="43.26955074397382" lon="10.62573425701264"><ele>94.4</ele><time>2026-04-04T05:36:22.999Z</time></trkpt><trkpt lat="43.269673443433014" lon="10.62567628677574"><ele>95.80000000000001</ele><time>2026-04-04T05:36:25.999Z</time></trkpt><trkpt lat="43.269724563167685" lon="10.625731262184214"><ele>97.2</ele><time>2026-04-04T05:36:30.999Z</time></trkpt><trkpt lat="43.26977118788864" lon="10.62584763766484"><ele>98.6</ele><time>2026-04-04T05:36:33.999Z</time></trkpt><trkpt lat="43.269798781804816" lon="10.625931173867567"><ele>100.0</ele><time>2026-04-04T05:36:35.999Z</time></trkpt><trkpt lat="43.26983065260165" lon="10.626055395893866"><ele>100.00000000000001</ele><time>2026-04-04T05:36:38.999Z</time></trkpt><trkpt lat="43.269848821999986" lon="10.626141646785888"><ele>100.0</ele><time>2026-04-04T05:36:40.999Z</time></trkpt><trkpt lat="43.26987496661179" lon="10.626252637858869"><ele>100.0</ele><time>2026-04-04T05:36:43.999Z</time></trkpt><trkpt lat="43.26991188602672" lon="10.626340876164315"><ele>100.0</ele><time>2026-04-04T05:36:46.999Z</time></trkpt><trkpt lat="43.269962871471385" lon="10.62640144473509"><ele>100.0</ele><time>2026-04-04T05:36:49.999Z</time></trkpt><trkpt lat="43.26999239950559" lon="10.626504041507518"><ele>100.00000000000001</ele><time>2026-04-04T05:36:53.998Z</time></trkpt><trkpt lat="43.2699976463575" lon="10.626591441601676"><ele>100.0</ele><time>2026-04-04T05:36:55.998Z</time></trkpt><trkpt lat="43.27001360058727" lon="10.62671719163683"><ele>100.28571428571429</ele><time>2026-04-04T05:36:58.998Z</time></trkpt><trkpt lat="43.27002059047066" lon="10.62680924181574"><ele>100.57142857142857</ele><time>2026-04-04T05:37:01Z</time></trkpt><trkpt lat="43.270040911612156" lon="10.626908537250898"><ele>100.85714285714286</ele><time>2026-04-04T05:37:03Z</time></trkpt><trkpt lat="43.27006519986857" lon="10.627004120416565"><ele>101.14285714285714</ele><time>2026-04-04T05:37:05Z</time></trkpt><trkpt lat="43.2700839759188" lon="10.627096046052591"><ele>101.42857142857143</ele><time>2026-04-04T05:37:07Z</time></trkpt><trkpt lat="43.27009145025377" lon="10.627203613586822"><ele>101.71428571428572</ele><time>2026-04-04T05:37:09Z</time></trkpt><trkpt lat="43.270125026287694" lon="10.627282406845234"><ele>102.0</ele><time>2026-04-04T05:37:11Z</time></trkpt><trkpt lat="43.27009975658789" lon="10.627193552960314"><ele>102.0</ele><time>2026-04-04T05:37:26Z</time></trkpt><trkpt lat="43.270084875242205" lon="10.627077483079706"><ele>102.0</ele><time>2026-04-04T05:37:30Z</time></trkpt><trkpt lat="43.27004564365985" lon="10.626954266479272"><ele>102.0</ele><time>2026-04-04T05:37:33Z</time></trkpt><trkpt lat="43.27002122153202" lon="10.62686546201068"><ele>102.0</ele><time>2026-04-04T05:37:35Z</time></trkpt><trkpt lat="43.27000030704994" lon="10.626725808954331"><ele>102.0</ele><time>2026-04-04T05:37:38Z</time></trkpt><trkpt lat="43.26998734788609" lon="10.626570942838171"><ele>102.0</ele><time>2026-04-04T05:37:40Z</time></trkpt><trkpt lat="43.26996697149554" lon="10.626432376919146"><ele>102.0</ele><time>2026-04-04T05:37:42Z</time></trkpt><trkpt lat="43.2699244728514" lon="10.626363608127498"><ele>102.0</ele><time>2026-04-04T05:37:43Z</time></trkpt><trkpt lat="43.26985716930096" lon="10.626244857923309"><ele>102.0</ele><time>2026-04-04T05:37:45Z</time></trkpt><trkpt lat="43.269840005534355" lon="10.626161149543995"><ele>102.0</ele><time>2026-04-04T05:37:46Z</time></trkpt><trkpt lat="43.26982759207828" lon="10.626072503996598"><ele>102.0</ele><time>2026-04-04T05:37:47Z</time></trkpt><trkpt lat="43.269810219466535" lon="10.625988557516859"><ele>101.66666666666667</ele><time>2026-04-04T05:37:48Z</time></trkpt><trkpt lat="43.26978823939396" lon="10.625905289814238"><ele>101.33333333333334</ele><time>2026-04-04T05:37:49Z</time></trkpt><trkpt lat="43.26974820162751" lon="10.625772924793953"><ele>101.0</ele><time>2026-04-04T05:37:51Z</time></trkpt><trkpt lat="43.269656797061224" lon="10.625734784971328"><ele>100.66666666666667</ele><time>2026-04-04T05:37:54Z</time></trkpt><trkpt lat="43.26958578600889" lon="10.625645502209743"><ele>100.33333333333334</ele><time>2026-04-04T05:37:57.999Z</time></trkpt><trkpt lat="43.269517636642455" lon="10.62562341967519"><ele>100.0</ele><time>2026-04-04T05:38:00.999Z</time></trkpt><trkpt lat="43.2694537678504" lon="10.62557004682287"><ele>100.00000000000001</ele><time>2026-04-04T05:38:02.999Z</time></trkpt><trkpt lat="43.26942608843098" lon="10.62545435320963"><ele>100.0</ele><time>2026-04-04T05:38:04.999Z</time></trkpt><trkpt lat="43.26939621284935" lon="10.625356219233153"><ele>100.0</ele><time>2026-04-04T05:38:06.999Z</time></trkpt><trkpt lat="43.26934667778478" lon="10.62527140042452"><ele>100.0</ele><time>2026-04-04T05:38:08.999Z</time></trkpt><trkpt lat="43.26928589256231" lon="10.62518739373279"><ele>100.00000000000001</ele><time>2026-04-04T05:38:10.999Z</time></trkpt><trkpt lat="43.269215266320764" lon="10.625141039694732"><ele>100.0</ele><time>2026-04-04T05:38:12.999Z</time></trkpt><trkpt lat="43.26913919252633" lon="10.6250879424964"><ele>100.50000000000001</ele><time>2026-04-04T05:38:14.999Z</time></trkpt><trkpt lat="43.269068486670314" lon="10.625062066370297"><ele>101.0</ele><time>2026-04-04T05:38:16.999Z</time></trkpt><trkpt lat="43.26900212472321" lon="10.625013152103325"><ele>101.5</ele><time>2026-04-04T05:38:20.999Z</time></trkpt><trkpt lat="43.26893903329359" lon="10.624971648463285"><ele>102.0</ele><time>2026-04-04T05:38:22.999Z</time></trkpt><trkpt lat="43.26887450762173" lon="10.624928750181772"><ele>102.50000000000001</ele><time>2026-04-04T05:38:24.999Z</time></trkpt><trkpt lat="43.2688179624215" lon="10.624871799288703"><ele>103.0</ele><time>2026-04-04T05:38:26.999Z</time></trkpt><trkpt lat="43.26873018982086" lon="10.624837058058022"><ele>103.0</ele><time>2026-04-04T05:38:29.999Z</time></trkpt><trkpt lat="43.268656649984955" lon="10.62475438414144"><ele>103.0</ele><time>2026-04-04T05:38:32.999Z</time></trkpt><trkpt lat="43.26860311251932" lon="10.624654486272744"><ele>103.0</ele><time>2026-04-04T05:38:35.999Z</time></trkpt><trkpt lat="43.2684745735889" lon="10.624437870881087"><ele>103.0</ele><time>2026-04-04T05:38:37.999Z</time></trkpt><trkpt lat="43.26846400894217" lon="10.624292125884672"><ele>101.50000000000001</ele><time>2026-04-04T05:38:39.999Z</time></trkpt><trkpt lat="43.268444358829534" lon="10.624159466671731"><ele>100.0</ele><time>2026-04-04T05:38:41.999Z</time></trkpt><trkpt lat="43.268382422645736" lon="10.624028199596545"><ele>98.5</ele><time>2026-04-04T05:38:43.999Z</time></trkpt><trkpt lat="43.268343921481005" lon="10.623958247730556"><ele>97.0</ele><time>2026-04-04T05:38:44.999Z</time></trkpt><trkpt lat="43.26828822073599" lon="10.623890796521252"><ele>95.5</ele><time>2026-04-04T05:38:45.999Z</time></trkpt><trkpt lat="43.26824474248731" lon="10.623816730644036"><ele>94.0</ele><time>2026-04-04T05:38:46.999Z</time></trkpt><trkpt lat="43.26820714875721" lon="10.623726641843916"><ele>94.28571428571428</ele><time>2026-04-04T05:38:47.999Z</time></trkpt><trkpt lat="43.26817235879691" lon="10.62363840703914"><ele>94.57142857142857</ele><time>2026-04-04T05:38:48.999Z</time></trkpt><trkpt lat="43.268147666730464" lon="10.623545780028621"><ele>94.85714285714286</ele><time>2026-04-04T05:38:49.999Z</time></trkpt><trkpt lat="43.26812905628787" lon="10.623450690686878"><ele>95.14285714285714</ele><time>2026-04-04T05:38:50.999Z</time></trkpt><trkpt lat="43.26810528752622" lon="10.62335551517343"><ele>95.42857142857143</ele><time>2026-04-04T05:38:51.998Z</time></trkpt><trkpt lat="43.268094932243315" lon="10.62324386197493"><ele>95.71428571428571</ele><time>2026-04-04T05:38:52.998Z</time></trkpt><trkpt lat="43.26808081856734" lon="10.623141401463021"><ele>96.0</ele><time>2026-04-04T05:38:53.998Z</time></trkpt><trkpt lat="43.26808426947308" lon="10.623033451481156"><ele>96.0</ele><time>2026-04-04T05:38:54.998Z</time></trkpt><trkpt lat="43.26809367391962" lon="10.622928565137634"><ele>96.0</ele><time>2026-04-04T05:38:55.998Z</time></trkpt><trkpt lat="43.268106601899" lon="10.622824041113473"><ele>96.0</ele><time>2026-04-04T05:38:56.998Z</time></trkpt><trkpt lat="43.268104618923815" lon="10.622717072560558"><ele>96.0</ele><time>2026-04-04T05:38:57.998Z</time></trkpt><trkpt lat="43.268091495321805" lon="10.622614280155796"><ele>96.0</ele><time>2026-04-04T05:38:58.998Z</time></trkpt><trkpt lat="43.26806932690032" lon="10.622510252430132"><ele>96.0</ele><time>2026-04-04T05:38:59.998Z</time></trkpt><trkpt lat="43.268046532217284" lon="10.622404363440566"><ele>95.83333333333333</ele><time>2026-04-04T05:39:00.998Z</time></trkpt><trkpt lat="43.26801273930931" lon="10.622295504875895"><ele>95.66666666666667</ele><time>2026-04-04T05:39:01.998Z</time></trkpt><trkpt lat="43.26797705112327" lon="10.62219925305436"><ele>95.5</ele><time>2026-04-04T05:39:02.998Z</time></trkpt><trkpt lat="43.267945906975505" lon="10.622095656249707"><ele>95.33333333333334</ele><time>2026-04-04T05:39:03.998Z</time></trkpt><trkpt lat="43.26790539107067" lon="10.6219843646309"><ele>95.16666666666667</ele><time>2026-04-04T05:39:04.998Z</time></trkpt><trkpt lat="43.26785944269309" lon="10.62186046309292"><ele>95.0</ele><time>2026-04-04T05:39:06Z</time></trkpt><trkpt lat="43.26781925638945" lon="10.621740463490545"><ele>94.2</ele><time>2026-04-04T05:39:07Z</time></trkpt><trkpt lat="43.267780206727096" lon="10.62161050598778"><ele>93.4</ele><time>2026-04-04T05:39:08Z</time></trkpt><trkpt lat="43.26774373885655" lon="10.621484186133975"><ele>92.6</ele><time>2026-04-04T05:39:09Z</time></trkpt><trkpt lat="43.26770218604309" lon="10.621352687885848"><ele>91.8</ele><time>2026-04-04T05:39:10Z</time></trkpt><trkpt lat="43.26765940641917" lon="10.621227028161107"><ele>91.0</ele><time>2026-04-04T05:39:11Z</time></trkpt><trkpt lat="43.2676172883546" lon="10.621098502457151"><ele>89.6</ele><time>2026-04-04T05:39:12Z</time></trkpt><trkpt lat="43.26757571663229" lon="10.620970096235895"><ele>88.19999999999999</ele><time>2026-04-04T05:39:13Z</time></trkpt><trkpt lat="43.26753472332045" lon="10.620840088750274"><ele>86.80000000000001</ele><time>2026-04-04T05:39:14Z</time></trkpt><trkpt lat="43.26751111152352" lon="10.620698952404894"><ele>85.4</ele><time>2026-04-04T05:39:15Z</time></trkpt><trkpt lat="43.26748958625698" lon="10.620569047761279"><ele>84.0</ele><time>2026-04-04T05:39:16Z</time></trkpt><trkpt lat="43.26746284379855" lon="10.620430168978013"><ele>83.0</ele><time>2026-04-04T05:39:17Z</time></trkpt><trkpt lat="43.267413601289704" lon="10.620303442934377"><ele>82.0</ele><time>2026-04-04T05:39:18Z</time></trkpt><trkpt lat="43.26738492107872" lon="10.620176958953163"><ele>81.0</ele><time>2026-04-04T05:39:19Z</time></trkpt><trkpt lat="43.26735491544246" lon="10.620049573478106"><ele>80.0</ele><time>2026-04-04T05:39:20Z</time></trkpt><trkpt lat="43.26734759355391" lon="10.619921618231354"><ele>79.0</ele><time>2026-04-04T05:39:21Z</time></trkpt><trkpt lat="43.26732394298857" lon="10.619794712766446"><ele>79.0</ele><time>2026-04-04T05:39:22Z</time></trkpt><trkpt lat="43.26729659996782" lon="10.61966476788082"><ele>79.0</ele><time>2026-04-04T05:39:23Z</time></trkpt><trkpt lat="43.267268799229186" lon="10.619544608635794"><ele>79.0</ele><time>2026-04-04T05:39:24Z</time></trkpt><trkpt lat="43.26724103507523" lon="10.619424291978822"><ele>79.0</ele><time>2026-04-04T05:39:25Z</time></trkpt><trkpt lat="43.267201802508204" lon="10.619306913870195"><ele>79.0</ele><time>2026-04-04T05:39:26Z</time></trkpt><trkpt lat="43.267173000832365" lon="10.619184023555805"><ele>78.8</ele><time>2026-04-04T05:39:27Z</time></trkpt><trkpt lat="43.267151008050526" lon="10.619062478578163"><ele>78.60000000000001</ele><time>2026-04-04T05:39:28Z</time></trkpt><trkpt lat="43.26712882911418" lon="10.618940046337748"><ele>78.4</ele><time>2026-04-04T05:39:29Z</time></trkpt><trkpt lat="43.26709891667554" lon="10.618822116768886"><ele>78.2</ele><time>2026-04-04T05:39:30Z</time></trkpt><trkpt lat="43.26707521046635" lon="10.618707494515917"><ele>78.0</ele><time>2026-04-04T05:39:31Z</time></trkpt><trkpt lat="43.26706349280423" lon="10.618585304174854"><ele>77.66666666666667</ele><time>2026-04-04T05:39:32Z</time></trkpt><trkpt lat="43.26704691282642" lon="10.618463342222999"><ele>77.33333333333333</ele><time>2026-04-04T05:39:33Z</time></trkpt><trkpt lat="43.267012637000036" lon="10.61835670477278"><ele>77.0</ele><time>2026-04-04T05:39:34Z</time></trkpt><trkpt lat="43.26699261439958" lon="10.618247109854723"><ele>76.66666666666666</ele><time>2026-04-04T05:39:35Z</time></trkpt><trkpt lat="43.26697940245845" lon="10.618139867002078"><ele>76.33333333333333</ele><time>2026-04-04T05:39:36Z</time></trkpt><trkpt lat="43.26699077732624" lon="10.618033354355001"><ele>76.0</ele><time>2026-04-04T05:39:37Z</time></trkpt><trkpt lat="43.26698953040246" lon="10.617921862763616"><ele>75.85714285714285</ele><time>2026-04-04T05:39:38Z</time></trkpt><trkpt lat="43.266970532928035" lon="10.617817574702649"><ele>75.71428571428572</ele><time>2026-04-04T05:39:39Z</time></trkpt><trkpt lat="43.266966170376534" lon="10.617716027684043"><ele>75.57142857142857</ele><time>2026-04-04T05:39:40Z</time></trkpt><trkpt lat="43.26695999111928" lon="10.617617250093776"><ele>75.42857142857142</ele><time>2026-04-04T05:39:41Z</time></trkpt><trkpt lat="43.2669478143798" lon="10.617523708930403"><ele>75.28571428571428</ele><time>2026-04-04T05:39:42Z</time></trkpt><trkpt lat="43.2669263431565" lon="10.617433752625649"><ele>75.14285714285714</ele><time>2026-04-04T05:39:43Z</time></trkpt><trkpt lat="43.266899366879294" lon="10.617348858902954"><ele>75.0</ele><time>2026-04-04T05:39:44Z</time></trkpt><trkpt lat="43.26687076917901" lon="10.617266319458425"><ele>75.0</ele><time>2026-04-04T05:39:45Z</time></trkpt><trkpt lat="43.26685620171287" lon="10.617177373439372"><ele>75.0</ele><time>2026-04-04T05:39:46Z</time></trkpt><trkpt lat="43.266806787177885" lon="10.617023049931221"><ele>75.0</ele><time>2026-04-04T05:39:48Z</time></trkpt><trkpt lat="43.26676838138792" lon="10.616954167454836"><ele>75.0</ele><time>2026-04-04T05:39:49Z</time></trkpt><trkpt lat="43.26672992066694" lon="10.616803236860733"><ele>75.0</ele><time>2026-04-04T05:39:51Z</time></trkpt><trkpt lat="43.26671129627947" lon="10.616647417395075"><ele>75.0</ele><time>2026-04-04T05:39:53Z</time></trkpt><trkpt lat="43.26672843076408" lon="10.616475866844235"><ele>75.0</ele><time>2026-04-04T05:39:55Z</time></trkpt><trkpt lat="43.26671976498974" lon="10.616374246065071"><ele>75.0</ele><time>2026-04-04T05:39:55.999Z</time></trkpt><trkpt lat="43.26670632216822" lon="10.616273013477839"><ele>75.0</ele><time>2026-04-04T05:39:56.999Z</time></trkpt><trkpt lat="43.26666982019995" lon="10.616175911449448"><ele>75.0</ele><time>2026-04-04T05:39:57.999Z</time></trkpt><trkpt lat="43.26663841855914" lon="10.616075502051887"><ele>75.0</ele><time>2026-04-04T05:39:58.999Z</time></trkpt><trkpt lat="43.26659481474706" lon="10.615988316550965"><ele>74.83333333333333</ele><time>2026-04-04T05:39:59.999Z</time></trkpt><trkpt lat="43.266538407779535" lon="10.615913534009795"><ele>74.66666666666667</ele><time>2026-04-04T05:40:00.999Z</time></trkpt><trkpt lat="43.266481718340714" lon="10.615839360218592"><ele>74.5</ele><time>2026-04-04T05:40:01.999Z</time></trkpt><trkpt lat="43.266439290662774" lon="10.615752149793305"><ele>74.33333333333334</ele><time>2026-04-04T05:40:02.999Z</time></trkpt><trkpt lat="43.26640604937245" lon="10.615652665874753"><ele>74.16666666666667</ele><time>2026-04-04T05:40:03.999Z</time></trkpt><trkpt lat="43.26638789817133" lon="10.61554839064903"><ele>74.0</ele><time>2026-04-04T05:40:04.999Z</time></trkpt><trkpt lat="43.26638718454398" lon="10.615440228528676"><ele>73.83333333333334</ele><time>2026-04-04T05:40:05.999Z</time></trkpt><trkpt lat="43.266393076632674" lon="10.615334103513712"><ele>73.66666666666667</ele><time>2026-04-04T05:40:06.999Z</time></trkpt><trkpt lat="43.266407171860074" lon="10.615227299806621"><ele>73.5</ele><time>2026-04-04T05:40:07.999Z</time></trkpt><trkpt lat="43.26642823627081" lon="10.615122497980398"><ele>73.33333333333333</ele><time>2026-04-04T05:40:08.999Z</time></trkpt><trkpt lat="43.266448240907685" lon="10.615017529575555"><ele>73.16666666666666</ele><time>2026-04-04T05:40:09.999Z</time></trkpt><trkpt lat="43.26646368429578" lon="10.614912924180322"><ele>73.0</ele><time>2026-04-04T05:40:10.999Z</time></trkpt><trkpt lat="43.26648195377993" lon="10.614810505406384"><ele>73.0</ele><time>2026-04-04T05:40:11.999Z</time></trkpt><trkpt lat="43.266504719512106" lon="10.614709253889734"><ele>73.0</ele><time>2026-04-04T05:40:12.999Z</time></trkpt><trkpt lat="43.266523540327995" lon="10.614605862461726"><ele>73.0</ele><time>2026-04-04T05:40:13.999Z</time></trkpt><trkpt lat="43.2665376378259" lon="10.614499497191467"><ele>73.0</ele><time>2026-04-04T05:40:14.999Z</time></trkpt><trkpt lat="43.26654891715183" lon="10.614395863782944"><ele>73.0</ele><time>2026-04-04T05:40:15.999Z</time></trkpt><trkpt lat="43.26656687893059" lon="10.614294997105924"><ele>73.0</ele><time>2026-04-04T05:40:16.999Z</time></trkpt><trkpt lat="43.26658505096224" lon="10.61419162602248"><ele>72.83333333333333</ele><time>2026-04-04T05:40:17.999Z</time></trkpt><trkpt lat="43.26660127621733" lon="10.614092033075172"><ele>72.66666666666666</ele><time>2026-04-04T05:40:18.999Z</time></trkpt><trkpt lat="43.26661563374655" lon="10.613987679758734"><ele>72.5</ele><time>2026-04-04T05:40:19.999Z</time></trkpt><trkpt lat="43.26662826136866" lon="10.613884683741649"><ele>72.33333333333333</ele><time>2026-04-04T05:40:20.999Z</time></trkpt><trkpt lat="43.26663938873967" lon="10.613779344266064"><ele>72.16666666666667</ele><time>2026-04-04T05:40:21.999Z</time></trkpt><trkpt lat="43.26664747822531" lon="10.61367471715513"><ele>72.0</ele><time>2026-04-04T05:40:22.999Z</time></trkpt><trkpt lat="43.26665259268242" lon="10.61357045650755"><ele>71.5</ele><time>2026-04-04T05:40:23.999Z</time></trkpt><trkpt lat="43.26665135813449" lon="10.613465617233361"><ele>71.0</ele><time>2026-04-04T05:40:24.999Z</time></trkpt><trkpt lat="43.26665187818147" lon="10.6133584518558"><ele>70.5</ele><time>2026-04-04T05:40:25.999Z</time></trkpt><trkpt lat="43.26665228259265" lon="10.61325016379253"><ele>70.0</ele><time>2026-04-04T05:40:26.999Z</time></trkpt><trkpt lat="43.26664929266901" lon="10.613140126373422"><ele>69.5</ele><time>2026-04-04T05:40:27.999Z</time></trkpt><trkpt lat="43.26664959864581" lon="10.613031007517353"><ele>69.0</ele><time>2026-04-04T05:40:28.999Z</time></trkpt><trkpt lat="43.26665032998244" lon="10.61291415230533"><ele>68.5</ele><time>2026-04-04T05:40:29.999Z</time></trkpt><trkpt lat="43.266648661454695" lon="10.61280056616452"><ele>68.0</ele><time>2026-04-04T05:40:30.999Z</time></trkpt><trkpt lat="43.26664642444785" lon="10.612684776751475"><ele>67.5</ele><time>2026-04-04T05:40:31.999Z</time></trkpt><trkpt lat="43.266650266701845" lon="10.612566737442652"><ele>67.0</ele><time>2026-04-04T05:40:32.999Z</time></trkpt><trkpt lat="43.266655510106006" lon="10.612447326222034"><ele>66.5</ele><time>2026-04-04T05:40:33.999Z</time></trkpt><trkpt lat="43.26666577230235" lon="10.612326642859129"><ele>66.0</ele><time>2026-04-04T05:40:34.999Z</time></trkpt><trkpt lat="43.26667854092074" lon="10.612205302360843"><ele>66.0</ele><time>2026-04-04T05:40:35.999Z</time></trkpt><trkpt lat="43.26669686085351" lon="10.612082424614412"><ele>66.0</ele><time>2026-04-04T05:40:36.999Z</time></trkpt><trkpt lat="43.26672511533708" lon="10.61196554878262"><ele>66.0</ele><time>2026-04-04T05:40:37.999Z</time></trkpt><trkpt lat="43.26675785728197" lon="10.611852613886242"><ele>66.0</ele><time>2026-04-04T05:40:38.999Z</time></trkpt><trkpt lat="43.2667892760505" lon="10.61173868448975"><ele>66.0</ele><time>2026-04-04T05:40:39.999Z</time></trkpt><trkpt lat="43.26681976687225" lon="10.611626426260395"><ele>66.0</ele><time>2026-04-04T05:40:40.999Z</time></trkpt><trkpt lat="43.26684829203382" lon="10.611512627353745"><ele>66.16666666666667</ele><time>2026-04-04T05:40:41.999Z</time></trkpt><trkpt lat="43.2668793901104" lon="10.611402356785131"><ele>66.33333333333333</ele><time>2026-04-04T05:40:42.999Z</time></trkpt><trkpt lat="43.26690693239013" lon="10.611291288897648"><ele>66.5</ele><time>2026-04-04T05:40:43.999Z</time></trkpt><trkpt lat="43.266932491531165" lon="10.611181595091253"><ele>66.66666666666666</ele><time>2026-04-04T05:40:44.999Z</time></trkpt><trkpt lat="43.26695918731437" lon="10.611072188370196"><ele>66.83333333333333</ele><time>2026-04-04T05:40:45.999Z</time></trkpt><trkpt lat="43.26698804636488" lon="10.610966798611681"><ele>67.0</ele><time>2026-04-04T05:40:46.999Z</time></trkpt><trkpt lat="43.267023774844446" lon="10.610865313925123"><ele>66.66666666666666</ele><time>2026-04-04T05:40:47.999Z</time></trkpt><trkpt lat="43.26706453272589" lon="10.610768466831768"><ele>66.33333333333333</ele><time>2026-04-04T05:40:48.999Z</time></trkpt><trkpt lat="43.26710761377918" lon="10.610675175047719"><ele>66.0</ele><time>2026-04-04T05:40:49.999Z</time></trkpt><trkpt lat="43.26715319922957" lon="10.610590018680174"><ele>65.66666666666667</ele><time>2026-04-04T05:40:50.999Z</time></trkpt><trkpt lat="43.26719442201028" lon="10.610501870147058"><ele>65.33333333333334</ele><time>2026-04-04T05:40:51.999Z</time></trkpt><trkpt lat="43.267240046831674" lon="10.610421529736056"><ele>65.0</ele><time>2026-04-04T05:40:52.998Z</time></trkpt><trkpt lat="43.26728660226263" lon="10.610345344617869"><ele>65.00000000000001</ele><time>2026-04-04T05:40:53.998Z</time></trkpt><trkpt lat="43.267334939083966" lon="10.6102692170772"><ele>65.0</ele><time>2026-04-04T05:40:54.998Z</time></trkpt><trkpt lat="43.267375809265815" lon="10.610189663026528"><ele>65.0</ele><time>2026-04-04T05:40:55.998Z</time></trkpt><trkpt lat="43.26741961949976" lon="10.6101169905712"><ele>65.0</ele><time>2026-04-04T05:40:56.998Z</time></trkpt><trkpt lat="43.267455750999815" lon="10.610041233766687"><ele>65.0</ele><time>2026-04-04T05:40:57.998Z</time></trkpt><trkpt lat="43.26748388677488" lon="10.609961157308264"><ele>65.00000000000001</ele><time>2026-04-04T05:40:58.998Z</time></trkpt><trkpt lat="43.26750338517539" lon="10.609876629619563"><ele>65.0</ele><time>2026-04-04T05:40:59.998Z</time></trkpt><trkpt lat="43.26751628084079" lon="10.60978937117217"><ele>65.0</ele><time>2026-04-04T05:41:00.998Z</time></trkpt><trkpt lat="43.26752768888989" lon="10.609704030208796"><ele>65.0</ele><time>2026-04-04T05:41:01.998Z</time></trkpt><trkpt lat="43.2675328855686" lon="10.60954039249059"><ele>65.0</ele><time>2026-04-04T05:41:03.998Z</time></trkpt><trkpt lat="43.267562751349146" lon="10.60939056492108"><ele>65.0</ele><time>2026-04-04T05:41:05.998Z</time></trkpt><trkpt lat="43.267576031305026" lon="10.609256015709448"><ele>65.0</ele><time>2026-04-04T05:41:07.998Z</time></trkpt><trkpt lat="43.26760117156074" lon="10.609144806237424"><ele>65.0</ele><time>2026-04-04T05:41:09.998Z</time></trkpt><trkpt lat="43.26761260422145" lon="10.609045226476177"><ele>65.0</ele><time>2026-04-04T05:41:12Z</time></trkpt><trkpt lat="43.26763360593525" lon="10.608949886407704"><ele>65.0</ele><time>2026-04-04T05:41:14Z</time></trkpt><trkpt lat="43.26765621080483" lon="10.608848428773975"><ele>65.0</ele><time>2026-04-04T05:41:16Z</time></trkpt><trkpt lat="43.2676898602005" lon="10.60873802808012"><ele>65.0</ele><time>2026-04-04T05:41:18Z</time></trkpt><trkpt lat="43.267731351542885" lon="10.608626698690443"><ele>65.0</ele><time>2026-04-04T05:41:20Z</time></trkpt><trkpt lat="43.26777312362185" lon="10.608528464110112"><ele>65.83333333333334</ele><time>2026-04-04T05:41:22Z</time></trkpt><trkpt lat="43.26780277301746" lon="10.608430767442115"><ele>66.66666666666667</ele><time>2026-04-04T05:41:24Z</time></trkpt><trkpt lat="43.26785180185461" lon="10.608351184579083"><ele>67.5</ele><time>2026-04-04T05:41:26Z</time></trkpt><trkpt lat="43.267893022411776" lon="10.608274445603787"><ele>68.33333333333333</ele><time>2026-04-04T05:41:29Z</time></trkpt><trkpt lat="43.267959013869806" lon="10.608179520330618"><ele>69.16666666666666</ele><time>2026-04-04T05:41:32Z</time></trkpt><trkpt lat="43.268006735356614" lon="10.608121175532542"><ele>70.0</ele><time>2026-04-04T05:41:34Z</time></trkpt><trkpt lat="43.26807813970903" lon="10.608044631713346"><ele>70.71428571428571</ele><time>2026-04-04T05:41:37Z</time></trkpt><trkpt lat="43.268136635694" lon="10.607991832147867"><ele>71.42857142857143</ele><time>2026-04-04T05:41:39Z</time></trkpt><trkpt lat="43.268191107456445" lon="10.607942238572445"><ele>72.14285714285714</ele><time>2026-04-04T05:41:40Z</time></trkpt><trkpt lat="43.268247260172075" lon="10.607894392671762"><ele>72.85714285714286</ele><time>2026-04-04T05:41:42Z</time></trkpt><trkpt lat="43.26829779668195" lon="10.607840655531922"><ele>73.57142857142857</ele><time>2026-04-04T05:41:44Z</time></trkpt><trkpt lat="43.26836084321658" lon="10.607758109220692"><ele>74.28571428571428</ele><time>2026-04-04T05:41:46Z</time></trkpt><trkpt lat="43.26841708825186" lon="10.607686344278168"><ele>75.0</ele><time>2026-04-04T05:41:48Z</time></trkpt><trkpt lat="43.268458501160524" lon="10.607602820565013"><ele>74.99999999999999</ele><time>2026-04-04T05:41:51Z</time></trkpt><trkpt lat="43.26851487243107" lon="10.60765431677251"><ele>75.0</ele><time>2026-04-04T05:41:55Z</time></trkpt><trkpt lat="43.26853574865887" lon="10.607755921508192"><ele>75.0</ele><time>2026-04-04T05:42:02Z</time></trkpt><trkpt lat="43.26854195575585" lon="10.607847090005535"><ele>75.0</ele><time>2026-04-04T05:42:04Z</time></trkpt><trkpt lat="43.26853906312234" lon="10.607939022662645"><ele>75.0</ele><time>2026-04-04T05:42:05.999Z</time></trkpt><trkpt lat="43.26855474816511" lon="10.608023349776417"><ele>74.99999999999999</ele><time>2026-04-04T05:42:07.999Z</time></trkpt><trkpt lat="43.2686065602025" lon="10.608135437958865"><ele>75.0</ele><time>2026-04-04T05:42:10.999Z</time></trkpt><trkpt lat="43.26864483756848" lon="10.608205840337016"><ele>75.0</ele><time>2026-04-04T05:42:12.999Z</time></trkpt><trkpt lat="43.26871083157838" lon="10.608286694108937"><ele>75.0</ele><time>2026-04-04T05:42:15.999Z</time></trkpt><trkpt lat="43.26876205777693" lon="10.60838063730988"><ele>75.0</ele><time>2026-04-04T05:42:18.999Z</time></trkpt><trkpt lat="43.26881118603807" lon="10.608484180017443"><ele>75.0</ele><time>2026-04-04T05:42:21.999Z</time></trkpt><trkpt lat="43.26885193307476" lon="10.60856223074101"><ele>75.0</ele><time>2026-04-04T05:42:24.999Z</time></trkpt><trkpt lat="43.26891402243158" lon="10.608668914545998"><ele>75.0</ele><time>2026-04-04T05:42:27.999Z</time></trkpt><trkpt lat="43.26895182470455" lon="10.608738688254519"><ele>76.0</ele><time>2026-04-04T05:42:29.999Z</time></trkpt><trkpt lat="43.26901283502689" lon="10.608845043544726"><ele>77.0</ele><time>2026-04-04T05:42:33.999Z</time></trkpt><trkpt lat="43.26906248142603" lon="10.608908877125334"><ele>78.0</ele><time>2026-04-04T05:42:36.999Z</time></trkpt><trkpt lat="43.26912126256716" lon="10.6089652568868"><ele>79.0</ele><time>2026-04-04T05:42:40.999Z</time></trkpt><trkpt lat="43.26917194933554" lon="10.609021447476326"><ele>80.0</ele><time>2026-04-04T05:42:43.999Z</time></trkpt><trkpt lat="43.26923793983675" lon="10.60908785993831"><ele>81.0</ele><time>2026-04-04T05:42:46.999Z</time></trkpt><trkpt lat="43.26930089031408" lon="10.609149400969137"><ele>81.0</ele><time>2026-04-04T05:42:50.999Z</time></trkpt><trkpt lat="43.26935280349075" lon="10.609222226546981"><ele>81.0</ele><time>2026-04-04T05:42:54.999Z</time></trkpt><trkpt lat="43.26940238609633" lon="10.60929473729786"><ele>81.0</ele><time>2026-04-04T05:42:58.999Z</time></trkpt><trkpt lat="43.269433928364464" lon="10.60939133369027"><ele>81.0</ele><time>2026-04-04T05:43:03.998Z</time></trkpt><trkpt lat="43.26946589334396" lon="10.6094748485568"><ele>81.0</ele><time>2026-04-04T05:43:08.998Z</time></trkpt><trkpt lat="43.26947863249954" lon="10.609576454443308"><ele>81.0</ele><time>2026-04-04T05:43:14.998Z</time></trkpt><trkpt lat="43.26950239471565" lon="10.609666362799535"><ele>81.0</ele><time>2026-04-04T05:43:20Z</time></trkpt><trkpt lat="43.2694851229095" lon="10.609751662992188"><ele>81.0</ele><time>2026-04-04T05:43:25Z</time></trkpt><trkpt lat="43.26947345924866" lon="10.609652047124532"><ele>81.0</ele><time>2026-04-04T05:43:34Z</time></trkpt><trkpt lat="43.26944714842929" lon="10.60954045135968"><ele>81.0</ele><time>2026-04-04T05:43:36Z</time></trkpt><trkpt lat="43.2694092679851" lon="10.609399735509314"><ele>81.0</ele><time>2026-04-04T05:43:38Z</time></trkpt><trkpt lat="43.26937591583199" lon="10.609314230230622"><ele>81.0</ele><time>2026-04-04T05:43:39Z</time></trkpt><trkpt lat="43.269325927292606" lon="10.60922531258468"><ele>81.0</ele><time>2026-04-04T05:43:40Z</time></trkpt><trkpt lat="43.26926069393334" lon="10.609134330995277"><ele>81.0</ele><time>2026-04-04T05:43:41Z</time></trkpt><trkpt lat="43.26918033043938" lon="10.609045430090786"><ele>81.0</ele><time>2026-04-04T05:43:42Z</time></trkpt><trkpt lat="43.26909093368079" lon="10.60895702971573"><ele>81.0</ele><time>2026-04-04T05:43:43Z</time></trkpt><trkpt lat="43.26901021627064" lon="10.608853411804532"><ele>81.0</ele><time>2026-04-04T05:43:44Z</time></trkpt><trkpt lat="43.268935964646694" lon="10.608735968072168"><ele>81.0</ele><time>2026-04-04T05:43:45Z</time></trkpt><trkpt lat="43.268867301778776" lon="10.608610785461655"><ele>79.8</ele><time>2026-04-04T05:43:46Z</time></trkpt><trkpt lat="43.26880207113814" lon="10.608493543616358"><ele>78.6</ele><time>2026-04-04T05:43:47Z</time></trkpt><trkpt lat="43.268738651048686" lon="10.608386567529356"><ele>77.4</ele><time>2026-04-04T05:43:48Z</time></trkpt><trkpt lat="43.2686783117556" lon="10.608290373107693"><ele>76.2</ele><time>2026-04-04T05:43:49Z</time></trkpt><trkpt lat="43.268622190878936" lon="10.60820018045037"><ele>75.0</ele><time>2026-04-04T05:43:50Z</time></trkpt><trkpt lat="43.26857647230826" lon="10.60811104434824"><ele>75.0</ele><time>2026-04-04T05:43:51Z</time></trkpt><trkpt lat="43.268542897782936" lon="10.60801233725822"><ele>75.0</ele><time>2026-04-04T05:43:52Z</time></trkpt><trkpt lat="43.26852168825013" lon="10.607910083656897"><ele>75.0</ele><time>2026-04-04T05:43:53Z</time></trkpt><trkpt lat="43.268511863246296" lon="10.607803834736263"><ele>75.0</ele><time>2026-04-04T05:43:54Z</time></trkpt><trkpt lat="43.268514054447294" lon="10.60771279950851"><ele>75.0</ele><time>2026-04-04T05:43:55Z</time></trkpt><trkpt lat="43.2685041280861" lon="10.607620410967783"><ele>75.0</ele><time>2026-04-04T05:43:57Z</time></trkpt><trkpt lat="43.26853316239888" lon="10.60748487478681"><ele>75.0</ele><time>2026-04-04T05:44:00Z</time></trkpt><trkpt lat="43.26853903824323" lon="10.60737616724477"><ele>75.0</ele><time>2026-04-04T05:44:02Z</time></trkpt><trkpt lat="43.26846253160373" lon="10.607311815219946"><ele>75.0</ele><time>2026-04-04T05:44:04Z</time></trkpt><trkpt lat="43.26839076960001" lon="10.607293838333074"><ele>75.0</ele><time>2026-04-04T05:44:06Z</time></trkpt><trkpt lat="43.26830094758768" lon="10.607245736887982"><ele>75.0</ele><time>2026-04-04T05:44:09Z</time></trkpt><trkpt lat="43.26824021497214" lon="10.607220707319755"><ele>75.0</ele><time>2026-04-04T05:44:11Z</time></trkpt><trkpt lat="43.26817912329738" lon="10.607193704865296"><ele>75.0</ele><time>2026-04-04T05:44:13Z</time></trkpt><trkpt lat="43.268120092762494" lon="10.60716130354114"><ele>75.0</ele><time>2026-04-04T05:44:14.999Z</time></trkpt><trkpt lat="43.2680359506928" lon="10.60711509342371"><ele>75.0</ele><time>2026-04-04T05:44:17.999Z</time></trkpt><trkpt lat="43.267957764332365" lon="10.607072009359877"><ele>75.0</ele><time>2026-04-04T05:44:20.999Z</time></trkpt><trkpt lat="43.26790281054772" lon="10.607028618224339"><ele>75.0</ele><time>2026-04-04T05:44:23.999Z</time></trkpt><trkpt lat="43.26783302089881" lon="10.606968246027659"><ele>75.0</ele><time>2026-04-04T05:44:27.999Z</time></trkpt><trkpt lat="43.26777279517231" lon="10.606887717621385"><ele>76.66666666666667</ele><time>2026-04-04T05:44:30.999Z</time></trkpt><trkpt lat="43.2677089860082" lon="10.606794972790404"><ele>78.33333333333333</ele><time>2026-04-04T05:44:33.999Z</time></trkpt><trkpt lat="43.2676513131782" lon="10.606688338238943"><ele>80.0</ele><time>2026-04-04T05:44:36.999Z</time></trkpt><trkpt lat="43.26762109196544" lon="10.60660487992506"><ele>81.66666666666666</ele><time>2026-04-04T05:44:38.999Z</time></trkpt><trkpt lat="43.267595757243065" lon="10.606511337458347"><ele>83.33333333333333</ele><time>2026-04-04T05:44:41.999Z</time></trkpt><trkpt lat="43.26757590237719" lon="10.606407572613659"><ele>85.0</ele><time>2026-04-04T05:44:45.999Z</time></trkpt><trkpt lat="43.26754945401334" lon="10.606311123943293"><ele>85.0</ele><time>2026-04-04T05:44:49.999Z</time></trkpt><trkpt lat="43.267524866182654" lon="10.606206620596636"><ele>85.0</ele><time>2026-04-04T05:44:53.999Z</time></trkpt><trkpt lat="43.26750042332103" lon="10.606121288176364"><ele>85.0</ele><time>2026-04-04T05:44:56.999Z</time></trkpt><trkpt lat="43.26748264552349" lon="10.60602288880803"><ele>85.0</ele><time>2026-04-04T05:44:59.999Z</time></trkpt><trkpt lat="43.267472491299976" lon="10.605921709225134"><ele>85.0</ele><time>2026-04-04T05:45:02.999Z</time></trkpt><trkpt lat="43.26744290578457" lon="10.605819653047805"><ele>85.0</ele><time>2026-04-04T05:45:05.999Z</time></trkpt><trkpt lat="43.26740064542071" lon="10.605741023411808"><ele>85.0</ele><time>2026-04-04T05:45:08.998Z</time></trkpt><trkpt lat="43.2673534061195" lon="10.605656576938374"><ele>85.66666666666666</ele><time>2026-04-04T05:45:11.998Z</time></trkpt><trkpt lat="43.26731403143916" lon="10.605584085864752"><ele>86.33333333333333</ele><time>2026-04-04T05:45:13.998Z</time></trkpt><trkpt lat="43.26727658732654" lon="10.605505608221135"><ele>87.0</ele><time>2026-04-04T05:45:16.998Z</time></trkpt><trkpt lat="43.267236999241675" lon="10.605400264895932"><ele>87.66666666666667</ele><time>2026-04-04T05:45:18.998Z</time></trkpt><trkpt lat="43.267194880998716" lon="10.605281823887333"><ele>88.33333333333334</ele><time>2026-04-04T05:45:21.998Z</time></trkpt><trkpt lat="43.26715031771198" lon="10.605186362303549"><ele>89.0</ele><time>2026-04-04T05:45:25Z</time></trkpt><trkpt lat="43.26709344054241" lon="10.605104320465115"><ele>89.42857142857142</ele><time>2026-04-04T05:45:28Z</time></trkpt><trkpt lat="43.26705313895455" lon="10.60503158051026"><ele>89.85714285714286</ele><time>2026-04-04T05:45:29Z</time></trkpt><trkpt lat="43.26701483962628" lon="10.604940881031851"><ele>90.28571428571428</ele><time>2026-04-04T05:45:31Z</time></trkpt><trkpt lat="43.2669707050933" lon="10.604843151405046"><ele>90.71428571428571</ele><time>2026-04-04T05:45:33Z</time></trkpt><trkpt lat="43.26693939714391" lon="10.60475286292522"><ele>91.14285714285714</ele><time>2026-04-04T05:45:35Z</time></trkpt><trkpt lat="43.26690443434483" lon="10.6046687089595"><ele>91.57142857142857</ele><time>2026-04-04T05:45:37Z</time></trkpt><trkpt lat="43.26686869465015" lon="10.604575752891654"><ele>92.0</ele><time>2026-04-04T05:45:40Z</time></trkpt><trkpt lat="43.26683525968402" lon="10.604476490588143"><ele>92.0</ele><time>2026-04-04T05:45:43Z</time></trkpt><trkpt lat="43.26679200380462" lon="10.60436745645238"><ele>92.0</ele><time>2026-04-04T05:45:46Z</time></trkpt><trkpt lat="43.26673734854329" lon="10.604237885443997"><ele>92.0</ele><time>2026-04-04T05:45:48Z</time></trkpt><trkpt lat="43.26669323785959" lon="10.604146829336392"><ele>92.0</ele><time>2026-04-04T05:45:50Z</time></trkpt><trkpt lat="43.26662779410241" lon="10.604103507573718"><ele>92.0</ele><time>2026-04-04T05:45:53Z</time></trkpt><trkpt lat="43.26655077053276" lon="10.604084408902452"><ele>92.0</ele><time>2026-04-04T05:45:56Z</time></trkpt><trkpt lat="43.26644423684457" lon="10.604073643327979"><ele>92.33333333333334</ele><time>2026-04-04T05:45:58Z</time></trkpt><trkpt lat="43.26637383343005" lon="10.60406409018131"><ele>92.66666666666667</ele><time>2026-04-04T05:45:59Z</time></trkpt><trkpt lat="43.26628473062206" lon="10.60402781941361"><ele>93.0</ele><time>2026-04-04T05:46:01Z</time></trkpt><trkpt lat="43.266193993662306" lon="10.603985725071562"><ele>93.33333333333333</ele><time>2026-04-04T05:46:03Z</time></trkpt><trkpt lat="43.26610330121335" lon="10.60393980327054"><ele>93.66666666666666</ele><time>2026-04-04T05:46:05Z</time></trkpt><trkpt lat="43.2660229490499" lon="10.603899089539414"><ele>94.0</ele><time>2026-04-04T05:46:07Z</time></trkpt><trkpt lat="43.26595688171456" lon="10.603812730761307"><ele>94.0</ele><time>2026-04-04T05:46:09Z</time></trkpt><trkpt lat="43.26592688890002" lon="10.603696128861815"><ele>94.0</ele><time>2026-04-04T05:46:11Z</time></trkpt><trkpt lat="43.265882401008014" lon="10.603588038043297"><ele>94.0</ele><time>2026-04-04T05:46:13Z</time></trkpt><trkpt lat="43.26583202773625" lon="10.603480613719201"><ele>94.0</ele><time>2026-04-04T05:46:15Z</time></trkpt><trkpt lat="43.265794530414254" lon="10.603345110031741"><ele>94.0</ele><time>2026-04-04T05:46:17Z</time></trkpt><trkpt lat="43.26577083890081" lon="10.603204406916328"><ele>93.83333333333333</ele><time>2026-04-04T05:46:18.999Z</time></trkpt><trkpt lat="43.26576928526429" lon="10.603053608099655"><ele>93.66666666666666</ele><time>2026-04-04T05:46:20.999Z</time></trkpt><trkpt lat="43.265759971310125" lon="10.602894930925041"><ele>93.5</ele><time>2026-04-04T05:46:22.999Z</time></trkpt><trkpt lat="43.265736347735825" lon="10.602808601865519"><ele>93.33333333333333</ele><time>2026-04-04T05:46:23.999Z</time></trkpt><trkpt lat="43.2657253003514" lon="10.602723180496056"><ele>93.16666666666667</ele><time>2026-04-04T05:46:24.999Z</time></trkpt><trkpt lat="43.265704967583126" lon="10.602637802094188"><ele>93.0</ele><time>2026-04-04T05:46:25.999Z</time></trkpt><trkpt lat="43.265683061377025" lon="10.602552775695983"><ele>92.57142857142858</ele><time>2026-04-04T05:46:26.999Z</time></trkpt><trkpt lat="43.26566490751332" lon="10.602467775362355"><ele>92.14285714285714</ele><time>2026-04-04T05:46:27.999Z</time></trkpt><trkpt lat="43.26564854396481" lon="10.602381841689995"><ele>91.71428571428572</ele><time>2026-04-04T05:46:28.999Z</time></trkpt><trkpt lat="43.265629737430245" lon="10.602297548874716"><ele>91.28571428571429</ele><time>2026-04-04T05:46:29.999Z</time></trkpt><trkpt lat="43.26561167424936" lon="10.602209696287817"><ele>90.85714285714286</ele><time>2026-04-04T05:46:30.999Z</time></trkpt><trkpt lat="43.26559414419288" lon="10.60211843928529"><ele>90.42857142857143</ele><time>2026-04-04T05:46:31.999Z</time></trkpt><trkpt lat="43.265579687652675" lon="10.602031722465595"><ele>90.0</ele><time>2026-04-04T05:46:32.999Z</time></trkpt><trkpt lat="43.26556159789963" lon="10.601945208407468"><ele>90.0</ele><time>2026-04-04T05:46:33.999Z</time></trkpt><trkpt lat="43.26556369735264" lon="10.60185709151339"><ele>90.0</ele><time>2026-04-04T05:46:34.999Z</time></trkpt><trkpt lat="43.265552041970075" lon="10.60177130795465"><ele>90.0</ele><time>2026-04-04T05:46:35.999Z</time></trkpt><trkpt lat="43.26554553577534" lon="10.601684143741744"><ele>90.0</ele><time>2026-04-04T05:46:36.999Z</time></trkpt><trkpt lat="43.26553754842308" lon="10.601596379164532"><ele>90.0</ele><time>2026-04-04T05:46:37.999Z</time></trkpt><trkpt lat="43.26553552537653" lon="10.60143954659857"><ele>90.0</ele><time>2026-04-04T05:46:39.999Z</time></trkpt><trkpt lat="43.26557839355181" lon="10.601374901197964"><ele>90.0</ele><time>2026-04-04T05:46:40.999Z</time></trkpt><trkpt lat="43.26562748092375" lon="10.601317119436997"><ele>89.66666666666667</ele><time>2026-04-04T05:46:41.999Z</time></trkpt><trkpt lat="43.265688994624426" lon="10.601274649257094"><ele>89.33333333333333</ele><time>2026-04-04T05:46:42.999Z</time></trkpt><trkpt lat="43.26573724289817" lon="10.601216021163525"><ele>89.0</ele><time>2026-04-04T05:46:43.999Z</time></trkpt><trkpt lat="43.26578974435358" lon="10.60115646561923"><ele>88.66666666666666</ele><time>2026-04-04T05:46:44.999Z</time></trkpt><trkpt lat="43.265902029686096" lon="10.601108808898315"><ele>88.33333333333333</ele><time>2026-04-04T05:46:46.999Z</time></trkpt><trkpt lat="43.265964349609774" lon="10.601137778588948"><ele>88.0</ele><time>2026-04-04T05:46:47.999Z</time></trkpt><trkpt lat="43.266025982538764" lon="10.601166908881424"><ele>88.0</ele><time>2026-04-04T05:46:48.999Z</time></trkpt><trkpt lat="43.266089000600815" lon="10.601182487630279"><ele>88.0</ele><time>2026-04-04T05:46:49.999Z</time></trkpt><trkpt lat="43.2662124620679" lon="10.601176406786122"><ele>88.0</ele><time>2026-04-04T05:46:51.999Z</time></trkpt><trkpt lat="43.266309035451506" lon="10.601107286556472"><ele>88.0</ele><time>2026-04-04T05:46:53.999Z</time></trkpt><trkpt lat="43.266270720697314" lon="10.600868503433897"><ele>88.0</ele><time>2026-04-04T05:46:55.999Z</time></trkpt><trkpt lat="43.26625839166152" lon="10.60078052285208"><ele>88.0</ele><time>2026-04-04T05:46:56.999Z</time></trkpt><trkpt lat="43.266249712140954" lon="10.600686041214939"><ele>88.0</ele><time>2026-04-04T05:46:57.999Z</time></trkpt><trkpt lat="43.26624661703208" lon="10.600586541964917"><ele>88.0</ele><time>2026-04-04T05:46:58.999Z</time></trkpt><trkpt lat="43.26624935001404" lon="10.600480566618849"><ele>88.0</ele><time>2026-04-04T05:46:59.999Z</time></trkpt><trkpt lat="43.26624955054146" lon="10.600362387707065"><ele>88.0</ele><time>2026-04-04T05:47:00.999Z</time></trkpt><trkpt lat="43.26624968651446" lon="10.600243400083627"><ele>87.5</ele><time>2026-04-04T05:47:01.999Z</time></trkpt><trkpt lat="43.2662693752426" lon="10.600117070173606"><ele>87.0</ele><time>2026-04-04T05:47:02.999Z</time></trkpt><trkpt lat="43.2662804736305" lon="10.599989861480358"><ele>86.5</ele><time>2026-04-04T05:47:03.999Z</time></trkpt><trkpt lat="43.266295095120014" lon="10.599884082293435"><ele>86.0</ele><time>2026-04-04T05:47:04.999Z</time></trkpt><trkpt lat="43.26631651173249" lon="10.599780336987317"><ele>85.5</ele><time>2026-04-04T05:47:05.999Z</time></trkpt><trkpt lat="43.26634936211333" lon="10.599694015960873"><ele>85.0</ele><time>2026-04-04T05:47:06.999Z</time></trkpt><trkpt lat="43.26638694275129" lon="10.599608956773883"><ele>85.0</ele><time>2026-04-04T05:47:07.999Z</time></trkpt><trkpt lat="43.266413721921246" lon="10.599518594725495"><ele>85.0</ele><time>2026-04-04T05:47:08.999Z</time></trkpt><trkpt lat="43.26646782337715" lon="10.5994334426979"><ele>85.0</ele><time>2026-04-04T05:47:09.999Z</time></trkpt><trkpt lat="43.26652549729439" lon="10.59935041827914"><ele>85.0</ele><time>2026-04-04T05:47:10.999Z</time></trkpt><trkpt lat="43.26655284702919" lon="10.599233201706598"><ele>85.0</ele><time>2026-04-04T05:47:11.998Z</time></trkpt><trkpt lat="43.26656737371433" lon="10.599111617814378"><ele>85.0</ele><time>2026-04-04T05:47:12.998Z</time></trkpt><trkpt lat="43.26655837568473" lon="10.598987272915608"><ele>84.6</ele><time>2026-04-04T05:47:13.998Z</time></trkpt><trkpt lat="43.26653119247385" lon="10.59887532281633"><ele>84.2</ele><time>2026-04-04T05:47:14.998Z</time></trkpt><trkpt lat="43.26646531798287" lon="10.59879249900356"><ele>83.80000000000001</ele><time>2026-04-04T05:47:15.998Z</time></trkpt><trkpt lat="43.266378438314845" lon="10.598763234313296"><ele>83.4</ele><time>2026-04-04T05:47:16.998Z</time></trkpt><trkpt lat="43.26630673652663" lon="10.598776756598555"><ele>83.0</ele><time>2026-04-04T05:47:17.998Z</time></trkpt><trkpt lat="43.266185578994005" lon="10.59876406890088"><ele>83.0</ele><time>2026-04-04T05:47:19.998Z</time></trkpt><trkpt lat="43.26612026252923" lon="10.59875743976982"><ele>83.0</ele><time>2026-04-04T05:47:20.998Z</time></trkpt><trkpt lat="43.266055402405215" lon="10.598755119597316"><ele>83.0</ele><time>2026-04-04T05:47:21.998Z</time></trkpt><trkpt lat="43.26598400745883" lon="10.598748427008363"><ele>83.0</ele><time>2026-04-04T05:47:22.998Z</time></trkpt><trkpt lat="43.26591574400747" lon="10.598739494560867"><ele>83.0</ele><time>2026-04-04T05:47:23.998Z</time></trkpt><trkpt lat="43.26585139403572" lon="10.598713793280892"><ele>83.0</ele><time>2026-04-04T05:47:24.998Z</time></trkpt><trkpt lat="43.26578577028886" lon="10.598693325668446"><ele>83.0</ele><time>2026-04-04T05:47:25.998Z</time></trkpt><trkpt lat="43.2656763144143" lon="10.598619405549597"><ele>81.4</ele><time>2026-04-04T05:47:27.998Z</time></trkpt><trkpt lat="43.26560286833018" lon="10.598500637507657"><ele>79.80000000000001</ele><time>2026-04-04T05:47:30Z</time></trkpt><trkpt lat="43.26557532453868" lon="10.598301101524283"><ele>78.2</ele><time>2026-04-04T05:47:32Z</time></trkpt><trkpt lat="43.26553308720176" lon="10.598207767866308"><ele>76.6</ele><time>2026-04-04T05:47:33Z</time></trkpt><trkpt lat="43.26548932975438" lon="10.598114178148364"><ele>75.0</ele><time>2026-04-04T05:47:34Z</time></trkpt><trkpt lat="43.265448318420304" lon="10.598016875879413"><ele>75.0</ele><time>2026-04-04T05:47:35Z</time></trkpt><trkpt lat="43.265417550789145" lon="10.597909797795737"><ele>75.0</ele><time>2026-04-04T05:47:36Z</time></trkpt><trkpt lat="43.26539504480186" lon="10.597803606182316"><ele>75.0</ele><time>2026-04-04T05:47:37Z</time></trkpt><trkpt lat="43.26537530577181" lon="10.597697143765608"><ele>75.0</ele><time>2026-04-04T05:47:38Z</time></trkpt><trkpt lat="43.26535845309951" lon="10.597599272276407"><ele>75.0</ele><time>2026-04-04T05:47:39Z</time></trkpt><trkpt lat="43.265338958689384" lon="10.597479851494219"><ele>75.0</ele><time>2026-04-04T05:47:40Z</time></trkpt><trkpt lat="43.265320893542345" lon="10.597369186171528"><ele>75.0</ele><time>2026-04-04T05:47:41Z</time></trkpt><trkpt lat="43.26530186077998" lon="10.597260098625817"><ele>75.0</ele><time>2026-04-04T05:47:42Z</time></trkpt><trkpt lat="43.26528169310243" lon="10.597150260672676"><ele>75.0</ele><time>2026-04-04T05:47:43Z</time></trkpt><trkpt lat="43.26526279818381" lon="10.597039964231916"><ele>75.0</ele><time>2026-04-04T05:47:44Z</time></trkpt><trkpt lat="43.265244523003595" lon="10.596926908141349"><ele>75.0</ele><time>2026-04-04T05:47:45Z</time></trkpt><trkpt lat="43.265213046908904" lon="10.596821758762617"><ele>75.0</ele><time>2026-04-04T05:47:46Z</time></trkpt><trkpt lat="43.26519746030357" lon="10.596708523101894"><ele>74.66666666666667</ele><time>2026-04-04T05:47:47Z</time></trkpt><trkpt lat="43.26517719594143" lon="10.596594884316692"><ele>74.33333333333333</ele><time>2026-04-04T05:47:48Z</time></trkpt><trkpt lat="43.265155515722036" lon="10.596481301025564"><ele>74.0</ele><time>2026-04-04T05:47:49Z</time></trkpt><trkpt lat="43.26513440992643" lon="10.59636354864295"><ele>73.66666666666666</ele><time>2026-04-04T05:47:50Z</time></trkpt><trkpt lat="43.26511597155935" lon="10.59624166672773"><ele>73.33333333333333</ele><time>2026-04-04T05:47:51Z</time></trkpt><trkpt lat="43.265096743284616" lon="10.596121674904092"><ele>73.0</ele><time>2026-04-04T05:47:52Z</time></trkpt><trkpt lat="43.26507640208596" lon="10.595999884383518"><ele>73.0</ele><time>2026-04-04T05:47:53Z</time></trkpt><trkpt lat="43.265063009238574" lon="10.595878314753824"><ele>73.0</ele><time>2026-04-04T05:47:54Z</time></trkpt><trkpt lat="43.26504402643478" lon="10.595756141928664"><ele>73.0</ele><time>2026-04-04T05:47:55Z</time></trkpt><trkpt lat="43.26502856847425" lon="10.595634626841093"><ele>73.0</ele><time>2026-04-04T05:47:56Z</time></trkpt><trkpt lat="43.26500582990625" lon="10.595515114217688"><ele>73.0</ele><time>2026-04-04T05:47:57Z</time></trkpt><trkpt lat="43.26498222236304" lon="10.595398587874397"><ele>73.0</ele><time>2026-04-04T05:47:58Z</time></trkpt><trkpt lat="43.26496487526479" lon="10.59528015891938"><ele>72.83333333333333</ele><time>2026-04-04T05:47:59Z</time></trkpt><trkpt lat="43.264944814543185" lon="10.595162180031076"><ele>72.66666666666666</ele><time>2026-04-04T05:48:00Z</time></trkpt><trkpt lat="43.26491692478637" lon="10.59504678605322"><ele>72.5</ele><time>2026-04-04T05:48:01Z</time></trkpt><trkpt lat="43.264891155278825" lon="10.594934405210962"><ele>72.33333333333333</ele><time>2026-04-04T05:48:02Z</time></trkpt><trkpt lat="43.2648729192577" lon="10.59481590360431"><ele>72.16666666666667</ele><time>2026-04-04T05:48:03Z</time></trkpt><trkpt lat="43.26485705333355" lon="10.59470009707108"><ele>72.0</ele><time>2026-04-04T05:48:04Z</time></trkpt><trkpt lat="43.26487339969351" lon="10.594580221339347"><ele>71.5</ele><time>2026-04-04T05:48:05Z</time></trkpt><trkpt lat="43.26487090087485" lon="10.594490747728573"><ele>71.0</ele><time>2026-04-04T05:48:06Z</time></trkpt><trkpt lat="43.265026147796995" lon="10.59436955019222"><ele>70.5</ele><time>2026-04-04T05:48:08Z</time></trkpt><trkpt lat="43.2650837984023" lon="10.594322630636457"><ele>70.0</ele><time>2026-04-04T05:48:09Z</time></trkpt><trkpt lat="43.265132265309674" lon="10.594252965672426"><ele>69.5</ele><time>2026-04-04T05:48:10Z</time></trkpt><trkpt lat="43.26517937070175" lon="10.594193534796918"><ele>69.0</ele><time>2026-04-04T05:48:11Z</time></trkpt><trkpt lat="43.26524740193957" lon="10.594325126565804"><ele>69.0</ele><time>2026-04-04T05:48:12Z</time></trkpt><trkpt lat="43.2653122307245" lon="10.594138936596671"><ele>69.0</ele><time>2026-04-04T05:48:13Z</time></trkpt><trkpt lat="43.26539200113183" lon="10.594151932236908"><ele>69.0</ele><time>2026-04-04T05:48:14Z</time></trkpt><trkpt lat="43.26547210344014" lon="10.594157917953162"><ele>69.0</ele><time>2026-04-04T05:48:15Z</time></trkpt><trkpt lat="43.26555607674202" lon="10.594145250221397"><ele>69.0</ele><time>2026-04-04T05:48:16Z</time></trkpt><trkpt lat="43.26563841406277" lon="10.594136397104496"><ele>68.5</ele><time>2026-04-04T05:48:17Z</time></trkpt><trkpt lat="43.265723440535666" lon="10.594132131322395"><ele>68.0</ele><time>2026-04-04T05:48:18Z</time></trkpt><trkpt lat="43.265822327754215" lon="10.594334042657396"><ele>67.5</ele><time>2026-04-04T05:48:18.999Z</time></trkpt><trkpt lat="43.26590622942018" lon="10.594318190912439"><ele>67.0</ele><time>2026-04-04T05:48:19.999Z</time></trkpt><trkpt lat="43.265968734386696" lon="10.594121504241288"><ele>67.0</ele><time>2026-04-04T05:48:20.999Z</time></trkpt><trkpt lat="43.26604666432487" lon="10.594105033588287"><ele>67.0</ele><time>2026-04-04T05:48:21.999Z</time></trkpt><trkpt lat="43.26611785026918" lon="10.594077363719077"><ele>67.0</ele><time>2026-04-04T05:48:22.999Z</time></trkpt><trkpt lat="43.26616710806221" lon="10.594005458140854"><ele>67.0</ele><time>2026-04-04T05:48:23.999Z</time></trkpt><trkpt lat="43.26622489985316" lon="10.593941736354674"><ele>67.0</ele><time>2026-04-04T05:48:24.999Z</time></trkpt><trkpt lat="43.26620848649969" lon="10.593814784943998"><ele>67.0</ele><time>2026-04-04T05:48:25.999Z</time></trkpt><trkpt lat="43.26620561407338" lon="10.593711223759003"><ele>66.57142857142857</ele><time>2026-04-04T05:48:26.999Z</time></trkpt><trkpt lat="43.266221630242484" lon="10.593610184849128"><ele>66.14285714285714</ele><time>2026-04-04T05:48:27.999Z</time></trkpt><trkpt lat="43.266231136288134" lon="10.593512331343021"><ele>65.71428571428571</ele><time>2026-04-04T05:48:28.999Z</time></trkpt><trkpt lat="43.26624063235551" lon="10.59341424039253"><ele>65.28571428571428</ele><time>2026-04-04T05:48:29.999Z</time></trkpt><trkpt lat="43.26625018738751" lon="10.593315540355595"><ele>64.85714285714285</ele><time>2026-04-04T05:48:30.999Z</time></trkpt><trkpt lat="43.26625969998625" lon="10.593218272791217"><ele>64.42857142857143</ele><time>2026-04-04T05:48:31.999Z</time></trkpt><trkpt lat="43.2662698107142" lon="10.593118620851156"><ele>64.0</ele><time>2026-04-04T05:48:32.999Z</time></trkpt><trkpt lat="43.26626590589325" lon="10.593015217487983"><ele>64.0</ele><time>2026-04-04T05:48:33.999Z</time></trkpt><trkpt lat="43.26627352699461" lon="10.59291438869468"><ele>63.99999999999999</ele><time>2026-04-04T05:48:34.999Z</time></trkpt><trkpt lat="43.26628277954828" lon="10.592817547320132"><ele>64.0</ele><time>2026-04-04T05:48:35.999Z</time></trkpt><trkpt lat="43.26630645499325" lon="10.592723359156821"><ele>64.0</ele><time>2026-04-04T05:48:36.999Z</time></trkpt><trkpt lat="43.26632514649083" lon="10.592630195987851"><ele>63.99999999999999</ele><time>2026-04-04T05:48:37.999Z</time></trkpt><trkpt lat="43.2663459304868" lon="10.59253946630424"><ele>64.0</ele><time>2026-04-04T05:48:38.999Z</time></trkpt><trkpt lat="43.26635047735964" lon="10.592441787761404"><ele>64.0</ele><time>2026-04-04T05:48:39.999Z</time></trkpt><trkpt lat="43.26638716323588" lon="10.592360441169141"><ele>64.0</ele><time>2026-04-04T05:48:40.999Z</time></trkpt><trkpt lat="43.26640848225572" lon="10.592276872660424"><ele>63.99999999999999</ele><time>2026-04-04T05:48:41.999Z</time></trkpt><trkpt lat="43.26640765298255" lon="10.592183909364245"><ele>64.0</ele><time>2026-04-04T05:48:42.999Z</time></trkpt><trkpt lat="43.266391822656956" lon="10.592090684165571"><ele>64.0</ele><time>2026-04-04T05:48:43.999Z</time></trkpt><trkpt lat="43.266388335673035" lon="10.591991474022569"><ele>63.99999999999999</ele><time>2026-04-04T05:48:44.999Z</time></trkpt><trkpt lat="43.26637537922132" lon="10.59189669674677"><ele>64.0</ele><time>2026-04-04T05:48:45.999Z</time></trkpt><trkpt lat="43.26636110560194" lon="10.59180264323136"><ele>64.0</ele><time>2026-04-04T05:48:46.999Z</time></trkpt><trkpt lat="43.26634689170035" lon="10.591708983219554"><ele>63.71428571428571</ele><time>2026-04-04T05:48:47.999Z</time></trkpt><trkpt lat="43.266332847221356" lon="10.5916164395811"><ele>63.42857142857142</ele><time>2026-04-04T05:48:48.999Z</time></trkpt><trkpt lat="43.26631858705083" lon="10.591522474685533"><ele>63.14285714285714</ele><time>2026-04-04T05:48:49.999Z</time></trkpt><trkpt lat="43.26630418667072" lon="10.591427585900409"><ele>62.85714285714286</ele><time>2026-04-04T05:48:50.999Z</time></trkpt><trkpt lat="43.26628955524933" lon="10.591331174712618"><ele>62.57142857142858</ele><time>2026-04-04T05:48:51.999Z</time></trkpt><trkpt lat="43.266274518914976" lon="10.591234973447136"><ele>62.28571428571429</ele><time>2026-04-04T05:48:52.999Z</time></trkpt><trkpt lat="43.266259295838736" lon="10.591138929668187"><ele>62.0</ele><time>2026-04-04T05:48:53.999Z</time></trkpt><trkpt lat="43.26624344005978" lon="10.591038894110248"><ele>61.333333333333336</ele><time>2026-04-04T05:48:54.999Z</time></trkpt><trkpt lat="43.26622676678904" lon="10.590939615370655"><ele>60.66666666666667</ele><time>2026-04-04T05:48:55.999Z</time></trkpt><trkpt lat="43.2662099007649" lon="10.590840341273656"><ele>60.0</ele><time>2026-04-04T05:48:56.999Z</time></trkpt><trkpt lat="43.26619182831789" lon="10.590741138445035"><ele>59.33333333333333</ele><time>2026-04-04T05:48:57.999Z</time></trkpt><trkpt lat="43.266174054129834" lon="10.590650489147562"><ele>58.666666666666664</ele><time>2026-04-04T05:48:58.999Z</time></trkpt><trkpt lat="43.266153977749724" lon="10.590553358255915"><ele>58.0</ele><time>2026-04-04T05:49:00.999Z</time></trkpt><trkpt lat="43.26625012053464" lon="10.590535914806178"><ele>58.0</ele><time>2026-04-04T05:49:02.999Z</time></trkpt><trkpt lat="43.266343118456376" lon="10.590520376444715"><ele>58.0</ele><time>2026-04-04T05:49:04.999Z</time></trkpt><trkpt lat="43.26643268071291" lon="10.590534166127759"><ele>58.0</ele><time>2026-04-04T05:49:06.999Z</time></trkpt><trkpt lat="43.26654573839812" lon="10.590551185743273"><ele>58.0</ele><time>2026-04-04T05:49:08.999Z</time></trkpt><trkpt lat="43.26667213303088" lon="10.590565081936747"><ele>58.0</ele><time>2026-04-04T05:49:10.999Z</time></trkpt><trkpt lat="43.26673972312972" lon="10.590565008662482"><ele>58.42857142857144</ele><time>2026-04-04T05:49:11.999Z</time></trkpt><trkpt lat="43.26680796037927" lon="10.590569982591372"><ele>58.85714285714286</ele><time>2026-04-04T05:49:12.998Z</time></trkpt><trkpt lat="43.266876835988164" lon="10.590576943503759"><ele>59.285714285714285</ele><time>2026-04-04T05:49:13.998Z</time></trkpt><trkpt lat="43.266944973014816" lon="10.590579721576505"><ele>59.714285714285715</ele><time>2026-04-04T05:49:14.998Z</time></trkpt><trkpt lat="43.267012353375776" lon="10.59058323115053"><ele>60.14285714285714</ele><time>2026-04-04T05:49:15.998Z</time></trkpt><trkpt lat="43.2670772035814" lon="10.590588167045091"><ele>60.57142857142856</ele><time>2026-04-04T05:49:16.998Z</time></trkpt><trkpt lat="43.26714140987306" lon="10.590590080643933"><ele>60.99999999999999</ele><time>2026-04-04T05:49:17.998Z</time></trkpt><trkpt lat="43.26720585640265" lon="10.590590482990152"><ele>61.0</ele><time>2026-04-04T05:49:18.998Z</time></trkpt><trkpt lat="43.26726889597996" lon="10.590591932592549"><ele>60.99999999999999</ele><time>2026-04-04T05:49:19.998Z</time></trkpt><trkpt lat="43.26733319179351" lon="10.59059587433939"><ele>60.99999999999999</ele><time>2026-04-04T05:49:20.998Z</time></trkpt><trkpt lat="43.267456020339935" lon="10.590595038914449"><ele>61.0</ele><time>2026-04-04T05:49:22.998Z</time></trkpt><trkpt lat="43.26757241272171" lon="10.59058644904522"><ele>61.0</ele><time>2026-04-04T05:49:24.998Z</time></trkpt><trkpt lat="43.267678899733724" lon="10.59056500699423"><ele>60.8</ele><time>2026-04-04T05:49:26.998Z</time></trkpt><trkpt lat="43.26776793306347" lon="10.590476353294504"><ele>60.599999999999994</ele><time>2026-04-04T05:49:28.998Z</time></trkpt><trkpt lat="43.267740466051436" lon="10.590249335519266"><ele>60.4</ele><time>2026-04-04T05:49:30.998Z</time></trkpt><trkpt lat="43.26772522528502" lon="10.590160799804925"><ele>60.2</ele><time>2026-04-04T05:49:31.998Z</time></trkpt><trkpt lat="43.26770815879994" lon="10.590071418154745"><ele>60.0</ele><time>2026-04-04T05:49:32.998Z</time></trkpt><trkpt lat="43.26769217134019" lon="10.589979925149512"><ele>59.85714285714286</ele><time>2026-04-04T05:49:34Z</time></trkpt><trkpt lat="43.267679203522604" lon="10.589887443734881"><ele>59.71428571428571</ele><time>2026-04-04T05:49:35Z</time></trkpt><trkpt lat="43.26766838744082" lon="10.589793796658759"><ele>59.57142857142857</ele><time>2026-04-04T05:49:36Z</time></trkpt><trkpt lat="43.26765615971729" lon="10.589698335788645"><ele>59.42857142857143</ele><time>2026-04-04T05:49:37Z</time></trkpt><trkpt lat="43.2676460496367" lon="10.589603485981439"><ele>59.28571428571429</ele><time>2026-04-04T05:49:38Z</time></trkpt><trkpt lat="43.26763993617233" lon="10.58950661000707"><ele>59.14285714285714</ele><time>2026-04-04T05:49:39Z</time></trkpt><trkpt lat="43.26763284271391" lon="10.589411578336362"><ele>59.0</ele><time>2026-04-04T05:49:40Z</time></trkpt><trkpt lat="43.267628303299205" lon="10.58931850190933"><ele>58.857142857142854</ele><time>2026-04-04T05:49:41Z</time></trkpt><trkpt lat="43.26762068921682" lon="10.589224782472582"><ele>58.71428571428572</ele><time>2026-04-04T05:49:42Z</time></trkpt><trkpt lat="43.26761594378011" lon="10.589131618188887"><ele>58.57142857142858</ele><time>2026-04-04T05:49:43Z</time></trkpt><trkpt lat="43.26761518090187" lon="10.589034602969454"><ele>58.42857142857143</ele><time>2026-04-04T05:49:44Z</time></trkpt><trkpt lat="43.267612212244224" lon="10.588938969166618"><ele>58.28571428571429</ele><time>2026-04-04T05:49:45Z</time></trkpt><trkpt lat="43.2676387919898" lon="10.58884846197806"><ele>58.14285714285715</ele><time>2026-04-04T05:49:46Z</time></trkpt><trkpt lat="43.26766109033561" lon="10.588760710880706"><ele>58.00000000000001</ele><time>2026-04-04T05:49:47Z</time></trkpt><trkpt lat="43.26767990841413" lon="10.58866368657745"><ele>57.49999999999999</ele><time>2026-04-04T05:49:48Z</time></trkpt><trkpt lat="43.267728387358744" lon="10.588582182504483"><ele>57.0</ele><time>2026-04-04T05:49:49Z</time></trkpt><trkpt lat="43.26779122143665" lon="10.588517046834596"><ele>56.5</ele><time>2026-04-04T05:49:50Z</time></trkpt><trkpt lat="43.267860796967625" lon="10.588448767609531"><ele>56.0</ele><time>2026-04-04T05:49:51Z</time></trkpt><trkpt lat="43.26791739972952" lon="10.58837426063595"><ele>55.49999999999999</ele><time>2026-04-04T05:49:52Z</time></trkpt><trkpt lat="43.26797020780363" lon="10.588295177990336"><ele>55.0</ele><time>2026-04-04T05:49:53Z</time></trkpt><trkpt lat="43.268029487516614" lon="10.588225917861957"><ele>54.99999999999999</ele><time>2026-04-04T05:49:54Z</time></trkpt><trkpt lat="43.26807994336064" lon="10.588147093811857"><ele>55.0</ele><time>2026-04-04T05:49:55Z</time></trkpt><trkpt lat="43.26813201129522" lon="10.5880553041856"><ele>55.0</ele><time>2026-04-04T05:49:56Z</time></trkpt><trkpt lat="43.26817381643899" lon="10.587953248175056"><ele>55.0</ele><time>2026-04-04T05:49:57Z</time></trkpt><trkpt lat="43.26820025368932" lon="10.587834990900044"><ele>54.99999999999999</ele><time>2026-04-04T05:49:58Z</time></trkpt><trkpt lat="43.268208151296314" lon="10.587712917706668"><ele>55.0</ele><time>2026-04-04T05:49:59Z</time></trkpt><trkpt lat="43.268213070790445" lon="10.587601430221207"><ele>54.49999999999999</ele><time>2026-04-04T05:50:00Z</time></trkpt><trkpt lat="43.26821639996928" lon="10.58749119743679"><ele>54.0</ele><time>2026-04-04T05:50:01Z</time></trkpt><trkpt lat="43.268219745638305" lon="10.587380704589064"><ele>53.5</ele><time>2026-04-04T05:50:02Z</time></trkpt><trkpt lat="43.26822435937499" lon="10.587269806028313"><ele>53.0</ele><time>2026-04-04T05:50:03Z</time></trkpt><trkpt lat="43.26823926440093" lon="10.58716079523426"><ele>52.49999999999999</ele><time>2026-04-04T05:50:04Z</time></trkpt><trkpt lat="43.26825921989923" lon="10.587055338448614"><ele>52.0</ele><time>2026-04-04T05:50:05Z</time></trkpt><trkpt lat="43.26828070204266" lon="10.586948630269873"><ele>51.83333333333333</ele><time>2026-04-04T05:50:06Z</time></trkpt><trkpt lat="43.26830314161852" lon="10.586840066093679"><ele>51.666666666666664</ele><time>2026-04-04T05:50:07Z</time></trkpt><trkpt lat="43.26830886823837" lon="10.586721544692692"><ele>51.5</ele><time>2026-04-04T05:50:08Z</time></trkpt><trkpt lat="43.26832303980227" lon="10.586609125677782"><ele>51.33333333333333</ele><time>2026-04-04T05:50:09Z</time></trkpt><trkpt lat="43.268324213599044" lon="10.586497344431384"><ele>51.166666666666664</ele><time>2026-04-04T05:50:10Z</time></trkpt><trkpt lat="43.2683227580598" lon="10.586381301546771"><ele>51.0</ele><time>2026-04-04T05:50:11Z</time></trkpt><trkpt lat="43.268318383372986" lon="10.586263760003114"><ele>51.166666666666664</ele><time>2026-04-04T05:50:12Z</time></trkpt><trkpt lat="43.268313688615436" lon="10.586153852613563"><ele>51.33333333333333</ele><time>2026-04-04T05:50:13Z</time></trkpt><trkpt lat="43.26830560320924" lon="10.586045969474135"><ele>51.5</ele><time>2026-04-04T05:50:14Z</time></trkpt><trkpt lat="43.26830035361401" lon="10.585929708451317"><ele>51.666666666666664</ele><time>2026-04-04T05:50:15Z</time></trkpt><trkpt lat="43.268291729374866" lon="10.585815781902074"><ele>51.83333333333333</ele><time>2026-04-04T05:50:16Z</time></trkpt><trkpt lat="43.26827707471627" lon="10.585699705262616"><ele>52.0</ele><time>2026-04-04T05:50:17Z</time></trkpt><trkpt lat="43.26827312472099" lon="10.58557530439329"><ele>51.99999999999999</ele><time>2026-04-04T05:50:18Z</time></trkpt><trkpt lat="43.26826547069723" lon="10.58546060130899"><ele>52.0</ele><time>2026-04-04T05:50:19Z</time></trkpt><trkpt lat="43.26826649578237" lon="10.585340562165298"><ele>52.0</ele><time>2026-04-04T05:50:19.999Z</time></trkpt><trkpt lat="43.268276118771546" lon="10.585236986682936"><ele>52.0</ele><time>2026-04-04T05:50:20.999Z</time></trkpt><trkpt lat="43.268282355066894" lon="10.585137002898938"><ele>51.99999999999999</ele><time>2026-04-04T05:50:21.999Z</time></trkpt><trkpt lat="43.26827418228055" lon="10.585039246340596"><ele>52.0</ele><time>2026-04-04T05:50:22.999Z</time></trkpt><trkpt lat="43.268278522597136" lon="10.584939114531052"><ele>51.857142857142854</ele><time>2026-04-04T05:50:23.999Z</time></trkpt><trkpt lat="43.26829294388437" lon="10.584842932791384"><ele>51.714285714285715</ele><time>2026-04-04T05:50:24.999Z</time></trkpt><trkpt lat="43.268265101047824" lon="10.584752633397432"><ele>51.57142857142857</ele><time>2026-04-04T05:50:25.999Z</time></trkpt><trkpt lat="43.26824412843571" lon="10.584664856626068"><ele>51.42857142857143</ele><time>2026-04-04T05:50:26.999Z</time></trkpt><trkpt lat="43.26823424161865" lon="10.58456983055658"><ele>51.28571428571429</ele><time>2026-04-04T05:50:27.999Z</time></trkpt><trkpt lat="43.268207617764084" lon="10.58448334451281"><ele>51.142857142857146</ele><time>2026-04-04T05:50:28.999Z</time></trkpt><trkpt lat="43.26818053938807" lon="10.584395381984825"><ele>51.0</ele><time>2026-04-04T05:50:29.999Z</time></trkpt><trkpt lat="43.26815227696923" lon="10.584303573157246"><ele>50.714285714285715</ele><time>2026-04-04T05:50:30.999Z</time></trkpt><trkpt lat="43.268124476061786" lon="10.584211251263243"><ele>50.42857142857143</ele><time>2026-04-04T05:50:31.999Z</time></trkpt><trkpt lat="43.26810173059773" lon="10.584117580274322"><ele>50.14285714285714</ele><time>2026-04-04T05:50:32.999Z</time></trkpt><trkpt lat="43.26808695225172" lon="10.58401868103144"><ele>49.85714285714286</ele><time>2026-04-04T05:50:33.999Z</time></trkpt><trkpt lat="43.26807504872945" lon="10.583918422268752"><ele>49.57142857142857</ele><time>2026-04-04T05:50:34.999Z</time></trkpt><trkpt lat="43.268052170503374" lon="10.58382047309671"><ele>49.285714285714285</ele><time>2026-04-04T05:50:35.999Z</time></trkpt><trkpt lat="43.26804274738627" lon="10.583718179176769"><ele>49.0</ele><time>2026-04-04T05:50:36.999Z</time></trkpt><trkpt lat="43.268032219195334" lon="10.58361605082803"><ele>48.714285714285715</ele><time>2026-04-04T05:50:37.999Z</time></trkpt><trkpt lat="43.26802176572702" lon="10.583520869951194"><ele>48.42857142857143</ele><time>2026-04-04T05:50:38.999Z</time></trkpt><trkpt lat="43.26802690349611" lon="10.583421414695922"><ele>48.14285714285714</ele><time>2026-04-04T05:50:39.999Z</time></trkpt><trkpt lat="43.268015625720714" lon="10.583322327461525"><ele>47.85714285714286</ele><time>2026-04-04T05:50:40.999Z</time></trkpt><trkpt lat="43.268002715672246" lon="10.583222157930594"><ele>47.57142857142857</ele><time>2026-04-04T05:50:41.999Z</time></trkpt><trkpt lat="43.26798696662009" lon="10.583119685867757"><ele>47.285714285714285</ele><time>2026-04-04T05:50:42.999Z</time></trkpt><trkpt lat="43.26796918436642" lon="10.583020849316972"><ele>47.0</ele><time>2026-04-04T05:50:43.999Z</time></trkpt><trkpt lat="43.2679477031289" lon="10.582916418358046"><ele>46.83333333333333</ele><time>2026-04-04T05:50:44.999Z</time></trkpt><trkpt lat="43.26792329346576" lon="10.582811320733619"><ele>46.666666666666664</ele><time>2026-04-04T05:50:45.999Z</time></trkpt><trkpt lat="43.267896230939215" lon="10.582707829311614"><ele>46.5</ele><time>2026-04-04T05:50:46.999Z</time></trkpt><trkpt lat="43.26786780376411" lon="10.582606462160266"><ele>46.333333333333336</ele><time>2026-04-04T05:50:47.999Z</time></trkpt><trkpt lat="43.26783556032218" lon="10.582505291262287"><ele>46.16666666666667</ele><time>2026-04-04T05:50:48.999Z</time></trkpt><trkpt lat="43.26778995610695" lon="10.582402003555341"><ele>46.0</ele><time>2026-04-04T05:50:49.999Z</time></trkpt><trkpt lat="43.26772281344244" lon="10.58233558319695"><ele>46.0</ele><time>2026-04-04T05:50:50.999Z</time></trkpt><trkpt lat="43.267658262022586" lon="10.582257729643278"><ele>46.0</ele><time>2026-04-04T05:50:51.999Z</time></trkpt><trkpt lat="43.26759264360313" lon="10.582196420996008"><ele>46.0</ele><time>2026-04-04T05:50:52.999Z</time></trkpt><trkpt lat="43.26753785009697" lon="10.582119987189444"><ele>46.0</ele><time>2026-04-04T05:50:53.999Z</time></trkpt><trkpt lat="43.2674909643077" lon="10.582042736304588"><ele>46.0</ele><time>2026-04-04T05:50:54.999Z</time></trkpt><trkpt lat="43.26743110910062" lon="10.581965593267531"><ele>46.0</ele><time>2026-04-04T05:50:55.999Z</time></trkpt><trkpt lat="43.26739192462078" lon="10.581864320263302"><ele>45.5</ele><time>2026-04-04T05:50:56.999Z</time></trkpt><trkpt lat="43.26734304209127" lon="10.581769259486636"><ele>45.0</ele><time>2026-04-04T05:50:57.999Z</time></trkpt><trkpt lat="43.267297020150636" lon="10.581669230107005"><ele>44.5</ele><time>2026-04-04T05:50:58.999Z</time></trkpt><trkpt lat="43.26726223958879" lon="10.581564177556826"><ele>44.0</ele><time>2026-04-04T05:50:59.999Z</time></trkpt><trkpt lat="43.26723250020945" lon="10.581453307122944"><ele>43.5</ele><time>2026-04-04T05:51:00.999Z</time></trkpt><trkpt lat="43.26719316751601" lon="10.58134551518975"><ele>43.0</ele><time>2026-04-04T05:51:01.999Z</time></trkpt><trkpt lat="43.26720155504447" lon="10.581224890944963"><ele>42.16666666666667</ele><time>2026-04-04T05:51:02.999Z</time></trkpt><trkpt lat="43.267176509773314" lon="10.58111001920076"><ele>41.333333333333336</ele><time>2026-04-04T05:51:03.999Z</time></trkpt><trkpt lat="43.26716243703227" lon="10.58099535970373"><ele>40.5</ele><time>2026-04-04T05:51:04.999Z</time></trkpt><trkpt lat="43.26712720689024" lon="10.580889797504717"><ele>39.666666666666664</ele><time>2026-04-04T05:51:05.999Z</time></trkpt><trkpt lat="43.26707232408779" lon="10.580799927357136"><ele>38.83333333333333</ele><time>2026-04-04T05:51:06.999Z</time></trkpt><trkpt lat="43.26700819299669" lon="10.58072215241037"><ele>38.0</ele><time>2026-04-04T05:51:07.999Z</time></trkpt><trkpt lat="43.26694438307274" lon="10.580643550118186"><ele>38.0</ele><time>2026-04-04T05:51:08.999Z</time></trkpt><trkpt lat="43.26688005438996" lon="10.580565211405876"><ele>38.0</ele><time>2026-04-04T05:51:09.999Z</time></trkpt><trkpt lat="43.26681869148985" lon="10.580473157981187"><ele>38.0</ele><time>2026-04-04T05:51:10.999Z</time></trkpt><trkpt lat="43.26674415972551" lon="10.580407185820128"><ele>38.0</ele><time>2026-04-04T05:51:11.999Z</time></trkpt><trkpt lat="43.266665360526204" lon="10.580342283174199"><ele>38.0</ele><time>2026-04-04T05:51:12.998Z</time></trkpt><trkpt lat="43.26658929411408" lon="10.580280622942343"><ele>38.0</ele><time>2026-04-04T05:51:13.998Z</time></trkpt><trkpt lat="43.26651625017455" lon="10.58022230373331"><ele>38.166666666666664</ele><time>2026-04-04T05:51:14.998Z</time></trkpt><trkpt lat="43.266445092050134" lon="10.580160051107027"><ele>38.33333333333333</ele><time>2026-04-04T05:51:15.998Z</time></trkpt><trkpt lat="43.26638628628069" lon="10.580082936612797"><ele>38.5</ele><time>2026-04-04T05:51:16.998Z</time></trkpt><trkpt lat="43.266337478911794" lon="10.579993448126858"><ele>38.666666666666664</ele><time>2026-04-04T05:51:17.998Z</time></trkpt><trkpt lat="43.266287954571574" lon="10.579897028255964"><ele>38.833333333333336</ele><time>2026-04-04T05:51:18.998Z</time></trkpt><trkpt lat="43.266241475390096" lon="10.57979692684364"><ele>39.0</ele><time>2026-04-04T05:51:19.998Z</time></trkpt><trkpt lat="43.26619758167654" lon="10.579695806505196"><ele>38.2</ele><time>2026-04-04T05:51:20.998Z</time></trkpt><trkpt lat="43.266151451150165" lon="10.579592105374733"><ele>37.4</ele><time>2026-04-04T05:51:21.998Z</time></trkpt><trkpt lat="43.266103065323534" lon="10.579490214408843"><ele>36.6</ele><time>2026-04-04T05:51:22.998Z</time></trkpt><trkpt lat="43.26604835509598" lon="10.579385945069024"><ele>35.8</ele><time>2026-04-04T05:51:23.998Z</time></trkpt><trkpt lat="43.26598985348375" lon="10.579291565610836"><ele>35.0</ele><time>2026-04-04T05:51:24.998Z</time></trkpt><trkpt lat="43.26592450175338" lon="10.579205292805536"><ele>35.0</ele><time>2026-04-04T05:51:25.998Z</time></trkpt><trkpt lat="43.26583649989196" lon="10.579136253448675"><ele>35.0</ele><time>2026-04-04T05:51:26.998Z</time></trkpt><trkpt lat="43.26575022060991" lon="10.579076947039079"><ele>35.0</ele><time>2026-04-04T05:51:27.998Z</time></trkpt><trkpt lat="43.26566493455723" lon="10.579013815194333"><ele>35.0</ele><time>2026-04-04T05:51:28.998Z</time></trkpt><trkpt lat="43.26558330311225" lon="10.578945888583467"><ele>35.0</ele><time>2026-04-04T05:51:29.998Z</time></trkpt><trkpt lat="43.26550837280233" lon="10.578867291163844"><ele>34.6</ele><time>2026-04-04T05:51:30.998Z</time></trkpt><trkpt lat="43.265440911553235" lon="10.57878263746306"><ele>34.2</ele><time>2026-04-04T05:51:31.998Z</time></trkpt><trkpt lat="43.265377921559526" lon="10.578692838093305"><ele>33.8</ele><time>2026-04-04T05:51:32.998Z</time></trkpt><trkpt lat="43.26532359581553" lon="10.578602004512442"><ele>33.4</ele><time>2026-04-04T05:51:33.998Z</time></trkpt><trkpt lat="43.265266999410194" lon="10.578461179043272"><ele>33.0</ele><time>2026-04-04T05:51:35.998Z</time></trkpt><trkpt lat="43.26534520048714" lon="10.578332878946316"><ele>33.0</ele><time>2026-04-04T05:51:37.998Z</time></trkpt><trkpt lat="43.265424487183715" lon="10.578226657840263"><ele>33.0</ele><time>2026-04-04T05:51:40Z</time></trkpt><trkpt lat="43.26551063538532" lon="10.578120293980499"><ele>33.0</ele><time>2026-04-04T05:51:42Z</time></trkpt><trkpt lat="43.265555200868285" lon="10.578058580510053"><ele>33.0</ele><time>2026-04-04T05:51:43Z</time></trkpt><trkpt lat="43.265592780673224" lon="10.577987573086254"><ele>33.0</ele><time>2026-04-04T05:51:44Z</time></trkpt><trkpt lat="43.26561709467043" lon="10.577903393818916"><ele>33.0</ele><time>2026-04-04T05:51:45Z</time></trkpt><trkpt lat="43.26551899149672" lon="10.577718867652825"><ele>32.857142857142854</ele><time>2026-04-04T05:51:47Z</time></trkpt><trkpt lat="43.265492556926965" lon="10.577631184400454"><ele>32.714285714285715</ele><time>2026-04-04T05:51:48Z</time></trkpt><trkpt lat="43.26545811847011" lon="10.577552272172552"><ele>32.57142857142857</ele><time>2026-04-04T05:51:49Z</time></trkpt><trkpt lat="43.26542288098252" lon="10.577471529040125"><ele>32.42857142857143</ele><time>2026-04-04T05:51:50Z</time></trkpt><trkpt lat="43.26538852708729" lon="10.577390341111522"><ele>32.285714285714285</ele><time>2026-04-04T05:51:51Z</time></trkpt><trkpt lat="43.2653538764637" lon="10.577307657322404"><ele>32.14285714285714</ele><time>2026-04-04T05:51:52Z</time></trkpt><trkpt lat="43.26532022214272" lon="10.57722735090647"><ele>32.0</ele><time>2026-04-04T05:51:53Z</time></trkpt><trkpt lat="43.26528695102461" lon="10.577147958906519"><ele>32.0</ele><time>2026-04-04T05:51:54Z</time></trkpt><trkpt lat="43.2652528497163" lon="10.577066585887657"><ele>31.999999999999996</ele><time>2026-04-04T05:51:55Z</time></trkpt><trkpt lat="43.265218107518024" lon="10.57698368357409"><ele>32.0</ele><time>2026-04-04T05:51:56Z</time></trkpt><trkpt lat="43.265181008103355" lon="10.576897276689856"><ele>32.0</ele><time>2026-04-04T05:51:57Z</time></trkpt><trkpt lat="43.26514231245072" lon="10.576807201240909"><ele>31.999999999999996</ele><time>2026-04-04T05:51:58Z</time></trkpt><trkpt lat="43.265103913080885" lon="10.576717815475623"><ele>32.0</ele><time>2026-04-04T05:51:59Z</time></trkpt><trkpt lat="43.26506571540675" lon="10.576628899214867"><ele>32.0</ele><time>2026-04-04T05:52:00Z</time></trkpt><trkpt lat="43.265025745722795" lon="10.576539832475397"><ele>31.666666666666664</ele><time>2026-04-04T05:52:01Z</time></trkpt><trkpt lat="43.26498496928721" lon="10.576448863175408"><ele>31.333333333333332</ele><time>2026-04-04T05:52:02Z</time></trkpt><trkpt lat="43.26494409098727" lon="10.576357666637424"><ele>31.0</ele><time>2026-04-04T05:52:03Z</time></trkpt><trkpt lat="43.26490325339238" lon="10.576268264025698"><ele>30.666666666666664</ele><time>2026-04-04T05:52:04Z</time></trkpt><trkpt lat="43.26486265306987" lon="10.576181560205598"><ele>30.333333333333332</ele><time>2026-04-04T05:52:05Z</time></trkpt><trkpt lat="43.26482135390691" lon="10.57609336398339"><ele>30.0</ele><time>2026-04-04T05:52:06Z</time></trkpt><trkpt lat="43.2647757727317" lon="10.576000959484512"><ele>29.666666666666668</ele><time>2026-04-04T05:52:07Z</time></trkpt><trkpt lat="43.26473308683013" lon="10.575918442545497"><ele>29.333333333333336</ele><time>2026-04-04T05:52:08Z</time></trkpt><trkpt lat="43.264676203935046" lon="10.575845473063945"><ele>29.0</ele><time>2026-04-04T05:52:09Z</time></trkpt><trkpt lat="43.26463249753827" lon="10.57575435622502"><ele>28.666666666666668</ele><time>2026-04-04T05:52:10Z</time></trkpt><trkpt lat="43.264588924005466" lon="10.575668041029623"><ele>28.333333333333336</ele><time>2026-04-04T05:52:11Z</time></trkpt><trkpt lat="43.26454989565118" lon="10.575578810585988"><ele>28.0</ele><time>2026-04-04T05:52:12Z</time></trkpt><trkpt lat="43.26450569177915" lon="10.575487180738918"><ele>28.0</ele><time>2026-04-04T05:52:13Z</time></trkpt><trkpt lat="43.26447152044202" lon="10.575409565637974"><ele>28.0</ele><time>2026-04-04T05:52:14Z</time></trkpt><trkpt lat="43.26443455953777" lon="10.575329164464861"><ele>28.0</ele><time>2026-04-04T05:52:15Z</time></trkpt><trkpt lat="43.26439447101935" lon="10.575246353286042"><ele>28.0</ele><time>2026-04-04T05:52:16Z</time></trkpt><trkpt lat="43.264353489378834" lon="10.575163768812068"><ele>28.0</ele><time>2026-04-04T05:52:17Z</time></trkpt><trkpt lat="43.26431542378241" lon="10.575082634255017"><ele>28.0</ele><time>2026-04-04T05:52:18Z</time></trkpt><trkpt lat="43.26427593576108" lon="10.574998688130707"><ele>28.0</ele><time>2026-04-04T05:52:19Z</time></trkpt><trkpt lat="43.264238689671195" lon="10.574915106990115"><ele>28.142857142857142</ele><time>2026-04-04T05:52:20Z</time></trkpt><trkpt lat="43.26421174727718" lon="10.574820005362005"><ele>28.285714285714285</ele><time>2026-04-04T05:52:21Z</time></trkpt><trkpt lat="43.26417222512012" lon="10.574739377814675"><ele>28.42857142857143</ele><time>2026-04-04T05:52:22Z</time></trkpt><trkpt lat="43.264119057241416" lon="10.57467117572795"><ele>28.571428571428573</ele><time>2026-04-04T05:52:22.999Z</time></trkpt><trkpt lat="43.26408025300106" lon="10.574584975718556"><ele>28.714285714285715</ele><time>2026-04-04T05:52:23.999Z</time></trkpt><trkpt lat="43.26404109343859" lon="10.574499643664783"><ele>28.85714285714286</ele><time>2026-04-04T05:52:24.999Z</time></trkpt><trkpt lat="43.264006023424635" lon="10.574420166254583"><ele>29.000000000000004</ele><time>2026-04-04T05:52:25.999Z</time></trkpt><trkpt lat="43.263967125835414" lon="10.574336458125451"><ele>28.571428571428577</ele><time>2026-04-04T05:52:26.999Z</time></trkpt><trkpt lat="43.26394278854847" lon="10.57424154488715"><ele>28.142857142857146</ele><time>2026-04-04T05:52:27.999Z</time></trkpt><trkpt lat="43.26390575591188" lon="10.574156054038065"><ele>27.714285714285715</ele><time>2026-04-04T05:52:28.999Z</time></trkpt><trkpt lat="43.26386653494631" lon="10.574061681176213"><ele>27.28571428571429</ele><time>2026-04-04T05:52:29.999Z</time></trkpt><trkpt lat="43.26383320896667" lon="10.573978530246558"><ele>26.85714285714286</ele><time>2026-04-04T05:52:30.999Z</time></trkpt><trkpt lat="43.26379857277954" lon="10.573892110238718"><ele>26.428571428571427</ele><time>2026-04-04T05:52:31.999Z</time></trkpt><trkpt lat="43.263764080968826" lon="10.573810399911917"><ele>26.0</ele><time>2026-04-04T05:52:32.999Z</time></trkpt><trkpt lat="43.2637266860721" lon="10.573726009592203"><ele>25.857142857142858</ele><time>2026-04-04T05:52:33.999Z</time></trkpt><trkpt lat="43.26368593431163" lon="10.573636626779273"><ele>25.714285714285715</ele><time>2026-04-04T05:52:34.999Z</time></trkpt><trkpt lat="43.263650179220996" lon="10.573559477599057"><ele>25.571428571428573</ele><time>2026-04-04T05:52:35.999Z</time></trkpt><trkpt lat="43.263612802101306" lon="10.573478828555665"><ele>25.42857142857143</ele><time>2026-04-04T05:52:36.999Z</time></trkpt><trkpt lat="43.26357588897235" lon="10.573399180659871"><ele>25.285714285714285</ele><time>2026-04-04T05:52:37.999Z</time></trkpt><trkpt lat="43.26353817325637" lon="10.573317801016238"><ele>25.142857142857146</ele><time>2026-04-04T05:52:38.999Z</time></trkpt><trkpt lat="43.26350001388459" lon="10.573235464089777"><ele>25.0</ele><time>2026-04-04T05:52:39.999Z</time></trkpt><trkpt lat="43.263463043303304" lon="10.573155692233017"><ele>25.000000000000004</ele><time>2026-04-04T05:52:40.999Z</time></trkpt><trkpt lat="43.26342425273771" lon="10.573071993372464"><ele>25.0</ele><time>2026-04-04T05:52:41.999Z</time></trkpt><trkpt lat="43.2633885702836" lon="10.57299500092097"><ele>25.0</ele><time>2026-04-04T05:52:42.999Z</time></trkpt><trkpt lat="43.26334921911566" lon="10.572911811250643"><ele>25.0</ele><time>2026-04-04T05:52:43.999Z</time></trkpt><trkpt lat="43.263312683366436" lon="10.572835174436666"><ele>25.0</ele><time>2026-04-04T05:52:44.999Z</time></trkpt><trkpt lat="43.26327537053973" lon="10.572756907640912"><ele>25.000000000000004</ele><time>2026-04-04T05:52:45.999Z</time></trkpt><trkpt lat="43.26323892054799" lon="10.57268045071079"><ele>25.0</ele><time>2026-04-04T05:52:46.999Z</time></trkpt><trkpt lat="43.263202049898666" lon="10.57260311141605"><ele>24.857142857142858</ele><time>2026-04-04T05:52:47.999Z</time></trkpt><trkpt lat="43.26316567317873" lon="10.572526808182038"><ele>24.714285714285715</ele><time>2026-04-04T05:52:48.999Z</time></trkpt><trkpt lat="43.26312737520191" lon="10.572446474946636"><ele>24.57142857142857</ele><time>2026-04-04T05:52:49.999Z</time></trkpt><trkpt lat="43.26309066240117" lon="10.572369466752129"><ele>24.42857142857143</ele><time>2026-04-04T05:52:50.999Z</time></trkpt><trkpt lat="43.26304226624615" lon="10.572305471253753"><ele>24.285714285714285</ele><time>2026-04-04T05:52:51.999Z</time></trkpt><trkpt lat="43.26300274135378" lon="10.572229496088152"><ele>24.142857142857142</ele><time>2026-04-04T05:52:52.999Z</time></trkpt><trkpt lat="43.26297738866608" lon="10.57214069264401"><ele>24.0</ele><time>2026-04-04T05:52:53.999Z</time></trkpt><trkpt lat="43.26293835791675" lon="10.572065387068045"><ele>23.71428571428571</ele><time>2026-04-04T05:52:54.999Z</time></trkpt><trkpt lat="43.262894622303776" lon="10.571995133882238"><ele>23.428571428571427</ele><time>2026-04-04T05:52:55.999Z</time></trkpt><trkpt lat="43.26284934236574" lon="10.57191705095967"><ele>23.142857142857142</ele><time>2026-04-04T05:52:56.999Z</time></trkpt><trkpt lat="43.262820841802856" lon="10.571830806210077"><ele>22.857142857142854</ele><time>2026-04-04T05:52:57.999Z</time></trkpt><trkpt lat="43.262779637161515" lon="10.57174676336825"><ele>22.57142857142857</ele><time>2026-04-04T05:52:58.999Z</time></trkpt><trkpt lat="43.26273793227548" lon="10.5716617002039"><ele>22.285714285714285</ele><time>2026-04-04T05:52:59.999Z</time></trkpt><trkpt lat="43.26269696213431" lon="10.571579783740598"><ele>22.0</ele><time>2026-04-04T05:53:00.999Z</time></trkpt><trkpt lat="43.26265483487255" lon="10.571498996986818"><ele>22.0</ele><time>2026-04-04T05:53:01.999Z</time></trkpt><trkpt lat="43.26261218824408" lon="10.571419685515279"><ele>22.0</ele><time>2026-04-04T05:53:02.999Z</time></trkpt><trkpt lat="43.26257136187306" lon="10.571343759242907"><ele>22.0</ele><time>2026-04-04T05:53:03.999Z</time></trkpt><trkpt lat="43.26253134237502" lon="10.571265813715566"><ele>22.0</ele><time>2026-04-04T05:53:04.999Z</time></trkpt><trkpt lat="43.26249339887881" lon="10.571189577700235"><ele>22.0</ele><time>2026-04-04T05:53:05.999Z</time></trkpt><trkpt lat="43.26245532179074" lon="10.571110917923056"><ele>22.0</ele><time>2026-04-04T05:53:06.999Z</time></trkpt><trkpt lat="43.262418190469575" lon="10.571031508173684"><ele>22.0</ele><time>2026-04-04T05:53:07.999Z</time></trkpt><trkpt lat="43.262382828630194" lon="10.570953879514711"><ele>22.0</ele><time>2026-04-04T05:53:08.999Z</time></trkpt><trkpt lat="43.26234799544363" lon="10.570876261600874"><ele>22.0</ele><time>2026-04-04T05:53:09.999Z</time></trkpt><trkpt lat="43.262287389565294" lon="10.570736679712681"><ele>22.0</ele><time>2026-04-04T05:53:11.999Z</time></trkpt><trkpt lat="43.26222975501912" lon="10.57060029642988"><ele>22.0</ele><time>2026-04-04T05:53:13.999Z</time></trkpt><trkpt lat="43.262172500344754" lon="10.570464812039772"><ele>22.0</ele><time>2026-04-04T05:53:15.999Z</time></trkpt><trkpt lat="43.26211507701867" lon="10.570328928577728"><ele>21.400000000000002</ele><time>2026-04-04T05:53:17.998Z</time></trkpt><trkpt lat="43.26205858354395" lon="10.570198496978959"><ele>20.8</ele><time>2026-04-04T05:53:19.998Z</time></trkpt><trkpt lat="43.26199712267332" lon="10.570089413122812"><ele>20.2</ele><time>2026-04-04T05:53:21.998Z</time></trkpt><trkpt lat="43.2620438208185" lon="10.569968755589588"><ele>19.6</ele><time>2026-04-04T05:53:23.998Z</time></trkpt><trkpt lat="43.26213913273096" lon="10.569947444290317"><ele>19.0</ele><time>2026-04-04T05:53:25.998Z</time></trkpt><trkpt lat="43.262236787934434" lon="10.569949407578346"><ele>19.25</ele><time>2026-04-04T05:53:27.998Z</time></trkpt><trkpt lat="43.26234741079561" lon="10.569931967870893"><ele>19.5</ele><time>2026-04-04T05:53:29.998Z</time></trkpt><trkpt lat="43.2624643076325" lon="10.569899311942999"><ele>19.75</ele><time>2026-04-04T05:53:31.998Z</time></trkpt><trkpt lat="43.2625824410226" lon="10.569873669700833"><ele>20.0</ele><time>2026-04-04T05:53:33.998Z</time></trkpt><trkpt lat="43.262705689397684" lon="10.569845948249617"><ele>20.0</ele><time>2026-04-04T05:53:35.998Z</time></trkpt><trkpt lat="43.26276813783416" lon="10.569833831857077"><ele>20.0</ele><time>2026-04-04T05:53:36.998Z</time></trkpt><trkpt lat="43.262890677948704" lon="10.569807184923045"><ele>20.0</ele><time>2026-04-04T05:53:38.998Z</time></trkpt><trkpt lat="43.26301383754585" lon="10.569779766559325"><ele>20.0</ele><time>2026-04-04T05:53:40.998Z</time></trkpt><trkpt lat="43.26313569304412" lon="10.569750617016846"><ele>20.0</ele><time>2026-04-04T05:53:42.998Z</time></trkpt><trkpt lat="43.2632584648211" lon="10.569724569188613"><ele>20.0</ele><time>2026-04-04T05:53:44.998Z</time></trkpt><trkpt lat="43.26332066686415" lon="10.56970920666867"><ele>20.0</ele><time>2026-04-04T05:53:46Z</time></trkpt><trkpt lat="43.26338366069411" lon="10.569694434801969"><ele>20.0</ele><time>2026-04-04T05:53:47Z</time></trkpt><trkpt lat="43.26344626175439" lon="10.569683481362638"><ele>20.0</ele><time>2026-04-04T05:53:48Z</time></trkpt><trkpt lat="43.26357070286063" lon="10.569653171873863"><ele>20.0</ele><time>2026-04-04T05:53:50Z</time></trkpt><trkpt lat="43.263633512872886" lon="10.569639007224119"><ele>20.0</ele><time>2026-04-04T05:53:51Z</time></trkpt><trkpt lat="43.26369660402414" lon="10.569624765537988"><ele>20.0</ele><time>2026-04-04T05:53:52Z</time></trkpt><trkpt lat="43.263815676063956" lon="10.56959648315244"><ele>20.0</ele><time>2026-04-04T05:53:54Z</time></trkpt><trkpt lat="43.263931571713634" lon="10.569566908018855"><ele>20.0</ele><time>2026-04-04T05:53:56Z</time></trkpt><trkpt lat="43.264048459231205" lon="10.56954546010678"><ele>20.0</ele><time>2026-04-04T05:53:58Z</time></trkpt><trkpt lat="43.26416308049163" lon="10.569515731966689"><ele>20.0</ele><time>2026-04-04T05:54:00Z</time></trkpt><trkpt lat="43.26427485376956" lon="10.569497491845272"><ele>20.0</ele><time>2026-04-04T05:54:02Z</time></trkpt><trkpt lat="43.26438418687907" lon="10.569472766155496"><ele>20.0</ele><time>2026-04-04T05:54:04Z</time></trkpt><trkpt lat="43.264491749554146" lon="10.569449018207399"><ele>20.0</ele><time>2026-04-04T05:54:06Z</time></trkpt><trkpt lat="43.26459819683221" lon="10.569420584840865"><ele>20.0</ele><time>2026-04-04T05:54:08Z</time></trkpt><trkpt lat="43.26470757903081" lon="10.569399402267964"><ele>20.0</ele><time>2026-04-04T05:54:10Z</time></trkpt><trkpt lat="43.26481865334598" lon="10.569375730946557"><ele>20.0</ele><time>2026-04-04T05:54:12Z</time></trkpt><trkpt lat="43.2649255739761" lon="10.569355151897572"><ele>20.0</ele><time>2026-04-04T05:54:14Z</time></trkpt><trkpt lat="43.2650286665089" lon="10.569337428167142"><ele>20.0</ele><time>2026-04-04T05:54:16Z</time></trkpt><trkpt lat="43.2651219048287" lon="10.56930688297534"><ele>20.0</ele><time>2026-04-04T05:54:18Z</time></trkpt><trkpt lat="43.265227021016685" lon="10.569294966730398"><ele>20.0</ele><time>2026-04-04T05:54:20Z</time></trkpt><trkpt lat="43.26532281851307" lon="10.569269806719758"><ele>20.0</ele><time>2026-04-04T05:54:22Z</time></trkpt><trkpt lat="43.26542071435227" lon="10.569249326978154"><ele>20.0</ele><time>2026-04-04T05:54:23.999Z</time></trkpt><trkpt lat="43.26552924316645" lon="10.569230829839972"><ele>20.0</ele><time>2026-04-04T05:54:25.999Z</time></trkpt><trkpt lat="43.26563035763403" lon="10.569202046308234"><ele>20.0</ele><time>2026-04-04T05:54:27.999Z</time></trkpt><trkpt lat="43.2657279755109" lon="10.569185575664914"><ele>20.0</ele><time>2026-04-04T05:54:29.999Z</time></trkpt><trkpt lat="43.26582389586246" lon="10.56916970056592"><ele>20.2</ele><time>2026-04-04T05:54:31.999Z</time></trkpt><trkpt lat="43.265917867952055" lon="10.569143959559746"><ele>20.4</ele><time>2026-04-04T05:54:33.999Z</time></trkpt><trkpt lat="43.26601341606987" lon="10.569122577177186"><ele>20.6</ele><time>2026-04-04T05:54:35.999Z</time></trkpt><trkpt lat="43.26610933421735" lon="10.569097271346878"><ele>20.8</ele><time>2026-04-04T05:54:37.999Z</time></trkpt><trkpt lat="43.266206078344574" lon="10.569075400105149"><ele>21.0</ele><time>2026-04-04T05:54:39.999Z</time></trkpt><trkpt lat="43.266297846733366" lon="10.569056479909364"><ele>21.0</ele><time>2026-04-04T05:54:41.999Z</time></trkpt><trkpt lat="43.26639864823654" lon="10.569033621559289"><ele>21.0</ele><time>2026-04-04T05:54:43.999Z</time></trkpt><trkpt lat="43.266500740803636" lon="10.569008044049125"><ele>21.0</ele><time>2026-04-04T05:54:45.999Z</time></trkpt><trkpt lat="43.2666053157972" lon="10.568986947525083"><ele>21.0</ele><time>2026-04-04T05:54:47.999Z</time></trkpt><trkpt lat="43.2667131755577" lon="10.568961992199936"><ele>21.0</ele><time>2026-04-04T05:54:49.999Z</time></trkpt><trkpt lat="43.2668204442891" lon="10.56893628837813"><ele>21.200000000000003</ele><time>2026-04-04T05:54:51.999Z</time></trkpt><trkpt lat="43.26692529949176" lon="10.56891452817036"><ele>21.400000000000002</ele><time>2026-04-04T05:54:53.999Z</time></trkpt><trkpt lat="43.26703096602956" lon="10.568889327331723"><ele>21.6</ele><time>2026-04-04T05:54:55.999Z</time></trkpt><trkpt lat="43.26713882793654" lon="10.568865202788878"><ele>21.8</ele><time>2026-04-04T05:54:57.999Z</time></trkpt><trkpt lat="43.26724543453351" lon="10.568839217938393"><ele>22.0</ele><time>2026-04-04T05:54:59.999Z</time></trkpt><trkpt lat="43.26735119945695" lon="10.568811917578017"><ele>22.200000000000003</ele><time>2026-04-04T05:55:01.999Z</time></trkpt><trkpt lat="43.26744621695924" lon="10.568783851345218"><ele>22.4</ele><time>2026-04-04T05:55:03.999Z</time></trkpt><trkpt lat="43.2675133329333" lon="10.568770845712498"><ele>22.6</ele><time>2026-04-04T05:55:04.999Z</time></trkpt><trkpt lat="43.26762290074362" lon="10.568754756828145"><ele>22.799999999999997</ele><time>2026-04-04T05:55:06.999Z</time></trkpt><trkpt lat="43.26773728216476" lon="10.568736319369961"><ele>23.0</ele><time>2026-04-04T05:55:08.999Z</time></trkpt><trkpt lat="43.26784937090191" lon="10.568694097022307"><ele>22.75</ele><time>2026-04-04T05:55:10.999Z</time></trkpt><trkpt lat="43.26795967138871" lon="10.568625104896324"><ele>22.5</ele><time>2026-04-04T05:55:12.999Z</time></trkpt><trkpt lat="43.268062780943254" lon="10.568539397751115"><ele>22.25</ele><time>2026-04-04T05:55:14.999Z</time></trkpt><trkpt lat="43.26816758373356" lon="10.568473782658844"><ele>22.0</ele><time>2026-04-04T05:55:16.998Z</time></trkpt><trkpt lat="43.26828187372103" lon="10.568430463183384"><ele>21.75</ele><time>2026-04-04T05:55:18.998Z</time></trkpt><trkpt lat="43.26839873648052" lon="10.56840815376642"><ele>21.5</ele><time>2026-04-04T05:55:20.998Z</time></trkpt><trkpt lat="43.268517373583066" lon="10.56838566767896"><ele>21.25</ele><time>2026-04-04T05:55:22.998Z</time></trkpt><trkpt lat="43.26863938110041" lon="10.568363148500453"><ele>21.0</ele><time>2026-04-04T05:55:24.998Z</time></trkpt><trkpt lat="43.26876127083008" lon="10.568340857216736"><ele>21.0</ele><time>2026-04-04T05:55:26.998Z</time></trkpt><trkpt lat="43.26888258260647" lon="10.568319954369796"><ele>21.0</ele><time>2026-04-04T05:55:28.998Z</time></trkpt><trkpt lat="43.269006493370824" lon="10.568301520074375"><ele>21.0</ele><time>2026-04-04T05:55:30.998Z</time></trkpt><trkpt lat="43.26912477645865" lon="10.56826861174333"><ele>21.0</ele><time>2026-04-04T05:55:32.998Z</time></trkpt><trkpt lat="43.26924229137759" lon="10.568240310521915"><ele>21.0</ele><time>2026-04-04T05:55:34.998Z</time></trkpt><trkpt lat="43.26936172755866" lon="10.56821086662741"><ele>21.0</ele><time>2026-04-04T05:55:36.998Z</time></trkpt><trkpt lat="43.26947921805109" lon="10.568190303861648"><ele>21.0</ele><time>2026-04-04T05:55:38.998Z</time></trkpt><trkpt lat="43.26959913218203" lon="10.568166934567335"><ele>21.0</ele><time>2026-04-04T05:55:40.998Z</time></trkpt><trkpt lat="43.269723717339936" lon="10.568133830591155"><ele>20.857142857142858</ele><time>2026-04-04T05:55:42.998Z</time></trkpt><trkpt lat="43.26978588697563" lon="10.568116768739454"><ele>20.714285714285715</ele><time>2026-04-04T05:55:43.998Z</time></trkpt><trkpt lat="43.26985168067479" lon="10.568100408775392"><ele>20.57142857142857</ele><time>2026-04-04T05:55:44.998Z</time></trkpt><trkpt lat="43.269917111406514" lon="10.568085675841255"><ele>20.42857142857143</ele><time>2026-04-04T05:55:45.998Z</time></trkpt><trkpt lat="43.2699822742224" lon="10.568072556760638"><ele>20.285714285714285</ele><time>2026-04-04T05:55:46.998Z</time></trkpt><trkpt lat="43.270046702062615" lon="10.568059192394156"><ele>20.142857142857142</ele><time>2026-04-04T05:55:47.998Z</time></trkpt><trkpt lat="43.27011157084951" lon="10.56804371644987"><ele>20.0</ele><time>2026-04-04T05:55:48.998Z</time></trkpt><trkpt lat="43.27017809878199" lon="10.568029701765662"><ele>20.0</ele><time>2026-04-04T05:55:49.998Z</time></trkpt><trkpt lat="43.270243908166755" lon="10.568013861311005"><ele>20.0</ele><time>2026-04-04T05:55:51Z</time></trkpt><trkpt lat="43.27030895646111" lon="10.568003973313767"><ele>20.0</ele><time>2026-04-04T05:55:52Z</time></trkpt><trkpt lat="43.27037518254128" lon="10.567993493937593"><ele>20.0</ele><time>2026-04-04T05:55:53Z</time></trkpt><trkpt lat="43.270440316075074" lon="10.567980966153408"><ele>20.0</ele><time>2026-04-04T05:55:54Z</time></trkpt><trkpt lat="43.27050668505852" lon="10.567964570258631"><ele>20.0</ele><time>2026-04-04T05:55:55Z</time></trkpt><trkpt lat="43.27057261039637" lon="10.567949042439281"><ele>20.0</ele><time>2026-04-04T05:55:56Z</time></trkpt><trkpt lat="43.27063727282104" lon="10.567938153342528"><ele>19.666666666666668</ele><time>2026-04-04T05:55:57Z</time></trkpt><trkpt lat="43.27070022320114" lon="10.567925763716659"><ele>19.333333333333336</ele><time>2026-04-04T05:55:58Z</time></trkpt><trkpt lat="43.27076280521954" lon="10.567908258515562"><ele>19.0</ele><time>2026-04-04T05:55:59Z</time></trkpt><trkpt lat="43.270825817759096" lon="10.567894717068665"><ele>18.666666666666668</ele><time>2026-04-04T05:56:00Z</time></trkpt><trkpt lat="43.27094465427635" lon="10.567872549807467"><ele>18.333333333333332</ele><time>2026-04-04T05:56:02Z</time></trkpt><trkpt lat="43.27105842194493" lon="10.567846127182232"><ele>18.0</ele><time>2026-04-04T05:56:04Z</time></trkpt><trkpt lat="43.271167435791575" lon="10.567816903356388"><ele>17.8</ele><time>2026-04-04T05:56:06Z</time></trkpt><trkpt lat="43.271276699771526" lon="10.567791574370887"><ele>17.6</ele><time>2026-04-04T05:56:08Z</time></trkpt><trkpt lat="43.27137794576005" lon="10.567782815301086"><ele>17.4</ele><time>2026-04-04T05:56:10Z</time></trkpt><trkpt lat="43.271468694958045" lon="10.567797194008602"><ele>17.2</ele><time>2026-04-04T05:56:12Z</time></trkpt><trkpt lat="43.27153842777481" lon="10.567799631189718"><ele>17.0</ele><time>2026-04-04T05:56:16Z</time></trkpt><trkpt lat="43.27162455436238" lon="10.567764685614872"><ele>17.4</ele><time>2026-04-04T05:56:21Z</time></trkpt><trkpt lat="43.271654173054806" lon="10.567638593990328"><ele>17.799999999999997</ele><time>2026-04-04T05:56:23Z</time></trkpt><trkpt lat="43.27172232014516" lon="10.56758971648875"><ele>18.2</ele><time>2026-04-04T05:56:24Z</time></trkpt><trkpt lat="43.2718048611761" lon="10.56748236526401"><ele>18.599999999999998</ele><time>2026-04-04T05:56:26Z</time></trkpt><trkpt lat="43.271885417837936" lon="10.567366956715446"><ele>19.0</ele><time>2026-04-04T05:56:28Z</time></trkpt><trkpt lat="43.271971018826164" lon="10.567253563422003"><ele>19.0</ele><time>2026-04-04T05:56:29.999Z</time></trkpt><trkpt lat="43.27205214400349" lon="10.567128499447913"><ele>19.0</ele><time>2026-04-04T05:56:31.999Z</time></trkpt><trkpt lat="43.272137022289954" lon="10.567010949194577"><ele>19.0</ele><time>2026-04-04T05:56:33.999Z</time></trkpt><trkpt lat="43.2722221448223" lon="10.56689166549973"><ele>19.0</ele><time>2026-04-04T05:56:35.999Z</time></trkpt><trkpt lat="43.2723062809857" lon="10.56676908249098"><ele>18.8</ele><time>2026-04-04T05:56:37.999Z</time></trkpt><trkpt lat="43.27239185003826" lon="10.566649523615819"><ele>18.599999999999998</ele><time>2026-04-04T05:56:39.999Z</time></trkpt><trkpt lat="43.27247766652899" lon="10.566523409978215"><ele>18.4</ele><time>2026-04-04T05:56:41.999Z</time></trkpt><trkpt lat="43.27256793664471" lon="10.566397878817828"><ele>18.2</ele><time>2026-04-04T05:56:43.999Z</time></trkpt><trkpt lat="43.272614396258895" lon="10.566330683274883"><ele>18.0</ele><time>2026-04-04T05:56:44.999Z</time></trkpt><trkpt lat="43.27266053666591" lon="10.566262728171004"><ele>18.000000000000004</ele><time>2026-04-04T05:56:45.999Z</time></trkpt><trkpt lat="43.272703651770776" lon="10.56619762414542"><ele>18.0</ele><time>2026-04-04T05:56:46.999Z</time></trkpt><trkpt lat="43.2727502785702" lon="10.566132125958614"><ele>18.0</ele><time>2026-04-04T05:56:47.999Z</time></trkpt><trkpt lat="43.27279606640008" lon="10.566067140277083"><ele>18.0</ele><time>2026-04-04T05:56:48.999Z</time></trkpt><trkpt lat="43.27283907503489" lon="10.566000692999763"><ele>18.0</ele><time>2026-04-04T05:56:49.999Z</time></trkpt><trkpt lat="43.2728848244273" lon="10.565935697646378"><ele>18.000000000000004</ele><time>2026-04-04T05:56:50.999Z</time></trkpt><trkpt lat="43.272932571913586" lon="10.565870792476076"><ele>18.0</ele><time>2026-04-04T05:56:51.999Z</time></trkpt><trkpt lat="43.27298004711577" lon="10.565802976015378"><ele>18.000000000000004</ele><time>2026-04-04T05:56:52.999Z</time></trkpt><trkpt lat="43.27302559615705" lon="10.565738271973146"><ele>18.0</ele><time>2026-04-04T05:56:53.999Z</time></trkpt><trkpt lat="43.273070989305424" lon="10.56567308331985"><ele>18.0</ele><time>2026-04-04T05:56:54.999Z</time></trkpt><trkpt lat="43.273117431423515" lon="10.565608601080793"><ele>18.0</ele><time>2026-04-04T05:56:55.999Z</time></trkpt><trkpt lat="43.27316208318618" lon="10.565543277316369"><ele>18.0</ele><time>2026-04-04T05:56:56.999Z</time></trkpt><trkpt lat="43.273206589498706" lon="10.565476345086891"><ele>18.000000000000004</ele><time>2026-04-04T05:56:57.999Z</time></trkpt><trkpt lat="43.27325373466313" lon="10.565412177689224"><ele>18.0</ele><time>2026-04-04T05:56:58.999Z</time></trkpt><trkpt lat="43.27330001586064" lon="10.56534864620618"><ele>17.857142857142858</ele><time>2026-04-04T05:56:59.999Z</time></trkpt><trkpt lat="43.273343293476856" lon="10.565282929774744"><ele>17.714285714285715</ele><time>2026-04-04T05:57:00.999Z</time></trkpt><trkpt lat="43.27338815070262" lon="10.56521503150142"><ele>17.57142857142857</ele><time>2026-04-04T05:57:01.999Z</time></trkpt><trkpt lat="43.27343249079913" lon="10.565145694880727"><ele>17.42857142857143</ele><time>2026-04-04T05:57:02.999Z</time></trkpt><trkpt lat="43.27347916568289" lon="10.565075760552421"><ele>17.285714285714285</ele><time>2026-04-04T05:57:03.999Z</time></trkpt><trkpt lat="43.27352534235993" lon="10.565007459948959"><ele>17.142857142857142</ele><time>2026-04-04T05:57:04.999Z</time></trkpt><trkpt lat="43.27357119496022" lon="10.564941549220782"><ele>17.0</ele><time>2026-04-04T05:57:05.999Z</time></trkpt><trkpt lat="43.27361823937729" lon="10.564873709233956"><ele>16.999999999999996</ele><time>2026-04-04T05:57:06.999Z</time></trkpt><trkpt lat="43.273665603080715" lon="10.564806713244737"><ele>17.0</ele><time>2026-04-04T05:57:07.999Z</time></trkpt><trkpt lat="43.273714627958654" lon="10.564738990125552"><ele>17.0</ele><time>2026-04-04T05:57:08.999Z</time></trkpt><trkpt lat="43.27376329933529" lon="10.564673772467488"><ele>17.0</ele><time>2026-04-04T05:57:09.999Z</time></trkpt><trkpt lat="43.273811100520874" lon="10.564607182497046"><ele>17.0</ele><time>2026-04-04T05:57:10.999Z</time></trkpt><trkpt lat="43.273856628757436" lon="10.564540341689433"><ele>16.999999999999996</ele><time>2026-04-04T05:57:11.999Z</time></trkpt><trkpt lat="43.2739033992234" lon="10.564475919388018"><ele>17.0</ele><time>2026-04-04T05:57:12.999Z</time></trkpt><trkpt lat="43.27394911965118" lon="10.56441191335997"><ele>17.142857142857142</ele><time>2026-04-04T05:57:13.999Z</time></trkpt><trkpt lat="43.27399487056705" lon="10.564347431686631"><ele>17.285714285714285</ele><time>2026-04-04T05:57:14.999Z</time></trkpt><trkpt lat="43.274041031456" lon="10.56428537314263"><ele>17.42857142857143</ele><time>2026-04-04T05:57:15.999Z</time></trkpt><trkpt lat="43.27408794660901" lon="10.564220220243312"><ele>17.57142857142857</ele><time>2026-04-04T05:57:16.999Z</time></trkpt><trkpt lat="43.27413506491904" lon="10.56415179130374"><ele>17.714285714285715</ele><time>2026-04-04T05:57:17.999Z</time></trkpt><trkpt lat="43.27418118653313" lon="10.564080557735185"><ele>17.857142857142858</ele><time>2026-04-04T05:57:18.999Z</time></trkpt><trkpt lat="43.27422942080279" lon="10.564010134439322"><ele>18.0</ele><time>2026-04-04T05:57:19.999Z</time></trkpt><trkpt lat="43.274278763555955" lon="10.563944550059453"><ele>18.000000000000004</ele><time>2026-04-04T05:57:20.999Z</time></trkpt><trkpt lat="43.27432840348154" lon="10.563880266356927"><ele>18.0</ele><time>2026-04-04T05:57:21.998Z</time></trkpt><trkpt lat="43.27437524180417" lon="10.563814035162684"><ele>18.0</ele><time>2026-04-04T05:57:22.998Z</time></trkpt><trkpt lat="43.274421581474456" lon="10.563748730240484"><ele>18.0</ele><time>2026-04-04T05:57:23.998Z</time></trkpt><trkpt lat="43.274469534956545" lon="10.563681356741867"><ele>18.0</ele><time>2026-04-04T05:57:24.998Z</time></trkpt><trkpt lat="43.274515989449654" lon="10.563615167138153"><ele>18.000000000000004</ele><time>2026-04-04T05:57:25.998Z</time></trkpt><trkpt lat="43.27456251578752" lon="10.563552010084571"><ele>18.0</ele><time>2026-04-04T05:57:26.998Z</time></trkpt><trkpt lat="43.274607271987655" lon="10.56348576137305"><ele>17.857142857142858</ele><time>2026-04-04T05:57:27.998Z</time></trkpt><trkpt lat="43.274653423153694" lon="10.56342128687998"><ele>17.714285714285715</ele><time>2026-04-04T05:57:28.998Z</time></trkpt><trkpt lat="43.27470107281616" lon="10.56335637742516"><ele>17.57142857142857</ele><time>2026-04-04T05:57:29.998Z</time></trkpt><trkpt lat="43.27474653859976" lon="10.563291282355019"><ele>17.42857142857143</ele><time>2026-04-04T05:57:30.998Z</time></trkpt><trkpt lat="43.27479093529662" lon="10.56322191596523"><ele>17.285714285714285</ele><time>2026-04-04T05:57:31.998Z</time></trkpt><trkpt lat="43.274837733212024" lon="10.563158325897222"><ele>17.142857142857142</ele><time>2026-04-04T05:57:32.998Z</time></trkpt><trkpt lat="43.27488420692349" lon="10.563093132234966"><ele>17.0</ele><time>2026-04-04T05:57:33.998Z</time></trkpt><trkpt lat="43.27493065156382" lon="10.563027299757596"><ele>16.999999999999996</ele><time>2026-04-04T05:57:34.998Z</time></trkpt><trkpt lat="43.274975580912994" lon="10.562959757892731"><ele>17.0</ele><time>2026-04-04T05:57:35.998Z</time></trkpt><trkpt lat="43.275021411573505" lon="10.562897150826766"><ele>17.0</ele><time>2026-04-04T05:57:36.998Z</time></trkpt><trkpt lat="43.27506725255582" lon="10.562830860695424"><ele>17.0</ele><time>2026-04-04T05:57:37.998Z</time></trkpt><trkpt lat="43.27511391826378" lon="10.562764558550938"><ele>17.0</ele><time>2026-04-04T05:57:38.998Z</time></trkpt><trkpt lat="43.27516180126057" lon="10.562700761705086"><ele>16.999999999999996</ele><time>2026-04-04T05:57:39.998Z</time></trkpt><trkpt lat="43.27520714256986" lon="10.56263050011633"><ele>17.0</ele><time>2026-04-04T05:57:40.998Z</time></trkpt><trkpt lat="43.275250893080205" lon="10.562565387493974"><ele>16.999999999999996</ele><time>2026-04-04T05:57:41.998Z</time></trkpt><trkpt lat="43.27529720244159" lon="10.562500164777532"><ele>17.0</ele><time>2026-04-04T05:57:42.998Z</time></trkpt><trkpt lat="43.275343559322216" lon="10.562436780945584"><ele>17.0</ele><time>2026-04-04T05:57:43.998Z</time></trkpt><trkpt lat="43.275388818681364" lon="10.562371368131371"><ele>17.0</ele><time>2026-04-04T05:57:44.998Z</time></trkpt><trkpt lat="43.27543458859309" lon="10.562304150737134"><ele>17.0</ele><time>2026-04-04T05:57:45.998Z</time></trkpt><trkpt lat="43.27547951744289" lon="10.562242645326185"><ele>16.999999999999996</ele><time>2026-04-04T05:57:46.998Z</time></trkpt><trkpt lat="43.275524283561225" lon="10.562178142475082"><ele>17.0</ele><time>2026-04-04T05:57:47.998Z</time></trkpt><trkpt lat="43.275570262270385" lon="10.562115168899147"><ele>16.833333333333336</ele><time>2026-04-04T05:57:48.998Z</time></trkpt><trkpt lat="43.275613450165636" lon="10.562051798778764"><ele>16.666666666666668</ele><time>2026-04-04T05:57:49.998Z</time></trkpt><trkpt lat="43.27565418616976" lon="10.561985476281675"><ele>16.5</ele><time>2026-04-04T05:57:50.998Z</time></trkpt><trkpt lat="43.27574408133194" lon="10.561865258823964"><ele>16.333333333333332</ele><time>2026-04-04T05:57:52.998Z</time></trkpt><trkpt lat="43.275789541979975" lon="10.561804712256324"><ele>16.166666666666664</ele><time>2026-04-04T05:57:53.998Z</time></trkpt><trkpt lat="43.275869940663576" lon="10.561684048544826"><ele>16.0</ele><time>2026-04-04T05:57:55.998Z</time></trkpt><trkpt lat="43.27595285840069" lon="10.561568934048704"><ele>16.0</ele><time>2026-04-04T05:57:58Z</time></trkpt><trkpt lat="43.27603090347332" lon="10.561453170629267"><ele>16.0</ele><time>2026-04-04T05:58:00Z</time></trkpt><trkpt lat="43.27610989991978" lon="10.561335302479943"><ele>16.0</ele><time>2026-04-04T05:58:02Z</time></trkpt><trkpt lat="43.27618698340433" lon="10.561218097744373"><ele>16.0</ele><time>2026-04-04T05:58:04Z</time></trkpt><trkpt lat="43.27625901978895" lon="10.56109921912498"><ele>16.0</ele><time>2026-04-04T05:58:06Z</time></trkpt><trkpt lat="43.27633497050646" lon="10.560980971092043"><ele>16.0</ele><time>2026-04-04T05:58:08Z</time></trkpt><trkpt lat="43.27640982074601" lon="10.560868002514601"><ele>16.0</ele><time>2026-04-04T05:58:10Z</time></trkpt><trkpt lat="43.276483388761974" lon="10.560751684394646"><ele>16.0</ele><time>2026-04-04T05:58:12Z</time></trkpt><trkpt lat="43.27655917201373" lon="10.560632586758917"><ele>16.5</ele><time>2026-04-04T05:58:14Z</time></trkpt><trkpt lat="43.276634705653194" lon="10.560515556569735"><ele>17.0</ele><time>2026-04-04T05:58:16Z</time></trkpt><trkpt lat="43.276710671275" lon="10.560395172337094"><ele>17.5</ele><time>2026-04-04T05:58:18Z</time></trkpt><trkpt lat="43.276793244960075" lon="10.560274198310607"><ele>18.0</ele><time>2026-04-04T05:58:20Z</time></trkpt><trkpt lat="43.27687228955537" lon="10.560155481281054"><ele>18.0</ele><time>2026-04-04T05:58:22Z</time></trkpt><trkpt lat="43.2769590305244" lon="10.560038368704546"><ele>18.0</ele><time>2026-04-04T05:58:24Z</time></trkpt><trkpt lat="43.27704371346863" lon="10.559924297680771"><ele>18.0</ele><time>2026-04-04T05:58:26Z</time></trkpt><trkpt lat="43.27712084110779" lon="10.559812191203859"><ele>18.0</ele><time>2026-04-04T05:58:28Z</time></trkpt><trkpt lat="43.277193225144664" lon="10.559701611417006"><ele>18.0</ele><time>2026-04-04T05:58:30Z</time></trkpt><trkpt lat="43.27727287371138" lon="10.559581095669072"><ele>18.0</ele><time>2026-04-04T05:58:31.999Z</time></trkpt><trkpt lat="43.27735699311156" lon="10.559490480734736"><ele>18.0</ele><time>2026-04-04T05:58:33.999Z</time></trkpt><trkpt lat="43.277311736993894" lon="10.559257435062051"><ele>18.0</ele><time>2026-04-04T05:58:35.999Z</time></trkpt><trkpt lat="43.277293370594656" lon="10.559168403303902"><ele>17.857142857142858</ele><time>2026-04-04T05:58:36.999Z</time></trkpt><trkpt lat="43.27727627481998" lon="10.55907882178315"><ele>17.714285714285715</ele><time>2026-04-04T05:58:37.999Z</time></trkpt><trkpt lat="43.27726148454088" lon="10.558984860786238"><ele>17.57142857142857</ele><time>2026-04-04T05:58:38.999Z</time></trkpt><trkpt lat="43.27725001674184" lon="10.558894511639531"><ele>17.42857142857143</ele><time>2026-04-04T05:58:39.999Z</time></trkpt><trkpt lat="43.27724116654586" lon="10.558806490883102"><ele>17.285714285714285</ele><time>2026-04-04T05:58:40.999Z</time></trkpt><trkpt lat="43.27723519599584" lon="10.558715542085315"><ele>17.142857142857142</ele><time>2026-04-04T05:58:41.999Z</time></trkpt><trkpt lat="43.27723123118755" lon="10.55862845331502"><ele>17.0</ele><time>2026-04-04T05:58:42.999Z</time></trkpt><trkpt lat="43.27723448720068" lon="10.558455923820175"><ele>17.0</ele><time>2026-04-04T05:58:44.999Z</time></trkpt><trkpt lat="43.277238468154124" lon="10.55828378200847"><ele>17.0</ele><time>2026-04-04T05:58:46.999Z</time></trkpt><trkpt lat="43.27724395403474" lon="10.558114287414432"><ele>17.0</ele><time>2026-04-04T05:58:48.999Z</time></trkpt><trkpt lat="43.2772493152716" lon="10.55794952427187"><ele>17.0</ele><time>2026-04-04T05:58:50.999Z</time></trkpt><trkpt lat="43.2772539939246" lon="10.557790035766036"><ele>17.0</ele><time>2026-04-04T05:58:52.999Z</time></trkpt><trkpt lat="43.27725775003288" lon="10.557635560214518"><ele>17.0</ele><time>2026-04-04T05:58:54.999Z</time></trkpt><trkpt lat="43.277261460107155" lon="10.557482977774686"><ele>17.0</ele><time>2026-04-04T05:58:56.999Z</time></trkpt><trkpt lat="43.27726510377801" lon="10.557333126326387"><ele>17.0</ele><time>2026-04-04T05:58:58.999Z</time></trkpt><trkpt lat="43.277268515249126" lon="10.557192824372358"><ele>17.0</ele><time>2026-04-04T05:59:00.999Z</time></trkpt><trkpt lat="43.27725704521537" lon="10.55704609827346"><ele>17.4</ele><time>2026-04-04T05:59:02.999Z</time></trkpt><trkpt lat="43.277278817554276" lon="10.55690301053986"><ele>17.799999999999997</ele><time>2026-04-04T05:59:04.999Z</time></trkpt><trkpt lat="43.27728492618874" lon="10.556755568435811"><ele>18.2</ele><time>2026-04-04T05:59:06.999Z</time></trkpt><trkpt lat="43.27729128073297" lon="10.556602190888245"><ele>18.599999999999998</ele><time>2026-04-04T05:59:08.999Z</time></trkpt><trkpt lat="43.27729757397381" lon="10.55645029298191"><ele>19.0</ele><time>2026-04-04T05:59:10.999Z</time></trkpt><trkpt lat="43.27730394690655" lon="10.556296471589436"><ele>18.75</ele><time>2026-04-04T05:59:12.999Z</time></trkpt><trkpt lat="43.27731033132961" lon="10.556142372846224"><ele>18.5</ele><time>2026-04-04T05:59:14.999Z</time></trkpt><trkpt lat="43.27731683788775" lon="10.555985326207523"><ele>18.25</ele><time>2026-04-04T05:59:16.999Z</time></trkpt><trkpt lat="43.27732303613741" lon="10.555828992739427"><ele>18.0</ele><time>2026-04-04T05:59:18.999Z</time></trkpt><trkpt lat="43.27731363089018" lon="10.555671775980786"><ele>18.0</ele><time>2026-04-04T05:59:20.999Z</time></trkpt><trkpt lat="43.277333251900885" lon="10.555508248448348"><ele>18.0</ele><time>2026-04-04T05:59:22.999Z</time></trkpt><trkpt lat="43.27733092688794" lon="10.555346501439846"><ele>18.0</ele><time>2026-04-04T05:59:24.998Z</time></trkpt><trkpt lat="43.277301651572245" lon="10.555191974637467"><ele>18.0</ele><time>2026-04-04T05:59:26.998Z</time></trkpt><trkpt lat="43.277282621621126" lon="10.555038677482283"><ele>17.6</ele><time>2026-04-04T05:59:28.998Z</time></trkpt><trkpt lat="43.277249684101285" lon="10.55488051294372"><ele>17.200000000000003</ele><time>2026-04-04T05:59:30.998Z</time></trkpt><trkpt lat="43.27723657420471" lon="10.554716759820458"><ele>16.8</ele><time>2026-04-04T05:59:32.998Z</time></trkpt><trkpt lat="43.277207355874225" lon="10.554554355977805"><ele>16.400000000000002</ele><time>2026-04-04T05:59:34.998Z</time></trkpt><trkpt lat="43.27717605986612" lon="10.55447703279322"><ele>16.0</ele><time>2026-04-04T05:59:35.998Z</time></trkpt><trkpt lat="43.277145955168066" lon="10.554312095572513"><ele>16.0</ele><time>2026-04-04T05:59:37.998Z</time></trkpt><trkpt lat="43.2771469496847" lon="10.554224379829632"><ele>16.0</ele><time>2026-04-04T05:59:38.998Z</time></trkpt><trkpt lat="43.277117595360814" lon="10.554064028247137"><ele>16.0</ele><time>2026-04-04T05:59:40.998Z</time></trkpt><trkpt lat="43.2770741186376" lon="10.553915837701764"><ele>16.0</ele><time>2026-04-04T05:59:42.998Z</time></trkpt><trkpt lat="43.277050694285144" lon="10.553765234096621"><ele>16.0</ele><time>2026-04-04T05:59:44.998Z</time></trkpt><trkpt lat="43.277024617976586" lon="10.553639258495613"><ele>15.8</ele><time>2026-04-04T05:59:46.998Z</time></trkpt><trkpt lat="43.27700532523168" lon="10.553509293212986"><ele>15.600000000000001</ele><time>2026-04-04T05:59:48.998Z</time></trkpt><trkpt lat="43.2769816822004" lon="10.55336124072502"><ele>15.4</ele><time>2026-04-04T05:59:50.998Z</time></trkpt><trkpt lat="43.276959315906545" lon="10.553220098563775"><ele>15.2</ele><time>2026-04-04T05:59:52.998Z</time></trkpt><trkpt lat="43.27692563028376" lon="10.553067983791422"><ele>15.0</ele><time>2026-04-04T05:59:54.998Z</time></trkpt><trkpt lat="43.27690511317445" lon="10.55292985724006"><ele>14.8</ele><time>2026-04-04T05:59:56.998Z</time></trkpt><trkpt lat="43.27687452212462" lon="10.552774611595499"><ele>14.6</ele><time>2026-04-04T05:59:58.998Z</time></trkpt><trkpt lat="43.2768588029601" lon="10.552690424410843"><ele>14.399999999999999</ele><time>2026-04-04T05:59:59.998Z</time></trkpt><trkpt lat="43.276828980600946" lon="10.552523305535951"><ele>14.2</ele><time>2026-04-04T06:00:01.998Z</time></trkpt><trkpt lat="43.27680015669798" lon="10.552356549217052"><ele>14.0</ele><time>2026-04-04T06:00:04Z</time></trkpt><trkpt lat="43.27678636518547" lon="10.55227138941748"><ele>14.0</ele><time>2026-04-04T06:00:05Z</time></trkpt><trkpt lat="43.27677048738384" lon="10.552182879280851"><ele>14.0</ele><time>2026-04-04T06:00:06Z</time></trkpt><trkpt lat="43.27675735084021" lon="10.552091080143217"><ele>14.0</ele><time>2026-04-04T06:00:07Z</time></trkpt><trkpt lat="43.2767445715896" lon="10.552001261765012"><ele>14.0</ele><time>2026-04-04T06:00:08Z</time></trkpt><trkpt lat="43.276729448526375" lon="10.551910524421134"><ele>14.0</ele><time>2026-04-04T06:00:09Z</time></trkpt><trkpt lat="43.27671569233393" lon="10.551822593848724"><ele>14.0</ele><time>2026-04-04T06:00:10Z</time></trkpt><trkpt lat="43.276699825594015" lon="10.55173089262192"><ele>14.0</ele><time>2026-04-04T06:00:11Z</time></trkpt><trkpt lat="43.27668336817183" lon="10.551639230499708"><ele>14.0</ele><time>2026-04-04T06:00:12Z</time></trkpt><trkpt lat="43.27666733790941" lon="10.551549204778059"><ele>14.0</ele><time>2026-04-04T06:00:13Z</time></trkpt><trkpt lat="43.27665274158045" lon="10.551459684592274"><ele>14.0</ele><time>2026-04-04T06:00:14Z</time></trkpt><trkpt lat="43.27663683991571" lon="10.551367648831631"><ele>14.0</ele><time>2026-04-04T06:00:15Z</time></trkpt><trkpt lat="43.27661892646006" lon="10.551279177107485"><ele>14.0</ele><time>2026-04-04T06:00:16Z</time></trkpt><trkpt lat="43.27660219285051" lon="10.55119015780377"><ele>14.0</ele><time>2026-04-04T06:00:17Z</time></trkpt><trkpt lat="43.2765839044646" lon="10.551101485251696"><ele>14.0</ele><time>2026-04-04T06:00:18Z</time></trkpt><trkpt lat="43.27656854178703" lon="10.551012418274647"><ele>13.857142857142858</ele><time>2026-04-04T06:00:19Z</time></trkpt><trkpt lat="43.276554387903026" lon="10.550925787772087"><ele>13.714285714285715</ele><time>2026-04-04T06:00:20Z</time></trkpt><trkpt lat="43.27653645954833" lon="10.550840400983653"><ele>13.571428571428571</ele><time>2026-04-04T06:00:21Z</time></trkpt><trkpt lat="43.27651674685284" lon="10.55075296367392"><ele>13.428571428571429</ele><time>2026-04-04T06:00:22Z</time></trkpt><trkpt lat="43.27650281084648" lon="10.550664393969543"><ele>13.285714285714286</ele><time>2026-04-04T06:00:23Z</time></trkpt><trkpt lat="43.276487482881095" lon="10.550574341807769"><ele>13.142857142857142</ele><time>2026-04-04T06:00:24Z</time></trkpt><trkpt lat="43.27647189700325" lon="10.550484435876703"><ele>13.0</ele><time>2026-04-04T06:00:25Z</time></trkpt><trkpt lat="43.27645381327268" lon="10.550397964202261"><ele>13.0</ele><time>2026-04-04T06:00:26Z</time></trkpt><trkpt lat="43.27644140833818" lon="10.55030809812745"><ele>13.0</ele><time>2026-04-04T06:00:27Z</time></trkpt><trkpt lat="43.276430702461894" lon="10.550218484931916"><ele>13.0</ele><time>2026-04-04T06:00:28Z</time></trkpt><trkpt lat="43.27642186498021" lon="10.550125642874146"><ele>13.0</ele><time>2026-04-04T06:00:29Z</time></trkpt><trkpt lat="43.276414870723805" lon="10.55003405323703"><ele>13.0</ele><time>2026-04-04T06:00:30Z</time></trkpt><trkpt lat="43.276405812808505" lon="10.549947580403492"><ele>13.0</ele><time>2026-04-04T06:00:31Z</time></trkpt><trkpt lat="43.27639629816665" lon="10.549860604376034"><ele>13.0</ele><time>2026-04-04T06:00:32Z</time></trkpt><trkpt lat="43.276386717062145" lon="10.549774146748"><ele>12.75</ele><time>2026-04-04T06:00:32.999Z</time></trkpt><trkpt lat="43.276378654129786" lon="10.549603883523318"><ele>12.5</ele><time>2026-04-04T06:00:34.999Z</time></trkpt><trkpt lat="43.2763749558865" lon="10.549435132552478"><ele>12.25</ele><time>2026-04-04T06:00:36.999Z</time></trkpt><trkpt lat="43.27639055784542" lon="10.54927311890038"><ele>12.0</ele><time>2026-04-04T06:00:38.999Z</time></trkpt><trkpt lat="43.276423732240445" lon="10.54911052150213"><ele>12.0</ele><time>2026-04-04T06:00:40.999Z</time></trkpt><trkpt lat="43.27647307954738" lon="10.548957001685356"><ele>12.0</ele><time>2026-04-04T06:00:42.999Z</time></trkpt><trkpt lat="43.276553014494745" lon="10.548827857735313"><ele>12.0</ele><time>2026-04-04T06:00:44.999Z</time></trkpt><trkpt lat="43.27663907228838" lon="10.548720209246557"><ele>12.0</ele><time>2026-04-04T06:00:46.999Z</time></trkpt><trkpt lat="43.276734180331296" lon="10.548615778978307"><ele>11.8</ele><time>2026-04-04T06:00:48.999Z</time></trkpt><trkpt lat="43.276780755105605" lon="10.548553131037856"><ele>11.6</ele><time>2026-04-04T06:00:49.999Z</time></trkpt><trkpt lat="43.27686669286568" lon="10.548452713870335"><ele>11.4</ele><time>2026-04-04T06:00:51.999Z</time></trkpt><trkpt lat="43.276953740349356" lon="10.548355029022517"><ele>11.200000000000001</ele><time>2026-04-04T06:00:53.999Z</time></trkpt><trkpt lat="43.27703068829129" lon="10.548254907081438"><ele>11.0</ele><time>2026-04-04T06:00:55.999Z</time></trkpt><trkpt lat="43.2771099651762" lon="10.54815616976006"><ele>11.0</ele><time>2026-04-04T06:00:57.999Z</time></trkpt><trkpt lat="43.27717523959524" lon="10.548045163246202"><ele>11.0</ele><time>2026-04-04T06:00:59.999Z</time></trkpt><trkpt lat="43.277173614337784" lon="10.54789735415387"><ele>11.0</ele><time>2026-04-04T06:01:01.999Z</time></trkpt><trkpt lat="43.27709342761555" lon="10.547800925732279"><ele>11.0</ele><time>2026-04-04T06:01:03.999Z</time></trkpt><trkpt lat="43.277003989723546" lon="10.547713923148919"><ele>11.0</ele><time>2026-04-04T06:01:05.999Z</time></trkpt><trkpt lat="43.276910620502846" lon="10.547624251208468"><ele>11.166666666666666</ele><time>2026-04-04T06:01:07.999Z</time></trkpt><trkpt lat="43.276828641835046" lon="10.547506501983943"><ele>11.333333333333332</ele><time>2026-04-04T06:01:09.999Z</time></trkpt><trkpt lat="43.27673678388621" lon="10.547390146986578"><ele>11.5</ele><time>2026-04-04T06:01:11.999Z</time></trkpt><trkpt lat="43.27668728261266" lon="10.547329614309602"><ele>11.666666666666666</ele><time>2026-04-04T06:01:12.999Z</time></trkpt><trkpt lat="43.27663989774042" lon="10.547266177941276"><ele>11.833333333333334</ele><time>2026-04-04T06:01:13.999Z</time></trkpt><trkpt lat="43.27659005109982" lon="10.547203398218095"><ele>12.0</ele><time>2026-04-04T06:01:14.999Z</time></trkpt><trkpt lat="43.27654224717127" lon="10.547142403369039"><ele>11.999999999999998</ele><time>2026-04-04T06:01:15.999Z</time></trkpt><trkpt lat="43.27649366797843" lon="10.547080976054216"><ele>12.0</ele><time>2026-04-04T06:01:16.999Z</time></trkpt><trkpt lat="43.276446231082794" lon="10.547019536629843"><ele>12.0</ele><time>2026-04-04T06:01:17.999Z</time></trkpt><trkpt lat="43.27640017184604" lon="10.546959594696151"><ele>12.0</ele><time>2026-04-04T06:01:18.999Z</time></trkpt><trkpt lat="43.27635421801956" lon="10.546897498900021"><ele>12.0</ele><time>2026-04-04T06:01:19.999Z</time></trkpt><trkpt lat="43.27630742718164" lon="10.546837182461791"><ele>11.999999999999998</ele><time>2026-04-04T06:01:20.999Z</time></trkpt><trkpt lat="43.276260246395054" lon="10.546778736005619"><ele>12.0</ele><time>2026-04-04T06:01:21.999Z</time></trkpt><trkpt lat="43.27621361503482" lon="10.546713118259351"><ele>11.857142857142856</ele><time>2026-04-04T06:01:22.999Z</time></trkpt><trkpt lat="43.27616765352422" lon="10.546649144849168"><ele>11.714285714285714</ele><time>2026-04-04T06:01:23.999Z</time></trkpt><trkpt lat="43.27612015478893" lon="10.546588285558991"><ele>11.571428571428571</ele><time>2026-04-04T06:01:24.999Z</time></trkpt><trkpt lat="43.27607519144222" lon="10.546526783258166"><ele>11.428571428571427</ele><time>2026-04-04T06:01:25.999Z</time></trkpt><trkpt lat="43.276030291420426" lon="10.546464540595776"><ele>11.285714285714285</ele><time>2026-04-04T06:01:26.998Z</time></trkpt><trkpt lat="43.2759858414237" lon="10.546403256708398"><ele>11.142857142857142</ele><time>2026-04-04T06:01:27.998Z</time></trkpt><trkpt lat="43.27593798055202" lon="10.546343075695118"><ele>11.0</ele><time>2026-04-04T06:01:28.998Z</time></trkpt><trkpt lat="43.27589312415099" lon="10.546280018032295"><ele>11.0</ele><time>2026-04-04T06:01:29.998Z</time></trkpt><trkpt lat="43.27584582309678" lon="10.54621875856445"><ele>11.0</ele><time>2026-04-04T06:01:30.998Z</time></trkpt><trkpt lat="43.27580026865451" lon="10.546156649783395"><ele>11.0</ele><time>2026-04-04T06:01:31.998Z</time></trkpt><trkpt lat="43.275755360286524" lon="10.546095319910828"><ele>11.0</ele><time>2026-04-04T06:01:32.998Z</time></trkpt><trkpt lat="43.2757078690388" lon="10.546035539935955"><ele>11.0</ele><time>2026-04-04T06:01:33.998Z</time></trkpt><trkpt lat="43.275662104290404" lon="10.545971391122364"><ele>11.0</ele><time>2026-04-04T06:01:34.998Z</time></trkpt><trkpt lat="43.27561635711836" lon="10.545909150062888"><ele>11.0</ele><time>2026-04-04T06:01:35.998Z</time></trkpt><trkpt lat="43.27557025568676" lon="10.54584806316464"><ele>10.4</ele><time>2026-04-04T06:01:36.998Z</time></trkpt><trkpt lat="43.27552367033523" lon="10.54578880616666"><ele>9.8</ele><time>2026-04-04T06:01:37.998Z</time></trkpt><trkpt lat="43.275478628266725" lon="10.545727635369333"><ele>9.200000000000001</ele><time>2026-04-04T06:01:38.998Z</time></trkpt><trkpt lat="43.27539973212689" lon="10.545599974225164"><ele>8.600000000000001</ele><time>2026-04-04T06:01:40.998Z</time></trkpt><trkpt lat="43.27530120180951" lon="10.545498956991137"><ele>8.0</ele><time>2026-04-04T06:01:42.998Z</time></trkpt><trkpt lat="43.27521724384247" lon="10.545382270434592"><ele>8.25</ele><time>2026-04-04T06:01:44.998Z</time></trkpt><trkpt lat="43.275133323389824" lon="10.545270614810352"><ele>8.5</ele><time>2026-04-04T06:01:46.998Z</time></trkpt><trkpt lat="43.27504387962932" lon="10.545162468409078"><ele>8.75</ele><time>2026-04-04T06:01:48.998Z</time></trkpt><trkpt lat="43.27496018861936" lon="10.545049283652954"><ele>9.0</ele><time>2026-04-04T06:01:50.998Z</time></trkpt><trkpt lat="43.27487482404909" lon="10.544939105539893"><ele>9.0</ele><time>2026-04-04T06:01:52.998Z</time></trkpt><trkpt lat="43.274799618388805" lon="10.54481925038193"><ele>9.0</ele><time>2026-04-04T06:01:54.998Z</time></trkpt><trkpt lat="43.27475131398895" lon="10.54467464292974"><ele>9.0</ele><time>2026-04-04T06:01:56.998Z</time></trkpt><trkpt lat="43.27474088477265" lon="10.544523300484641"><ele>9.0</ele><time>2026-04-04T06:01:58.998Z</time></trkpt><trkpt lat="43.27473258346159" lon="10.544379542816879"><ele>9.0</ele><time>2026-04-04T06:02:00.998Z</time></trkpt><trkpt lat="43.27472771948862" lon="10.544229930306708"><ele>8.8</ele><time>2026-04-04T06:02:02.998Z</time></trkpt><trkpt lat="43.27472583396299" lon="10.544082158132131"><ele>8.600000000000001</ele><time>2026-04-04T06:02:04.998Z</time></trkpt><trkpt lat="43.274728042016314" lon="10.543933827025526"><ele>8.4</ele><time>2026-04-04T06:02:06.998Z</time></trkpt><trkpt lat="43.27473158098094" lon="10.5437807744056"><ele>8.200000000000001</ele><time>2026-04-04T06:02:08.999Z</time></trkpt><trkpt lat="43.27473931913805" lon="10.543627306951462"><ele>8.0</ele><time>2026-04-04T06:02:10.999Z</time></trkpt><trkpt lat="43.274753550277815" lon="10.543470820862709"><ele>8.0</ele><time>2026-04-04T06:02:12.999Z</time></trkpt><trkpt lat="43.27477396002648" lon="10.543318418466638"><ele>8.0</ele><time>2026-04-04T06:02:14.999Z</time></trkpt><trkpt lat="43.2747925590396" lon="10.543160187527148"><ele>8.0</ele><time>2026-04-04T06:02:16.999Z</time></trkpt><trkpt lat="43.274812887134274" lon="10.543004548214801"><ele>8.0</ele><time>2026-04-04T06:02:18.999Z</time></trkpt><trkpt lat="43.274832326653254" lon="10.542844875820725"><ele>8.0</ele><time>2026-04-04T06:02:20.999Z</time></trkpt><trkpt lat="43.27485220776455" lon="10.542684977756153"><ele>8.0</ele><time>2026-04-04T06:02:22.999Z</time></trkpt><trkpt lat="43.2748726650235" lon="10.542526069585005"><ele>8.0</ele><time>2026-04-04T06:02:24.999Z</time></trkpt><trkpt lat="43.27489142390238" lon="10.542367833716929"><ele>8.0</ele><time>2026-04-04T06:02:26.999Z</time></trkpt><trkpt lat="43.27490724241494" lon="10.542214305909566"><ele>8.0</ele><time>2026-04-04T06:02:28.999Z</time></trkpt><trkpt lat="43.27492696340148" lon="10.54206166684761"><ele>8.0</ele><time>2026-04-04T06:02:30.999Z</time></trkpt><trkpt lat="43.2749449079378" lon="10.541914763668116"><ele>8.0</ele><time>2026-04-04T06:02:32.999Z</time></trkpt><trkpt lat="43.27496080937141" lon="10.541784283219638"><ele>8.0</ele><time>2026-04-04T06:02:34.999Z</time></trkpt><trkpt lat="43.27497326776922" lon="10.541656884297758"><ele>8.0</ele><time>2026-04-04T06:02:36.999Z</time></trkpt><trkpt lat="43.27498914933812" lon="10.541544474890365"><ele>8.166666666666666</ele><time>2026-04-04T06:02:38.999Z</time></trkpt><trkpt lat="43.275007214970735" lon="10.54144924335134"><ele>8.333333333333332</ele><time>2026-04-04T06:02:40.999Z</time></trkpt><trkpt lat="43.27505176892009" lon="10.541381074181011"><ele>8.5</ele><time>2026-04-04T06:02:43.999Z</time></trkpt><trkpt lat="43.27513023573184" lon="10.541330766282357"><ele>8.666666666666666</ele><time>2026-04-04T06:02:46.999Z</time></trkpt><trkpt lat="43.2752182655646" lon="10.541300678210147"><ele>8.833333333333334</ele><time>2026-04-04T06:02:48.999Z</time></trkpt><trkpt lat="43.27532307856303" lon="10.541263193728907"><ele>9.0</ele><time>2026-04-04T06:02:50.999Z</time></trkpt><trkpt lat="43.275514514073905" lon="10.541214057684908"><ele>8.714285714285715</ele><time>2026-04-04T06:02:53.999Z</time></trkpt><trkpt lat="43.27557630576134" lon="10.541193422860845"><ele>8.428571428571429</ele><time>2026-04-04T06:02:54.999Z</time></trkpt><trkpt lat="43.27564191877002" lon="10.541172020150853"><ele>8.142857142857142</ele><time>2026-04-04T06:02:55.999Z</time></trkpt><trkpt lat="43.275708721643255" lon="10.541150476390847"><ele>7.857142857142858</ele><time>2026-04-04T06:02:56.999Z</time></trkpt><trkpt lat="43.2757777244659" lon="10.541129027599538"><ele>7.571428571428571</ele><time>2026-04-04T06:02:57.999Z</time></trkpt><trkpt lat="43.275846019214306" lon="10.54110699690125"><ele>7.285714285714286</ele><time>2026-04-04T06:02:58.999Z</time></trkpt><trkpt lat="43.275916291806304" lon="10.541085258504092"><ele>7.0</ele><time>2026-04-04T06:02:59.999Z</time></trkpt><trkpt lat="43.27598927944974" lon="10.541057394136878"><ele>6.833333333333334</ele><time>2026-04-04T06:03:00.999Z</time></trkpt><trkpt lat="43.27606368557352" lon="10.541036077139417"><ele>6.666666666666667</ele><time>2026-04-04T06:03:01.999Z</time></trkpt><trkpt lat="43.27613922526581" lon="10.5410118330772"><ele>6.5</ele><time>2026-04-04T06:03:02.999Z</time></trkpt><trkpt lat="43.27621309168259" lon="10.540984638333281"><ele>6.333333333333334</ele><time>2026-04-04T06:03:03.999Z</time></trkpt><trkpt lat="43.27628667497328" lon="10.540959397666667"><ele>6.166666666666667</ele><time>2026-04-04T06:03:04.999Z</time></trkpt><trkpt lat="43.27636353739795" lon="10.540931674483222"><ele>6.0</ele><time>2026-04-04T06:03:05.999Z</time></trkpt><trkpt lat="43.27644083436585" lon="10.540907044482259"><ele>5.833333333333333</ele><time>2026-04-04T06:03:06.999Z</time></trkpt><trkpt lat="43.27651788300784" lon="10.54088407077266"><ele>5.666666666666667</ele><time>2026-04-04T06:03:07.999Z</time></trkpt><trkpt lat="43.27659716093966" lon="10.540859189869952"><ele>5.5</ele><time>2026-04-04T06:03:08.999Z</time></trkpt><trkpt lat="43.27667548983489" lon="10.540841898639671"><ele>5.333333333333334</ele><time>2026-04-04T06:03:09.998Z</time></trkpt><trkpt lat="43.27674900555636" lon="10.540820301593477"><ele>5.166666666666667</ele><time>2026-04-04T06:03:10.998Z</time></trkpt><trkpt lat="43.276828346617144" lon="10.540800219694816"><ele>5.0</ele><time>2026-04-04T06:03:11.998Z</time></trkpt><trkpt lat="43.27690193753016" lon="10.540775866732378"><ele>5.0</ele><time>2026-04-04T06:03:12.998Z</time></trkpt><trkpt lat="43.276976308579144" lon="10.54075014861411"><ele>5.0</ele><time>2026-04-04T06:03:13.998Z</time></trkpt><trkpt lat="43.277053935617815" lon="10.540722631986888"><ele>5.0</ele><time>2026-04-04T06:03:14.998Z</time></trkpt><trkpt lat="43.27712862761635" lon="10.540698062333"><ele>5.0</ele><time>2026-04-04T06:03:15.998Z</time></trkpt><trkpt lat="43.2772003889665" lon="10.540675254777174"><ele>5.0</ele><time>2026-04-04T06:03:16.998Z</time></trkpt><trkpt lat="43.27727521656932" lon="10.540648985000201"><ele>5.0</ele><time>2026-04-04T06:03:17.998Z</time></trkpt><trkpt lat="43.277351182997705" lon="10.540629572472575"><ele>5.166666666666667</ele><time>2026-04-04T06:03:18.998Z</time></trkpt><trkpt lat="43.27742367432775" lon="10.540609375947662"><ele>5.333333333333334</ele><time>2026-04-04T06:03:19.998Z</time></trkpt><trkpt lat="43.27749725161516" lon="10.540583843196613"><ele>5.5</ele><time>2026-04-04T06:03:20.998Z</time></trkpt><trkpt lat="43.2775719965271" lon="10.540555706348336"><ele>5.666666666666667</ele><time>2026-04-04T06:03:21.998Z</time></trkpt><trkpt lat="43.27765031917084" lon="10.5405274349997"><ele>5.833333333333333</ele><time>2026-04-04T06:03:22.998Z</time></trkpt><trkpt lat="43.27772452921979" lon="10.540504184470635"><ele>6.0</ele><time>2026-04-04T06:03:23.998Z</time></trkpt><trkpt lat="43.277796769285835" lon="10.54047954487979"><ele>6.0</ele><time>2026-04-04T06:03:24.998Z</time></trkpt><trkpt lat="43.27787109085308" lon="10.540458330109026"><ele>6.0</ele><time>2026-04-04T06:03:25.998Z</time></trkpt><trkpt lat="43.277946807457035" lon="10.540437734731343"><ele>6.0</ele><time>2026-04-04T06:03:26.998Z</time></trkpt><trkpt lat="43.27802218844795" lon="10.540416977909395"><ele>6.0</ele><time>2026-04-04T06:03:27.998Z</time></trkpt><trkpt lat="43.27809662278367" lon="10.54039282746175"><ele>6.0</ele><time>2026-04-04T06:03:28.998Z</time></trkpt><trkpt lat="43.278171377924814" lon="10.540369290608927"><ele>6.0</ele><time>2026-04-04T06:03:29.998Z</time></trkpt><trkpt lat="43.27824162498286" lon="10.54034383347501"><ele>6.142857142857142</ele><time>2026-04-04T06:03:30.998Z</time></trkpt><trkpt lat="43.278311276541736" lon="10.540313000076905"><ele>6.285714285714286</ele><time>2026-04-04T06:03:31.998Z</time></trkpt><trkpt lat="43.27837817122633" lon="10.540282121544637"><ele>6.428571428571429</ele><time>2026-04-04T06:03:32.998Z</time></trkpt><trkpt lat="43.27844472878925" lon="10.540245790199293"><ele>6.571428571428571</ele><time>2026-04-04T06:03:33.998Z</time></trkpt><trkpt lat="43.27850898293774" lon="10.540205708989705"><ele>6.714285714285714</ele><time>2026-04-04T06:03:34.998Z</time></trkpt><trkpt lat="43.27857066352449" lon="10.540160023456043"><ele>6.857142857142857</ele><time>2026-04-04T06:03:35.998Z</time></trkpt><trkpt lat="43.278633895456686" lon="10.540117583597194"><ele>7.0</ele><time>2026-04-04T06:03:36.998Z</time></trkpt><trkpt lat="43.27869299986865" lon="10.54007121860932"><ele>7.0</ele><time>2026-04-04T06:03:37.998Z</time></trkpt><trkpt lat="43.2788177781988" lon="10.539945777168265"><ele>6.999999999999999</ele><time>2026-04-04T06:03:39.998Z</time></trkpt><trkpt lat="43.27888151238625" lon="10.539918677241525"><ele>6.999999999999999</ele><time>2026-04-04T06:03:40.998Z</time></trkpt><trkpt lat="43.27897884877011" lon="10.539847055264001"><ele>7.0</ele><time>2026-04-04T06:03:42.998Z</time></trkpt><trkpt lat="43.27903720934052" lon="10.539803348857195"><ele>7.0</ele><time>2026-04-04T06:03:43.998Z</time></trkpt><trkpt lat="43.279089682142505" lon="10.539754547923168"><ele>7.6</ele><time>2026-04-04T06:03:44.998Z</time></trkpt><trkpt lat="43.27918865782922" lon="10.539672942739216"><ele>8.2</ele><time>2026-04-04T06:03:46.998Z</time></trkpt><trkpt lat="43.27928835006066" lon="10.539602524738951"><ele>8.8</ele><time>2026-04-04T06:03:48.998Z</time></trkpt><trkpt lat="43.27935160228223" lon="10.539635981385576"><ele>9.4</ele><time>2026-04-04T06:03:50.998Z</time></trkpt><trkpt lat="43.27933913434967" lon="10.539768917722627"><ele>10.0</ele><time>2026-04-04T06:03:51.998Z</time></trkpt><trkpt lat="43.27938964949054" lon="10.53982106290144"><ele>10.0</ele><time>2026-04-04T06:03:52.998Z</time></trkpt><trkpt lat="43.279378406154514" lon="10.539912460901409"><ele>10.0</ele><time>2026-04-04T06:03:53.998Z</time></trkpt><trkpt lat="43.27941809967366" lon="10.540057079526619"><ele>10.0</ele><time>2026-04-04T06:03:55.998Z</time></trkpt><trkpt lat="43.2794636221836" lon="10.540208599887764"><ele>10.0</ele><time>2026-04-04T06:03:57.998Z</time></trkpt><trkpt lat="43.279502853546774" lon="10.540340322826758"><ele>10.0</ele><time>2026-04-04T06:03:59.998Z</time></trkpt><trkpt lat="43.27955135683456" lon="10.540467957924035"><ele>10.2</ele><time>2026-04-04T06:04:01.998Z</time></trkpt><trkpt lat="43.27958754971906" lon="10.5406040713798"><ele>10.4</ele><time>2026-04-04T06:04:03.998Z</time></trkpt><trkpt lat="43.27961248574383" lon="10.540708932398955"><ele>10.600000000000001</ele><time>2026-04-04T06:04:04.997Z</time></trkpt><trkpt lat="43.27965368433243" lon="10.54084513117665"><ele>10.8</ele><time>2026-04-04T06:04:05.997Z</time></trkpt><trkpt lat="43.27967796805773" lon="10.540926012521094"><ele>11.0</ele><time>2026-04-04T06:04:06.997Z</time></trkpt><trkpt lat="43.27973237208514" lon="10.541058218096342"><ele>11.0</ele><time>2026-04-04T06:04:08.997Z</time></trkpt><trkpt lat="43.279760405777864" lon="10.541209361737103"><ele>11.0</ele><time>2026-04-04T06:04:10.997Z</time></trkpt><trkpt lat="43.279803542748105" lon="10.541357263718455"><ele>11.0</ele><time>2026-04-04T06:04:12.997Z</time></trkpt><trkpt lat="43.27984822905758" lon="10.541506297244982"><ele>11.0</ele><time>2026-04-04T06:04:14.999Z</time></trkpt><trkpt lat="43.27989166433235" lon="10.541656590705044"><ele>10.0</ele><time>2026-04-04T06:04:16.999Z</time></trkpt><trkpt lat="43.27994366482976" lon="10.541786668884388"><ele>9.0</ele><time>2026-04-04T06:04:18.999Z</time></trkpt><trkpt lat="43.27997289801702" lon="10.54194393426449"><ele>8.0</ele><time>2026-04-04T06:04:20.999Z</time></trkpt><trkpt lat="43.28001441352474" lon="10.542088549476613"><ele>7.0</ele><time>2026-04-04T06:04:22.999Z</time></trkpt><trkpt lat="43.280058431159794" lon="10.542233350458112"><ele>7.0</ele><time>2026-04-04T06:04:24.999Z</time></trkpt><trkpt lat="43.28010040102361" lon="10.542371691711617"><ele>6.999999999999999</ele><time>2026-04-04T06:04:26.999Z</time></trkpt><trkpt lat="43.2801429068163" lon="10.542511799394072"><ele>6.999999999999999</ele><time>2026-04-04T06:04:28.999Z</time></trkpt><trkpt lat="43.280186557706514" lon="10.542655681687526"><ele>7.0</ele><time>2026-04-04T06:04:30.999Z</time></trkpt><trkpt lat="43.28024126498738" lon="10.542790825548833"><ele>7.0</ele><time>2026-04-04T06:04:32.999Z</time></trkpt><trkpt lat="43.28028385885308" lon="10.542931070840584"><ele>7.3999999999999995</ele><time>2026-04-04T06:04:34.999Z</time></trkpt><trkpt lat="43.28032807820402" lon="10.543072997028792"><ele>7.799999999999999</ele><time>2026-04-04T06:04:36.999Z</time></trkpt><trkpt lat="43.28036683906197" lon="10.543214067345628"><ele>8.2</ele><time>2026-04-04T06:04:38.999Z</time></trkpt><trkpt lat="43.28039559610317" lon="10.543363178912877"><ele>8.6</ele><time>2026-04-04T06:04:40.999Z</time></trkpt><trkpt lat="43.28043735121934" lon="10.543505217112834"><ele>9.0</ele><time>2026-04-04T06:04:42.999Z</time></trkpt><trkpt lat="43.280478365742624" lon="10.543646608177518"><ele>9.2</ele><time>2026-04-04T06:04:44.999Z</time></trkpt><trkpt lat="43.28051893546973" lon="10.543786465955364"><ele>9.4</ele><time>2026-04-04T06:04:46.999Z</time></trkpt><trkpt lat="43.28055840310081" lon="10.543924375779236"><ele>9.6</ele><time>2026-04-04T06:04:48.999Z</time></trkpt><trkpt lat="43.280596032808795" lon="10.544057383126184"><ele>9.8</ele><time>2026-04-04T06:04:50.999Z</time></trkpt><trkpt lat="43.28063296995512" lon="10.544187942513743"><ele>10.0</ele><time>2026-04-04T06:04:52.999Z</time></trkpt><trkpt lat="43.28068973198268" lon="10.544300301457323"><ele>10.0</ele><time>2026-04-04T06:04:54.999Z</time></trkpt><trkpt lat="43.280726720306006" lon="10.54442699449571"><ele>10.0</ele><time>2026-04-04T06:04:56.999Z</time></trkpt><trkpt lat="43.28076731341654" lon="10.54455979817892"><ele>10.0</ele><time>2026-04-04T06:04:58.999Z</time></trkpt><trkpt lat="43.28078138416619" lon="10.544704694208948"><ele>10.0</ele><time>2026-04-04T06:05:00.999Z</time></trkpt><trkpt lat="43.28081754387909" lon="10.544829961030803"><ele>10.0</ele><time>2026-04-04T06:05:02.999Z</time></trkpt><trkpt lat="43.28085109272386" lon="10.5449453801884"><ele>10.4</ele><time>2026-04-04T06:05:04.999Z</time></trkpt><trkpt lat="43.280891993822266" lon="10.545077125804646"><ele>10.8</ele><time>2026-04-04T06:05:07.999Z</time></trkpt><trkpt lat="43.28092779123146" lon="10.54518938839726"><ele>11.2</ele><time>2026-04-04T06:05:09.999Z</time></trkpt><trkpt lat="43.280956016295505" lon="10.54527284122554"><ele>11.6</ele><time>2026-04-04T06:05:12.999Z</time></trkpt><trkpt lat="43.28112648085556" lon="10.545183724687767"><ele>12.0</ele><time>2026-04-04T06:05:15.999Z</time></trkpt><trkpt lat="43.28121097362969" lon="10.54509834029307"><ele>12.0</ele><time>2026-04-04T06:05:17.999Z</time></trkpt><trkpt lat="43.28129644600346" lon="10.545008456672115"><ele>12.0</ele><time>2026-04-04T06:05:19.999Z</time></trkpt><trkpt lat="43.281392667871856" lon="10.544910714873216"><ele>12.0</ele><time>2026-04-04T06:05:21.999Z</time></trkpt><trkpt lat="43.281498380418526" lon="10.544810964016785"><ele>12.0</ele><time>2026-04-04T06:05:23.998Z</time></trkpt><trkpt lat="43.28160031227224" lon="10.544722416918022"><ele>12.0</ele><time>2026-04-04T06:05:25.998Z</time></trkpt><trkpt lat="43.28170213755967" lon="10.544626610937316"><ele>12.0</ele><time>2026-04-04T06:05:27.998Z</time></trkpt><trkpt lat="43.28179085037601" lon="10.544531957795702"><ele>12.0</ele><time>2026-04-04T06:05:29.998Z</time></trkpt><trkpt lat="43.28184434274179" lon="10.544482607857441"><ele>12.0</ele><time>2026-04-04T06:05:30.998Z</time></trkpt><trkpt lat="43.281905258418156" lon="10.544450413281279"><ele>12.0</ele><time>2026-04-04T06:05:31.998Z</time></trkpt><trkpt lat="43.28201000964515" lon="10.544355806352865"><ele>11.857142857142856</ele><time>2026-04-04T06:05:33.998Z</time></trkpt><trkpt lat="43.28206570619294" lon="10.544305503442404"><ele>11.714285714285714</ele><time>2026-04-04T06:05:34.998Z</time></trkpt><trkpt lat="43.28212146176905" lon="10.544255147440051"><ele>11.571428571428571</ele><time>2026-04-04T06:05:35.998Z</time></trkpt><trkpt lat="43.28218126888393" lon="10.54420113210106"><ele>11.428571428571427</ele><time>2026-04-04T06:05:36.998Z</time></trkpt><trkpt lat="43.28223616861528" lon="10.544151471440768"><ele>11.285714285714285</ele><time>2026-04-04T06:05:37.998Z</time></trkpt><trkpt lat="43.282290755215" lon="10.544101671247773"><ele>11.142857142857142</ele><time>2026-04-04T06:05:38.998Z</time></trkpt><trkpt lat="43.282347896970705" lon="10.54404812067222"><ele>11.0</ele><time>2026-04-04T06:05:39.998Z</time></trkpt><trkpt lat="43.28240372663395" lon="10.543992879758546"><ele>11.0</ele><time>2026-04-04T06:05:40.998Z</time></trkpt><trkpt lat="43.2824589082862" lon="10.54393432801479"><ele>11.0</ele><time>2026-04-04T06:05:41.998Z</time></trkpt><trkpt lat="43.28251302582973" lon="10.5438785866267"><ele>11.0</ele><time>2026-04-04T06:05:42.998Z</time></trkpt><trkpt lat="43.28256900287458" lon="10.543825241725804"><ele>11.0</ele><time>2026-04-04T06:05:43.998Z</time></trkpt><trkpt lat="43.282616045920896" lon="10.543755863313121"><ele>11.0</ele><time>2026-04-04T06:05:44.998Z</time></trkpt><trkpt lat="43.28267339682795" lon="10.54370367627226"><ele>11.0</ele><time>2026-04-04T06:05:45.998Z</time></trkpt><trkpt lat="43.28272801673114" lon="10.54365309497681"><ele>11.0</ele><time>2026-04-04T06:05:46.998Z</time></trkpt><trkpt lat="43.28278431891373" lon="10.543604630043411"><ele>11.0</ele><time>2026-04-04T06:05:47.998Z</time></trkpt><trkpt lat="43.28283866890605" lon="10.543554371736752"><ele>11.0</ele><time>2026-04-04T06:05:48.998Z</time></trkpt><trkpt lat="43.2829033819744" lon="10.543521509221932"><ele>11.0</ele><time>2026-04-04T06:05:49.998Z</time></trkpt><trkpt lat="43.282960493410314" lon="10.543469855579229"><ele>11.0</ele><time>2026-04-04T06:05:50.998Z</time></trkpt><trkpt lat="43.28301463381918" lon="10.543420302045146"><ele>11.0</ele><time>2026-04-04T06:05:51.998Z</time></trkpt><trkpt lat="43.2830687359869" lon="10.543370061571425"><ele>11.0</ele><time>2026-04-04T06:05:52.998Z</time></trkpt><trkpt lat="43.28311195020586" lon="10.543302411334"><ele>11.0</ele><time>2026-04-04T06:05:53.998Z</time></trkpt><trkpt lat="43.28316700875304" lon="10.543256434430809"><ele>11.0</ele><time>2026-04-04T06:05:54.998Z</time></trkpt><trkpt lat="43.28322092863518" lon="10.54321145603847"><ele>11.0</ele><time>2026-04-04T06:05:55.998Z</time></trkpt><trkpt lat="43.28332228320891" lon="10.543113282243652"><ele>11.0</ele><time>2026-04-04T06:05:57.998Z</time></trkpt><trkpt lat="43.28341834542994" lon="10.543022983490605"><ele>11.0</ele><time>2026-04-04T06:05:59.998Z</time></trkpt><trkpt lat="43.28351920764369" lon="10.54293187257694"><ele>11.0</ele><time>2026-04-04T06:06:01.998Z</time></trkpt><trkpt lat="43.283614722511224" lon="10.542843964509588"><ele>11.5</ele><time>2026-04-04T06:06:03.998Z</time></trkpt><trkpt lat="43.28371219859952" lon="10.542753667581595"><ele>12.0</ele><time>2026-04-04T06:06:05.998Z</time></trkpt><trkpt lat="43.28381698190639" lon="10.542684880251995"><ele>12.5</ele><time>2026-04-04T06:06:07.998Z</time></trkpt><trkpt lat="43.28391172572603" lon="10.542597670829437"><ele>13.0</ele><time>2026-04-04T06:06:09.998Z</time></trkpt><trkpt lat="43.28399483410415" lon="10.54248871532446"><ele>13.0</ele><time>2026-04-04T06:06:11.998Z</time></trkpt><trkpt lat="43.28408953323457" lon="10.542402485382803"><ele>13.0</ele><time>2026-04-04T06:06:13.998Z</time></trkpt><trkpt lat="43.284182939245746" lon="10.542315753916611"><ele>13.0</ele><time>2026-04-04T06:06:15.998Z</time></trkpt><trkpt lat="43.284278412847584" lon="10.542228964913212"><ele>13.0</ele><time>2026-04-04T06:06:17.998Z</time></trkpt><trkpt lat="43.28436342589894" lon="10.542143444305884"><ele>13.0</ele><time>2026-04-04T06:06:19.999Z</time></trkpt><trkpt lat="43.284470036868015" lon="10.542059282742132"><ele>12.600000000000001</ele><time>2026-04-04T06:06:21.999Z</time></trkpt><trkpt lat="43.28452448463612" lon="10.542012831251323"><ele>12.200000000000001</ele><time>2026-04-04T06:06:22.999Z</time></trkpt><trkpt lat="43.28457575166834" lon="10.541959948244886"><ele>11.8</ele><time>2026-04-04T06:06:23.999Z</time></trkpt><trkpt lat="43.28467790055475" lon="10.541867989184565"><ele>11.4</ele><time>2026-04-04T06:06:25.999Z</time></trkpt><trkpt lat="43.28477962460632" lon="10.54178976827361"><ele>11.0</ele><time>2026-04-04T06:06:27.999Z</time></trkpt><trkpt lat="43.28487746434049" lon="10.54171277449763"><ele>10.5</ele><time>2026-04-04T06:06:29.999Z</time></trkpt><trkpt lat="43.28498103735366" lon="10.541640663410602"><ele>10.0</ele><time>2026-04-04T06:06:31.999Z</time></trkpt><trkpt lat="43.285079934692035" lon="10.541561867886783"><ele>9.5</ele><time>2026-04-04T06:06:33.999Z</time></trkpt><trkpt lat="43.285177498195765" lon="10.541486038099181"><ele>9.0</ele><time>2026-04-04T06:06:35.999Z</time></trkpt><trkpt lat="43.285277545794976" lon="10.541416544016695"><ele>9.0</ele><time>2026-04-04T06:06:37.999Z</time></trkpt><trkpt lat="43.285372886209565" lon="10.541342062296595"><ele>9.0</ele><time>2026-04-04T06:06:39.999Z</time></trkpt><trkpt lat="43.285468991507116" lon="10.541297523049616"><ele>9.0</ele><time>2026-04-04T06:06:41.999Z</time></trkpt><trkpt lat="43.2855585721238" lon="10.541232209181643"><ele>9.0</ele><time>2026-04-04T06:06:43.999Z</time></trkpt><trkpt lat="43.285640314834616" lon="10.54114680553596"><ele>9.0</ele><time>2026-04-04T06:06:45.999Z</time></trkpt><trkpt lat="43.28572969366543" lon="10.54108431388912"><ele>9.6</ele><time>2026-04-04T06:06:47.999Z</time></trkpt><trkpt lat="43.28581963398198" lon="10.541018393619291"><ele>10.2</ele><time>2026-04-04T06:06:49.999Z</time></trkpt><trkpt lat="43.285916360852426" lon="10.540965507605724"><ele>10.799999999999999</ele><time>2026-04-04T06:06:51.999Z</time></trkpt><trkpt lat="43.285981394409966" lon="10.540890895313202"><ele>11.4</ele><time>2026-04-04T06:06:54.999Z</time></trkpt><trkpt lat="43.28608870815941" lon="10.540824141947805"><ele>12.0</ele><time>2026-04-04T06:06:55.999Z</time></trkpt><trkpt lat="43.286177827954134" lon="10.5407646026911"><ele>12.0</ele><time>2026-04-04T06:06:57.999Z</time></trkpt><trkpt lat="43.28626803897371" lon="10.540696028852853"><ele>12.0</ele><time>2026-04-04T06:06:59.999Z</time></trkpt><trkpt lat="43.28635649451123" lon="10.540619095169554"><ele>12.0</ele><time>2026-04-04T06:07:01.999Z</time></trkpt><trkpt lat="43.286453247418564" lon="10.540551564782485"><ele>12.0</ele><time>2026-04-04T06:07:03.999Z</time></trkpt><trkpt lat="43.2865510787865" lon="10.54047646322132"><ele>12.0</ele><time>2026-04-04T06:07:05.999Z</time></trkpt><trkpt lat="43.286646025498385" lon="10.540399257600752"><ele>12.0</ele><time>2026-04-04T06:07:07.999Z</time></trkpt><trkpt lat="43.28674718485104" lon="10.540317571607382"><ele>12.0</ele><time>2026-04-04T06:07:09.999Z</time></trkpt><trkpt lat="43.28685438914452" lon="10.540243100939884"><ele>12.0</ele><time>2026-04-04T06:07:11.999Z</time></trkpt><trkpt lat="43.28695880258313" lon="10.540160573241211"><ele>12.0</ele><time>2026-04-04T06:07:13.999Z</time></trkpt><trkpt lat="43.28705725995438" lon="10.540078820081057"><ele>12.0</ele><time>2026-04-04T06:07:15.999Z</time></trkpt><trkpt lat="43.28715438977423" lon="10.539999307356581"><ele>12.0</ele><time>2026-04-04T06:07:17.999Z</time></trkpt><trkpt lat="43.28725195766589" lon="10.539937042531395"><ele>12.0</ele><time>2026-04-04T06:07:19.999Z</time></trkpt><trkpt lat="43.28736346677593" lon="10.539863094862199"><ele>12.0</ele><time>2026-04-04T06:07:21.999Z</time></trkpt><trkpt lat="43.28742135947452" lon="10.539815320803669"><ele>12.0</ele><time>2026-04-04T06:07:22.999Z</time></trkpt><trkpt lat="43.28748403688383" lon="10.539767055899958"><ele>11.666666666666666</ele><time>2026-04-04T06:07:23.999Z</time></trkpt><trkpt lat="43.287545767116974" lon="10.539724596602532"><ele>11.333333333333334</ele><time>2026-04-04T06:07:24.999Z</time></trkpt><trkpt lat="43.28760919924837" lon="10.539673906295478"><ele>11.0</ele><time>2026-04-04T06:07:25.999Z</time></trkpt><trkpt lat="43.28767391821615" lon="10.539620083320942"><ele>10.666666666666668</ele><time>2026-04-04T06:07:26.999Z</time></trkpt><trkpt lat="43.28774055427431" lon="10.539574615078902"><ele>10.333333333333334</ele><time>2026-04-04T06:07:27.999Z</time></trkpt><trkpt lat="43.28781037607372" lon="10.539521967947856"><ele>10.0</ele><time>2026-04-04T06:07:28.999Z</time></trkpt><trkpt lat="43.28787928472163" lon="10.539471517848506"><ele>10.0</ele><time>2026-04-04T06:07:29.999Z</time></trkpt><trkpt lat="43.287948914124" lon="10.539420178039789"><ele>10.0</ele><time>2026-04-04T06:07:30.999Z</time></trkpt><trkpt lat="43.28801759415951" lon="10.53936727679299"><ele>10.0</ele><time>2026-04-04T06:07:31.998Z</time></trkpt><trkpt lat="43.288082722271774" lon="10.539311930919608"><ele>10.0</ele><time>2026-04-04T06:07:32.998Z</time></trkpt><trkpt lat="43.288150068319155" lon="10.53927017962872"><ele>10.0</ele><time>2026-04-04T06:07:33.998Z</time></trkpt><trkpt lat="43.28821250710175" lon="10.539226635676606"><ele>10.0</ele><time>2026-04-04T06:07:34.998Z</time></trkpt><trkpt lat="43.28827336323729" lon="10.539179373240778"><ele>10.0</ele><time>2026-04-04T06:07:35.998Z</time></trkpt><trkpt lat="43.28833046181341" lon="10.539141420011461"><ele>10.0</ele><time>2026-04-04T06:07:36.998Z</time></trkpt><trkpt lat="43.288436798906545" lon="10.539066626494211"><ele>10.0</ele><time>2026-04-04T06:07:38.998Z</time></trkpt><trkpt lat="43.28854335906621" lon="10.538994797216924"><ele>10.0</ele><time>2026-04-04T06:07:40.998Z</time></trkpt><trkpt lat="43.28864681574519" lon="10.538917527660622"><ele>10.0</ele><time>2026-04-04T06:07:42.998Z</time></trkpt><trkpt lat="43.28875112171555" lon="10.53883837934415"><ele>10.0</ele><time>2026-04-04T06:07:44.998Z</time></trkpt><trkpt lat="43.28885375224429" lon="10.53876923166566"><ele>10.0</ele><time>2026-04-04T06:07:46.998Z</time></trkpt><trkpt lat="43.288953682253144" lon="10.538702146192914"><ele>10.0</ele><time>2026-04-04T06:07:48.998Z</time></trkpt><trkpt lat="43.28905149651099" lon="10.538631671044925"><ele>10.0</ele><time>2026-04-04T06:07:50.998Z</time></trkpt><trkpt lat="43.289147064375655" lon="10.538552447407065"><ele>10.0</ele><time>2026-04-04T06:07:52.998Z</time></trkpt><trkpt lat="43.28923993590213" lon="10.538476915370186"><ele>9.8</ele><time>2026-04-04T06:07:54.998Z</time></trkpt><trkpt lat="43.28933043999792" lon="10.538413949184827"><ele>9.6</ele><time>2026-04-04T06:07:56.998Z</time></trkpt><trkpt lat="43.28941452564316" lon="10.538356257166548"><ele>9.4</ele><time>2026-04-04T06:07:58.998Z</time></trkpt><trkpt lat="43.289493566050076" lon="10.53830293961195"><ele>9.2</ele><time>2026-04-04T06:08:02.998Z</time></trkpt><trkpt lat="43.28957029984465" lon="10.538267429719337"><ele>9.0</ele><time>2026-04-04T06:08:04.998Z</time></trkpt><trkpt lat="43.28966040303306" lon="10.538223600012923"><ele>9.0</ele><time>2026-04-04T06:08:06.998Z</time></trkpt><trkpt lat="43.28975043567789" lon="10.538168146717801"><ele>9.0</ele><time>2026-04-04T06:08:08.998Z</time></trkpt><trkpt lat="43.289841436209656" lon="10.538104449475696"><ele>9.0</ele><time>2026-04-04T06:08:10.998Z</time></trkpt><trkpt lat="43.28993794362277" lon="10.538050554733564"><ele>9.0</ele><time>2026-04-04T06:08:12.998Z</time></trkpt><trkpt lat="43.290017197372656" lon="10.538026976666627"><ele>9.0</ele><time>2026-04-04T06:08:14.998Z</time></trkpt><trkpt lat="43.29010541834536" lon="10.537980377760539"><ele>9.6</ele><time>2026-04-04T06:08:16.998Z</time></trkpt><trkpt lat="43.290204766372646" lon="10.537928015144333"><ele>10.2</ele><time>2026-04-04T06:08:18.998Z</time></trkpt><trkpt lat="43.29029445218796" lon="10.537855680330795"><ele>10.799999999999999</ele><time>2026-04-04T06:08:20.998Z</time></trkpt><trkpt lat="43.290425515042834" lon="10.537815811312617"><ele>11.4</ele><time>2026-04-04T06:08:22.998Z</time></trkpt><trkpt lat="43.290519662841156" lon="10.537768269805088"><ele>12.0</ele><time>2026-04-04T06:08:24.998Z</time></trkpt><trkpt lat="43.29060989746049" lon="10.537721144670446"><ele>12.0</ele><time>2026-04-04T06:08:26.999Z</time></trkpt><trkpt lat="43.29069755072715" lon="10.537675776850795"><ele>12.0</ele><time>2026-04-04T06:08:28.999Z</time></trkpt><trkpt lat="43.290788091221046" lon="10.537628914169293"><ele>12.0</ele><time>2026-04-04T06:08:30.999Z</time></trkpt><trkpt lat="43.29087723938597" lon="10.537559874354818"><ele>12.0</ele><time>2026-04-04T06:08:32.999Z</time></trkpt><trkpt lat="43.29097324654445" lon="10.53750953015609"><ele>12.0</ele><time>2026-04-04T06:08:34.999Z</time></trkpt><trkpt lat="43.29107098265471" lon="10.537460597285202"><ele>12.0</ele><time>2026-04-04T06:08:36.999Z</time></trkpt><trkpt lat="43.291164417677955" lon="10.537413272171362"><ele>12.0</ele><time>2026-04-04T06:08:38.999Z</time></trkpt><trkpt lat="43.29125376836756" lon="10.537362086244867"><ele>12.0</ele><time>2026-04-04T06:08:40.999Z</time></trkpt><trkpt lat="43.29136275519485" lon="10.53732484426023"><ele>12.0</ele><time>2026-04-04T06:08:42.999Z</time></trkpt><trkpt lat="43.29145885031518" lon="10.537251360476914"><ele>12.0</ele><time>2026-04-04T06:08:44.999Z</time></trkpt><trkpt lat="43.29155860295076" lon="10.537197919205404"><ele>12.6</ele><time>2026-04-04T06:08:46.999Z</time></trkpt><trkpt lat="43.29165834607718" lon="10.53716701729395"><ele>13.2</ele><time>2026-04-04T06:08:48.999Z</time></trkpt><trkpt lat="43.29175146993698" lon="10.53709554415595"><ele>13.8</ele><time>2026-04-04T06:08:50.999Z</time></trkpt><trkpt lat="43.29185575280364" lon="10.53706161449931"><ele>14.4</ele><time>2026-04-04T06:08:52.999Z</time></trkpt><trkpt lat="43.29195048465072" lon="10.537011033649504"><ele>15.0</ele><time>2026-04-04T06:08:54.999Z</time></trkpt><trkpt lat="43.29204119204035" lon="10.536942230150405"><ele>15.2</ele><time>2026-04-04T06:08:56.999Z</time></trkpt><trkpt lat="43.29214252714712" lon="10.536908601419144"><ele>15.4</ele><time>2026-04-04T06:08:58.999Z</time></trkpt><trkpt lat="43.292240280556385" lon="10.536856509414747"><ele>15.600000000000001</ele><time>2026-04-04T06:09:00.999Z</time></trkpt><trkpt lat="43.29233407062258" lon="10.536806754380358"><ele>15.8</ele><time>2026-04-04T06:09:02.999Z</time></trkpt><trkpt lat="43.29243140887278" lon="10.536755211156045"><ele>16.0</ele><time>2026-04-04T06:09:04.999Z</time></trkpt><trkpt lat="43.292527348665956" lon="10.536704408461093"><ele>16.6</ele><time>2026-04-04T06:09:06.999Z</time></trkpt><trkpt lat="43.29261671961254" lon="10.536635238223388"><ele>17.200000000000003</ele><time>2026-04-04T06:09:08.999Z</time></trkpt><trkpt lat="43.292711607352715" lon="10.536585392459966"><ele>17.799999999999997</ele><time>2026-04-04T06:09:10.999Z</time></trkpt><trkpt lat="43.292808024414676" lon="10.536537850203306"><ele>18.4</ele><time>2026-04-04T06:09:12.999Z</time></trkpt><trkpt lat="43.29290605695154" lon="10.536487711393766"><ele>19.0</ele><time>2026-04-04T06:09:14.999Z</time></trkpt><trkpt lat="43.29300960725883" lon="10.536441130232928"><ele>18.4</ele><time>2026-04-04T06:09:16.999Z</time></trkpt><trkpt lat="43.29310757585386" lon="10.536375346015257"><ele>17.799999999999997</ele><time>2026-04-04T06:09:18.999Z</time></trkpt><trkpt lat="43.29321176491312" lon="10.536322217169861"><ele>17.200000000000003</ele><time>2026-04-04T06:09:20.999Z</time></trkpt><trkpt lat="43.29332235745954" lon="10.536283392591463"><ele>16.6</ele><time>2026-04-04T06:09:22.999Z</time></trkpt><trkpt lat="43.29342159997413" lon="10.53620943092486"><ele>16.0</ele><time>2026-04-04T06:09:24.999Z</time></trkpt><trkpt lat="43.29353026843347" lon="10.536158019348534"><ele>16.0</ele><time>2026-04-04T06:09:26.999Z</time></trkpt><trkpt lat="43.293640886980874" lon="10.536106807696513"><ele>16.0</ele><time>2026-04-04T06:09:28.999Z</time></trkpt><trkpt lat="43.29375166429919" lon="10.536040998405607"><ele>16.0</ele><time>2026-04-04T06:09:30.999Z</time></trkpt><trkpt lat="43.293866124183964" lon="10.535982564787798"><ele>16.0</ele><time>2026-04-04T06:09:32.999Z</time></trkpt><trkpt lat="43.29392737920094" lon="10.53595052291465"><ele>16.0</ele><time>2026-04-04T06:09:33.999Z</time></trkpt><trkpt lat="43.29404667328997" lon="10.535913468415101"><ele>15.666666666666666</ele><time>2026-04-04T06:09:35.999Z</time></trkpt><trkpt lat="43.29416158417462" lon="10.535852399074747"><ele>15.333333333333332</ele><time>2026-04-04T06:09:37.999Z</time></trkpt><trkpt lat="43.294279506575236" lon="10.535789477654271"><ele>15.0</ele><time>2026-04-04T06:09:39.998Z</time></trkpt><trkpt lat="43.29433544067524" lon="10.53573777385432"><ele>14.666666666666668</ele><time>2026-04-04T06:09:40.998Z</time></trkpt><trkpt lat="43.29439611605068" lon="10.535708398156"><ele>14.333333333333334</ele><time>2026-04-04T06:09:41.998Z</time></trkpt><trkpt lat="43.29445849847028" lon="10.535677116403303"><ele>14.0</ele><time>2026-04-04T06:09:42.998Z</time></trkpt><trkpt lat="43.294518062858245" lon="10.535647514001461"><ele>14.0</ele><time>2026-04-04T06:09:43.998Z</time></trkpt><trkpt lat="43.294632107332696" lon="10.53558884551641"><ele>14.0</ele><time>2026-04-04T06:09:45.998Z</time></trkpt><trkpt lat="43.29474369723608" lon="10.535529480467153"><ele>14.0</ele><time>2026-04-04T06:09:47.998Z</time></trkpt><trkpt lat="43.29485549645669" lon="10.535470406726972"><ele>14.0</ele><time>2026-04-04T06:09:49.998Z</time></trkpt><trkpt lat="43.2949698241946" lon="10.535414796669835"><ele>13.75</ele><time>2026-04-04T06:09:51.998Z</time></trkpt><trkpt lat="43.29507978770049" lon="10.535354435987575"><ele>13.5</ele><time>2026-04-04T06:09:53.998Z</time></trkpt><trkpt lat="43.295193247681" lon="10.535301453345221"><ele>13.25</ele><time>2026-04-04T06:09:55.998Z</time></trkpt><trkpt lat="43.29530416722345" lon="10.535238113076424"><ele>13.0</ele><time>2026-04-04T06:09:57.998Z</time></trkpt><trkpt lat="43.29541445057034" lon="10.535182804287512"><ele>13.0</ele><time>2026-04-04T06:09:59.998Z</time></trkpt><trkpt lat="43.29552780131523" lon="10.535127013223542"><ele>13.0</ele><time>2026-04-04T06:10:01.998Z</time></trkpt><trkpt lat="43.29563731650615" lon="10.535063972770907"><ele>13.0</ele><time>2026-04-04T06:10:03.998Z</time></trkpt><trkpt lat="43.29575229109977" lon="10.535009210787464"><ele>13.0</ele><time>2026-04-04T06:10:05.998Z</time></trkpt><trkpt lat="43.29586464341663" lon="10.53495459656976"><ele>13.166666666666666</ele><time>2026-04-04T06:10:07.998Z</time></trkpt><trkpt lat="43.29597374049031" lon="10.534887797791686"><ele>13.333333333333332</ele><time>2026-04-04T06:10:09.998Z</time></trkpt><trkpt lat="43.29603354902174" lon="10.53485479378321"><ele>13.5</ele><time>2026-04-04T06:10:10.998Z</time></trkpt><trkpt lat="43.29609796732932" lon="10.53482438165709"><ele>13.666666666666668</ele><time>2026-04-04T06:10:11.998Z</time></trkpt><trkpt lat="43.29616537114945" lon="10.534791066887779"><ele>13.833333333333334</ele><time>2026-04-04T06:10:12.998Z</time></trkpt><trkpt lat="43.296239114345276" lon="10.534749785252659"><ele>14.0</ele><time>2026-04-04T06:10:13.998Z</time></trkpt><trkpt lat="43.296315682031114" lon="10.534702264555909"><ele>14.000000000000002</ele><time>2026-04-04T06:10:14.998Z</time></trkpt><trkpt lat="43.29639292536697" lon="10.534656951424928"><ele>14.0</ele><time>2026-04-04T06:10:15.998Z</time></trkpt><trkpt lat="43.29646990672894" lon="10.534619198957554"><ele>14.0</ele><time>2026-04-04T06:10:16.998Z</time></trkpt><trkpt lat="43.29654399215659" lon="10.534580988582293"><ele>14.0</ele><time>2026-04-04T06:10:17.998Z</time></trkpt><trkpt lat="43.296614132190165" lon="10.534545462956203"><ele>14.000000000000002</ele><time>2026-04-04T06:10:18.998Z</time></trkpt><trkpt lat="43.29668537422852" lon="10.534517452809482"><ele>14.0</ele><time>2026-04-04T06:10:19.998Z</time></trkpt><trkpt lat="43.2967516011633" lon="10.534479733377765"><ele>13.799999999999999</ele><time>2026-04-04T06:10:20.998Z</time></trkpt><trkpt lat="43.29681367340099" lon="10.53444919107211"><ele>13.599999999999998</ele><time>2026-04-04T06:10:21.998Z</time></trkpt><trkpt lat="43.29687338501508" lon="10.534418922861521"><ele>13.4</ele><time>2026-04-04T06:10:22.998Z</time></trkpt><trkpt lat="43.29698023142208" lon="10.5343521049611"><ele>13.2</ele><time>2026-04-04T06:10:24.998Z</time></trkpt><trkpt lat="43.29708411023821" lon="10.534301160083386"><ele>13.0</ele><time>2026-04-04T06:10:26.998Z</time></trkpt><trkpt lat="43.29719084247252" lon="10.534249785126217"><ele>13.4</ele><time>2026-04-04T06:10:28.998Z</time></trkpt><trkpt lat="43.297296372149304" lon="10.534188833822922"><ele>13.8</ele><time>2026-04-04T06:10:30.999Z</time></trkpt><trkpt lat="43.297395388438744" lon="10.534139795903835"><ele>14.2</ele><time>2026-04-04T06:10:32.999Z</time></trkpt><trkpt lat="43.297491928046355" lon="10.534083458770818"><ele>14.6</ele><time>2026-04-04T06:10:34.999Z</time></trkpt><trkpt lat="43.29759092306835" lon="10.534028517864082"><ele>15.0</ele><time>2026-04-04T06:10:36.999Z</time></trkpt><trkpt lat="43.297658316835474" lon="10.534008353746712"><ele>15.0</ele><time>2026-04-04T06:10:39.999Z</time></trkpt><trkpt lat="43.29776554474595" lon="10.53393369945936"><ele>15.0</ele><time>2026-04-04T06:10:40.999Z</time></trkpt><trkpt lat="43.29782556459099" lon="10.533898772694616"><ele>15.0</ele><time>2026-04-04T06:10:42.999Z</time></trkpt><trkpt lat="43.29789516666406" lon="10.533884360619743"><ele>15.0</ele><time>2026-04-04T06:10:45.999Z</time></trkpt><trkpt lat="43.29788570979856" lon="10.533675706031282"><ele>15.0</ele><time>2026-04-04T06:10:48.999Z</time></trkpt><trkpt lat="43.29783933034242" lon="10.533529742139386"><ele>14.833333333333334</ele><time>2026-04-04T06:10:50.999Z</time></trkpt><trkpt lat="43.29779501102969" lon="10.53337521341428"><ele>14.666666666666668</ele><time>2026-04-04T06:10:52.999Z</time></trkpt><trkpt lat="43.29774920104914" lon="10.533214749755306"><ele>14.5</ele><time>2026-04-04T06:10:54.999Z</time></trkpt><trkpt lat="43.29772445442939" lon="10.533133198953914"><ele>14.333333333333334</ele><time>2026-04-04T06:10:55.999Z</time></trkpt><trkpt lat="43.297700463654365" lon="10.533050168660345"><ele>14.166666666666668</ele><time>2026-04-04T06:10:56.999Z</time></trkpt><trkpt lat="43.29767720160685" lon="10.532966427967818"><ele>14.0</ele><time>2026-04-04T06:10:57.999Z</time></trkpt><trkpt lat="43.297655430723815" lon="10.532882529863109"><ele>14.0</ele><time>2026-04-04T06:10:58.999Z</time></trkpt><trkpt lat="43.29762949325298" lon="10.532798951066711"><ele>14.0</ele><time>2026-04-04T06:10:59.999Z</time></trkpt><trkpt lat="43.29760295049869" lon="10.532700482327696"><ele>14.0</ele><time>2026-04-04T06:11:00.999Z</time></trkpt><trkpt lat="43.29757863390641" lon="10.532613628381391"><ele>14.0</ele><time>2026-04-04T06:11:01.999Z</time></trkpt><trkpt lat="43.2975562139667" lon="10.532524664790616"><ele>14.0</ele><time>2026-04-04T06:11:02.999Z</time></trkpt><trkpt lat="43.297531803482684" lon="10.532437747544115"><ele>14.0</ele><time>2026-04-04T06:11:03.999Z</time></trkpt><trkpt lat="43.29750487568652" lon="10.532349920064256"><ele>14.0</ele><time>2026-04-04T06:11:04.999Z</time></trkpt><trkpt lat="43.29747775942581" lon="10.532259970560734"><ele>14.0</ele><time>2026-04-04T06:11:05.999Z</time></trkpt><trkpt lat="43.297451834214506" lon="10.532170053197007"><ele>14.0</ele><time>2026-04-04T06:11:06.999Z</time></trkpt><trkpt lat="43.297427831694364" lon="10.532077201653129"><ele>14.0</ele><time>2026-04-04T06:11:07.999Z</time></trkpt><trkpt lat="43.297403812313455" lon="10.531984533512771"><ele>14.0</ele><time>2026-04-04T06:11:08.999Z</time></trkpt><trkpt lat="43.297377193623426" lon="10.531892465435646"><ele>14.0</ele><time>2026-04-04T06:11:09.999Z</time></trkpt><trkpt lat="43.29735045699968" lon="10.531800529477119"><ele>14.0</ele><time>2026-04-04T06:11:10.999Z</time></trkpt><trkpt lat="43.29732355322347" lon="10.531705513500212"><ele>14.0</ele><time>2026-04-04T06:11:11.999Z</time></trkpt><trkpt lat="43.29729649719072" lon="10.531609911270442"><ele>13.833333333333334</ele><time>2026-04-04T06:11:12.999Z</time></trkpt><trkpt lat="43.297269323253985" lon="10.5315125527997"><ele>13.666666666666668</ele><time>2026-04-04T06:11:13.999Z</time></trkpt><trkpt lat="43.29724243252949" lon="10.53141326009247"><ele>13.5</ele><time>2026-04-04T06:11:14.999Z</time></trkpt><trkpt lat="43.297214647901455" lon="10.53131501351817"><ele>13.333333333333332</ele><time>2026-04-04T06:11:15.999Z</time></trkpt><trkpt lat="43.29718713195108" lon="10.53121249091536"><ele>13.166666666666666</ele><time>2026-04-04T06:11:16.999Z</time></trkpt><trkpt lat="43.29715928997189" lon="10.531106227426566"><ele>13.0</ele><time>2026-04-04T06:11:17.999Z</time></trkpt><trkpt lat="43.29712920211767" lon="10.530999478165349"><ele>12.499999999999998</ele><time>2026-04-04T06:11:18.999Z</time></trkpt><trkpt lat="43.29709540176933" lon="10.53089351599783"><ele>12.0</ele><time>2026-04-04T06:11:19.999Z</time></trkpt><trkpt lat="43.29706434474331" lon="10.530784225278925"><ele>11.5</ele><time>2026-04-04T06:11:20.999Z</time></trkpt><trkpt lat="43.297035525793405" lon="10.530673484497566"><ele>11.0</ele><time>2026-04-04T06:11:21.999Z</time></trkpt><trkpt lat="43.29700489168778" lon="10.530565178597769"><ele>10.5</ele><time>2026-04-04T06:11:22.999Z</time></trkpt><trkpt lat="43.29697267202727" lon="10.530455673690787"><ele>10.0</ele><time>2026-04-04T06:11:23.999Z</time></trkpt><trkpt lat="43.29694359263563" lon="10.530344891342823"><ele>10.0</ele><time>2026-04-04T06:11:24.999Z</time></trkpt><trkpt lat="43.2969119208778" lon="10.530236492319075"><ele>10.0</ele><time>2026-04-04T06:11:25.999Z</time></trkpt><trkpt lat="43.29688182901235" lon="10.530117678463032"><ele>10.0</ele><time>2026-04-04T06:11:26.999Z</time></trkpt><trkpt lat="43.29685143895459" lon="10.530011976672633"><ele>10.0</ele><time>2026-04-04T06:11:27.999Z</time></trkpt><trkpt lat="43.29682167005339" lon="10.529906916188954"><ele>10.0</ele><time>2026-04-04T06:11:28.999Z</time></trkpt><trkpt lat="43.296789752531886" lon="10.529799756470986"><ele>10.0</ele><time>2026-04-04T06:11:29.999Z</time></trkpt><trkpt lat="43.29675478246977" lon="10.529693721837047"><ele>10.0</ele><time>2026-04-04T06:11:30.999Z</time></trkpt><trkpt lat="43.296728869904925" lon="10.529590181550946"><ele>10.0</ele><time>2026-04-04T06:11:31.999Z</time></trkpt><trkpt lat="43.296702350630575" lon="10.52949019699069"><ele>10.0</ele><time>2026-04-04T06:11:32.999Z</time></trkpt><trkpt lat="43.29667308977834" lon="10.529385134539774"><ele>10.0</ele><time>2026-04-04T06:11:33.999Z</time></trkpt><trkpt lat="43.29664513290423" lon="10.529293379210356"><ele>10.0</ele><time>2026-04-04T06:11:34.999Z</time></trkpt><trkpt lat="43.29661616619312" lon="10.529184645667364"><ele>10.0</ele><time>2026-04-04T06:11:35.999Z</time></trkpt><trkpt lat="43.2965904496764" lon="10.529079073060883"><ele>10.166666666666668</ele><time>2026-04-04T06:11:36.999Z</time></trkpt><trkpt lat="43.29656134257276" lon="10.528971179994475"><ele>10.333333333333334</ele><time>2026-04-04T06:11:37.999Z</time></trkpt><trkpt lat="43.29653107219395" lon="10.528870010942471"><ele>10.5</ele><time>2026-04-04T06:11:38.999Z</time></trkpt><trkpt lat="43.29650502784928" lon="10.52877162536801"><ele>10.666666666666666</ele><time>2026-04-04T06:11:39.999Z</time></trkpt><trkpt lat="43.29647641207283" lon="10.528673271303793"><ele>10.833333333333332</ele><time>2026-04-04T06:11:40.999Z</time></trkpt><trkpt lat="43.296448357461365" lon="10.528576680780837"><ele>11.0</ele><time>2026-04-04T06:11:41.999Z</time></trkpt><trkpt lat="43.29642644419056" lon="10.528486239327597"><ele>11.166666666666666</ele><time>2026-04-04T06:11:42.999Z</time></trkpt><trkpt lat="43.296399294632685" lon="10.528396299128019"><ele>11.333333333333332</ele><time>2026-04-04T06:11:43.999Z</time></trkpt><trkpt lat="43.29637458884786" lon="10.528303754753809"><ele>11.5</ele><time>2026-04-04T06:11:44.999Z</time></trkpt><trkpt lat="43.2963549828363" lon="10.528221451737334"><ele>11.666666666666666</ele><time>2026-04-04T06:11:45.999Z</time></trkpt><trkpt lat="43.296331621100286" lon="10.528139299278935"><ele>11.833333333333334</ele><time>2026-04-04T06:11:46.999Z</time></trkpt><trkpt lat="43.2962861857208" lon="10.527981322648719"><ele>12.0</ele><time>2026-04-04T06:11:48.999Z</time></trkpt><trkpt lat="43.29626034935527" lon="10.527901294158626"><ele>11.6</ele><time>2026-04-04T06:11:49.998Z</time></trkpt><trkpt lat="43.29621808376224" lon="10.527742862360038"><ele>11.2</ele><time>2026-04-04T06:11:51.998Z</time></trkpt><trkpt lat="43.296169622483845" lon="10.52758416557885"><ele>10.8</ele><time>2026-04-04T06:11:53.998Z</time></trkpt><trkpt lat="43.29612402824178" lon="10.527422250409876"><ele>10.4</ele><time>2026-04-04T06:11:55.998Z</time></trkpt><trkpt lat="43.296101336471615" lon="10.527341488008481"><ele>10.0</ele><time>2026-04-04T06:11:56.998Z</time></trkpt><trkpt lat="43.296056128704464" lon="10.527187755998309"><ele>9.6</ele><time>2026-04-04T06:11:58.998Z</time></trkpt><trkpt lat="43.29601052066593" lon="10.527039254123846"><ele>9.2</ele><time>2026-04-04T06:12:00.998Z</time></trkpt><trkpt lat="43.29599690560085" lon="10.526949200262004"><ele>8.8</ele><time>2026-04-04T06:12:01.998Z</time></trkpt><trkpt lat="43.295948127581276" lon="10.526810318923674"><ele>8.4</ele><time>2026-04-04T06:12:03.998Z</time></trkpt><trkpt lat="43.295903729124326" lon="10.526672898514333"><ele>8.0</ele><time>2026-04-04T06:12:05.998Z</time></trkpt><trkpt lat="43.29587319632278" lon="10.526552050561847"><ele>8.0</ele><time>2026-04-04T06:12:07.998Z</time></trkpt><trkpt lat="43.29582785819715" lon="10.526417108517558"><ele>8.0</ele><time>2026-04-04T06:12:09.998Z</time></trkpt><trkpt lat="43.29578952893558" lon="10.526289206124117"><ele>8.0</ele><time>2026-04-04T06:12:11.998Z</time></trkpt><trkpt lat="43.29575321061684" lon="10.52615126456271"><ele>8.0</ele><time>2026-04-04T06:12:13.998Z</time></trkpt><trkpt lat="43.295691412337916" lon="10.526011177826534"><ele>8.0</ele><time>2026-04-04T06:12:15.998Z</time></trkpt><trkpt lat="43.295634655234274" lon="10.525866992305353"><ele>8.600000000000001</ele><time>2026-04-04T06:12:17.998Z</time></trkpt><trkpt lat="43.29557086602669" lon="10.52573635053853"><ele>9.200000000000001</ele><time>2026-04-04T06:12:19.998Z</time></trkpt><trkpt lat="43.295456405461" lon="10.525752453269682"><ele>9.8</ele><time>2026-04-04T06:12:21.998Z</time></trkpt><trkpt lat="43.29535671358863" lon="10.525820101136205"><ele>10.4</ele><time>2026-04-04T06:12:23.998Z</time></trkpt><trkpt lat="43.295284221824545" lon="10.525774295477502"><ele>11.0</ele><time>2026-04-04T06:12:25.998Z</time></trkpt><trkpt lat="43.295265505776165" lon="10.525691037350665"><ele>11.0</ele><time>2026-04-04T06:12:26.998Z</time></trkpt><trkpt lat="43.29537042098923" lon="10.52560398382558"><ele>11.0</ele><time>2026-04-04T06:12:28.998Z</time></trkpt><trkpt lat="43.295449479211356" lon="10.525556374695158"><ele>11.0</ele><time>2026-04-04T06:12:30.998Z</time></trkpt><trkpt lat="43.29545736449948" lon="10.525418324633868"><ele>11.0</ele><time>2026-04-04T06:12:32.998Z</time></trkpt><trkpt lat="43.295424280528024" lon="10.525297396604456"><ele>11.0</ele><time>2026-04-04T06:12:34.998Z</time></trkpt><trkpt lat="43.2953967966815" lon="10.525190446363673"><ele>10.666666666666666</ele><time>2026-04-04T06:12:36.999Z</time></trkpt><trkpt lat="43.29536636683856" lon="10.525082624212699"><ele>10.333333333333332</ele><time>2026-04-04T06:12:38.999Z</time></trkpt><trkpt lat="43.295334938936044" lon="10.524981814136202"><ele>10.0</ele><time>2026-04-04T06:12:41.999Z</time></trkpt><trkpt lat="43.295250234775864" lon="10.524978624061117"><ele>9.666666666666666</ele><time>2026-04-04T06:12:44.999Z</time></trkpt><trkpt lat="43.295147738429975" lon="10.52504474876741"><ele>9.333333333333334</ele><time>2026-04-04T06:12:46.999Z</time></trkpt><trkpt lat="43.29507955840962" lon="10.525078209445244"><ele>9.0</ele><time>2026-04-04T06:12:47.999Z</time></trkpt><trkpt lat="43.295010901844456" lon="10.525107201260342"><ele>9.000000000000002</ele><time>2026-04-04T06:12:48.999Z</time></trkpt><trkpt lat="43.29492207274357" lon="10.525163511780114"><ele>9.0</ele><time>2026-04-04T06:12:50.999Z</time></trkpt><trkpt lat="43.29486591215373" lon="10.525223682246759"><ele>9.0</ele><time>2026-04-04T06:12:53.999Z</time></trkpt><trkpt lat="43.29485786881937" lon="10.525331392695646"><ele>9.0</ele><time>2026-04-04T06:12:55.999Z</time></trkpt><trkpt lat="43.29488206388092" lon="10.525411364922208"><ele>9.0</ele><time>2026-04-04T06:12:57.999Z</time></trkpt><trkpt lat="43.29490399219974" lon="10.525499881354596"><ele>9.000000000000002</ele><time>2026-04-04T06:12:59.999Z</time></trkpt><trkpt lat="43.294925350146904" lon="10.525586096482764"><ele>9.0</ele><time>2026-04-04T06:13:01.999Z</time></trkpt><trkpt lat="43.294945788158685" lon="10.525668598163042"><ele>9.333333333333334</ele><time>2026-04-04T06:13:03.999Z</time></trkpt><trkpt lat="43.29497691432841" lon="10.525757225944902"><ele>9.666666666666666</ele><time>2026-04-04T06:13:06.999Z</time></trkpt><trkpt lat="43.295103038999365" lon="10.525781652831562"><ele>10.0</ele><time>2026-04-04T06:13:07.999Z</time></trkpt><trkpt lat="43.29511595231603" lon="10.525696707229084"><ele>10.333333333333332</ele><time>2026-04-04T06:13:08.999Z</time></trkpt><trkpt lat="43.29518198465531" lon="10.525681844786654"><ele>10.666666666666666</ele><time>2026-04-04T06:13:11.999Z</time></trkpt><trkpt lat="43.29528222027988" lon="10.525676069800985"><ele>11.0</ele><time>2026-04-04T06:13:13.999Z</time></trkpt><trkpt lat="43.29529805118062" lon="10.52558368067958"><ele>11.0</ele><time>2026-04-04T06:13:15.999Z</time></trkpt></trkseg></trk></gpx>